<?xml version='1.0' encoding='UTF-8'?><gpx version="1.1" creator="JPX - https://github.com/jenetics/jpx" xmlns="http://www.topografix.com/GPX/1/1"><trk><trkseg><trkpt lat="49.13375749715409" lon="2.5079215327875173"><ele>77.83333333333333</ele><time>2026-04-24T12:58:32.999Z</time></trkpt><trkpt lat="49.13380551930846" lon="2.507840971713649"><ele>77.66666666666667</ele><time>2026-04-24T12:58:34.999Z</time></trkpt><trkpt lat="49.13383686761494" lon="2.5077373587787974"><ele>77.5</ele><time>2026-04-24T12:58:36.999Z</time></trkpt><trkpt lat="49.133875111599906" lon="2.5076380923122183"><ele>77.33333333333334</ele><time>2026-04-24T12:58:38.999Z</time></trkpt><trkpt lat="49.1339105628385" lon="2.5075320663444476"><ele>77.16666666666667</ele><time>2026-04-24T12:58:40.999Z</time></trkpt><trkpt lat="49.13395034112778" lon="2.5074370611778973"><ele>77.0</ele><time>2026-04-24T12:58:42.999Z</time></trkpt><trkpt lat="49.13400145604672" lon="2.507342053815139"><ele>77.0</ele><time>2026-04-24T12:58:44.999Z</time></trkpt><trkpt lat="49.13403078103583" lon="2.507230609822843"><ele>77.0</ele><time>2026-04-24T12:58:46.999Z</time></trkpt><trkpt lat="49.134067017414104" lon="2.5071270117571287"><ele>77.0</ele><time>2026-04-24T12:58:48.999Z</time></trkpt><trkpt lat="49.13410087793508" lon="2.507036444922739"><ele>77.0</ele><time>2026-04-24T12:58:50.999Z</time></trkpt><trkpt lat="49.13413487174959" lon="2.5069545243485796"><ele>77.0</ele><time>2026-04-24T12:58:52.999Z</time></trkpt><trkpt lat="49.13418001365182" lon="2.5068349542224713"><ele>77.0</ele><time>2026-04-24T12:58:55.998Z</time></trkpt><trkpt lat="49.1342230697315" lon="2.5067612616316035"><ele>77.0</ele><time>2026-04-24T12:58:57.998Z</time></trkpt><trkpt lat="49.134312746095176" lon="2.5067556327998815"><ele>77.5</ele><time>2026-04-24T12:59:00.998Z</time></trkpt><trkpt lat="49.13438833953294" lon="2.5067964996554517"><ele>78.0</ele><time>2026-04-24T12:59:02.998Z</time></trkpt><trkpt lat="49.13445813618456" lon="2.506856998682136"><ele>78.5</ele><time>2026-04-24T12:59:04.998Z</time></trkpt><trkpt lat="49.1345302017556" lon="2.5069073404931532"><ele>79.0</ele><time>2026-04-24T12:59:06.998Z</time></trkpt><trkpt lat="49.13461260946736" lon="2.5069415505029387"><ele>79.5</ele><time>2026-04-24T12:59:08.998Z</time></trkpt><trkpt lat="49.134693683158154" lon="2.506985058497448"><ele>80.0</ele><time>2026-04-24T12:59:10.998Z</time></trkpt><trkpt lat="49.134787058793535" lon="2.5070224069987814"><ele>80.0</ele><time>2026-04-24T12:59:12.998Z</time></trkpt><trkpt lat="49.134886365223934" lon="2.5070469464061182"><ele>80.0</ele><time>2026-04-24T12:59:14.998Z</time></trkpt><trkpt lat="49.1349872488562" lon="2.5070635828234087"><ele>80.0</ele><time>2026-04-24T12:59:16.998Z</time></trkpt><trkpt lat="49.135077432732466" lon="2.5070814845705987"><ele>80.0</ele><time>2026-04-24T12:59:18.998Z</time></trkpt><trkpt lat="49.13516592134287" lon="2.5071086764039547"><ele>80.0</ele><time>2026-04-24T12:59:20.998Z</time></trkpt><trkpt lat="49.13525395239755" lon="2.5071352716192274"><ele>79.0</ele><time>2026-04-24T12:59:22.998Z</time></trkpt><trkpt lat="49.135343719323494" lon="2.507146012249082"><ele>78.0</ele><time>2026-04-24T12:59:24.998Z</time></trkpt><trkpt lat="49.13543301787827" lon="2.507159274932444"><ele>77.0</ele><time>2026-04-24T12:59:26.998Z</time></trkpt><trkpt lat="49.13552633815859" lon="2.507168215782099"><ele>76.0</ele><time>2026-04-24T12:59:28.998Z</time></trkpt><trkpt lat="49.135624323715554" lon="2.5071835635269544"><ele>75.0</ele><time>2026-04-24T12:59:30.998Z</time></trkpt><trkpt lat="49.13573299384188" lon="2.5072100498029903"><ele>75.0</ele><time>2026-04-24T12:59:32.997Z</time></trkpt><trkpt lat="49.13584482696791" lon="2.5072262260269533"><ele>75.0</ele><time>2026-04-24T12:59:34.997Z</time></trkpt><trkpt lat="49.13594617715856" lon="2.5072070340194554"><ele>75.0</ele><time>2026-04-24T12:59:36.997Z</time></trkpt><trkpt lat="49.13603998316986" lon="2.5071725522141044"><ele>75.0</ele><time>2026-04-24T12:59:38.997Z</time></trkpt><trkpt lat="49.13612356897013" lon="2.5071326428958773"><ele>75.0</ele><time>2026-04-24T12:59:40.997Z</time></trkpt><trkpt lat="49.136229155220356" lon="2.507164315786575"><ele>75.0</ele><time>2026-04-24T12:59:42.997Z</time></trkpt><trkpt lat="49.13633517477407" lon="2.5071468381221997"><ele>75.0</ele><time>2026-04-24T12:59:44.997Z</time></trkpt><trkpt lat="49.13643649680735" lon="2.507129973189032"><ele>75.0</ele><time>2026-04-24T12:59:46.997Z</time></trkpt><trkpt lat="49.13653045535957" lon="2.507114007179906"><ele>75.0</ele><time>2026-04-24T12:59:48.999Z</time></trkpt><trkpt lat="49.13660515986774" lon="2.5070969112861197"><ele>75.0</ele><time>2026-04-24T12:59:50.999Z</time></trkpt><trkpt lat="49.136720023316386" lon="2.5070641149077426"><ele>75.83333333333333</ele><time>2026-04-24T12:59:52.999Z</time></trkpt><trkpt lat="49.13678660248415" lon="2.5070107748885198"><ele>76.66666666666667</ele><time>2026-04-24T12:59:53.999Z</time></trkpt><trkpt lat="49.13686190058413" lon="2.5069520866068675"><ele>77.5</ele><time>2026-04-24T12:59:54.999Z</time></trkpt><trkpt lat="49.136943475025554" lon="2.5069936923575513"><ele>78.33333333333334</ele><time>2026-04-24T12:59:57.999Z</time></trkpt><trkpt lat="49.13703888570481" lon="2.5069842121354933"><ele>79.16666666666667</ele><time>2026-04-24T12:59:59.999Z</time></trkpt><trkpt lat="49.13712674466328" lon="2.5069730888709945"><ele>80.0</ele><time>2026-04-24T13:00:02Z</time></trkpt><trkpt lat="49.13722528719187" lon="2.506959925654477"><ele>80.0</ele><time>2026-04-24T13:00:03.999Z</time></trkpt><trkpt lat="49.13732851381786" lon="2.506947076329284"><ele>80.0</ele><time>2026-04-24T13:00:05.999Z</time></trkpt><trkpt lat="49.137438053665186" lon="2.5069368296069787"><ele>80.0</ele><time>2026-04-24T13:00:07.999Z</time></trkpt><trkpt lat="49.13754050878428" lon="2.507041958489169"><ele>80.0</ele><time>2026-04-24T13:00:09.999Z</time></trkpt><trkpt lat="49.13762547436633" lon="2.507165046907657"><ele>80.0</ele><time>2026-04-24T13:00:11.999Z</time></trkpt><trkpt lat="49.13771521421652" lon="2.507264157559787"><ele>80.0</ele><time>2026-04-24T13:00:13.999Z</time></trkpt><trkpt lat="49.13781042678674" lon="2.507335358811156"><ele>80.0</ele><time>2026-04-24T13:00:15.999Z</time></trkpt><trkpt lat="49.137903122632714" lon="2.5074305004462394"><ele>80.0</ele><time>2026-04-24T13:00:17.999Z</time></trkpt><trkpt lat="49.13798769096858" lon="2.5074562602298776"><ele>80.0</ele><time>2026-04-24T13:00:19.999Z</time></trkpt><trkpt lat="49.13810038810464" lon="2.5074597462335455"><ele>80.0</ele><time>2026-04-24T13:00:21.999Z</time></trkpt><trkpt lat="49.138188848173954" lon="2.507498192754642"><ele>80.0</ele><time>2026-04-24T13:00:23.999Z</time></trkpt><trkpt lat="49.13826901745271" lon="2.5074339692660335"><ele>80.0</ele><time>2026-04-24T13:00:25.999Z</time></trkpt><trkpt lat="49.13833794100473" lon="2.5075305309266827"><ele>80.0</ele><time>2026-04-24T13:00:27.999Z</time></trkpt><trkpt lat="49.1384027838117" lon="2.5075598207359935"><ele>80.0</ele><time>2026-04-24T13:00:29.999Z</time></trkpt><trkpt lat="49.13847128661433" lon="2.5075172346596672"><ele>80.0</ele><time>2026-04-24T13:00:31.999Z</time></trkpt><trkpt lat="49.13854145829166" lon="2.5074375124229307"><ele>78.8</ele><time>2026-04-24T13:00:33.999Z</time></trkpt><trkpt lat="49.138623321879244" lon="2.507331959481009"><ele>77.6</ele><time>2026-04-24T13:00:36.999Z</time></trkpt><trkpt lat="49.13868906059608" lon="2.5072234971623657"><ele>76.4</ele><time>2026-04-24T13:00:38.999Z</time></trkpt><trkpt lat="49.13878366810816" lon="2.5071772840964672"><ele>75.2</ele><time>2026-04-24T13:00:40.999Z</time></trkpt><trkpt lat="49.13886560782619" lon="2.5071401371701505"><ele>74.0</ele><time>2026-04-24T13:00:42.999Z</time></trkpt><trkpt lat="49.138928946040565" lon="2.507028573330094"><ele>73.8</ele><time>2026-04-24T13:00:44.999Z</time></trkpt><trkpt lat="49.13896893123648" lon="2.5068988666751215"><ele>73.60000000000001</ele><time>2026-04-24T13:00:46.999Z</time></trkpt><trkpt lat="49.139036419333024" lon="2.50676852627303"><ele>73.4</ele><time>2026-04-24T13:00:48.999Z</time></trkpt><trkpt lat="49.139069770178814" lon="2.506629408956836"><ele>73.2</ele><time>2026-04-24T13:00:50.999Z</time></trkpt><trkpt lat="49.13912195202224" lon="2.506506041652155"><ele>73.0</ele><time>2026-04-24T13:00:52.998Z</time></trkpt><trkpt lat="49.139179862919" lon="2.506404799442709"><ele>73.0</ele><time>2026-04-24T13:00:54.998Z</time></trkpt><trkpt lat="49.13921767790219" lon="2.506276878293217"><ele>73.0</ele><time>2026-04-24T13:00:56.998Z</time></trkpt><trkpt lat="49.13927791099207" lon="2.506205320920336"><ele>73.0</ele><time>2026-04-24T13:00:58.998Z</time></trkpt><trkpt lat="49.13936724004103" lon="2.506165369884491"><ele>73.0</ele><time>2026-04-24T13:01:00.998Z</time></trkpt><trkpt lat="49.13943575582735" lon="2.506093499671883"><ele>73.0</ele><time>2026-04-24T13:01:02.998Z</time></trkpt><trkpt lat="49.139518260548364" lon="2.506115518416306"><ele>73.0</ele><time>2026-04-24T13:01:04.998Z</time></trkpt><trkpt lat="49.13958196614531" lon="2.506165685650126"><ele>73.0</ele><time>2026-04-24T13:01:06.998Z</time></trkpt><trkpt lat="49.13966359804275" lon="2.5062227552971073"><ele>73.0</ele><time>2026-04-24T13:01:08.998Z</time></trkpt><trkpt lat="49.139715445656925" lon="2.506304838540431"><ele>73.0</ele><time>2026-04-24T13:01:10.998Z</time></trkpt><trkpt lat="49.139801129555465" lon="2.5063050216818947"><ele>73.0</ele><time>2026-04-24T13:01:12.998Z</time></trkpt><trkpt lat="49.13987979785844" lon="2.506336604822406"><ele>73.0</ele><time>2026-04-24T13:01:14.998Z</time></trkpt><trkpt lat="49.13995712197886" lon="2.5064138206548283"><ele>73.0</ele><time>2026-04-24T13:01:16.998Z</time></trkpt><trkpt lat="49.1400262349082" lon="2.506482906378827"><ele>72.8</ele><time>2026-04-24T13:01:18.998Z</time></trkpt><trkpt lat="49.14009039431404" lon="2.5065565345866037"><ele>72.6</ele><time>2026-04-24T13:01:20.998Z</time></trkpt><trkpt lat="49.140172720986484" lon="2.506656118005583"><ele>72.4</ele><time>2026-04-24T13:01:22.998Z</time></trkpt><trkpt lat="49.14023289158747" lon="2.5067599125541"><ele>72.2</ele><time>2026-04-24T13:01:24.998Z</time></trkpt><trkpt lat="49.14029596184193" lon="2.506878919150339"><ele>72.0</ele><time>2026-04-24T13:01:26.998Z</time></trkpt><trkpt lat="49.1403816609268" lon="2.5069481180440896"><ele>72.0</ele><time>2026-04-24T13:01:28.998Z</time></trkpt><trkpt lat="49.14046205515034" lon="2.506976402580669"><ele>72.0</ele><time>2026-04-24T13:01:30.998Z</time></trkpt><trkpt lat="49.140542593780914" lon="2.507065628275251"><ele>72.0</ele><time>2026-04-24T13:01:33.997Z</time></trkpt><trkpt lat="49.140599886049536" lon="2.50712416832831"><ele>72.0</ele><time>2026-04-24T13:01:35.997Z</time></trkpt><trkpt lat="49.140674454097805" lon="2.507129124773632"><ele>72.0</ele><time>2026-04-24T13:01:37.997Z</time></trkpt><trkpt lat="49.14074685836659" lon="2.5071144859577412"><ele>72.0</ele><time>2026-04-24T13:01:39.997Z</time></trkpt><trkpt lat="49.14081294135067" lon="2.507123764254221"><ele>71.57142857142858</ele><time>2026-04-24T13:01:41.997Z</time></trkpt><trkpt lat="49.14087786718874" lon="2.507127645318289"><ele>71.14285714285714</ele><time>2026-04-24T13:01:43.997Z</time></trkpt><trkpt lat="49.140942894783194" lon="2.507124746392654"><ele>70.71428571428572</ele><time>2026-04-24T13:01:45.997Z</time></trkpt><trkpt lat="49.14101550122755" lon="2.507133424753471"><ele>70.28571428571429</ele><time>2026-04-24T13:01:47.997Z</time></trkpt><trkpt lat="49.141088901497234" lon="2.5071310581926465"><ele>69.85714285714286</ele><time>2026-04-24T13:01:49.997Z</time></trkpt><trkpt lat="49.14115390955523" lon="2.5071147948200867"><ele>69.42857142857143</ele><time>2026-04-24T13:01:51.997Z</time></trkpt><trkpt lat="49.14122010782551" lon="2.507121170963448"><ele>69.0</ele><time>2026-04-24T13:01:53.997Z</time></trkpt><trkpt lat="49.14129634249909" lon="2.5071192767194166"><ele>69.0</ele><time>2026-04-24T13:01:56Z</time></trkpt><trkpt lat="49.14140005891128" lon="2.5071096621182662"><ele>69.0</ele><time>2026-04-24T13:01:59Z</time></trkpt><trkpt lat="49.14144527206492" lon="2.507020356108781"><ele>69.0</ele><time>2026-04-24T13:02:01Z</time></trkpt><trkpt lat="49.14144934255921" lon="2.5069203982843833"><ele>69.0</ele><time>2026-04-24T13:02:03Z</time></trkpt><trkpt lat="49.14147042864683" lon="2.506793873131753"><ele>69.0</ele><time>2026-04-24T13:02:06Z</time></trkpt><trkpt lat="49.141475082883" lon="2.506679685573303"><ele>69.0</ele><time>2026-04-24T13:02:08Z</time></trkpt><trkpt lat="49.141498895097136" lon="2.5065844660108794"><ele>69.71428571428572</ele><time>2026-04-24T13:02:10Z</time></trkpt><trkpt lat="49.141517265183474" lon="2.5064722341827115"><ele>70.42857142857143</ele><time>2026-04-24T13:02:12Z</time></trkpt><trkpt lat="49.14154452772507" lon="2.506373306015064"><ele>71.14285714285714</ele><time>2026-04-24T13:02:14Z</time></trkpt><trkpt lat="49.141553099316276" lon="2.5062773452600204"><ele>71.85714285714286</ele><time>2026-04-24T13:02:16Z</time></trkpt><trkpt lat="49.141575745373174" lon="2.506175139869559"><ele>72.57142857142857</ele><time>2026-04-24T13:02:18Z</time></trkpt><trkpt lat="49.14159093551737" lon="2.5060773100210363"><ele>73.28571428571429</ele><time>2026-04-24T13:02:20Z</time></trkpt><trkpt lat="49.141608325558835" lon="2.5059747027594743"><ele>74.0</ele><time>2026-04-24T13:02:22Z</time></trkpt><trkpt lat="49.14162511246784" lon="2.5058760079541575"><ele>74.14285714285714</ele><time>2026-04-24T13:02:24Z</time></trkpt><trkpt lat="49.14163463498082" lon="2.505780572268271"><ele>74.28571428571428</ele><time>2026-04-24T13:02:26Z</time></trkpt><trkpt lat="49.1416544991711" lon="2.505670136473908"><ele>74.42857142857142</ele><time>2026-04-24T13:02:27.999Z</time></trkpt><trkpt lat="49.14167602765226" lon="2.505539113059898"><ele>74.57142857142857</ele><time>2026-04-24T13:02:30.999Z</time></trkpt><trkpt lat="49.14169818197469" lon="2.505444738673717"><ele>74.71428571428571</ele><time>2026-04-24T13:02:32.999Z</time></trkpt><trkpt lat="49.14171315500584" lon="2.505342132304125"><ele>74.85714285714285</ele><time>2026-04-24T13:02:34.999Z</time></trkpt><trkpt lat="49.14172537032031" lon="2.5052406168934858"><ele>75.0</ele><time>2026-04-24T13:02:36.999Z</time></trkpt><trkpt lat="49.141739032997144" lon="2.5051430466893034"><ele>75.16666666666667</ele><time>2026-04-24T13:02:38.999Z</time></trkpt><trkpt lat="49.141760614107284" lon="2.505003579148578"><ele>75.33333333333333</ele><time>2026-04-24T13:02:41.999Z</time></trkpt><trkpt lat="49.141782838893675" lon="2.504854175553936"><ele>75.5</ele><time>2026-04-24T13:02:44.999Z</time></trkpt><trkpt lat="49.14180230692519" lon="2.504752060067148"><ele>75.66666666666666</ele><time>2026-04-24T13:02:46.999Z</time></trkpt><trkpt lat="49.141808857034185" lon="2.504651561097967"><ele>75.83333333333333</ele><time>2026-04-24T13:02:48.999Z</time></trkpt><trkpt lat="49.141870378344564" lon="2.5045894679573917"><ele>76.0</ele><time>2026-04-24T13:02:51.999Z</time></trkpt><trkpt lat="49.141946301327614" lon="2.5045564258200863"><ele>76.0</ele><time>2026-04-24T13:03:23.998Z</time></trkpt><trkpt lat="49.14202622315508" lon="2.504559996757712"><ele>76.0</ele><time>2026-04-24T13:06:54.999Z</time></trkpt><trkpt lat="49.142135646173074" lon="2.504558658027585"><ele>76.0</ele><time>2026-04-24T13:06:58.999Z</time></trkpt><trkpt lat="49.14222024957693" lon="2.5045584520754356"><ele>76.0</ele><time>2026-04-24T13:07:01.999Z</time></trkpt><trkpt lat="49.14229315987298" lon="2.5045514987519124"><ele>76.0</ele><time>2026-04-24T13:07:03.999Z</time></trkpt><trkpt lat="49.14252687549702" lon="2.5045460964296846"><ele>76.39999999999999</ele><time>2026-04-24T13:07:10.999Z</time></trkpt><trkpt lat="49.14261139371811" lon="2.504531990596946"><ele>76.8</ele><time>2026-04-24T13:07:12.999Z</time></trkpt><trkpt lat="49.1426912775541" lon="2.5045240278798406"><ele>77.19999999999999</ele><time>2026-04-24T13:07:14.999Z</time></trkpt><trkpt lat="49.142779486076506" lon="2.504544859862806"><ele>77.6</ele><time>2026-04-24T13:07:17.999Z</time></trkpt><trkpt lat="49.14291818767046" lon="2.504544286772284"><ele>78.0</ele><time>2026-04-24T13:07:21.998Z</time></trkpt><trkpt lat="49.14314415395012" lon="2.5045551877873136"><ele>78.16666666666667</ele><time>2026-04-24T13:07:27.998Z</time></trkpt><trkpt lat="49.143225065745206" lon="2.504552033489622"><ele>78.33333333333333</ele><time>2026-04-24T13:07:29.998Z</time></trkpt><trkpt lat="49.14330929794831" lon="2.504541165108345"><ele>78.5</ele><time>2026-04-24T13:07:31.998Z</time></trkpt><trkpt lat="49.14339376744413" lon="2.504508668100232"><ele>78.66666666666666</ele><time>2026-04-24T13:07:33.998Z</time></trkpt><trkpt lat="49.14348367611399" lon="2.5045383693752252"><ele>78.83333333333333</ele><time>2026-04-24T13:07:35.998Z</time></trkpt><trkpt lat="49.1435780733626" lon="2.5045163700325492"><ele>79.0</ele><time>2026-04-24T13:07:37.998Z</time></trkpt><trkpt lat="49.1436605168596" lon="2.504512600189016"><ele>79.0</ele><time>2026-04-24T13:07:39.998Z</time></trkpt><trkpt lat="49.14374478866194" lon="2.5045042272902838"><ele>79.0</ele><time>2026-04-24T13:07:41.998Z</time></trkpt><trkpt lat="49.1438288065991" lon="2.504504712823552"><ele>79.0</ele><time>2026-04-24T13:07:43.998Z</time></trkpt><trkpt lat="49.14390985996755" lon="2.5044974591366183"><ele>79.0</ele><time>2026-04-24T13:07:45.998Z</time></trkpt><trkpt lat="49.143989737556986" lon="2.5045070934329265"><ele>79.0</ele><time>2026-04-24T13:07:47.998Z</time></trkpt><trkpt lat="49.14405542561055" lon="2.5044618973991417"><ele>79.0</ele><time>2026-04-24T13:07:49.998Z</time></trkpt><trkpt lat="49.144128236771635" lon="2.504512469091934"><ele>78.5</ele><time>2026-04-24T13:07:52.998Z</time></trkpt><trkpt lat="49.14419690548245" lon="2.5044974613408924"><ele>78.0</ele><time>2026-04-24T13:07:54.997Z</time></trkpt><trkpt lat="49.144268512029655" lon="2.504495284034806"><ele>77.5</ele><time>2026-04-24T13:07:56.997Z</time></trkpt><trkpt lat="49.144357129269906" lon="2.504489526931409"><ele>77.0</ele><time>2026-04-24T13:07:58.997Z</time></trkpt><trkpt lat="49.14444353741817" lon="2.5044907142958834"><ele>76.5</ele><time>2026-04-24T13:08:00.997Z</time></trkpt><trkpt lat="49.14451657617637" lon="2.5044950337872214"><ele>76.0</ele><time>2026-04-24T13:08:02.997Z</time></trkpt><trkpt lat="49.14460954557421" lon="2.504496539490879"><ele>76.0</ele><time>2026-04-24T13:08:04.997Z</time></trkpt><trkpt lat="49.1447094628446" lon="2.504490163854235"><ele>76.0</ele><time>2026-04-24T13:08:06.997Z</time></trkpt><trkpt lat="49.14480687241785" lon="2.504480365262135"><ele>76.0</ele><time>2026-04-24T13:08:08.997Z</time></trkpt><trkpt lat="49.1448935218429" lon="2.504478784661892"><ele>76.0</ele><time>2026-04-24T13:08:11Z</time></trkpt><trkpt lat="49.1449885859697" lon="2.504474663539642"><ele>76.0</ele><time>2026-04-24T13:08:13Z</time></trkpt><trkpt lat="49.145080443695676" lon="2.5044680212251325"><ele>75.5</ele><time>2026-04-24T13:08:15Z</time></trkpt><trkpt lat="49.14517193353326" lon="2.504468188917694"><ele>75.0</ele><time>2026-04-24T13:08:17Z</time></trkpt><trkpt lat="49.14525710623391" lon="2.5044625911833798"><ele>74.5</ele><time>2026-04-24T13:08:19Z</time></trkpt><trkpt lat="49.14534041656245" lon="2.50446097431601"><ele>74.0</ele><time>2026-04-24T13:08:21Z</time></trkpt><trkpt lat="49.145421951500126" lon="2.504454788137563"><ele>73.5</ele><time>2026-04-24T13:08:23Z</time></trkpt><trkpt lat="49.14549985974479" lon="2.5044628575833596"><ele>73.0</ele><time>2026-04-24T13:08:25Z</time></trkpt><trkpt lat="49.14557989286116" lon="2.5044642086550724"><ele>73.0</ele><time>2026-04-24T13:08:27Z</time></trkpt><trkpt lat="49.14565857077821" lon="2.5044699805239965"><ele>73.0</ele><time>2026-04-24T13:08:29Z</time></trkpt><trkpt lat="49.14575774842118" lon="2.504457604884992"><ele>73.0</ele><time>2026-04-24T13:08:31Z</time></trkpt><trkpt lat="49.14583290441003" lon="2.504466862098291"><ele>73.0</ele><time>2026-04-24T13:08:33Z</time></trkpt><trkpt lat="49.145926836654844" lon="2.5044524010832534"><ele>73.0</ele><time>2026-04-24T13:08:35Z</time></trkpt><trkpt lat="49.146009841219986" lon="2.5044509196960116"><ele>73.0</ele><time>2026-04-24T13:08:37Z</time></trkpt><trkpt lat="49.1461013463734" lon="2.5044466954346007"><ele>71.6</ele><time>2026-04-24T13:08:39Z</time></trkpt><trkpt lat="49.14618486379507" lon="2.5044506625860072"><ele>70.19999999999999</ele><time>2026-04-24T13:08:41Z</time></trkpt><trkpt lat="49.14627528140737" lon="2.504444646059965"><ele>68.8</ele><time>2026-04-24T13:08:43Z</time></trkpt><trkpt lat="49.146377233545735" lon="2.504433017862365"><ele>67.39999999999999</ele><time>2026-04-24T13:08:45Z</time></trkpt><trkpt lat="49.14647817445865" lon="2.504434993555511"><ele>66.0</ele><time>2026-04-24T13:08:46.999Z</time></trkpt><trkpt lat="49.14658952032569" lon="2.5044270185574344"><ele>65.2</ele><time>2026-04-24T13:08:48.999Z</time></trkpt><trkpt lat="49.146676617426465" lon="2.504429281286664"><ele>64.39999999999999</ele><time>2026-04-24T13:08:50.999Z</time></trkpt><trkpt lat="49.14677905245063" lon="2.504431441594249"><ele>63.6</ele><time>2026-04-24T13:08:52.999Z</time></trkpt><trkpt lat="49.14685016479268" lon="2.5044255254122834"><ele>62.8</ele><time>2026-04-24T13:08:53.999Z</time></trkpt><trkpt lat="49.146963182891454" lon="2.504415996605339"><ele>62.0</ele><time>2026-04-24T13:08:55.999Z</time></trkpt><trkpt lat="49.14708779710677" lon="2.5044096065814894"><ele>62.00000000000001</ele><time>2026-04-24T13:08:57.999Z</time></trkpt><trkpt lat="49.14715090645492" lon="2.5044069421224555"><ele>62.0</ele><time>2026-04-24T13:08:58.999Z</time></trkpt><trkpt lat="49.14721801870495" lon="2.504413131789261"><ele>62.0</ele><time>2026-04-24T13:08:59.999Z</time></trkpt><trkpt lat="49.147336424462935" lon="2.504405510822251"><ele>62.0</ele><time>2026-04-24T13:09:01.999Z</time></trkpt><trkpt lat="49.14742183803856" lon="2.50439646340307"><ele>62.00000000000001</ele><time>2026-04-24T13:09:02.999Z</time></trkpt><trkpt lat="49.147495197783364" lon="2.504406286421713"><ele>62.0</ele><time>2026-04-24T13:09:03.999Z</time></trkpt><trkpt lat="49.14756412017591" lon="2.5043985424903497"><ele>62.25</ele><time>2026-04-24T13:09:06.999Z</time></trkpt><trkpt lat="49.14776271215851" lon="2.5043681659943435"><ele>62.5</ele><time>2026-04-24T13:09:07.999Z</time></trkpt><trkpt lat="49.14783085265617" lon="2.5043544111299827"><ele>62.75</ele><time>2026-04-24T13:09:08.999Z</time></trkpt><trkpt lat="49.1479542873298" lon="2.504355995790024"><ele>63.0</ele><time>2026-04-24T13:09:10.999Z</time></trkpt><trkpt lat="49.14806962597715" lon="2.504357546575672"><ele>63.0</ele><time>2026-04-24T13:09:12.999Z</time></trkpt><trkpt lat="49.148173241063354" lon="2.504359841079685"><ele>63.0</ele><time>2026-04-24T13:09:14.999Z</time></trkpt><trkpt lat="49.14828716988617" lon="2.504353056507814"><ele>63.0</ele><time>2026-04-24T13:09:16.999Z</time></trkpt><trkpt lat="49.14838565332065" lon="2.504362341314228"><ele>63.0</ele><time>2026-04-24T13:09:18.999Z</time></trkpt><trkpt lat="49.14845126011083" lon="2.504346752833066"><ele>63.0</ele><time>2026-04-24T13:09:20.998Z</time></trkpt><trkpt lat="49.14853821672234" lon="2.50436205885345"><ele>63.833333333333336</ele><time>2026-04-24T13:09:24.998Z</time></trkpt><trkpt lat="49.14861774108106" lon="2.504284938015233"><ele>64.66666666666667</ele><time>2026-04-24T13:09:27.998Z</time></trkpt><trkpt lat="49.148674757501304" lon="2.504197954751201"><ele>65.5</ele><time>2026-04-24T13:09:30.998Z</time></trkpt><trkpt lat="49.14874306098888" lon="2.504168092691477"><ele>66.33333333333334</ele><time>2026-04-24T13:09:32.998Z</time></trkpt><trkpt lat="49.14880475618828" lon="2.5041334407216365"><ele>67.16666666666667</ele><time>2026-04-24T13:09:34.998Z</time></trkpt><trkpt lat="49.14889133311933" lon="2.50408226712607"><ele>68.0</ele><time>2026-04-24T13:09:37.998Z</time></trkpt><trkpt lat="49.14895425277735" lon="2.504038350197837"><ele>67.99999999999999</ele><time>2026-04-24T13:09:39.998Z</time></trkpt><trkpt lat="49.149014368338875" lon="2.5039971350840924"><ele>68.0</ele><time>2026-04-24T13:09:41.998Z</time></trkpt><trkpt lat="49.1490757044628" lon="2.503961549019143"><ele>68.0</ele><time>2026-04-24T13:09:43.998Z</time></trkpt><trkpt lat="49.149154479429534" lon="2.503905040242019"><ele>68.0</ele><time>2026-04-24T13:09:46.998Z</time></trkpt><trkpt lat="49.1492170717028" lon="2.50385969688344"><ele>68.0</ele><time>2026-04-24T13:09:48.998Z</time></trkpt><trkpt lat="49.149299496924684" lon="2.5038234950694425"><ele>67.99999999999999</ele><time>2026-04-24T13:09:50.998Z</time></trkpt><trkpt lat="49.14936705907763" lon="2.5037817085868443"><ele>68.0</ele><time>2026-04-24T13:09:52.998Z</time></trkpt><trkpt lat="49.14945569802518" lon="2.503730314532922"><ele>68.33333333333334</ele><time>2026-04-24T13:09:54.998Z</time></trkpt><trkpt lat="49.149531609046015" lon="2.503681060205465"><ele>68.66666666666667</ele><time>2026-04-24T13:09:56.997Z</time></trkpt><trkpt lat="49.149611062592776" lon="2.5036421083433273"><ele>69.0</ele><time>2026-04-24T13:09:58.997Z</time></trkpt><trkpt lat="49.14970460143437" lon="2.5035817059145025"><ele>69.33333333333333</ele><time>2026-04-24T13:10:01.997Z</time></trkpt><trkpt lat="49.14978173277443" lon="2.503539716133819"><ele>69.66666666666666</ele><time>2026-04-24T13:10:03.997Z</time></trkpt><trkpt lat="49.149863358171416" lon="2.5034885750835607"><ele>70.0</ele><time>2026-04-24T13:10:06.997Z</time></trkpt><trkpt lat="49.14996796182837" lon="2.503424154910978"><ele>70.0</ele><time>2026-04-24T13:10:09.997Z</time></trkpt><trkpt lat="49.15004570765402" lon="2.503383565333469"><ele>70.0</ele><time>2026-04-24T13:10:11.997Z</time></trkpt><trkpt lat="49.15011317488078" lon="2.5033418838811263"><ele>70.0</ele><time>2026-04-24T13:10:13.997Z</time></trkpt><trkpt lat="49.15019344962072" lon="2.5032844886941703"><ele>70.0</ele><time>2026-04-24T13:10:15.997Z</time></trkpt><trkpt lat="49.150269281341366" lon="2.5032384354729014"><ele>70.0</ele><time>2026-04-24T13:10:18Z</time></trkpt><trkpt lat="49.15035059960385" lon="2.503200511289573"><ele>70.0</ele><time>2026-04-24T13:10:20Z</time></trkpt><trkpt lat="49.15042455149103" lon="2.503157465189041"><ele>70.0</ele><time>2026-04-24T13:10:22Z</time></trkpt><trkpt lat="49.150501139572256" lon="2.503104933798942"><ele>70.0</ele><time>2026-04-24T13:10:24Z</time></trkpt><trkpt lat="49.15056824781285" lon="2.503064162752869"><ele>70.0</ele><time>2026-04-24T13:10:26Z</time></trkpt><trkpt lat="49.15063819935645" lon="2.503024893236671"><ele>70.0</ele><time>2026-04-24T13:10:28Z</time></trkpt><trkpt lat="49.15072036892464" lon="2.502977324958092"><ele>70.0</ele><time>2026-04-24T13:10:30Z</time></trkpt><trkpt lat="49.15079950953309" lon="2.502934735337176"><ele>70.0</ele><time>2026-04-24T13:10:32Z</time></trkpt><trkpt lat="49.15086529770178" lon="2.502892140164475"><ele>69.83333333333333</ele><time>2026-04-24T13:10:34Z</time></trkpt><trkpt lat="49.1509500734742" lon="2.5028444198553963"><ele>69.66666666666666</ele><time>2026-04-24T13:10:36Z</time></trkpt><trkpt lat="49.15102764276803" lon="2.5027982592314473"><ele>69.5</ele><time>2026-04-24T13:10:38Z</time></trkpt><trkpt lat="49.1511174101253" lon="2.5027393387139276"><ele>69.33333333333333</ele><time>2026-04-24T13:10:40Z</time></trkpt><trkpt lat="49.151204573345616" lon="2.502691927322079"><ele>69.16666666666667</ele><time>2026-04-24T13:10:42Z</time></trkpt><trkpt lat="49.15127805757314" lon="2.502642742468847"><ele>69.0</ele><time>2026-04-24T13:10:44Z</time></trkpt><trkpt lat="49.15134079978775" lon="2.502603891108776"><ele>69.0</ele><time>2026-04-24T13:10:45Z</time></trkpt><trkpt lat="49.15142845575743" lon="2.5025526612816673"><ele>69.0</ele><time>2026-04-24T13:10:47Z</time></trkpt><trkpt lat="49.15152539864252" lon="2.5024884153553626"><ele>69.0</ele><time>2026-04-24T13:10:49Z</time></trkpt><trkpt lat="49.1516102582594" lon="2.5024240935234605"><ele>69.0</ele><time>2026-04-24T13:10:50.999Z</time></trkpt><trkpt lat="49.15172308291767" lon="2.502370359276016"><ele>69.0</ele><time>2026-04-24T13:10:52.999Z</time></trkpt><trkpt lat="49.15182800538949" lon="2.5023030265636383"><ele>68.4</ele><time>2026-04-24T13:10:54.999Z</time></trkpt><trkpt lat="49.151886531508694" lon="2.5022628900031925"><ele>67.80000000000001</ele><time>2026-04-24T13:10:55.999Z</time></trkpt><trkpt lat="49.151995060663445" lon="2.502203350951249"><ele>67.19999999999999</ele><time>2026-04-24T13:10:57.999Z</time></trkpt><trkpt lat="49.152099919592224" lon="2.502146608126705"><ele>66.6</ele><time>2026-04-24T13:10:59.999Z</time></trkpt><trkpt lat="49.15220279757316" lon="2.502081567462622"><ele>66.0</ele><time>2026-04-24T13:11:01.999Z</time></trkpt><trkpt lat="49.15228177532185" lon="2.502028394771989"><ele>66.0</ele><time>2026-04-24T13:11:03.999Z</time></trkpt><trkpt lat="49.152358142361756" lon="2.5019839466545335"><ele>66.0</ele><time>2026-04-24T13:11:05.999Z</time></trkpt><trkpt lat="49.152456846327354" lon="2.5019235482315274"><ele>66.0</ele><time>2026-04-24T13:11:07.999Z</time></trkpt><trkpt lat="49.152540507391166" lon="2.5018740249294997"><ele>66.0</ele><time>2026-04-24T13:11:09.999Z</time></trkpt><trkpt lat="49.152637646407676" lon="2.5018292504103736"><ele>66.0</ele><time>2026-04-24T13:11:11.999Z</time></trkpt><trkpt lat="49.15271980749167" lon="2.5017742827523874"><ele>66.16666666666667</ele><time>2026-04-24T13:11:13.999Z</time></trkpt><trkpt lat="49.15280673741772" lon="2.5017242721314648"><ele>66.33333333333333</ele><time>2026-04-24T13:11:15.999Z</time></trkpt><trkpt lat="49.152897208139194" lon="2.5016682938141233"><ele>66.5</ele><time>2026-04-24T13:11:17.999Z</time></trkpt><trkpt lat="49.15298211023629" lon="2.5016387825921513"><ele>66.66666666666666</ele><time>2026-04-24T13:11:19.999Z</time></trkpt><trkpt lat="49.153052755107126" lon="2.5015747731958697"><ele>66.83333333333333</ele><time>2026-04-24T13:11:21.999Z</time></trkpt><trkpt lat="49.153129798549884" lon="2.5015257347505067"><ele>67.0</ele><time>2026-04-24T13:11:23.999Z</time></trkpt><trkpt lat="49.153206048613924" lon="2.5014880225471785"><ele>67.0</ele><time>2026-04-24T13:11:25.999Z</time></trkpt><trkpt lat="49.15327322112177" lon="2.501452012408198"><ele>67.0</ele><time>2026-04-24T13:11:27.998Z</time></trkpt><trkpt lat="49.153345491167386" lon="2.50139377615779"><ele>67.0</ele><time>2026-04-24T13:11:29.998Z</time></trkpt><trkpt lat="49.153435129615836" lon="2.5013410294261975"><ele>67.0</ele><time>2026-04-24T13:11:32.998Z</time></trkpt><trkpt lat="49.153519132486885" lon="2.501297195052043"><ele>67.0</ele><time>2026-04-24T13:11:34.998Z</time></trkpt><trkpt lat="49.15359318954455" lon="2.50125009059321"><ele>67.0</ele><time>2026-04-24T13:11:36.998Z</time></trkpt><trkpt lat="49.15366251132756" lon="2.5012034632412017"><ele>67.0</ele><time>2026-04-24T13:11:38.998Z</time></trkpt><trkpt lat="49.153725843195694" lon="2.5011709895080045"><ele>67.0</ele><time>2026-04-24T13:11:40.998Z</time></trkpt><trkpt lat="49.1537927792891" lon="2.501136351383639"><ele>67.0</ele><time>2026-04-24T13:11:42.998Z</time></trkpt><trkpt lat="49.15390618811981" lon="2.5010474216072422"><ele>67.0</ele><time>2026-04-24T13:11:46.998Z</time></trkpt><trkpt lat="49.153997754684184" lon="2.501000181769087"><ele>67.0</ele><time>2026-04-24T13:11:48.998Z</time></trkpt><trkpt lat="49.15406191267601" lon="2.5009686533736484"><ele>67.0</ele><time>2026-04-24T13:11:50.998Z</time></trkpt><trkpt lat="49.154119401591934" lon="2.500927684101211"><ele>67.0</ele><time>2026-04-24T13:11:52.998Z</time></trkpt><trkpt lat="49.15418314009978" lon="2.5009045537512207"><ele>67.0</ele><time>2026-04-24T13:11:54.998Z</time></trkpt><trkpt lat="49.15426688810526" lon="2.500836352985663"><ele>67.0</ele><time>2026-04-24T13:11:57.998Z</time></trkpt><trkpt lat="49.1543246184841" lon="2.5007830159726443"><ele>67.0</ele><time>2026-04-24T13:11:59.998Z</time></trkpt><trkpt lat="49.15439633021015" lon="2.50073902910015"><ele>67.0</ele><time>2026-04-24T13:12:01.997Z</time></trkpt><trkpt lat="49.154458611085765" lon="2.500703955235074"><ele>67.0</ele><time>2026-04-24T13:12:03.997Z</time></trkpt><trkpt lat="49.15452223188093" lon="2.5006689220359406"><ele>67.0</ele><time>2026-04-24T13:12:05.997Z</time></trkpt><trkpt lat="49.1546072707384" lon="2.500628407685307"><ele>67.0</ele><time>2026-04-24T13:12:08.997Z</time></trkpt><trkpt lat="49.15467230244894" lon="2.500595641013375"><ele>67.0</ele><time>2026-04-24T13:12:12.997Z</time></trkpt><trkpt lat="49.15474981563062" lon="2.5005520212264423"><ele>67.0</ele><time>2026-04-24T13:12:15.997Z</time></trkpt><trkpt lat="49.15482660854625" lon="2.5005091165246482"><ele>67.0</ele><time>2026-04-24T13:12:17.997Z</time></trkpt><trkpt lat="49.15489788589773" lon="2.5004648278162094"><ele>67.0</ele><time>2026-04-24T13:12:19.997Z</time></trkpt><trkpt lat="49.15495682790839" lon="2.500421559627299"><ele>67.0</ele><time>2026-04-24T13:12:22Z</time></trkpt><trkpt lat="49.155023988378595" lon="2.5003880035957904"><ele>67.0</ele><time>2026-04-24T13:12:24Z</time></trkpt><trkpt lat="49.15510732777504" lon="2.500341775680733"><ele>66.66666666666666</ele><time>2026-04-24T13:12:26Z</time></trkpt><trkpt lat="49.15518224344628" lon="2.5003015432919526"><ele>66.33333333333333</ele><time>2026-04-24T13:12:28Z</time></trkpt><trkpt lat="49.155259305684844" lon="2.500251920871831"><ele>66.0</ele><time>2026-04-24T13:12:30Z</time></trkpt><trkpt lat="49.15532298239549" lon="2.5002059545432123"><ele>65.66666666666667</ele><time>2026-04-24T13:12:32Z</time></trkpt><trkpt lat="49.15540165063551" lon="2.500169770843906"><ele>65.33333333333334</ele><time>2026-04-24T13:12:34Z</time></trkpt><trkpt lat="49.155499985400695" lon="2.5001133307804664"><ele>65.0</ele><time>2026-04-24T13:12:36Z</time></trkpt><trkpt lat="49.15559333477836" lon="2.50005786216454"><ele>65.0</ele><time>2026-04-24T13:12:38Z</time></trkpt><trkpt lat="49.15567784852419" lon="2.5000106964097024"><ele>65.0</ele><time>2026-04-24T13:12:40Z</time></trkpt><trkpt lat="49.155778369951875" lon="2.4999483175409085"><ele>65.0</ele><time>2026-04-24T13:12:42Z</time></trkpt><trkpt lat="49.15587361516427" lon="2.499894008138671"><ele>65.0</ele><time>2026-04-24T13:12:44Z</time></trkpt><trkpt lat="49.15597241446503" lon="2.4998362087550356"><ele>65.0</ele><time>2026-04-24T13:12:46Z</time></trkpt><trkpt lat="49.15607263781216" lon="2.499780139734172"><ele>65.16666666666667</ele><time>2026-04-24T13:12:48Z</time></trkpt><trkpt lat="49.156152214376455" lon="2.499725910550808"><ele>65.33333333333334</ele><time>2026-04-24T13:12:50Z</time></trkpt><trkpt lat="49.156226339016044" lon="2.499707662828432"><ele>65.5</ele><time>2026-04-24T13:13:37.998Z</time></trkpt><trkpt lat="49.1562882887912" lon="2.4997591692201744"><ele>65.66666666666667</ele><time>2026-04-24T13:13:40.998Z</time></trkpt><trkpt lat="49.15634863993424" lon="2.499802895447012"><ele>65.83333333333333</ele><time>2026-04-24T13:13:42.998Z</time></trkpt><trkpt lat="49.15643634934459" lon="2.499877285180699"><ele>66.0</ele><time>2026-04-24T13:13:44.998Z</time></trkpt><trkpt lat="49.156549115339956" lon="2.4999834302919774"><ele>65.0</ele><time>2026-04-24T13:13:46.998Z</time></trkpt><trkpt lat="49.156616983280045" lon="2.5000414020654826"><ele>63.99999999999999</ele><time>2026-04-24T13:13:47.998Z</time></trkpt><trkpt lat="49.15669298105093" lon="2.5001146991008976"><ele>62.99999999999999</ele><time>2026-04-24T13:13:48.998Z</time></trkpt><trkpt lat="49.156777120324655" lon="2.5001827329512403"><ele>62.0</ele><time>2026-04-24T13:13:49.998Z</time></trkpt><trkpt lat="49.156862129169056" lon="2.5002612623390625"><ele>61.0</ele><time>2026-04-24T13:13:50.998Z</time></trkpt><trkpt lat="49.156929170165114" lon="2.5003604220668727"><ele>60.75</ele><time>2026-04-24T13:13:51.998Z</time></trkpt><trkpt lat="49.15701126305611" lon="2.500450015825681"><ele>60.5</ele><time>2026-04-24T13:13:52.998Z</time></trkpt><trkpt lat="49.157134200957636" lon="2.500529336781478"><ele>60.25</ele><time>2026-04-24T13:13:53.998Z</time></trkpt><trkpt lat="49.157228820741224" lon="2.5006192488168013"><ele>60.0</ele><time>2026-04-24T13:13:54.998Z</time></trkpt><trkpt lat="49.15732883735312" lon="2.500707563568569"><ele>57.8</ele><time>2026-04-24T13:13:55.998Z</time></trkpt><trkpt lat="49.15742286935086" lon="2.5007783436477964"><ele>55.6</ele><time>2026-04-24T13:13:56.998Z</time></trkpt><trkpt lat="49.1575148167107" lon="2.5008602670871793"><ele>53.400000000000006</ele><time>2026-04-24T13:13:57.998Z</time></trkpt><trkpt lat="49.157603297724" lon="2.500941452062095"><ele>51.2</ele><time>2026-04-24T13:13:58.998Z</time></trkpt><trkpt lat="49.15768747656554" lon="2.501021992166243"><ele>49.0</ele><time>2026-04-24T13:13:59.998Z</time></trkpt><trkpt lat="49.15776618300324" lon="2.5010862525784447"><ele>48.99999999999999</ele><time>2026-04-24T13:14:00.998Z</time></trkpt><trkpt lat="49.15783969622068" lon="2.501151294691705"><ele>49.0</ele><time>2026-04-24T13:14:01.998Z</time></trkpt><trkpt lat="49.15791502057794" lon="2.5012197115494113"><ele>49.0</ele><time>2026-04-24T13:14:02.998Z</time></trkpt><trkpt lat="49.15797722920377" lon="2.5012998336258945"><ele>49.0</ele><time>2026-04-24T13:14:03.997Z</time></trkpt><trkpt lat="49.15803824364641" lon="2.5013563249348594"><ele>48.99999999999999</ele><time>2026-04-24T13:14:04.997Z</time></trkpt><trkpt lat="49.158098029841746" lon="2.50141123126998"><ele>49.0</ele><time>2026-04-24T13:14:05.997Z</time></trkpt><trkpt lat="49.158153093010746" lon="2.501460327623026"><ele>49.49999999999999</ele><time>2026-04-24T13:14:06.997Z</time></trkpt><trkpt lat="49.158239688106576" lon="2.5015570595249588"><ele>50.0</ele><time>2026-04-24T13:14:08.997Z</time></trkpt><trkpt lat="49.15830682231121" lon="2.5015936576246838"><ele>50.5</ele><time>2026-04-24T13:14:10.997Z</time></trkpt><trkpt lat="49.15835135842898" lon="2.5014386964919955"><ele>51.0</ele><time>2026-04-24T13:14:14.997Z</time></trkpt><trkpt lat="49.158346859231116" lon="2.5013358154261445"><ele>51.49999999999999</ele><time>2026-04-24T13:14:16.997Z</time></trkpt><trkpt lat="49.158335320733414" lon="2.5012372703390424"><ele>52.0</ele><time>2026-04-24T13:14:18.997Z</time></trkpt><trkpt lat="49.15833689315016" lon="2.5011241320549145"><ele>52.0</ele><time>2026-04-24T13:14:20.997Z</time></trkpt><trkpt lat="49.15833460845896" lon="2.5010215629929378"><ele>52.0</ele><time>2026-04-24T13:14:22.997Z</time></trkpt><trkpt lat="49.158338469943686" lon="2.500901666665358"><ele>52.0</ele><time>2026-04-24T13:14:24.997Z</time></trkpt><trkpt lat="49.15834167729402" lon="2.5007941296568807"><ele>52.0</ele><time>2026-04-24T13:14:26.997Z</time></trkpt><trkpt lat="49.15833874296579" lon="2.500689312434237"><ele>52.0</ele><time>2026-04-24T13:14:29Z</time></trkpt><trkpt lat="49.1583364727524" lon="2.500569993984731"><ele>52.0</ele><time>2026-04-24T13:14:31Z</time></trkpt><trkpt lat="49.158333397286945" lon="2.5004579007367234"><ele>52.0</ele><time>2026-04-24T13:14:33Z</time></trkpt><trkpt lat="49.158338719026375" lon="2.500341040993392"><ele>52.42857142857142</ele><time>2026-04-24T13:14:35Z</time></trkpt><trkpt lat="49.15833711148355" lon="2.5002376472145253"><ele>52.85714285714286</ele><time>2026-04-24T13:14:37Z</time></trkpt><trkpt lat="49.15835135132809" lon="2.5001263222259125"><ele>53.285714285714285</ele><time>2026-04-24T13:14:39Z</time></trkpt><trkpt lat="49.158338631129794" lon="2.5000259840124897"><ele>53.71428571428571</ele><time>2026-04-24T13:14:41Z</time></trkpt><trkpt lat="49.158343292407224" lon="2.4999247304551284"><ele>54.14285714285714</ele><time>2026-04-24T13:14:43Z</time></trkpt><trkpt lat="49.15834627948582" lon="2.4998262857328934"><ele>54.57142857142857</ele><time>2026-04-24T13:14:45Z</time></trkpt><trkpt lat="49.15834424768427" lon="2.4997184338888068"><ele>55.0</ele><time>2026-04-24T13:14:47Z</time></trkpt><trkpt lat="49.15833746534694" lon="2.499607522343206"><ele>54.83333333333333</ele><time>2026-04-24T13:14:49Z</time></trkpt><trkpt lat="49.15834362097916" lon="2.499491604411282"><ele>54.666666666666664</ele><time>2026-04-24T13:14:51Z</time></trkpt><trkpt lat="49.15834523817118" lon="2.4993721130402826"><ele>54.5</ele><time>2026-04-24T13:14:53Z</time></trkpt><trkpt lat="49.1583466184721" lon="2.4992475969455556"><ele>54.33333333333333</ele><time>2026-04-24T13:14:54.999Z</time></trkpt><trkpt lat="49.15834764076584" lon="2.4991104385903284"><ele>54.166666666666664</ele><time>2026-04-24T13:14:56.999Z</time></trkpt><trkpt lat="49.15834802480147" lon="2.4989838420256465"><ele>54.0</ele><time>2026-04-24T13:14:58.999Z</time></trkpt><trkpt lat="49.1583462836651" lon="2.498850209230012"><ele>54.0</ele><time>2026-04-24T13:15:00.999Z</time></trkpt><trkpt lat="49.158342667051656" lon="2.498719650480147"><ele>54.0</ele><time>2026-04-24T13:15:02.999Z</time></trkpt><trkpt lat="49.15834416346145" lon="2.498587483917671"><ele>54.0</ele><time>2026-04-24T13:15:04.999Z</time></trkpt><trkpt lat="49.158350228164196" lon="2.498463061246972"><ele>54.0</ele><time>2026-04-24T13:15:06.999Z</time></trkpt><trkpt lat="49.158353570667906" lon="2.4983402460131847"><ele>54.0</ele><time>2026-04-24T13:15:08.999Z</time></trkpt><trkpt lat="49.158360392040166" lon="2.498225658565522"><ele>54.0</ele><time>2026-04-24T13:15:10.999Z</time></trkpt><trkpt lat="49.158373945054954" lon="2.498112783162793"><ele>54.0</ele><time>2026-04-24T13:15:12.999Z</time></trkpt><trkpt lat="49.158385130219564" lon="2.4980027059299914"><ele>54.0</ele><time>2026-04-24T13:15:14.999Z</time></trkpt><trkpt lat="49.1583867880776" lon="2.4978907867311695"><ele>54.0</ele><time>2026-04-24T13:15:16.999Z</time></trkpt><trkpt lat="49.15839545739252" lon="2.4977836401273215"><ele>54.0</ele><time>2026-04-24T13:15:18.999Z</time></trkpt><trkpt lat="49.15840525620037" lon="2.497679015340839"><ele>54.0</ele><time>2026-04-24T13:15:20.999Z</time></trkpt><trkpt lat="49.15841788423118" lon="2.49757047888879"><ele>54.0</ele><time>2026-04-24T13:15:22.999Z</time></trkpt><trkpt lat="49.1584195176862" lon="2.4974604212939684"><ele>54.0</ele><time>2026-04-24T13:15:24.999Z</time></trkpt><trkpt lat="49.158443610892654" lon="2.4973512278820156"><ele>54.285714285714285</ele><time>2026-04-24T13:15:26.999Z</time></trkpt><trkpt lat="49.15843958885426" lon="2.4972334290726845"><ele>54.57142857142857</ele><time>2026-04-24T13:15:28.999Z</time></trkpt><trkpt lat="49.15845334207852" lon="2.4971220972702017"><ele>54.85714285714286</ele><time>2026-04-24T13:15:30.998Z</time></trkpt><trkpt lat="49.15846087598018" lon="2.4970223191595955"><ele>55.14285714285714</ele><time>2026-04-24T13:15:32.998Z</time></trkpt><trkpt lat="49.158472493987624" lon="2.4969066867563177"><ele>55.42857142857143</ele><time>2026-04-24T13:15:34.998Z</time></trkpt><trkpt lat="49.158479276577815" lon="2.496797240696689"><ele>55.714285714285715</ele><time>2026-04-24T13:15:36.998Z</time></trkpt><trkpt lat="49.15849276481207" lon="2.496691502839174"><ele>56.0</ele><time>2026-04-24T13:15:38.998Z</time></trkpt><trkpt lat="49.158501256823" lon="2.496576096603492"><ele>56.4</ele><time>2026-04-24T13:15:40.998Z</time></trkpt><trkpt lat="49.15850941580895" lon="2.4964561472392397"><ele>56.8</ele><time>2026-04-24T13:15:42.998Z</time></trkpt><trkpt lat="49.158520847592435" lon="2.496331116071914"><ele>57.199999999999996</ele><time>2026-04-24T13:15:44.998Z</time></trkpt><trkpt lat="49.15853399317052" lon="2.496194182552851"><ele>57.599999999999994</ele><time>2026-04-24T13:15:46.998Z</time></trkpt><trkpt lat="49.15853944564084" lon="2.496029385623805"><ele>58.0</ele><time>2026-04-24T13:15:48.998Z</time></trkpt><trkpt lat="49.158553150625984" lon="2.4958643605868125"><ele>58.0</ele><time>2026-04-24T13:15:50.998Z</time></trkpt><trkpt lat="49.15856348904808" lon="2.4956880739041734"><ele>58.0</ele><time>2026-04-24T13:15:52.998Z</time></trkpt><trkpt lat="49.15857158890533" lon="2.495517786825056"><ele>58.0</ele><time>2026-04-24T13:15:54.998Z</time></trkpt><trkpt lat="49.158575173447" lon="2.4953431624294087"><ele>58.0</ele><time>2026-04-24T13:15:56.998Z</time></trkpt><trkpt lat="49.15857682021018" lon="2.495168848907728"><ele>57.25</ele><time>2026-04-24T13:15:58.998Z</time></trkpt><trkpt lat="49.15856431183289" lon="2.494998341426132"><ele>56.5</ele><time>2026-04-24T13:16:00.998Z</time></trkpt><trkpt lat="49.15854577619825" lon="2.494819597458757"><ele>55.75</ele><time>2026-04-24T13:16:02.998Z</time></trkpt><trkpt lat="49.15852866301102" lon="2.494645166334902"><ele>55.0</ele><time>2026-04-24T13:16:04.998Z</time></trkpt><trkpt lat="49.15851231070608" lon="2.494461233850021"><ele>55.0</ele><time>2026-04-24T13:16:06.998Z</time></trkpt><trkpt lat="49.158488868413805" lon="2.4942790759607636"><ele>55.0</ele><time>2026-04-24T13:16:08.997Z</time></trkpt><trkpt lat="49.15847714946585" lon="2.4941841452310762"><ele>55.0</ele><time>2026-04-24T13:16:09.997Z</time></trkpt><trkpt lat="49.158457868973066" lon="2.4940023583859348"><ele>55.0</ele><time>2026-04-24T13:16:11.997Z</time></trkpt><trkpt lat="49.158440577373064" lon="2.4938166423083516"><ele>55.0</ele><time>2026-04-24T13:16:13.997Z</time></trkpt><trkpt lat="49.158420362562346" lon="2.4936268908602215"><ele>55.25</ele><time>2026-04-24T13:16:15.997Z</time></trkpt><trkpt lat="49.1584032127991" lon="2.4934452106728555"><ele>55.5</ele><time>2026-04-24T13:16:17.997Z</time></trkpt><trkpt lat="49.158384535205066" lon="2.493267862350633"><ele>55.75</ele><time>2026-04-24T13:16:19.997Z</time></trkpt><trkpt lat="49.15836191981415" lon="2.49311388716841"><ele>56.0</ele><time>2026-04-24T13:16:21.997Z</time></trkpt><trkpt lat="49.15835205890049" lon="2.492941724956248"><ele>56.0</ele><time>2026-04-24T13:16:23.997Z</time></trkpt><trkpt lat="49.15832644434496" lon="2.49277385589389"><ele>55.99999999999999</ele><time>2026-04-24T13:16:25.997Z</time></trkpt><trkpt lat="49.15832416584253" lon="2.4926073963917212"><ele>55.99999999999999</ele><time>2026-04-24T13:16:27.997Z</time></trkpt><trkpt lat="49.158291885004196" lon="2.492455569946002"><ele>56.0</ele><time>2026-04-24T13:16:29.997Z</time></trkpt><trkpt lat="49.1582828343845" lon="2.4923128132338617"><ele>56.0</ele><time>2026-04-24T13:16:31.997Z</time></trkpt><trkpt lat="49.15826567529619" lon="2.4921776754333447"><ele>56.16666666666667</ele><time>2026-04-24T13:16:34Z</time></trkpt><trkpt lat="49.15826749189585" lon="2.4920481993548766"><ele>56.333333333333336</ele><time>2026-04-24T13:16:36Z</time></trkpt><trkpt lat="49.15824046541721" lon="2.4919266880205404"><ele>56.5</ele><time>2026-04-24T13:16:38Z</time></trkpt><trkpt lat="49.158235039664994" lon="2.4918042926978026"><ele>56.66666666666667</ele><time>2026-04-24T13:16:40Z</time></trkpt><trkpt lat="49.1582219575758" lon="2.491687361319136"><ele>56.833333333333336</ele><time>2026-04-24T13:16:42Z</time></trkpt><trkpt lat="49.15822521322917" lon="2.491573268751436"><ele>57.0</ele><time>2026-04-24T13:16:44Z</time></trkpt><trkpt lat="49.15821518914066" lon="2.4914582248076216"><ele>57.0</ele><time>2026-04-24T13:16:46Z</time></trkpt><trkpt lat="49.15820398125198" lon="2.491332870177554"><ele>57.0</ele><time>2026-04-24T13:16:48Z</time></trkpt><trkpt lat="49.15818213971842" lon="2.4912012270340385"><ele>57.0</ele><time>2026-04-24T13:16:50Z</time></trkpt><trkpt lat="49.15816744344215" lon="2.4910593013856905"><ele>57.0</ele><time>2026-04-24T13:16:52Z</time></trkpt><trkpt lat="49.15815086893642" lon="2.490910598913672"><ele>57.0</ele><time>2026-04-24T13:16:54Z</time></trkpt><trkpt lat="49.158133960370044" lon="2.4907485960254108"><ele>55.6</ele><time>2026-04-24T13:16:56Z</time></trkpt><trkpt lat="49.15812025814295" lon="2.490592480829449"><ele>54.2</ele><time>2026-04-24T13:16:58Z</time></trkpt><trkpt lat="49.158106743454056" lon="2.4904386865815726"><ele>52.8</ele><time>2026-04-24T13:17:00Z</time></trkpt><trkpt lat="49.158094386157224" lon="2.4902820583961045"><ele>51.4</ele><time>2026-04-24T13:17:02Z</time></trkpt><trkpt lat="49.15808204781239" lon="2.490136636099653"><ele>50.0</ele><time>2026-04-24T13:17:04Z</time></trkpt><trkpt lat="49.15808340640492" lon="2.489985045533658"><ele>50.0</ele><time>2026-04-24T13:17:05.999Z</time></trkpt><trkpt lat="49.158109728961065" lon="2.4898368429857833"><ele>50.0</ele><time>2026-04-24T13:17:07.999Z</time></trkpt><trkpt lat="49.15816305042831" lon="2.4896978745978244"><ele>50.0</ele><time>2026-04-24T13:17:09.999Z</time></trkpt><trkpt lat="49.15824237939052" lon="2.489585242522222"><ele>50.0</ele><time>2026-04-24T13:17:11.999Z</time></trkpt><trkpt lat="49.158327594261806" lon="2.4894741407161973"><ele>50.0</ele><time>2026-04-24T13:17:13.999Z</time></trkpt><trkpt lat="49.15840742104587" lon="2.4893545887352517"><ele>51.6</ele><time>2026-04-24T13:17:15.999Z</time></trkpt><trkpt lat="49.15848504714358" lon="2.489234910049091"><ele>53.2</ele><time>2026-04-24T13:17:17.999Z</time></trkpt><trkpt lat="49.15855893560558" lon="2.489112313894201"><ele>54.8</ele><time>2026-04-24T13:17:19.999Z</time></trkpt><trkpt lat="49.15863394028689" lon="2.4889907327392997"><ele>56.4</ele><time>2026-04-24T13:17:21.999Z</time></trkpt><trkpt lat="49.158711129023985" lon="2.488878381454118"><ele>58.0</ele><time>2026-04-24T13:17:23.999Z</time></trkpt><trkpt lat="49.158783994303164" lon="2.488760018088457"><ele>57.4</ele><time>2026-04-24T13:17:25.999Z</time></trkpt><trkpt lat="49.158859082678134" lon="2.4886489712737627"><ele>56.8</ele><time>2026-04-24T13:17:27.999Z</time></trkpt><trkpt lat="49.15893218958911" lon="2.4885356236169325"><ele>56.2</ele><time>2026-04-24T13:17:29.999Z</time></trkpt><trkpt lat="49.15900570315016" lon="2.48841945824674"><ele>55.6</ele><time>2026-04-24T13:17:31.999Z</time></trkpt><trkpt lat="49.159083685753124" lon="2.488304252024642"><ele>55.0</ele><time>2026-04-24T13:17:33.999Z</time></trkpt><trkpt lat="49.15915776735443" lon="2.4881897762883396"><ele>55.8</ele><time>2026-04-24T13:17:35.999Z</time></trkpt><trkpt lat="49.15923531573968" lon="2.488077276683813"><ele>56.6</ele><time>2026-04-24T13:17:37.999Z</time></trkpt><trkpt lat="49.1593156706045" lon="2.487978092785851"><ele>57.400000000000006</ele><time>2026-04-24T13:17:39.999Z</time></trkpt><trkpt lat="49.159385201334466" lon="2.4878663827221916"><ele>58.2</ele><time>2026-04-24T13:17:41.999Z</time></trkpt><trkpt lat="49.159443019258646" lon="2.4877305904713265"><ele>59.0</ele><time>2026-04-24T13:17:43.998Z</time></trkpt><trkpt lat="49.159507255916324" lon="2.487604211010761"><ele>59.0</ele><time>2026-04-24T13:17:45.998Z</time></trkpt><trkpt lat="49.159585115339254" lon="2.4874879147724624"><ele>59.00000000000001</ele><time>2026-04-24T13:17:47.998Z</time></trkpt><trkpt lat="49.15964969221722" lon="2.4873624175491305"><ele>59.00000000000001</ele><time>2026-04-24T13:17:49.998Z</time></trkpt><trkpt lat="49.159705118715024" lon="2.4872419860396984"><ele>59.0</ele><time>2026-04-24T13:17:51.998Z</time></trkpt><trkpt lat="49.159750030315294" lon="2.487118569945611"><ele>59.0</ele><time>2026-04-24T13:17:53.998Z</time></trkpt><trkpt lat="49.15979658990543" lon="2.487026803739578"><ele>60.00000000000001</ele><time>2026-04-24T13:17:55.998Z</time></trkpt><trkpt lat="49.15986802947923" lon="2.4870330668717457"><ele>61.0</ele><time>2026-04-24T13:17:57.998Z</time></trkpt><trkpt lat="49.159931148537446" lon="2.4869273524552926"><ele>62.0</ele><time>2026-04-24T13:18:00.998Z</time></trkpt><trkpt lat="49.159981757690645" lon="2.486839438000274"><ele>63.0</ele><time>2026-04-24T13:18:02.998Z</time></trkpt><trkpt lat="49.160033337753" lon="2.486743716213052"><ele>64.0</ele><time>2026-04-24T13:18:04.998Z</time></trkpt><trkpt lat="49.16008326118469" lon="2.48664661126115"><ele>65.0</ele><time>2026-04-24T13:18:06.998Z</time></trkpt><trkpt lat="49.16013522667039" lon="2.486546217635253"><ele>65.0</ele><time>2026-04-24T13:18:08.998Z</time></trkpt><trkpt lat="49.16018906401813" lon="2.486445574658683"><ele>65.0</ele><time>2026-04-24T13:18:10.998Z</time></trkpt><trkpt lat="49.1602338139919" lon="2.486331775630697"><ele>65.0</ele><time>2026-04-24T13:18:12.998Z</time></trkpt><trkpt lat="49.16029920397576" lon="2.48625191509259"><ele>65.0</ele><time>2026-04-24T13:18:14.998Z</time></trkpt><trkpt lat="49.16035393138404" lon="2.4861574396112376"><ele>65.0</ele><time>2026-04-24T13:18:16.998Z</time></trkpt><trkpt lat="49.16040414270908" lon="2.486071012651902"><ele>65.0</ele><time>2026-04-24T13:18:18.997Z</time></trkpt><trkpt lat="49.160442383953466" lon="2.485971137636641"><ele>65.33333333333334</ele><time>2026-04-24T13:18:20.997Z</time></trkpt><trkpt lat="49.160501666167995" lon="2.4858923986164005"><ele>65.66666666666667</ele><time>2026-04-24T13:18:22.997Z</time></trkpt><trkpt lat="49.16055112972467" lon="2.4858036867230884"><ele>66.0</ele><time>2026-04-24T13:18:24.997Z</time></trkpt><trkpt lat="49.16060154154144" lon="2.4857131771583627"><ele>66.33333333333333</ele><time>2026-04-24T13:18:26.997Z</time></trkpt><trkpt lat="49.16065449803962" lon="2.4856288443893737"><ele>66.66666666666666</ele><time>2026-04-24T13:18:28.997Z</time></trkpt><trkpt lat="49.16070224287941" lon="2.485536195898794"><ele>67.0</ele><time>2026-04-24T13:18:30.997Z</time></trkpt><trkpt lat="49.16075708434356" lon="2.485450413797087"><ele>67.33333333333333</ele><time>2026-04-24T13:18:32.997Z</time></trkpt><trkpt lat="49.16080362673938" lon="2.4853660566993803"><ele>67.66666666666666</ele><time>2026-04-24T13:18:34.997Z</time></trkpt><trkpt lat="49.16085089434181" lon="2.4852835603024546"><ele>68.0</ele><time>2026-04-24T13:18:36.997Z</time></trkpt><trkpt lat="49.1608995904322" lon="2.4851992299135235"><ele>68.33333333333333</ele><time>2026-04-24T13:18:38.997Z</time></trkpt><trkpt lat="49.16095159731016" lon="2.4851133980218743"><ele>68.66666666666667</ele><time>2026-04-24T13:18:41Z</time></trkpt><trkpt lat="49.161002178826585" lon="2.4850237929694177"><ele>69.0</ele><time>2026-04-24T13:18:43Z</time></trkpt><trkpt lat="49.161057203200315" lon="2.484928161254777"><ele>69.0</ele><time>2026-04-24T13:18:45Z</time></trkpt><trkpt lat="49.16111082636607" lon="2.4848375895831354"><ele>69.0</ele><time>2026-04-24T13:18:47Z</time></trkpt><trkpt lat="49.16116249253123" lon="2.4847458986788062"><ele>69.0</ele><time>2026-04-24T13:18:49Z</time></trkpt><trkpt lat="49.16121922748884" lon="2.484657130714975"><ele>69.0</ele><time>2026-04-24T13:18:51Z</time></trkpt><trkpt lat="49.161269887391455" lon="2.484565694183216"><ele>69.0</ele><time>2026-04-24T13:18:53Z</time></trkpt><trkpt lat="49.16132112784232" lon="2.484476639187471"><ele>69.0</ele><time>2026-04-24T13:18:55Z</time></trkpt><trkpt lat="49.16137289981257" lon="2.4843837860395426"><ele>69.33333333333333</ele><time>2026-04-24T13:18:57Z</time></trkpt><trkpt lat="49.16142568691747" lon="2.4842912336643783"><ele>69.66666666666667</ele><time>2026-04-24T13:18:59Z</time></trkpt><trkpt lat="49.161480997073845" lon="2.4842066079271743"><ele>70.0</ele><time>2026-04-24T13:19:01Z</time></trkpt><trkpt lat="49.16153338257482" lon="2.4841024234718567"><ele>70.33333333333334</ele><time>2026-04-24T13:19:03Z</time></trkpt><trkpt lat="49.16159080652771" lon="2.484003164300339"><ele>70.66666666666667</ele><time>2026-04-24T13:19:05Z</time></trkpt><trkpt lat="49.161642879937226" lon="2.4839016994320775"><ele>71.0</ele><time>2026-04-24T13:19:07Z</time></trkpt><trkpt lat="49.16169977670695" lon="2.483808926021724"><ele>71.16666666666667</ele><time>2026-04-24T13:19:09Z</time></trkpt><trkpt lat="49.16175870949797" lon="2.4837178255406327"><ele>71.33333333333334</ele><time>2026-04-24T13:19:11Z</time></trkpt><trkpt lat="49.161811557697334" lon="2.483625277007823"><ele>71.5</ele><time>2026-04-24T13:19:13Z</time></trkpt><trkpt lat="49.16186616822105" lon="2.483522000771672"><ele>71.66666666666667</ele><time>2026-04-24T13:19:15Z</time></trkpt><trkpt lat="49.161923226578" lon="2.483421110748574"><ele>71.83333333333333</ele><time>2026-04-24T13:19:16.999Z</time></trkpt><trkpt lat="49.16197751110186" lon="2.483322128653833"><ele>72.0</ele><time>2026-04-24T13:19:18.999Z</time></trkpt><trkpt lat="49.16203546761732" lon="2.483228511200273"><ele>72.0</ele><time>2026-04-24T13:19:20.999Z</time></trkpt><trkpt lat="49.162090785045834" lon="2.4831310839830842"><ele>72.0</ele><time>2026-04-24T13:19:22.999Z</time></trkpt><trkpt lat="49.162150732190085" lon="2.4830383730745065"><ele>72.0</ele><time>2026-04-24T13:19:24.999Z</time></trkpt><trkpt lat="49.16220628322066" lon="2.482939876976924"><ele>72.0</ele><time>2026-04-24T13:19:26.999Z</time></trkpt><trkpt lat="49.162265518371264" lon="2.482844777227912"><ele>72.0</ele><time>2026-04-24T13:19:28.999Z</time></trkpt><trkpt lat="49.16232568910226" lon="2.482745571443772"><ele>72.0</ele><time>2026-04-24T13:19:30.999Z</time></trkpt><trkpt lat="49.1623845001145" lon="2.4826474352562222"><ele>72.16666666666667</ele><time>2026-04-24T13:19:32.999Z</time></trkpt><trkpt lat="49.16245561733026" lon="2.4825660625091133"><ele>72.33333333333333</ele><time>2026-04-24T13:19:34.999Z</time></trkpt><trkpt lat="49.16251697370473" lon="2.4824632429739624"><ele>72.5</ele><time>2026-04-24T13:19:36.999Z</time></trkpt><trkpt lat="49.1625744681452" lon="2.4823556492608656"><ele>72.66666666666666</ele><time>2026-04-24T13:19:38.999Z</time></trkpt><trkpt lat="49.162629419243274" lon="2.482245204680487"><ele>72.83333333333333</ele><time>2026-04-24T13:19:40.999Z</time></trkpt><trkpt lat="49.16267072016928" lon="2.4821303962954615"><ele>73.0</ele><time>2026-04-24T13:19:42.999Z</time></trkpt><trkpt lat="49.162727594995395" lon="2.482029196921866"><ele>73.0</ele><time>2026-04-24T13:19:44.999Z</time></trkpt><trkpt lat="49.16279427608365" lon="2.481942183976431"><ele>73.0</ele><time>2026-04-24T13:19:46.999Z</time></trkpt><trkpt lat="49.16285158264766" lon="2.481842540815853"><ele>73.0</ele><time>2026-04-24T13:19:48.999Z</time></trkpt><trkpt lat="49.16290875911365" lon="2.48174312386523"><ele>73.0</ele><time>2026-04-24T13:19:50.998Z</time></trkpt><trkpt lat="49.16296495109115" lon="2.481645418721472"><ele>73.0</ele><time>2026-04-24T13:19:52.998Z</time></trkpt><trkpt lat="49.16302024295637" lon="2.4815492954430796"><ele>73.0</ele><time>2026-04-24T13:19:54.998Z</time></trkpt><trkpt lat="49.16307753382444" lon="2.4814502612851963"><ele>73.0</ele><time>2026-04-24T13:19:56.998Z</time></trkpt><trkpt lat="49.163134083905334" lon="2.48135234402435"><ele>73.0</ele><time>2026-04-24T13:19:58.998Z</time></trkpt><trkpt lat="49.163182691902854" lon="2.481242977187733"><ele>73.0</ele><time>2026-04-24T13:20:00.998Z</time></trkpt><trkpt lat="49.16324031694823" lon="2.4811458399018145"><ele>73.0</ele><time>2026-04-24T13:20:02.998Z</time></trkpt><trkpt lat="49.16329709238217" lon="2.4810499818670033"><ele>73.0</ele><time>2026-04-24T13:20:04.998Z</time></trkpt><trkpt lat="49.16335883957123" lon="2.4809576552698176"><ele>73.0</ele><time>2026-04-24T13:20:06.998Z</time></trkpt><trkpt lat="49.16341795166196" lon="2.4808586851106487"><ele>72.83333333333333</ele><time>2026-04-24T13:20:08.998Z</time></trkpt><trkpt lat="49.16347357882026" lon="2.4807613978174965"><ele>72.66666666666666</ele><time>2026-04-24T13:20:10.998Z</time></trkpt><trkpt lat="49.163528504505074" lon="2.480659009865188"><ele>72.5</ele><time>2026-04-24T13:20:12.998Z</time></trkpt><trkpt lat="49.16358430395209" lon="2.480557333975099"><ele>72.33333333333333</ele><time>2026-04-24T13:20:14.998Z</time></trkpt><trkpt lat="49.16364454460767" lon="2.4804531924804216"><ele>72.16666666666667</ele><time>2026-04-24T13:20:16.998Z</time></trkpt><trkpt lat="49.16370417830838" lon="2.480352152037077"><ele>72.0</ele><time>2026-04-24T13:20:18.998Z</time></trkpt><trkpt lat="49.163761261797795" lon="2.480252845530963"><ele>72.0</ele><time>2026-04-24T13:20:20.998Z</time></trkpt><trkpt lat="49.163818529789516" lon="2.480153422034642"><ele>72.0</ele><time>2026-04-24T13:20:22.998Z</time></trkpt><trkpt lat="49.16387586893157" lon="2.480053883832302"><ele>72.0</ele><time>2026-04-24T13:20:24.998Z</time></trkpt><trkpt lat="49.16393599528401" lon="2.4799531310783895"><ele>72.0</ele><time>2026-04-24T13:20:26.998Z</time></trkpt><trkpt lat="49.16399291914127" lon="2.47985009891079"><ele>72.0</ele><time>2026-04-24T13:20:28.997Z</time></trkpt><trkpt lat="49.16405151540191" lon="2.4797474292427517"><ele>72.0</ele><time>2026-04-24T13:20:30.997Z</time></trkpt><trkpt lat="49.16411233696028" lon="2.479642101291478"><ele>71.5</ele><time>2026-04-24T13:20:32.997Z</time></trkpt><trkpt lat="49.164175500379095" lon="2.4795395803810996"><ele>71.0</ele><time>2026-04-24T13:20:34.997Z</time></trkpt><trkpt lat="49.164232357874134" lon="2.479433086869208"><ele>70.5</ele><time>2026-04-24T13:20:36.997Z</time></trkpt><trkpt lat="49.16428731501531" lon="2.4793298446660295"><ele>70.0</ele><time>2026-04-24T13:20:38.997Z</time></trkpt><trkpt lat="49.164346300239075" lon="2.4792287991897823"><ele>69.5</ele><time>2026-04-24T13:20:40.997Z</time></trkpt><trkpt lat="49.1644061233942" lon="2.479130093005271"><ele>69.0</ele><time>2026-04-24T13:20:42.997Z</time></trkpt><trkpt lat="49.16446721306999" lon="2.47902639044497"><ele>69.0</ele><time>2026-04-24T13:20:45Z</time></trkpt><trkpt lat="49.16453151457741" lon="2.478927689269418"><ele>69.0</ele><time>2026-04-24T13:20:47Z</time></trkpt><trkpt lat="49.164594652596335" lon="2.478826045518617"><ele>69.0</ele><time>2026-04-24T13:20:49Z</time></trkpt><trkpt lat="49.16465173492953" lon="2.4787193148377455"><ele>69.0</ele><time>2026-04-24T13:20:51Z</time></trkpt><trkpt lat="49.16471039231906" lon="2.4786186042886587"><ele>69.0</ele><time>2026-04-24T13:20:53Z</time></trkpt><trkpt lat="49.16476965756585" lon="2.478519128444417"><ele>69.0</ele><time>2026-04-24T13:20:55Z</time></trkpt><trkpt lat="49.16483064771323" lon="2.4784224988811006"><ele>69.60000000000001</ele><time>2026-04-24T13:20:57Z</time></trkpt><trkpt lat="49.16488535314213" lon="2.478318461711686"><ele>70.2</ele><time>2026-04-24T13:20:59Z</time></trkpt><trkpt lat="49.16494530082351" lon="2.478219177683702"><ele>70.80000000000001</ele><time>2026-04-24T13:21:01Z</time></trkpt><trkpt lat="49.165002458482725" lon="2.4781098796224925"><ele>71.4</ele><time>2026-04-24T13:21:03Z</time></trkpt><trkpt lat="49.165061606808266" lon="2.47800468966487"><ele>72.0</ele><time>2026-04-24T13:21:05Z</time></trkpt><trkpt lat="49.165124220046756" lon="2.4779014985164594"><ele>72.0</ele><time>2026-04-24T13:21:07Z</time></trkpt><trkpt lat="49.16518465846834" lon="2.477795755637876"><ele>72.0</ele><time>2026-04-24T13:21:09Z</time></trkpt><trkpt lat="49.16524481425803" lon="2.4776896073484362"><ele>72.0</ele><time>2026-04-24T13:21:11Z</time></trkpt><trkpt lat="49.165306629521055" lon="2.4775856037904482"><ele>72.0</ele><time>2026-04-24T13:21:13Z</time></trkpt><trkpt lat="49.16536807530446" lon="2.477480765894739"><ele>72.0</ele><time>2026-04-24T13:21:15Z</time></trkpt><trkpt lat="49.16543122842478" lon="2.4773759520835235"><ele>72.0</ele><time>2026-04-24T13:21:17Z</time></trkpt><trkpt lat="49.1654914000138" lon="2.477269860523558"><ele>72.0</ele><time>2026-04-24T13:21:18.999Z</time></trkpt><trkpt lat="49.16555427089385" lon="2.477160678716359"><ele>72.0</ele><time>2026-04-24T13:21:20.999Z</time></trkpt><trkpt lat="49.1656171264968" lon="2.4770437284840967"><ele>72.0</ele><time>2026-04-24T13:21:22.999Z</time></trkpt><trkpt lat="49.16568198340503" lon="2.4769285096982014"><ele>72.0</ele><time>2026-04-24T13:21:24.999Z</time></trkpt><trkpt lat="49.165742726101215" lon="2.4768104644583935"><ele>71.8</ele><time>2026-04-24T13:21:26.999Z</time></trkpt><trkpt lat="49.165810634208455" lon="2.476698599042576"><ele>71.6</ele><time>2026-04-24T13:21:28.999Z</time></trkpt><trkpt lat="49.16587555405358" lon="2.476593415570179"><ele>71.39999999999999</ele><time>2026-04-24T13:21:30.999Z</time></trkpt><trkpt lat="49.16593858063457" lon="2.476478397421634"><ele>71.2</ele><time>2026-04-24T13:21:32.999Z</time></trkpt><trkpt lat="49.16600479139298" lon="2.476366940517021"><ele>71.0</ele><time>2026-04-24T13:21:34.999Z</time></trkpt><trkpt lat="49.16607077819563" lon="2.4762631317898167"><ele>71.0</ele><time>2026-04-24T13:21:36.999Z</time></trkpt><trkpt lat="49.166130465833966" lon="2.4761447858815155"><ele>71.0</ele><time>2026-04-24T13:21:38.999Z</time></trkpt><trkpt lat="49.16620286803715" lon="2.4760385713793513"><ele>71.0</ele><time>2026-04-24T13:21:40.999Z</time></trkpt><trkpt lat="49.166266482654514" lon="2.4759237905832685"><ele>71.0</ele><time>2026-04-24T13:21:42.999Z</time></trkpt><trkpt lat="49.16632953429513" lon="2.475810035110924"><ele>71.0</ele><time>2026-04-24T13:21:44.999Z</time></trkpt><trkpt lat="49.16639193224337" lon="2.4756980322683955"><ele>71.0</ele><time>2026-04-24T13:21:46.999Z</time></trkpt><trkpt lat="49.16645516147561" lon="2.475589161726104"><ele>71.0</ele><time>2026-04-24T13:21:48.999Z</time></trkpt><trkpt lat="49.16652424474379" lon="2.475478264437412"><ele>71.0</ele><time>2026-04-24T13:21:50.998Z</time></trkpt><trkpt lat="49.166589181359726" lon="2.475356528334073"><ele>71.0</ele><time>2026-04-24T13:21:52.998Z</time></trkpt><trkpt lat="49.166656727799506" lon="2.4752397510674338"><ele>71.0</ele><time>2026-04-24T13:21:54.998Z</time></trkpt><trkpt lat="49.166720117429435" lon="2.4751122409130466"><ele>70.8</ele><time>2026-04-24T13:21:56.998Z</time></trkpt><trkpt lat="49.16678722081356" lon="2.474992051670443"><ele>70.6</ele><time>2026-04-24T13:21:58.998Z</time></trkpt><trkpt lat="49.166856617129746" lon="2.4748688675802035"><ele>70.4</ele><time>2026-04-24T13:22:00.998Z</time></trkpt><trkpt lat="49.16692960520853" lon="2.474746520109739"><ele>70.2</ele><time>2026-04-24T13:22:02.998Z</time></trkpt><trkpt lat="49.16699789942302" lon="2.474631618987339"><ele>70.0</ele><time>2026-04-24T13:22:04.998Z</time></trkpt><trkpt lat="49.16706470052993" lon="2.474514098248566"><ele>70.0</ele><time>2026-04-24T13:22:06.998Z</time></trkpt><trkpt lat="49.16712737620152" lon="2.474391767546629"><ele>70.0</ele><time>2026-04-24T13:22:08.998Z</time></trkpt><trkpt lat="49.16719408662243" lon="2.4742780105941717"><ele>70.0</ele><time>2026-04-24T13:22:10.998Z</time></trkpt><trkpt lat="49.1672617227033" lon="2.4741682328529375"><ele>70.0</ele><time>2026-04-24T13:22:12.998Z</time></trkpt><trkpt lat="49.16731274595024" lon="2.4740726285540204"><ele>70.0</ele><time>2026-04-24T13:22:14.998Z</time></trkpt><trkpt lat="49.167378458562304" lon="2.4739741480899564"><ele>70.6</ele><time>2026-04-24T13:22:16.998Z</time></trkpt><trkpt lat="49.16743940014081" lon="2.4738553608086913"><ele>71.2</ele><time>2026-04-24T13:22:18.998Z</time></trkpt><trkpt lat="49.16750599252444" lon="2.4737487357324324"><ele>71.8</ele><time>2026-04-24T13:22:20.998Z</time></trkpt><trkpt lat="49.16757352758402" lon="2.4736465374822925"><ele>72.4</ele><time>2026-04-24T13:22:22.998Z</time></trkpt><trkpt lat="49.16764322625766" lon="2.4735365262414346"><ele>73.0</ele><time>2026-04-24T13:22:24.998Z</time></trkpt><trkpt lat="49.16770866257887" lon="2.4734250599600895"><ele>73.4</ele><time>2026-04-24T13:22:26.997Z</time></trkpt><trkpt lat="49.16776891850205" lon="2.473319590942186"><ele>73.8</ele><time>2026-04-24T13:22:28.997Z</time></trkpt><trkpt lat="49.16782551173393" lon="2.4732077024781476"><ele>74.2</ele><time>2026-04-24T13:22:30.997Z</time></trkpt><trkpt lat="49.167896768456686" lon="2.4731115512056174"><ele>74.6</ele><time>2026-04-24T13:22:32.997Z</time></trkpt><trkpt lat="49.16795352193654" lon="2.473009314299212"><ele>75.0</ele><time>2026-04-24T13:22:34.997Z</time></trkpt><trkpt lat="49.1680142491157" lon="2.4729147910782094"><ele>75.0</ele><time>2026-04-24T13:22:36.997Z</time></trkpt><trkpt lat="49.16807674643471" lon="2.472848893448263"><ele>75.0</ele><time>2026-04-24T13:22:38.997Z</time></trkpt><trkpt lat="49.1681062309109" lon="2.4727503828821287"><ele>75.0</ele><time>2026-04-24T13:22:40.997Z</time></trkpt><trkpt lat="49.16816081767952" lon="2.4726632889886897"><ele>75.0</ele><time>2026-04-24T13:22:43.997Z</time></trkpt><trkpt lat="49.168224213662064" lon="2.4725589832355523"><ele>75.0</ele><time>2026-04-24T13:22:46.997Z</time></trkpt><trkpt lat="49.168264625522255" lon="2.4724711104606407"><ele>75.0</ele><time>2026-04-24T13:22:48.997Z</time></trkpt><trkpt lat="49.16831875452957" lon="2.4723695681906497"><ele>74.99999999999999</ele><time>2026-04-24T13:22:52Z</time></trkpt><trkpt lat="49.16838668466277" lon="2.472356486580174"><ele>75.0</ele><time>2026-04-24T13:22:54Z</time></trkpt><trkpt lat="49.168443007462734" lon="2.4722705912693232"><ele>75.0</ele><time>2026-04-24T13:22:57Z</time></trkpt><trkpt lat="49.16849782043046" lon="2.4722032423745035"><ele>75.0</ele><time>2026-04-24T13:22:59Z</time></trkpt><trkpt lat="49.168571862531685" lon="2.4721446935378757"><ele>75.0</ele><time>2026-04-24T13:23:02Z</time></trkpt><trkpt lat="49.16863206015433" lon="2.47211338088731"><ele>74.99999999999999</ele><time>2026-04-24T13:23:08Z</time></trkpt><trkpt lat="49.16870619885186" lon="2.4720604658514542"><ele>75.0</ele><time>2026-04-24T13:23:15Z</time></trkpt><trkpt lat="49.16876522580516" lon="2.472003110075105"><ele>74.99999999999999</ele><time>2026-04-24T13:23:21Z</time></trkpt><trkpt lat="49.16873034903318" lon="2.4719006899087264"><ele>75.0</ele><time>2026-04-24T13:23:22Z</time></trkpt><trkpt lat="49.168794012714706" lon="2.4718539607838887"><ele>75.0</ele><time>2026-04-24T13:23:29.999Z</time></trkpt><trkpt lat="49.168849244177714" lon="2.4717921884513605"><ele>75.0</ele><time>2026-04-24T13:23:41.999Z</time></trkpt><trkpt lat="49.1689115105938" lon="2.471750830890338"><ele>75.0</ele><time>2026-04-24T13:23:45.999Z</time></trkpt><trkpt lat="49.16898776048524" lon="2.4718212432476614"><ele>74.99999999999999</ele><time>2026-04-24T13:23:48.999Z</time></trkpt><trkpt lat="49.16905064824558" lon="2.471861940653841"><ele>75.0</ele><time>2026-04-24T13:23:50.999Z</time></trkpt><trkpt lat="49.169136345786455" lon="2.4718508053569344"><ele>74.66666666666667</ele><time>2026-04-24T13:23:53.999Z</time></trkpt><trkpt lat="49.169209862561985" lon="2.4718523729943502"><ele>74.33333333333333</ele><time>2026-04-24T13:23:55.999Z</time></trkpt><trkpt lat="49.16928941791066" lon="2.4718454433288417"><ele>74.0</ele><time>2026-04-24T13:23:57.999Z</time></trkpt><trkpt lat="49.16936992155042" lon="2.471824413119717"><ele>73.66666666666666</ele><time>2026-04-24T13:23:59.998Z</time></trkpt><trkpt lat="49.16945143781996" lon="2.471799718101236"><ele>73.33333333333333</ele><time>2026-04-24T13:24:01.998Z</time></trkpt><trkpt lat="49.16954472805703" lon="2.4717926453332804"><ele>73.0</ele><time>2026-04-24T13:24:03.998Z</time></trkpt><trkpt lat="49.16964299510958" lon="2.4717817089927276"><ele>73.0</ele><time>2026-04-24T13:24:05.998Z</time></trkpt><trkpt lat="49.16974811918957" lon="2.4717702223072577"><ele>73.0</ele><time>2026-04-24T13:24:07.998Z</time></trkpt><trkpt lat="49.16985428371565" lon="2.471746165816161"><ele>73.0</ele><time>2026-04-24T13:24:09.998Z</time></trkpt><trkpt lat="49.169962546797606" lon="2.4717304103434556"><ele>73.0</ele><time>2026-04-24T13:24:11.998Z</time></trkpt><trkpt lat="49.17007245088578" lon="2.471718580539987"><ele>73.0</ele><time>2026-04-24T13:24:13.998Z</time></trkpt><trkpt lat="49.17017963949444" lon="2.4717113519922016"><ele>72.8</ele><time>2026-04-24T13:24:15.998Z</time></trkpt><trkpt lat="49.170289177706614" lon="2.471690881084921"><ele>72.6</ele><time>2026-04-24T13:24:17.998Z</time></trkpt><trkpt lat="49.17040046708279" lon="2.471678673801074"><ele>72.4</ele><time>2026-04-24T13:24:19.998Z</time></trkpt><trkpt lat="49.17051433776794" lon="2.471669050475752"><ele>72.2</ele><time>2026-04-24T13:24:21.998Z</time></trkpt><trkpt lat="49.1706236350521" lon="2.4716525386287893"><ele>72.0</ele><time>2026-04-24T13:24:23.998Z</time></trkpt><trkpt lat="49.17073502039413" lon="2.4716401950751212"><ele>71.6</ele><time>2026-04-24T13:24:25.998Z</time></trkpt><trkpt lat="49.170840169029304" lon="2.4716302879080865"><ele>71.2</ele><time>2026-04-24T13:24:27.998Z</time></trkpt><trkpt lat="49.17094197078598" lon="2.471619408668721"><ele>70.8</ele><time>2026-04-24T13:24:29.998Z</time></trkpt><trkpt lat="49.171039013071294" lon="2.471598537619645"><ele>70.4</ele><time>2026-04-24T13:24:31.998Z</time></trkpt><trkpt lat="49.17113696484879" lon="2.4715817890035017"><ele>70.0</ele><time>2026-04-24T13:24:33.998Z</time></trkpt><trkpt lat="49.171232462437445" lon="2.4715702365911594"><ele>70.0</ele><time>2026-04-24T13:24:35.997Z</time></trkpt><trkpt lat="49.17132733922196" lon="2.4715577020581816"><ele>70.0</ele><time>2026-04-24T13:24:37.997Z</time></trkpt><trkpt lat="49.17142071710964" lon="2.4715456480152813"><ele>70.0</ele><time>2026-04-24T13:24:39.997Z</time></trkpt><trkpt lat="49.17151181228683" lon="2.4715256221925057"><ele>70.0</ele><time>2026-04-24T13:24:41.997Z</time></trkpt><trkpt lat="49.17160987453108" lon="2.4715040071154024"><ele>70.0</ele><time>2026-04-24T13:24:43.997Z</time></trkpt><trkpt lat="49.17170734884014" lon="2.471492379412552"><ele>70.0</ele><time>2026-04-24T13:24:45.997Z</time></trkpt><trkpt lat="49.17180899314806" lon="2.4714849773023024"><ele>70.0</ele><time>2026-04-24T13:24:47.997Z</time></trkpt><trkpt lat="49.17190352938574" lon="2.4714602873145863"><ele>70.0</ele><time>2026-04-24T13:24:49.997Z</time></trkpt><trkpt lat="49.17200486048873" lon="2.471438902240655"><ele>70.0</ele><time>2026-04-24T13:24:51.997Z</time></trkpt><trkpt lat="49.17210763468757" lon="2.47144154377892"><ele>70.0</ele><time>2026-04-24T13:24:53.997Z</time></trkpt><trkpt lat="49.17220981332943" lon="2.4714310277143032"><ele>70.0</ele><time>2026-04-24T13:24:55.997Z</time></trkpt><trkpt lat="49.17231380452695" lon="2.4714109258088937"><ele>70.0</ele><time>2026-04-24T13:24:58Z</time></trkpt><trkpt lat="49.172421764848174" lon="2.471402739537406"><ele>70.0</ele><time>2026-04-24T13:25:00Z</time></trkpt><trkpt lat="49.172524470664364" lon="2.4713946061818692"><ele>70.0</ele><time>2026-04-24T13:25:02Z</time></trkpt><trkpt lat="49.17261748971489" lon="2.4713718003524416"><ele>70.0</ele><time>2026-04-24T13:25:04Z</time></trkpt><trkpt lat="49.17271310458139" lon="2.4713579398489744"><ele>70.2</ele><time>2026-04-24T13:25:06Z</time></trkpt><trkpt lat="49.17281220952395" lon="2.471352730144806"><ele>70.4</ele><time>2026-04-24T13:25:08Z</time></trkpt><trkpt lat="49.17291025219625" lon="2.471345952549131"><ele>70.6</ele><time>2026-04-24T13:25:10Z</time></trkpt><trkpt lat="49.1730119556775" lon="2.4713373735814383"><ele>70.8</ele><time>2026-04-24T13:25:12Z</time></trkpt><trkpt lat="49.17311313282332" lon="2.4713226833111492"><ele>71.0</ele><time>2026-04-24T13:25:14Z</time></trkpt><trkpt lat="49.17321795054896" lon="2.4713015451720155"><ele>71.0</ele><time>2026-04-24T13:25:16Z</time></trkpt><trkpt lat="49.17332346380894" lon="2.4712849975854736"><ele>71.0</ele><time>2026-04-24T13:25:18Z</time></trkpt><trkpt lat="49.17343212765624" lon="2.471269901640435"><ele>71.0</ele><time>2026-04-24T13:25:20Z</time></trkpt><trkpt lat="49.173543680258334" lon="2.471260095287015"><ele>71.0</ele><time>2026-04-24T13:25:22Z</time></trkpt><trkpt lat="49.17365419002357" lon="2.4712364660814563"><ele>71.0</ele><time>2026-04-24T13:25:24Z</time></trkpt><trkpt lat="49.17376754042398" lon="2.4712181761890575"><ele>71.0</ele><time>2026-04-24T13:25:26Z</time></trkpt><trkpt lat="49.17387941022353" lon="2.4711966067641886"><ele>71.0</ele><time>2026-04-24T13:25:28Z</time></trkpt><trkpt lat="49.173992725001234" lon="2.471183931419215"><ele>71.0</ele><time>2026-04-24T13:25:29.999Z</time></trkpt><trkpt lat="49.17410544967545" lon="2.471176528756957"><ele>71.0</ele><time>2026-04-24T13:25:31.999Z</time></trkpt><trkpt lat="49.17421757014051" lon="2.4711693502320253"><ele>70.75</ele><time>2026-04-24T13:25:33.999Z</time></trkpt><trkpt lat="49.17432849282561" lon="2.471149354558783"><ele>70.5</ele><time>2026-04-24T13:25:35.999Z</time></trkpt><trkpt lat="49.17443877807772" lon="2.471131490357447"><ele>70.25</ele><time>2026-04-24T13:25:37.999Z</time></trkpt><trkpt lat="49.1745524098571" lon="2.471116416988451"><ele>70.0</ele><time>2026-04-24T13:25:39.999Z</time></trkpt><trkpt lat="49.174669929375014" lon="2.4711052702409146"><ele>70.0</ele><time>2026-04-24T13:25:41.999Z</time></trkpt><trkpt lat="49.17478012090034" lon="2.4710885198465937"><ele>70.0</ele><time>2026-04-24T13:25:43.999Z</time></trkpt><trkpt lat="49.17489660834523" lon="2.4710661456386815"><ele>70.0</ele><time>2026-04-24T13:25:45.999Z</time></trkpt><trkpt lat="49.17501185222718" lon="2.471046571269375"><ele>70.0</ele><time>2026-04-24T13:25:47.999Z</time></trkpt><trkpt lat="49.17512852117821" lon="2.4710341825111555"><ele>69.5</ele><time>2026-04-24T13:25:49.999Z</time></trkpt><trkpt lat="49.17524783372183" lon="2.471023011139803"><ele>69.0</ele><time>2026-04-24T13:25:51.999Z</time></trkpt><trkpt lat="49.17536627186513" lon="2.471004366252715"><ele>68.5</ele><time>2026-04-24T13:25:53.999Z</time></trkpt><trkpt lat="49.17548159287143" lon="2.4709799251364357"><ele>68.0</ele><time>2026-04-24T13:25:55.999Z</time></trkpt><trkpt lat="49.17559681431028" lon="2.4709627875690647"><ele>68.0</ele><time>2026-04-24T13:25:57.999Z</time></trkpt><trkpt lat="49.1757144569644" lon="2.47093965825467"><ele>68.0</ele><time>2026-04-24T13:25:59.999Z</time></trkpt><trkpt lat="49.17582785265942" lon="2.4709180689102497"><ele>68.0</ele><time>2026-04-24T13:26:01.999Z</time></trkpt><trkpt lat="49.175945033475784" lon="2.4708922143446306"><ele>68.0</ele><time>2026-04-24T13:26:03.998Z</time></trkpt><trkpt lat="49.17605083847608" lon="2.4708803819361487"><ele>68.0</ele><time>2026-04-24T13:26:05.998Z</time></trkpt><trkpt lat="49.17616439144846" lon="2.4708746065979894"><ele>68.0</ele><time>2026-04-24T13:26:07.998Z</time></trkpt><trkpt lat="49.17627540204796" lon="2.4708545732138605"><ele>68.0</ele><time>2026-04-24T13:26:09.998Z</time></trkpt><trkpt lat="49.17638678052552" lon="2.4708380598732904"><ele>68.0</ele><time>2026-04-24T13:26:11.998Z</time></trkpt><trkpt lat="49.17649850940103" lon="2.4708221448976846"><ele>68.0</ele><time>2026-04-24T13:26:13.998Z</time></trkpt><trkpt lat="49.17661241674437" lon="2.4708110737925453"><ele>68.0</ele><time>2026-04-24T13:26:15.998Z</time></trkpt><trkpt lat="49.176723458289494" lon="2.470800277502029"><ele>68.0</ele><time>2026-04-24T13:26:17.998Z</time></trkpt><trkpt lat="49.176840723267475" lon="2.4707907498902513"><ele>68.0</ele><time>2026-04-24T13:26:19.998Z</time></trkpt><trkpt lat="49.176957107099724" lon="2.4707750302396874"><ele>68.0</ele><time>2026-04-24T13:26:21.998Z</time></trkpt><trkpt lat="49.17707025426662" lon="2.4707578906656975"><ele>68.0</ele><time>2026-04-24T13:26:23.998Z</time></trkpt><trkpt lat="49.177179089526796" lon="2.470738413453354"><ele>68.0</ele><time>2026-04-24T13:26:25.998Z</time></trkpt><trkpt lat="49.177293247082346" lon="2.4707235324778267"><ele>68.0</ele><time>2026-04-24T13:26:27.998Z</time></trkpt><trkpt lat="49.17740183031605" lon="2.4706993145114176"><ele>68.0</ele><time>2026-04-24T13:26:29.998Z</time></trkpt><trkpt lat="49.17751161341431" lon="2.4706908198368067"><ele>68.0</ele><time>2026-04-24T13:26:31.998Z</time></trkpt><trkpt lat="49.177622018008755" lon="2.470679732568778"><ele>68.5</ele><time>2026-04-24T13:26:33.998Z</time></trkpt><trkpt lat="49.17773542435197" lon="2.470665430989317"><ele>69.0</ele><time>2026-04-24T13:26:35.998Z</time></trkpt><trkpt lat="49.17785000408072" lon="2.470643777107428"><ele>69.5</ele><time>2026-04-24T13:26:37.997Z</time></trkpt><trkpt lat="49.17796382730744" lon="2.470631211732591"><ele>70.0</ele><time>2026-04-24T13:26:39.997Z</time></trkpt><trkpt lat="49.17807960724886" lon="2.470612666019968"><ele>70.0</ele><time>2026-04-24T13:26:41.997Z</time></trkpt><trkpt lat="49.17819320808859" lon="2.4705838845929837"><ele>70.0</ele><time>2026-04-24T13:26:43.997Z</time></trkpt><trkpt lat="49.17830819120743" lon="2.4705707362574674"><ele>70.0</ele><time>2026-04-24T13:26:45.997Z</time></trkpt><trkpt lat="49.17842474676834" lon="2.47057504088581"><ele>70.0</ele><time>2026-04-24T13:26:47.997Z</time></trkpt><trkpt lat="49.178541189480306" lon="2.470555132703469"><ele>70.0</ele><time>2026-04-24T13:26:49.997Z</time></trkpt><trkpt lat="49.17866151651274" lon="2.4705393051761755"><ele>70.0</ele><time>2026-04-24T13:26:51.997Z</time></trkpt><trkpt lat="49.17877380643622" lon="2.470528393820244"><ele>70.0</ele><time>2026-04-24T13:26:53.997Z</time></trkpt><trkpt lat="49.17884158712556" lon="2.4705136550101714"><ele>70.0</ele><time>2026-04-24T13:26:54.997Z</time></trkpt><trkpt lat="49.178967153063105" lon="2.4704950882861736"><ele>70.0</ele><time>2026-04-24T13:26:56.997Z</time></trkpt><trkpt lat="49.179090095468645" lon="2.4704820062523427"><ele>69.71428571428571</ele><time>2026-04-24T13:26:58.997Z</time></trkpt><trkpt lat="49.179155432475476" lon="2.470467856980582"><ele>69.42857142857143</ele><time>2026-04-24T13:26:59.997Z</time></trkpt><trkpt lat="49.179219773308766" lon="2.470459865357725"><ele>69.14285714285714</ele><time>2026-04-24T13:27:00.997Z</time></trkpt><trkpt lat="49.17928319543868" lon="2.4704525853780175"><ele>68.85714285714286</ele><time>2026-04-24T13:27:01.997Z</time></trkpt><trkpt lat="49.17934605606289" lon="2.470439768307895"><ele>68.57142857142857</ele><time>2026-04-24T13:27:03Z</time></trkpt><trkpt lat="49.17941488022819" lon="2.470429325314652"><ele>68.28571428571428</ele><time>2026-04-24T13:27:04Z</time></trkpt><trkpt lat="49.17948351571026" lon="2.4704184576031474"><ele>68.0</ele><time>2026-04-24T13:27:05Z</time></trkpt><trkpt lat="49.17955069283151" lon="2.4704088130235085"><ele>68.0</ele><time>2026-04-24T13:27:06Z</time></trkpt><trkpt lat="49.17967917308474" lon="2.4703864190528666"><ele>68.0</ele><time>2026-04-24T13:27:08Z</time></trkpt><trkpt lat="49.17974568666944" lon="2.470380609497359"><ele>68.0</ele><time>2026-04-24T13:27:09Z</time></trkpt><trkpt lat="49.179877664652864" lon="2.4703564968855454"><ele>68.0</ele><time>2026-04-24T13:27:11Z</time></trkpt><trkpt lat="49.17994224900424" lon="2.470346062765217"><ele>68.0</ele><time>2026-04-24T13:27:12Z</time></trkpt><trkpt lat="49.18001154411008" lon="2.470342385189552"><ele>67.66666666666667</ele><time>2026-04-24T13:27:13Z</time></trkpt><trkpt lat="49.18007902470189" lon="2.470333301944051"><ele>67.33333333333334</ele><time>2026-04-24T13:27:14Z</time></trkpt><trkpt lat="49.18019895539792" lon="2.47032493418805"><ele>67.0</ele><time>2026-04-24T13:27:16Z</time></trkpt><trkpt lat="49.18026793270591" lon="2.4703180619621334"><ele>66.66666666666667</ele><time>2026-04-24T13:27:17Z</time></trkpt><trkpt lat="49.18035155346915" lon="2.470299527127799"><ele>66.33333333333333</ele><time>2026-04-24T13:27:18Z</time></trkpt><trkpt lat="49.18042486541592" lon="2.470286388126152"><ele>66.0</ele><time>2026-04-24T13:27:19Z</time></trkpt><trkpt lat="49.180496428718016" lon="2.4702740357290907"><ele>66.0</ele><time>2026-04-24T13:27:20Z</time></trkpt><trkpt lat="49.18056947534991" lon="2.4702662248727263"><ele>66.0</ele><time>2026-04-24T13:27:20.999Z</time></trkpt><trkpt lat="49.18064334225431" lon="2.4702591486236396"><ele>66.0</ele><time>2026-04-24T13:27:21.999Z</time></trkpt><trkpt lat="49.180715670374504" lon="2.470243340249616"><ele>66.0</ele><time>2026-04-24T13:27:22.999Z</time></trkpt><trkpt lat="49.18078947496543" lon="2.470225888431337"><ele>66.0</ele><time>2026-04-24T13:27:23.999Z</time></trkpt><trkpt lat="49.18086390016357" lon="2.4702136648537527"><ele>66.0</ele><time>2026-04-24T13:27:24.999Z</time></trkpt><trkpt lat="49.180935170713894" lon="2.4701975986516707"><ele>66.0</ele><time>2026-04-24T13:27:25.999Z</time></trkpt><trkpt lat="49.181009042847876" lon="2.4701785376611087"><ele>66.0</ele><time>2026-04-24T13:27:26.999Z</time></trkpt><trkpt lat="49.18108178897976" lon="2.4701688636554198"><ele>66.0</ele><time>2026-04-24T13:27:27.999Z</time></trkpt><trkpt lat="49.18115679518284" lon="2.4701631148400893"><ele>66.0</ele><time>2026-04-24T13:27:28.999Z</time></trkpt><trkpt lat="49.181229253394996" lon="2.4701504975900668"><ele>66.0</ele><time>2026-04-24T13:27:29.999Z</time></trkpt><trkpt lat="49.18130063126724" lon="2.4701369214387143"><ele>66.0</ele><time>2026-04-24T13:27:30.999Z</time></trkpt><trkpt lat="49.1813752493763" lon="2.4701234200491053"><ele>66.0</ele><time>2026-04-24T13:27:31.999Z</time></trkpt><trkpt lat="49.18144527485479" lon="2.4701058556979274"><ele>66.0</ele><time>2026-04-24T13:27:32.999Z</time></trkpt><trkpt lat="49.18151854021272" lon="2.4700914853556384"><ele>66.0</ele><time>2026-04-24T13:27:33.999Z</time></trkpt><trkpt lat="49.18159203808506" lon="2.470078312648958"><ele>66.0</ele><time>2026-04-24T13:27:34.999Z</time></trkpt><trkpt lat="49.18166405432496" lon="2.4700645312441374"><ele>66.0</ele><time>2026-04-24T13:27:35.999Z</time></trkpt><trkpt lat="49.18173825836607" lon="2.4700488856433873"><ele>66.0</ele><time>2026-04-24T13:27:36.999Z</time></trkpt><trkpt lat="49.18181021149108" lon="2.4700280352891966"><ele>66.0</ele><time>2026-04-24T13:27:37.999Z</time></trkpt><trkpt lat="49.18187758874366" lon="2.4700131241142813"><ele>66.0</ele><time>2026-04-24T13:27:38.999Z</time></trkpt><trkpt lat="49.18195243077733" lon="2.469999971040952"><ele>66.0</ele><time>2026-04-24T13:27:39.999Z</time></trkpt><trkpt lat="49.18202520868496" lon="2.4699812845866"><ele>66.0</ele><time>2026-04-24T13:27:40.999Z</time></trkpt><trkpt lat="49.182097435794084" lon="2.4699666461303487"><ele>66.0</ele><time>2026-04-24T13:27:41.999Z</time></trkpt><trkpt lat="49.18216939992068" lon="2.4699508019951297"><ele>66.0</ele><time>2026-04-24T13:27:42.999Z</time></trkpt><trkpt lat="49.18223990855488" lon="2.4699336194458663"><ele>66.0</ele><time>2026-04-24T13:27:43.999Z</time></trkpt><trkpt lat="49.18231016832602" lon="2.4699148370795774"><ele>66.0</ele><time>2026-04-24T13:27:44.999Z</time></trkpt><trkpt lat="49.18238011856194" lon="2.4698936448746722"><ele>66.0</ele><time>2026-04-24T13:27:45.999Z</time></trkpt><trkpt lat="49.18244952002689" lon="2.469876586360697"><ele>66.0</ele><time>2026-04-24T13:27:46.999Z</time></trkpt><trkpt lat="49.18251710714274" lon="2.469858826479087"><ele>65.85714285714286</ele><time>2026-04-24T13:27:47.999Z</time></trkpt><trkpt lat="49.18258367776552" lon="2.4698425009396265"><ele>65.71428571428572</ele><time>2026-04-24T13:27:48.999Z</time></trkpt><trkpt lat="49.182652554587875" lon="2.4698273522473944"><ele>65.57142857142858</ele><time>2026-04-24T13:27:49.999Z</time></trkpt><trkpt lat="49.18272188631931" lon="2.4698146008024966"><ele>65.42857142857143</ele><time>2026-04-24T13:27:50.999Z</time></trkpt><trkpt lat="49.18278693357418" lon="2.469799865390166"><ele>65.28571428571429</ele><time>2026-04-24T13:27:51.999Z</time></trkpt><trkpt lat="49.18285344231386" lon="2.469810345954045"><ele>65.14285714285715</ele><time>2026-04-24T13:27:52.999Z</time></trkpt><trkpt lat="49.18291760039722" lon="2.4697965142322484"><ele>65.0</ele><time>2026-04-24T13:27:53.999Z</time></trkpt><trkpt lat="49.182981923246835" lon="2.469782646988713"><ele>65.0</ele><time>2026-04-24T13:27:54.999Z</time></trkpt><trkpt lat="49.18304314716606" lon="2.4697440513270013"><ele>65.0</ele><time>2026-04-24T13:27:55.999Z</time></trkpt><trkpt lat="49.18310820087364" lon="2.469740218871313"><ele>65.0</ele><time>2026-04-24T13:27:56.999Z</time></trkpt><trkpt lat="49.18323308161979" lon="2.469707925508345"><ele>65.0</ele><time>2026-04-24T13:27:58.998Z</time></trkpt><trkpt lat="49.18329815395764" lon="2.4696878273340492"><ele>65.0</ele><time>2026-04-24T13:27:59.998Z</time></trkpt><trkpt lat="49.18336398839491" lon="2.4696733084117"><ele>65.0</ele><time>2026-04-24T13:28:00.998Z</time></trkpt><trkpt lat="49.18342732650629" lon="2.4696581763370187"><ele>65.16666666666667</ele><time>2026-04-24T13:28:01.998Z</time></trkpt><trkpt lat="49.18355204436797" lon="2.4696265005920264"><ele>65.33333333333334</ele><time>2026-04-24T13:28:03.998Z</time></trkpt><trkpt lat="49.18361536757716" lon="2.46961475320679"><ele>65.5</ele><time>2026-04-24T13:28:04.998Z</time></trkpt><trkpt lat="49.183735641906246" lon="2.4695872486409858"><ele>65.66666666666667</ele><time>2026-04-24T13:28:06.998Z</time></trkpt><trkpt lat="49.18379866185086" lon="2.4695711455581377"><ele>65.83333333333333</ele><time>2026-04-24T13:28:07.998Z</time></trkpt><trkpt lat="49.183861926601004" lon="2.469555771947906"><ele>66.0</ele><time>2026-04-24T13:28:08.998Z</time></trkpt><trkpt lat="49.183982263626035" lon="2.469524513274265"><ele>66.25</ele><time>2026-04-24T13:28:10.998Z</time></trkpt><trkpt lat="49.184102637499095" lon="2.469498787912338"><ele>66.5</ele><time>2026-04-24T13:28:12.998Z</time></trkpt><trkpt lat="49.18421770411928" lon="2.4694749745674693"><ele>66.75</ele><time>2026-04-24T13:28:14.998Z</time></trkpt><trkpt lat="49.18433214807098" lon="2.4694457278084285"><ele>67.0</ele><time>2026-04-24T13:28:16.998Z</time></trkpt><trkpt lat="49.184444987936814" lon="2.469422259879166"><ele>67.0</ele><time>2026-04-24T13:28:18.998Z</time></trkpt><trkpt lat="49.184557286772524" lon="2.4693923105538533"><ele>67.0</ele><time>2026-04-24T13:28:20.998Z</time></trkpt><trkpt lat="49.18466367894906" lon="2.469373487562563"><ele>67.0</ele><time>2026-04-24T13:28:22.998Z</time></trkpt><trkpt lat="49.18476740952159" lon="2.469357408926305"><ele>67.0</ele><time>2026-04-24T13:28:24.998Z</time></trkpt><trkpt lat="49.18487321414489" lon="2.4693210403771855"><ele>67.0</ele><time>2026-04-24T13:28:26.998Z</time></trkpt><trkpt lat="49.184977882279156" lon="2.4692994365165184"><ele>66.6</ele><time>2026-04-24T13:28:28.998Z</time></trkpt><trkpt lat="49.18508403322507" lon="2.469277643404827"><ele>66.2</ele><time>2026-04-24T13:28:30.998Z</time></trkpt><trkpt lat="49.18519088806946" lon="2.469245096675391"><ele>65.8</ele><time>2026-04-24T13:28:32.998Z</time></trkpt><trkpt lat="49.18529396319544" lon="2.4692018157192415"><ele>65.4</ele><time>2026-04-24T13:28:34.997Z</time></trkpt><trkpt lat="49.185394846921675" lon="2.469157705622307"><ele>65.0</ele><time>2026-04-24T13:28:36.997Z</time></trkpt><trkpt lat="49.185497897119475" lon="2.469098817740995"><ele>65.0</ele><time>2026-04-24T13:28:38.997Z</time></trkpt><trkpt lat="49.18559996328605" lon="2.469105733736959"><ele>65.0</ele><time>2026-04-24T13:28:40.997Z</time></trkpt><trkpt lat="49.18571492321251" lon="2.4691267866847086"><ele>65.0</ele><time>2026-04-24T13:28:42.997Z</time></trkpt><trkpt lat="49.18583316449559" lon="2.4690967203509766"><ele>65.0</ele><time>2026-04-24T13:28:44.997Z</time></trkpt><trkpt lat="49.18594730247974" lon="2.4690760480977527"><ele>65.0</ele><time>2026-04-24T13:28:46.997Z</time></trkpt><trkpt lat="49.186062559051145" lon="2.469044348411941"><ele>65.0</ele><time>2026-04-24T13:28:48.997Z</time></trkpt><trkpt lat="49.18618420966624" lon="2.4690165141580276"><ele>65.0</ele><time>2026-04-24T13:28:50.997Z</time></trkpt><trkpt lat="49.18630390251032" lon="2.4689917676727893"><ele>65.0</ele><time>2026-04-24T13:28:52.997Z</time></trkpt><trkpt lat="49.186420968208544" lon="2.4689597193725574"><ele>65.00000000000001</ele><time>2026-04-24T13:28:54.997Z</time></trkpt><trkpt lat="49.18648640531126" lon="2.4689456243844083"><ele>65.0</ele><time>2026-04-24T13:28:55.997Z</time></trkpt><trkpt lat="49.18654883335782" lon="2.468932446173432"><ele>65.0</ele><time>2026-04-24T13:28:56.997Z</time></trkpt><trkpt lat="49.18661145435638" lon="2.468918625040006"><ele>65.0</ele><time>2026-04-24T13:28:57.997Z</time></trkpt><trkpt lat="49.186674293924106" lon="2.468905084414293"><ele>65.0</ele><time>2026-04-24T13:28:58.997Z</time></trkpt><trkpt lat="49.186788409761846" lon="2.4688805099563975"><ele>65.00000000000001</ele><time>2026-04-24T13:29:00.997Z</time></trkpt><trkpt lat="49.186859183820076" lon="2.468866148627319"><ele>65.0</ele><time>2026-04-24T13:29:01.997Z</time></trkpt><trkpt lat="49.18692048183334" lon="2.4688402756045633"><ele>65.0</ele><time>2026-04-24T13:29:02.997Z</time></trkpt><trkpt lat="49.187048606224955" lon="2.468816053955341"><ele>65.0</ele><time>2026-04-24T13:29:04.997Z</time></trkpt><trkpt lat="49.18716308122186" lon="2.4687894431019246"><ele>65.0</ele><time>2026-04-24T13:29:06.997Z</time></trkpt><trkpt lat="49.18728351188522" lon="2.468769889566387"><ele>65.0</ele><time>2026-04-24T13:29:09Z</time></trkpt><trkpt lat="49.18737896583321" lon="2.4688829246634447"><ele>63.8</ele><time>2026-04-24T13:29:11Z</time></trkpt><trkpt lat="49.18747287031707" lon="2.4688103554013834"><ele>62.6</ele><time>2026-04-24T13:29:13Z</time></trkpt><trkpt lat="49.1874774633897" lon="2.4686374623079086"><ele>61.400000000000006</ele><time>2026-04-24T13:29:15Z</time></trkpt><trkpt lat="49.187474882867214" lon="2.468491027278936"><ele>60.2</ele><time>2026-04-24T13:29:17Z</time></trkpt><trkpt lat="49.18753705501568" lon="2.4683819056332372"><ele>59.0</ele><time>2026-04-24T13:29:19Z</time></trkpt><trkpt lat="49.187567375607905" lon="2.4682565744048377"><ele>59.00000000000001</ele><time>2026-04-24T13:29:22Z</time></trkpt><trkpt lat="49.187597400097545" lon="2.4681580152640787"><ele>59.0</ele><time>2026-04-24T13:29:24Z</time></trkpt><trkpt lat="49.18763442226457" lon="2.4680642472741336"><ele>59.0</ele><time>2026-04-24T13:29:26Z</time></trkpt><trkpt lat="49.18766090789094" lon="2.4679649170758386"><ele>59.0</ele><time>2026-04-24T13:29:28Z</time></trkpt><trkpt lat="49.18770345019727" lon="2.4678900691825807"><ele>59.00000000000001</ele><time>2026-04-24T13:29:30Z</time></trkpt><trkpt lat="49.1877688050955" lon="2.467865892165932"><ele>59.0</ele><time>2026-04-24T13:29:32Z</time></trkpt><trkpt lat="49.1877913613929" lon="2.4676355986081906"><ele>59.16666666666667</ele><time>2026-04-24T13:29:36Z</time></trkpt><trkpt lat="49.18776989709381" lon="2.4675189257595904"><ele>59.333333333333336</ele><time>2026-04-24T13:29:37.999Z</time></trkpt><trkpt lat="49.18774800964545" lon="2.4673999527671735"><ele>59.5</ele><time>2026-04-24T13:29:39.999Z</time></trkpt><trkpt lat="49.18772641255804" lon="2.4672825580970894"><ele>59.66666666666667</ele><time>2026-04-24T13:29:41.999Z</time></trkpt><trkpt lat="49.18770594669563" lon="2.4671713123996"><ele>59.833333333333336</ele><time>2026-04-24T13:29:43.999Z</time></trkpt><trkpt lat="49.18768795912465" lon="2.4670735378135826"><ele>60.0</ele><time>2026-04-24T13:29:45.999Z</time></trkpt><trkpt lat="49.187669469287485" lon="2.4669730331242135"><ele>60.0</ele><time>2026-04-24T13:29:48.999Z</time></trkpt><trkpt lat="49.18764613028609" lon="2.4668432914986194"><ele>60.0</ele><time>2026-04-24T13:31:21Z</time></trkpt><trkpt lat="49.18762756704037" lon="2.466736652660597"><ele>60.0</ele><time>2026-04-24T13:31:24Z</time></trkpt><trkpt lat="49.187610855931865" lon="2.466640653746466"><ele>60.0</ele><time>2026-04-24T13:31:27Z</time></trkpt><trkpt lat="49.18757874174638" lon="2.466543367810599"><ele>60.0</ele><time>2026-04-24T13:31:30Z</time></trkpt><trkpt lat="49.18755951998898" lon="2.4664346411418587"><ele>60.0</ele><time>2026-04-24T13:31:33Z</time></trkpt><trkpt lat="49.18754531161278" lon="2.4663403944540025"><ele>60.0</ele><time>2026-04-24T13:31:36Z</time></trkpt><trkpt lat="49.187525586753644" lon="2.4662399148647407"><ele>60.0</ele><time>2026-04-24T13:31:39Z</time></trkpt><trkpt lat="49.18750493475063" lon="2.4661213224777216"><ele>60.0</ele><time>2026-04-24T13:31:42Z</time></trkpt><trkpt lat="49.1874994938874" lon="2.466007371966755"><ele>60.0</ele><time>2026-04-24T13:31:45Z</time></trkpt><trkpt lat="49.187476543274805" lon="2.4658844777359716"><ele>60.0</ele><time>2026-04-24T13:31:47.999Z</time></trkpt><trkpt lat="49.18745102585309" lon="2.4657506543876333"><ele>60.0</ele><time>2026-04-24T13:31:50.999Z</time></trkpt><trkpt lat="49.187420584991855" lon="2.4656658775147555"><ele>60.0</ele><time>2026-04-24T13:31:52.999Z</time></trkpt><trkpt lat="49.187404296173476" lon="2.465529469753576"><ele>60.166666666666664</ele><time>2026-04-24T13:31:55.999Z</time></trkpt><trkpt lat="49.18736060647142" lon="2.4654088827853022"><ele>60.33333333333333</ele><time>2026-04-24T13:31:58.999Z</time></trkpt><trkpt lat="49.187337059776205" lon="2.46531755727373"><ele>60.5</ele><time>2026-04-24T13:32:00.999Z</time></trkpt><trkpt lat="49.187308807335086" lon="2.4652072442208857"><ele>60.666666666666664</ele><time>2026-04-24T13:32:03.999Z</time></trkpt><trkpt lat="49.18727608009963" lon="2.465084244064255"><ele>60.83333333333333</ele><time>2026-04-24T13:32:06.999Z</time></trkpt><trkpt lat="49.18725416858451" lon="2.4649918009152043"><ele>61.0</ele><time>2026-04-24T13:32:08.999Z</time></trkpt><trkpt lat="49.18722018220505" lon="2.464873620243983"><ele>60.99999999999999</ele><time>2026-04-24T13:32:11.999Z</time></trkpt><trkpt lat="49.1871881987734" lon="2.4647608961430305"><ele>61.0</ele><time>2026-04-24T13:32:14.999Z</time></trkpt><trkpt lat="49.18715981101885" lon="2.464640501481952"><ele>61.0</ele><time>2026-04-24T13:32:17.999Z</time></trkpt><trkpt lat="49.18712744520593" lon="2.4645234363394226"><ele>61.0</ele><time>2026-04-24T13:32:20.999Z</time></trkpt><trkpt lat="49.187101030418944" lon="2.4643986121048527"><ele>60.99999999999999</ele><time>2026-04-24T13:32:23.998Z</time></trkpt><trkpt lat="49.187079169794096" lon="2.4642747833041376"><ele>61.0</ele><time>2026-04-24T13:32:26.998Z</time></trkpt><trkpt lat="49.187048665156084" lon="2.4641533685664063"><ele>60.99999999999999</ele><time>2026-04-24T13:32:29.998Z</time></trkpt><trkpt lat="49.18700550223517" lon="2.464043735110037"><ele>61.0</ele><time>2026-04-24T13:32:32.998Z</time></trkpt><trkpt lat="49.186987431756684" lon="2.4639234440053714"><ele>61.0</ele><time>2026-04-24T13:32:35.998Z</time></trkpt><trkpt lat="49.18697543447695" lon="2.463807848294334"><ele>61.0</ele><time>2026-04-24T13:32:38.998Z</time></trkpt><trkpt lat="49.18694706955655" lon="2.463720573427764"><ele>60.99999999999999</ele><time>2026-04-24T13:32:41.998Z</time></trkpt><trkpt lat="49.186935399012" lon="2.463619685199798"><ele>61.0</ele><time>2026-04-24T13:32:44.998Z</time></trkpt><trkpt lat="49.18693506386807" lon="2.463499611524081"><ele>60.83333333333333</ele><time>2026-04-24T13:32:50.998Z</time></trkpt><trkpt lat="49.18691962838967" lon="2.4633684474745485"><ele>60.666666666666664</ele><time>2026-04-24T13:32:53.998Z</time></trkpt><trkpt lat="49.18690414395579" lon="2.463236867303402"><ele>60.5</ele><time>2026-04-24T13:32:56.997Z</time></trkpt><trkpt lat="49.186889887372125" lon="2.4631246864929395"><ele>60.33333333333333</ele><time>2026-04-24T13:32:58.997Z</time></trkpt><trkpt lat="49.18677293599717" lon="2.463105386417766"><ele>60.166666666666664</ele><time>2026-04-24T13:32:59.997Z</time></trkpt><trkpt lat="49.18674365447163" lon="2.462993862939439"><ele>60.0</ele><time>2026-04-24T13:33:01.997Z</time></trkpt><trkpt lat="49.18671512444463" lon="2.462879441796194"><ele>59.833333333333336</ele><time>2026-04-24T13:33:03.997Z</time></trkpt><trkpt lat="49.18668535757823" lon="2.4627632019911787"><ele>59.66666666666667</ele><time>2026-04-24T13:33:05.997Z</time></trkpt><trkpt lat="49.18666098185499" lon="2.4626466450099005"><ele>59.5</ele><time>2026-04-24T13:33:07.997Z</time></trkpt><trkpt lat="49.18663596277674" lon="2.4625274157791877"><ele>59.333333333333336</ele><time>2026-04-24T13:33:09.997Z</time></trkpt><trkpt lat="49.186610528938644" lon="2.4624069477600172"><ele>59.16666666666667</ele><time>2026-04-24T13:33:11.997Z</time></trkpt><trkpt lat="49.18658936280395" lon="2.4622865351646075"><ele>59.0</ele><time>2026-04-24T13:33:13.997Z</time></trkpt><trkpt lat="49.18656117871902" lon="2.462175258795126"><ele>58.833333333333336</ele><time>2026-04-24T13:33:15.997Z</time></trkpt><trkpt lat="49.18653944340571" lon="2.4620553651553982"><ele>58.66666666666667</ele><time>2026-04-24T13:33:17.997Z</time></trkpt><trkpt lat="49.186564576183905" lon="2.461948981763885"><ele>58.5</ele><time>2026-04-24T13:33:20Z</time></trkpt><trkpt lat="49.186615771668166" lon="2.4618704973935097"><ele>58.33333333333333</ele><time>2026-04-24T13:33:22Z</time></trkpt><trkpt lat="49.18652408805388" lon="2.461862395920124"><ele>58.166666666666664</ele><time>2026-04-24T13:33:23Z</time></trkpt><trkpt lat="49.18650063988342" lon="2.46175735184496"><ele>58.0</ele><time>2026-04-24T13:33:25Z</time></trkpt><trkpt lat="49.18665599728475" lon="2.4615737693098576"><ele>58.00000000000001</ele><time>2026-04-24T13:33:27Z</time></trkpt><trkpt lat="49.186679199669065" lon="2.461459955346393"><ele>58.0</ele><time>2026-04-24T13:33:29Z</time></trkpt><trkpt lat="49.18670194550519" lon="2.461340633564291"><ele>58.00000000000001</ele><time>2026-04-24T13:33:31Z</time></trkpt><trkpt lat="49.1867609809484" lon="2.461286537798763"><ele>58.00000000000001</ele><time>2026-04-24T13:33:34Z</time></trkpt><trkpt lat="49.18682604645017" lon="2.4613483520242183"><ele>58.0</ele><time>2026-04-24T13:33:36Z</time></trkpt><trkpt lat="49.18689522102846" lon="2.4613932549068984"><ele>58.00000000000001</ele><time>2026-04-24T13:33:38Z</time></trkpt><trkpt lat="49.18695599876405" lon="2.4614453938524807"><ele>58.00000000000001</ele><time>2026-04-24T13:33:40Z</time></trkpt><trkpt lat="49.18702395633693" lon="2.461486840004909"><ele>57.99999999999999</ele><time>2026-04-24T13:33:42Z</time></trkpt><trkpt lat="49.18709095412344" lon="2.461524162398633"><ele>58.0</ele><time>2026-04-24T13:33:44Z</time></trkpt><trkpt lat="49.18715888818178" lon="2.4615581051910937"><ele>58.0</ele><time>2026-04-24T13:33:46Z</time></trkpt><trkpt lat="49.18723419244032" lon="2.4615961523998666"><ele>58.0</ele><time>2026-04-24T13:33:48Z</time></trkpt><trkpt lat="49.18730583041531" lon="2.461649835231994"><ele>57.99999999999999</ele><time>2026-04-24T13:33:50Z</time></trkpt><trkpt lat="49.18737712823662" lon="2.461697852082185"><ele>58.0</ele><time>2026-04-24T13:33:51.999Z</time></trkpt><trkpt lat="49.187468592629045" lon="2.461750356422795"><ele>58.14285714285715</ele><time>2026-04-24T13:33:54.999Z</time></trkpt><trkpt lat="49.18754550980827" lon="2.4618049915816282"><ele>58.28571428571429</ele><time>2026-04-24T13:33:56.999Z</time></trkpt><trkpt lat="49.187614421784424" lon="2.4618474944377966"><ele>58.42857142857143</ele><time>2026-04-24T13:33:58.999Z</time></trkpt><trkpt lat="49.18767792091669" lon="2.461885118163978"><ele>58.57142857142858</ele><time>2026-04-24T13:34:00.999Z</time></trkpt><trkpt lat="49.187737895217" lon="2.4619241407967056"><ele>58.71428571428572</ele><time>2026-04-24T13:34:02.999Z</time></trkpt><trkpt lat="49.18779660375961" lon="2.4619617912006935"><ele>58.857142857142854</ele><time>2026-04-24T13:34:04.999Z</time></trkpt><trkpt lat="49.18785148951216" lon="2.4620102513071966"><ele>59.0</ele><time>2026-04-24T13:34:06.999Z</time></trkpt><trkpt lat="49.18791913726311" lon="2.462053510137113"><ele>59.00000000000001</ele><time>2026-04-24T13:34:08.999Z</time></trkpt><trkpt lat="49.18798974017045" lon="2.462099048974189"><ele>59.0</ele><time>2026-04-24T13:34:10.999Z</time></trkpt><trkpt lat="49.188067764117996" lon="2.4621342707157945"><ele>59.0</ele><time>2026-04-24T13:34:12.999Z</time></trkpt><trkpt lat="49.18814592090323" lon="2.4621974372884634"><ele>59.0</ele><time>2026-04-24T13:34:15.999Z</time></trkpt><trkpt lat="49.18821188000396" lon="2.4622330581274023"><ele>59.00000000000001</ele><time>2026-04-24T13:34:17.999Z</time></trkpt><trkpt lat="49.18827356388812" lon="2.462273100678321"><ele>59.0</ele><time>2026-04-24T13:34:19.999Z</time></trkpt><trkpt lat="49.18836772722178" lon="2.4621802922281466"><ele>58.66666666666667</ele><time>2026-04-24T13:34:21.999Z</time></trkpt><trkpt lat="49.18847530086739" lon="2.462250618342388"><ele>58.333333333333336</ele><time>2026-04-24T13:34:24.998Z</time></trkpt><trkpt lat="49.18854080042389" lon="2.462293438577721"><ele>58.0</ele><time>2026-04-24T13:34:26.998Z</time></trkpt><trkpt lat="49.18860196227987" lon="2.462333422180523"><ele>57.66666666666667</ele><time>2026-04-24T13:34:28.998Z</time></trkpt><trkpt lat="49.188664411278914" lon="2.4623742470784116"><ele>57.333333333333336</ele><time>2026-04-24T13:34:30.998Z</time></trkpt><trkpt lat="49.18875009149477" lon="2.4624261359681583"><ele>57.0</ele><time>2026-04-24T13:34:33.998Z</time></trkpt><trkpt lat="49.18881448003072" lon="2.4624669013108593"><ele>57.0</ele><time>2026-04-24T13:34:35.998Z</time></trkpt><trkpt lat="49.18889073144221" lon="2.4625150551931108"><ele>57.0</ele><time>2026-04-24T13:34:37.998Z</time></trkpt><trkpt lat="49.188958536023456" lon="2.462557747939799"><ele>57.0</ele><time>2026-04-24T13:34:39.998Z</time></trkpt><trkpt lat="49.18902159559958" lon="2.462597453052294"><ele>57.0</ele><time>2026-04-24T13:34:41.998Z</time></trkpt><trkpt lat="49.18909448003352" lon="2.462643344326025"><ele>57.0</ele><time>2026-04-24T13:34:43.998Z</time></trkpt><trkpt lat="49.18916140898868" lon="2.462685485774105"><ele>57.0</ele><time>2026-04-24T13:34:45.998Z</time></trkpt><trkpt lat="49.18924589842069" lon="2.4627386840282846"><ele>57.0</ele><time>2026-04-24T13:34:48.998Z</time></trkpt><trkpt lat="49.18930984794535" lon="2.462778949529577"><ele>57.0</ele><time>2026-04-24T13:34:50.998Z</time></trkpt><trkpt lat="49.18943456250435" lon="2.462859203139487"><ele>57.0</ele><time>2026-04-24T13:34:53.998Z</time></trkpt><trkpt lat="49.189514786094506" lon="2.462910927456855"><ele>57.0</ele><time>2026-04-24T13:34:55.998Z</time></trkpt><trkpt lat="49.189576810550456" lon="2.4629509177748012"><ele>57.0</ele><time>2026-04-24T13:34:57.998Z</time></trkpt><trkpt lat="49.18965829041059" lon="2.46300345199475"><ele>57.0</ele><time>2026-04-24T13:34:59.997Z</time></trkpt><trkpt lat="49.189724619744446" lon="2.4630462179384014"><ele>57.0</ele><time>2026-04-24T13:35:01.997Z</time></trkpt><trkpt lat="49.18978525365831" lon="2.4631056610458293"><ele>57.0</ele><time>2026-04-24T13:35:04.997Z</time></trkpt><trkpt lat="49.18984542660911" lon="2.4630452084933916"><ele>57.0</ele><time>2026-04-24T13:35:09.997Z</time></trkpt><trkpt lat="49.18992989407708" lon="2.4631187483242596"><ele>57.0</ele><time>2026-04-24T13:35:12.997Z</time></trkpt><trkpt lat="49.190007605422196" lon="2.463149300958115"><ele>57.0</ele><time>2026-04-24T13:35:14.997Z</time></trkpt><trkpt lat="49.19008101416061" lon="2.463206725962765"><ele>57.0</ele><time>2026-04-24T13:35:16.997Z</time></trkpt><trkpt lat="49.19015605289745" lon="2.4632592888812224"><ele>56.833333333333336</ele><time>2026-04-24T13:35:18.997Z</time></trkpt><trkpt lat="49.19023050817342" lon="2.4633077188160977"><ele>56.66666666666667</ele><time>2026-04-24T13:35:20.997Z</time></trkpt><trkpt lat="49.19030579388734" lon="2.4633644502054346"><ele>56.5</ele><time>2026-04-24T13:35:22.997Z</time></trkpt><trkpt lat="49.19038748905873" lon="2.4634117109571294"><ele>56.333333333333336</ele><time>2026-04-24T13:35:24.997Z</time></trkpt><trkpt lat="49.19046989778352" lon="2.4634575478323866"><ele>56.16666666666667</ele><time>2026-04-24T13:35:27Z</time></trkpt><trkpt lat="49.19055046212916" lon="2.463511460935056"><ele>56.0</ele><time>2026-04-24T13:35:29Z</time></trkpt><trkpt lat="49.19063399708055" lon="2.4635610114812687"><ele>55.8</ele><time>2026-04-24T13:35:31Z</time></trkpt><trkpt lat="49.19072262295339" lon="2.463619394616298"><ele>55.599999999999994</ele><time>2026-04-24T13:35:33Z</time></trkpt><trkpt lat="49.19080972275079" lon="2.463674578839155"><ele>55.4</ele><time>2026-04-24T13:35:35Z</time></trkpt><trkpt lat="49.19090082021582" lon="2.463727613083046"><ele>55.2</ele><time>2026-04-24T13:35:37Z</time></trkpt><trkpt lat="49.19099087817759" lon="2.4637858442315386"><ele>55.0</ele><time>2026-04-24T13:35:39Z</time></trkpt><trkpt lat="49.191083053034326" lon="2.4638438524447337"><ele>55.4</ele><time>2026-04-24T13:35:41Z</time></trkpt><trkpt lat="49.191171791544356" lon="2.4639041090382086"><ele>55.8</ele><time>2026-04-24T13:35:43Z</time></trkpt><trkpt lat="49.19126246210251" lon="2.463963243801334"><ele>56.2</ele><time>2026-04-24T13:35:45Z</time></trkpt><trkpt lat="49.191356944561036" lon="2.4640203522743334"><ele>56.6</ele><time>2026-04-24T13:35:47Z</time></trkpt><trkpt lat="49.19145258643579" lon="2.464082488977927"><ele>57.0</ele><time>2026-04-24T13:35:49Z</time></trkpt><trkpt lat="49.191550267694524" lon="2.464140165241773"><ele>57.0</ele><time>2026-04-24T13:35:51Z</time></trkpt><trkpt lat="49.19163655559033" lon="2.4642061226541028"><ele>57.0</ele><time>2026-04-24T13:35:53Z</time></trkpt><trkpt lat="49.19173646692182" lon="2.464262388079962"><ele>57.0</ele><time>2026-04-24T13:35:55Z</time></trkpt><trkpt lat="49.191831147288376" lon="2.4643245311064943"><ele>57.0</ele><time>2026-04-24T13:35:56.999Z</time></trkpt><trkpt lat="49.19192863517492" lon="2.4643848564315647"><ele>57.0</ele><time>2026-04-24T13:35:58.999Z</time></trkpt><trkpt lat="49.19202323514861" lon="2.46444311263329"><ele>57.0</ele><time>2026-04-24T13:36:00.999Z</time></trkpt><trkpt lat="49.192129226919924" lon="2.464496007581929"><ele>57.0</ele><time>2026-04-24T13:36:02.999Z</time></trkpt><trkpt lat="49.1922079215817" lon="2.4645569879744014"><ele>57.0</ele><time>2026-04-24T13:36:04.999Z</time></trkpt><trkpt lat="49.19230655680706" lon="2.4646137301602984"><ele>57.0</ele><time>2026-04-24T13:36:06.999Z</time></trkpt><trkpt lat="49.19239499842862" lon="2.464677817241394"><ele>57.0</ele><time>2026-04-24T13:36:08.999Z</time></trkpt><trkpt lat="49.19248487295628" lon="2.464734194924663"><ele>56.8</ele><time>2026-04-24T13:36:10.999Z</time></trkpt><trkpt lat="49.19257814112019" lon="2.4647920669713694"><ele>56.6</ele><time>2026-04-24T13:36:12.999Z</time></trkpt><trkpt lat="49.1926772602474" lon="2.4648286605000385"><ele>56.39999999999999</ele><time>2026-04-24T13:36:14.999Z</time></trkpt><trkpt lat="49.19277324583387" lon="2.464867958697433"><ele>56.199999999999996</ele><time>2026-04-24T13:36:16.999Z</time></trkpt><trkpt lat="49.19285913366623" lon="2.464929917948362"><ele>56.0</ele><time>2026-04-24T13:36:18.999Z</time></trkpt><trkpt lat="49.19295060527537" lon="2.4649929720603074"><ele>56.00000000000001</ele><time>2026-04-24T13:36:20.999Z</time></trkpt><trkpt lat="49.193027044221814" lon="2.4650580009255636"><ele>56.0</ele><time>2026-04-24T13:36:22.999Z</time></trkpt><trkpt lat="49.19307406982535" lon="2.465162285271246"><ele>56.0</ele><time>2026-04-24T13:36:24.999Z</time></trkpt><trkpt lat="49.19315439051853" lon="2.4652102713515274"><ele>56.0</ele><time>2026-04-24T13:36:27.999Z</time></trkpt><trkpt lat="49.19321219399296" lon="2.4652495309189884"><ele>56.00000000000001</ele><time>2026-04-24T13:36:30.998Z</time></trkpt><trkpt lat="49.19327696083837" lon="2.4653037345013686"><ele>56.0</ele><time>2026-04-24T13:36:36.998Z</time></trkpt><trkpt lat="49.19335615535221" lon="2.465289646028749"><ele>55.8</ele><time>2026-04-24T13:36:38.998Z</time></trkpt><trkpt lat="49.19343997806424" lon="2.4653626604312096"><ele>55.599999999999994</ele><time>2026-04-24T13:36:40.998Z</time></trkpt><trkpt lat="49.19353034874549" lon="2.4654115496395983"><ele>55.4</ele><time>2026-04-24T13:36:42.998Z</time></trkpt><trkpt lat="49.19362664726602" lon="2.465469839422543"><ele>55.2</ele><time>2026-04-24T13:36:44.998Z</time></trkpt><trkpt lat="49.19372693921363" lon="2.465529506208178"><ele>55.0</ele><time>2026-04-24T13:36:46.998Z</time></trkpt><trkpt lat="49.193831741786035" lon="2.4655942861085474"><ele>55.0</ele><time>2026-04-24T13:36:48.998Z</time></trkpt><trkpt lat="49.19393545866981" lon="2.465657083393816"><ele>55.0</ele><time>2026-04-24T13:36:50.998Z</time></trkpt><trkpt lat="49.19404010843898" lon="2.4657160225673027"><ele>55.0</ele><time>2026-04-24T13:36:52.998Z</time></trkpt><trkpt lat="49.194137930713225" lon="2.4657932005935033"><ele>55.0</ele><time>2026-04-24T13:36:54.998Z</time></trkpt><trkpt lat="49.19416206279031" lon="2.465974171761929"><ele>54.8</ele><time>2026-04-24T13:36:56.998Z</time></trkpt><trkpt lat="49.19415323811707" lon="2.466070855470961"><ele>54.6</ele><time>2026-04-24T13:36:57.998Z</time></trkpt><trkpt lat="49.1941579427449" lon="2.4662397791733977"><ele>54.400000000000006</ele><time>2026-04-24T13:36:59.998Z</time></trkpt><trkpt lat="49.19417233051105" lon="2.4664043877172475"><ele>54.2</ele><time>2026-04-24T13:37:01.998Z</time></trkpt><trkpt lat="49.19417754157441" lon="2.4665631690274386"><ele>54.0</ele><time>2026-04-24T13:37:03.997Z</time></trkpt><trkpt lat="49.19417783252323" lon="2.466717635987075"><ele>54.0</ele><time>2026-04-24T13:37:05.997Z</time></trkpt><trkpt lat="49.194183885936965" lon="2.4668645548891166"><ele>54.00000000000001</ele><time>2026-04-24T13:37:07.997Z</time></trkpt><trkpt lat="49.1941903736838" lon="2.467010248112322"><ele>54.00000000000001</ele><time>2026-04-24T13:37:09.997Z</time></trkpt><trkpt lat="49.19419369643578" lon="2.4671490555511646"><ele>54.0</ele><time>2026-04-24T13:37:11.997Z</time></trkpt><trkpt lat="49.194196508248744" lon="2.467283106065646"><ele>54.0</ele><time>2026-04-24T13:37:13.997Z</time></trkpt><trkpt lat="49.194201725876475" lon="2.467412660872578"><ele>54.5</ele><time>2026-04-24T13:37:15.997Z</time></trkpt><trkpt lat="49.1942075433214" lon="2.467536196563812"><ele>55.0</ele><time>2026-04-24T13:37:17.997Z</time></trkpt><trkpt lat="49.19420889619407" lon="2.4676655579341222"><ele>55.5</ele><time>2026-04-24T13:37:19.997Z</time></trkpt><trkpt lat="49.194213781887406" lon="2.46780238687453"><ele>56.0</ele><time>2026-04-24T13:37:21.997Z</time></trkpt><trkpt lat="49.19422041131942" lon="2.467937739981283"><ele>56.5</ele><time>2026-04-24T13:37:23.997Z</time></trkpt><trkpt lat="49.19422697882656" lon="2.468071455764211"><ele>57.0</ele><time>2026-04-24T13:37:25.997Z</time></trkpt><trkpt lat="49.19423068346352" lon="2.4682063561373306"><ele>57.0</ele><time>2026-04-24T13:37:27.997Z</time></trkpt><trkpt lat="49.19423258007361" lon="2.4683422167876534"><ele>57.0</ele><time>2026-04-24T13:37:29.997Z</time></trkpt><trkpt lat="49.19423816582795" lon="2.4684782661936957"><ele>57.0</ele><time>2026-04-24T13:37:32Z</time></trkpt><trkpt lat="49.19424179381333" lon="2.4686156253259646"><ele>57.0</ele><time>2026-04-24T13:37:34Z</time></trkpt><trkpt lat="49.19425075951909" lon="2.468752955184597"><ele>57.0</ele><time>2026-04-24T13:37:36Z</time></trkpt><trkpt lat="49.19425474379436" lon="2.4688890471160794"><ele>57.0</ele><time>2026-04-24T13:37:38Z</time></trkpt><trkpt lat="49.19425900869884" lon="2.469026093205473"><ele>56.8</ele><time>2026-04-24T13:37:40Z</time></trkpt><trkpt lat="49.19426438201431" lon="2.4691623376611678"><ele>56.6</ele><time>2026-04-24T13:37:42Z</time></trkpt><trkpt lat="49.194268786158766" lon="2.4693023637634006"><ele>56.39999999999999</ele><time>2026-04-24T13:37:44Z</time></trkpt><trkpt lat="49.194273400422844" lon="2.4694424580813887"><ele>56.199999999999996</ele><time>2026-04-24T13:37:46Z</time></trkpt><trkpt lat="49.19428033490965" lon="2.4695833061682277"><ele>56.0</ele><time>2026-04-24T13:37:48Z</time></trkpt><trkpt lat="49.19428365053939" lon="2.4697222204783764"><ele>56.0</ele><time>2026-04-24T13:37:50Z</time></trkpt><trkpt lat="49.19428900494812" lon="2.469865533730064"><ele>55.99999999999999</ele><time>2026-04-24T13:37:52Z</time></trkpt><trkpt lat="49.19429348845645" lon="2.470008248082104"><ele>55.99999999999999</ele><time>2026-04-24T13:37:54Z</time></trkpt><trkpt lat="49.194296842370285" lon="2.4701563871732826"><ele>56.0</ele><time>2026-04-24T13:37:56Z</time></trkpt><trkpt lat="49.19430316329796" lon="2.470310193240447"><ele>56.0</ele><time>2026-04-24T13:37:58Z</time></trkpt><trkpt lat="49.19431114138681" lon="2.4704531478826732"><ele>56.0</ele><time>2026-04-24T13:38:00Z</time></trkpt><trkpt lat="49.19431743312731" lon="2.470599230588273"><ele>55.99999999999999</ele><time>2026-04-24T13:38:01.999Z</time></trkpt><trkpt lat="49.194324558284585" lon="2.470749305545551"><ele>55.99999999999999</ele><time>2026-04-24T13:38:03.999Z</time></trkpt><trkpt lat="49.19432841377805" lon="2.4708928517118434"><ele>56.0</ele><time>2026-04-24T13:38:05.999Z</time></trkpt><trkpt lat="49.19433538331895" lon="2.4710460718255796"><ele>56.0</ele><time>2026-04-24T13:38:07.999Z</time></trkpt><trkpt lat="49.194334703102804" lon="2.4711914286407257"><ele>56.0</ele><time>2026-04-24T13:38:09.999Z</time></trkpt><trkpt lat="49.19433821291042" lon="2.4713456146648847"><ele>55.99999999999999</ele><time>2026-04-24T13:38:11.999Z</time></trkpt><trkpt lat="49.1943445685145" lon="2.4715077994356554"><ele>55.99999999999999</ele><time>2026-04-24T13:38:13.999Z</time></trkpt><trkpt lat="49.19435155171591" lon="2.471670277405744"><ele>56.0</ele><time>2026-04-24T13:38:15.999Z</time></trkpt><trkpt lat="49.194359283153446" lon="2.471832430296872"><ele>56.0</ele><time>2026-04-24T13:38:17.999Z</time></trkpt><trkpt lat="49.19436668821" lon="2.471997335682317"><ele>55.8</ele><time>2026-04-24T13:38:19.999Z</time></trkpt><trkpt lat="49.194352763008354" lon="2.472165842432275"><ele>55.599999999999994</ele><time>2026-04-24T13:38:21.999Z</time></trkpt><trkpt lat="49.19437688738225" lon="2.4723305333222236"><ele>55.4</ele><time>2026-04-24T13:38:23.999Z</time></trkpt><trkpt lat="49.19438096935539" lon="2.4724975028801874"><ele>55.2</ele><time>2026-04-24T13:38:25.999Z</time></trkpt><trkpt lat="49.19438300295239" lon="2.4726646132653025"><ele>55.0</ele><time>2026-04-24T13:38:27.999Z</time></trkpt><trkpt lat="49.19438749059816" lon="2.472827173224252"><ele>55.2</ele><time>2026-04-24T13:38:29.999Z</time></trkpt><trkpt lat="49.19439744002042" lon="2.472996747840525"><ele>55.4</ele><time>2026-04-24T13:38:31.999Z</time></trkpt><trkpt lat="49.19440072404339" lon="2.473168563847375"><ele>55.599999999999994</ele><time>2026-04-24T13:38:33.998Z</time></trkpt><trkpt lat="49.19440806078849" lon="2.473339731563406"><ele>55.8</ele><time>2026-04-24T13:38:35.998Z</time></trkpt><trkpt lat="49.19441262641558" lon="2.4735126437088235"><ele>56.0</ele><time>2026-04-24T13:38:37.998Z</time></trkpt><trkpt lat="49.19442032435415" lon="2.4736812193497464"><ele>56.4</ele><time>2026-04-24T13:38:39.998Z</time></trkpt><trkpt lat="49.194430185178" lon="2.47385146218595"><ele>56.8</ele><time>2026-04-24T13:38:41.998Z</time></trkpt><trkpt lat="49.194437432803674" lon="2.4740215243335"><ele>57.199999999999996</ele><time>2026-04-24T13:38:43.998Z</time></trkpt><trkpt lat="49.19444328146074" lon="2.4741901475027666"><ele>57.599999999999994</ele><time>2026-04-24T13:38:45.998Z</time></trkpt><trkpt lat="49.1944528234864" lon="2.4743586488586757"><ele>58.0</ele><time>2026-04-24T13:38:47.998Z</time></trkpt><trkpt lat="49.1944571797276" lon="2.474521783041599"><ele>57.8</ele><time>2026-04-24T13:38:49.998Z</time></trkpt><trkpt lat="49.19446092910025" lon="2.4746889773013883"><ele>57.599999999999994</ele><time>2026-04-24T13:38:51.998Z</time></trkpt><trkpt lat="49.194469741553505" lon="2.474863227048297"><ele>57.400000000000006</ele><time>2026-04-24T13:38:53.998Z</time></trkpt><trkpt lat="49.19448363707345" lon="2.4750307575455484"><ele>57.2</ele><time>2026-04-24T13:38:55.998Z</time></trkpt><trkpt lat="49.19449165048018" lon="2.475199961661572"><ele>57.0</ele><time>2026-04-24T13:38:57.998Z</time></trkpt><trkpt lat="49.19450098813899" lon="2.475367605412629"><ele>56.25</ele><time>2026-04-24T13:38:59.998Z</time></trkpt><trkpt lat="49.19450635766124" lon="2.4755410574631034"><ele>55.5</ele><time>2026-04-24T13:39:01.998Z</time></trkpt><trkpt lat="49.19451085346877" lon="2.475715608082786"><ele>54.75</ele><time>2026-04-24T13:39:03.998Z</time></trkpt><trkpt lat="49.194518949736036" lon="2.4758893921036185"><ele>54.0</ele><time>2026-04-24T13:39:05.998Z</time></trkpt><trkpt lat="49.19451354423963" lon="2.4760753706267984"><ele>54.0</ele><time>2026-04-24T13:39:07.997Z</time></trkpt><trkpt lat="49.19450759557632" lon="2.476251512927073"><ele>54.0</ele><time>2026-04-24T13:39:09.997Z</time></trkpt><trkpt lat="49.19450141675454" lon="2.476430333465352"><ele>54.0</ele><time>2026-04-24T13:39:11.997Z</time></trkpt><trkpt lat="49.19450110102021" lon="2.476607259537959"><ele>54.0</ele><time>2026-04-24T13:39:13.997Z</time></trkpt><trkpt lat="49.194495762907664" lon="2.4767856632165146"><ele>53.800000000000004</ele><time>2026-04-24T13:39:15.997Z</time></trkpt><trkpt lat="49.194490224303365" lon="2.476963589502282"><ele>53.60000000000001</ele><time>2026-04-24T13:39:17.997Z</time></trkpt><trkpt lat="49.194489034017266" lon="2.4771297848143123"><ele>53.4</ele><time>2026-04-24T13:39:19.997Z</time></trkpt><trkpt lat="49.194424176259076" lon="2.4772365799912786"><ele>53.2</ele><time>2026-04-24T13:39:21.997Z</time></trkpt><trkpt lat="49.19434603121012" lon="2.477329222486845"><ele>53.0</ele><time>2026-04-24T13:39:23.997Z</time></trkpt><trkpt lat="49.19425982018882" lon="2.477371575081439"><ele>53.0</ele><time>2026-04-24T13:39:25.997Z</time></trkpt><trkpt lat="49.194169356372335" lon="2.4773380079326857"><ele>53.0</ele><time>2026-04-24T13:39:27.997Z</time></trkpt><trkpt lat="49.19408510891977" lon="2.477282936072562"><ele>53.0</ele><time>2026-04-24T13:39:29.997Z</time></trkpt><trkpt lat="49.1939966682804" lon="2.4772677299903116"><ele>53.0</ele><time>2026-04-24T13:39:31.997Z</time></trkpt><trkpt lat="49.19390386508955" lon="2.4772461906658254"><ele>53.0</ele><time>2026-04-24T13:39:33.997Z</time></trkpt><trkpt lat="49.193816636808954" lon="2.477215009002842"><ele>53.2</ele><time>2026-04-24T13:39:35.997Z</time></trkpt><trkpt lat="49.193725801842824" lon="2.477230616575523"><ele>53.4</ele><time>2026-04-24T13:39:38Z</time></trkpt><trkpt lat="49.193639024467934" lon="2.477286539915027"><ele>53.60000000000001</ele><time>2026-04-24T13:39:40Z</time></trkpt><trkpt lat="49.19355121419762" lon="2.477277578568422"><ele>53.800000000000004</ele><time>2026-04-24T13:39:42Z</time></trkpt><trkpt lat="49.19346733678972" lon="2.4773427924817075"><ele>54.0</ele><time>2026-04-24T13:39:44Z</time></trkpt><trkpt lat="49.19343065263563" lon="2.477473975427999"><ele>54.0</ele><time>2026-04-24T13:39:46Z</time></trkpt><trkpt lat="49.19340747722481" lon="2.4776152009658974"><ele>54.00000000000001</ele><time>2026-04-24T13:39:48Z</time></trkpt><trkpt lat="49.19338931667791" lon="2.477762167435728"><ele>54.00000000000001</ele><time>2026-04-24T13:39:50Z</time></trkpt><trkpt lat="49.193396725769304" lon="2.4779149789100043"><ele>54.0</ele><time>2026-04-24T13:39:52Z</time></trkpt><trkpt lat="49.19340211943052" lon="2.478057544877356"><ele>54.0</ele><time>2026-04-24T13:39:54Z</time></trkpt><trkpt lat="49.193405453441166" lon="2.4782044999120982"><ele>54.2</ele><time>2026-04-24T13:39:56Z</time></trkpt><trkpt lat="49.19340754792196" lon="2.4783597024518054"><ele>54.400000000000006</ele><time>2026-04-24T13:39:58Z</time></trkpt><trkpt lat="49.19341369306499" lon="2.478513453705368"><ele>54.6</ele><time>2026-04-24T13:40:00Z</time></trkpt><trkpt lat="49.193414747673735" lon="2.4786667666199693"><ele>54.8</ele><time>2026-04-24T13:40:02Z</time></trkpt><trkpt lat="49.19341601666352" lon="2.4788199564792675"><ele>55.0</ele><time>2026-04-24T13:40:04Z</time></trkpt><trkpt lat="49.19342001849715" lon="2.4789859563780228"><ele>55.2</ele><time>2026-04-24T13:40:06Z</time></trkpt><trkpt lat="49.19342423764961" lon="2.479145297415083"><ele>55.4</ele><time>2026-04-24T13:40:07.999Z</time></trkpt><trkpt lat="49.193424529749834" lon="2.479300457074147"><ele>55.599999999999994</ele><time>2026-04-24T13:40:09.999Z</time></trkpt><trkpt lat="49.19342945092233" lon="2.479462634038684"><ele>55.8</ele><time>2026-04-24T13:40:11.999Z</time></trkpt><trkpt lat="49.19343061735063" lon="2.479630309084585"><ele>56.0</ele><time>2026-04-24T13:40:13.999Z</time></trkpt><trkpt lat="49.19344245228357" lon="2.479798387241634"><ele>55.4</ele><time>2026-04-24T13:40:15.999Z</time></trkpt><trkpt lat="49.193446654785944" lon="2.4799585231417955"><ele>54.8</ele><time>2026-04-24T13:40:17.999Z</time></trkpt><trkpt lat="49.193451250147945" lon="2.4801102748760036"><ele>54.199999999999996</ele><time>2026-04-24T13:40:19.999Z</time></trkpt><trkpt lat="49.193464499034334" lon="2.480269387677077"><ele>53.599999999999994</ele><time>2026-04-24T13:40:21.999Z</time></trkpt><trkpt lat="49.19348331868972" lon="2.480391830687548"><ele>53.0</ele><time>2026-04-24T13:40:23.999Z</time></trkpt><trkpt lat="49.19350840851417" lon="2.4804893359143216"><ele>53.00000000000001</ele><time>2026-04-24T13:40:25.999Z</time></trkpt><trkpt lat="49.19359094178359" lon="2.48053895341037"><ele>53.0</ele><time>2026-04-24T13:40:28.999Z</time></trkpt><trkpt lat="49.193660344705485" lon="2.480455534841559"><ele>53.0</ele><time>2026-04-24T13:40:31.999Z</time></trkpt><trkpt lat="49.1936408743099" lon="2.480336572071995"><ele>53.0</ele><time>2026-04-24T13:40:34.999Z</time></trkpt><trkpt lat="49.19356127638081" lon="2.480327530710158"><ele>53.00000000000001</ele><time>2026-04-24T13:40:38.998Z</time></trkpt><trkpt lat="49.193526997556866" lon="2.480416960889634"><ele>53.0</ele><time>2026-04-24T13:40:41.998Z</time></trkpt><trkpt lat="49.19352080547229" lon="2.4805300306253386"><ele>52.66666666666667</ele><time>2026-04-24T13:40:43.998Z</time></trkpt><trkpt lat="49.19351316050161" lon="2.4806417795244666"><ele>52.333333333333336</ele><time>2026-04-24T13:40:45.998Z</time></trkpt><trkpt lat="49.19348856810553" lon="2.4807634113365125"><ele>52.0</ele><time>2026-04-24T13:40:47.998Z</time></trkpt><trkpt lat="49.19344249660801" lon="2.480889701772821"><ele>51.66666666666667</ele><time>2026-04-24T13:40:49.998Z</time></trkpt><trkpt lat="49.1934012259437" lon="2.481031225392421"><ele>51.333333333333336</ele><time>2026-04-24T13:40:51.998Z</time></trkpt><trkpt lat="49.19334839452205" lon="2.4811533788803546"><ele>51.0</ele><time>2026-04-24T13:40:53.998Z</time></trkpt><trkpt lat="49.19330686265301" lon="2.4812938483039577"><ele>50.599999999999994</ele><time>2026-04-24T13:40:55.998Z</time></trkpt><trkpt lat="49.19327024537409" lon="2.4814469270377484"><ele>50.2</ele><time>2026-04-24T13:40:57.998Z</time></trkpt><trkpt lat="49.193199938354006" lon="2.481571548720104"><ele>49.8</ele><time>2026-04-24T13:40:59.998Z</time></trkpt><trkpt lat="49.19313678761692" lon="2.48171185619277"><ele>49.400000000000006</ele><time>2026-04-24T13:41:01.998Z</time></trkpt><trkpt lat="49.19306575296617" lon="2.481849150395832"><ele>49.0</ele><time>2026-04-24T13:41:03.998Z</time></trkpt><trkpt lat="49.19298825244544" lon="2.481975754499777"><ele>48.5</ele><time>2026-04-24T13:41:05.998Z</time></trkpt><trkpt lat="49.19290354780232" lon="2.482091299615024"><ele>48.0</ele><time>2026-04-24T13:41:07.998Z</time></trkpt><trkpt lat="49.19280918081543" lon="2.4821909734657486"><ele>47.5</ele><time>2026-04-24T13:41:09.998Z</time></trkpt><trkpt lat="49.19270761350565" lon="2.4822818157050457"><ele>47.0</ele><time>2026-04-24T13:41:11.997Z</time></trkpt><trkpt lat="49.19260706216498" lon="2.482355470421478"><ele>47.400000000000006</ele><time>2026-04-24T13:41:13.997Z</time></trkpt><trkpt lat="49.19254766749915" lon="2.482403631444267"><ele>47.800000000000004</ele><time>2026-04-24T13:41:14.997Z</time></trkpt><trkpt lat="49.19245166382515" lon="2.4824814777968283"><ele>48.2</ele><time>2026-04-24T13:41:16.997Z</time></trkpt><trkpt lat="49.19234940435367" lon="2.4825486424872736"><ele>48.6</ele><time>2026-04-24T13:41:18.997Z</time></trkpt><trkpt lat="49.192248025824476" lon="2.4826171038863163"><ele>49.0</ele><time>2026-04-24T13:41:20.997Z</time></trkpt><trkpt lat="49.192150928972" lon="2.482682673922173"><ele>49.0</ele><time>2026-04-24T13:41:22.997Z</time></trkpt><trkpt lat="49.19204949359224" lon="2.48274952214102"><ele>49.0</ele><time>2026-04-24T13:41:24.997Z</time></trkpt><trkpt lat="49.19195565597747" lon="2.482810979076663"><ele>49.0</ele><time>2026-04-24T13:41:26.997Z</time></trkpt><trkpt lat="49.19186426316292" lon="2.482873261366804"><ele>49.0</ele><time>2026-04-24T13:41:28.997Z</time></trkpt><trkpt lat="49.19177000009357" lon="2.482939021209434"><ele>49.0</ele><time>2026-04-24T13:41:30.997Z</time></trkpt><trkpt lat="49.191690702180516" lon="2.483004014685523"><ele>48.800000000000004</ele><time>2026-04-24T13:41:32.997Z</time></trkpt><trkpt lat="49.19161600299607" lon="2.4830950924283153"><ele>48.6</ele><time>2026-04-24T13:41:34.997Z</time></trkpt><trkpt lat="49.19156118299099" lon="2.4831986218603803"><ele>48.4</ele><time>2026-04-24T13:41:36.997Z</time></trkpt><trkpt lat="49.191562839363115" lon="2.483351027542252"><ele>48.2</ele><time>2026-04-24T13:41:38.997Z</time></trkpt><trkpt lat="49.19153038575398" lon="2.483464742776228"><ele>48.0</ele><time>2026-04-24T13:41:40.997Z</time></trkpt><trkpt lat="49.191513045644754" lon="2.483602444337592"><ele>48.0</ele><time>2026-04-24T13:41:43Z</time></trkpt><trkpt lat="49.19151535638372" lon="2.4837453934467417"><ele>48.0</ele><time>2026-04-24T13:41:45Z</time></trkpt><trkpt lat="49.191499589993605" lon="2.4838907081449126"><ele>48.0</ele><time>2026-04-24T13:41:47Z</time></trkpt><trkpt lat="49.19141118244002" lon="2.4839860315373987"><ele>48.0</ele><time>2026-04-24T13:41:49Z</time></trkpt><trkpt lat="49.19133310824067" lon="2.4840174426203974"><ele>48.0</ele><time>2026-04-24T13:41:51Z</time></trkpt><trkpt lat="49.191271364936696" lon="2.483997585300584"><ele>48.0</ele><time>2026-04-24T13:41:53Z</time></trkpt><trkpt lat="49.1912002760274" lon="2.4840382924587585"><ele>48.8</ele><time>2026-04-24T13:41:56Z</time></trkpt><trkpt lat="49.1912648729967" lon="2.4842692763695147"><ele>49.599999999999994</ele><time>2026-04-24T13:42:00Z</time></trkpt><trkpt lat="49.19132441228881" lon="2.4843126253938035"><ele>50.400000000000006</ele><time>2026-04-24T13:42:02Z</time></trkpt><trkpt lat="49.19141306029837" lon="2.4843821449799175"><ele>51.2</ele><time>2026-04-24T13:42:05Z</time></trkpt><trkpt lat="49.19145046867462" lon="2.484488583847373"><ele>52.0</ele><time>2026-04-24T13:42:08Z</time></trkpt><trkpt lat="49.19146958176525" lon="2.4845949786727988"><ele>51.33333333333333</ele><time>2026-04-24T13:42:10Z</time></trkpt><trkpt lat="49.19148149024758" lon="2.48470485389635"><ele>50.666666666666664</ele><time>2026-04-24T13:42:11.999Z</time></trkpt><trkpt lat="49.19151166182016" lon="2.4848381127173393"><ele>50.0</ele><time>2026-04-24T13:42:13.999Z</time></trkpt><trkpt lat="49.19154704235531" lon="2.4849728704639014"><ele>49.33333333333333</ele><time>2026-04-24T13:42:15.999Z</time></trkpt><trkpt lat="49.191586794358734" lon="2.4850619007067083"><ele>48.666666666666664</ele><time>2026-04-24T13:42:17.999Z</time></trkpt><trkpt lat="49.19159957838542" lon="2.4851766693911728"><ele>48.0</ele><time>2026-04-24T13:42:19.999Z</time></trkpt><trkpt lat="49.1915657271686" lon="2.485342742094911"><ele>48.0</ele><time>2026-04-24T13:42:21.999Z</time></trkpt><trkpt lat="49.19163404697626" lon="2.485300720511516"><ele>48.0</ele><time>2026-04-24T13:42:22.999Z</time></trkpt><trkpt lat="49.191663847783595" lon="2.485407218134075"><ele>48.0</ele><time>2026-04-24T13:42:25.999Z</time></trkpt><trkpt lat="49.191619434179984" lon="2.4854892453947777"><ele>48.0</ele><time>2026-04-24T13:42:28.999Z</time></trkpt><trkpt lat="49.19146606886754" lon="2.4851466247813985"><ele>48.0</ele><time>2026-04-24T13:42:31.999Z</time></trkpt><trkpt lat="49.191402302030205" lon="2.4851744824925173"><ele>48.0</ele><time>2026-04-24T13:42:35.999Z</time></trkpt><trkpt lat="49.19135092417016" lon="2.4852577337375337"><ele>48.0</ele><time>2026-04-24T13:42:39.999Z</time></trkpt><trkpt lat="49.19143378868357" lon="2.485897020681643"><ele>48.333333333333336</ele><time>2026-04-24T13:42:43.998Z</time></trkpt><trkpt lat="49.19137269806897" lon="2.4859829994593814"><ele>48.66666666666667</ele><time>2026-04-24T13:45:38.997Z</time></trkpt><trkpt lat="49.19129145835593" lon="2.486009655241313"><ele>49.0</ele><time>2026-04-24T13:45:42.997Z</time></trkpt><trkpt lat="49.19121541833641" lon="2.486051402697454"><ele>49.333333333333336</ele><time>2026-04-24T13:45:45.997Z</time></trkpt><trkpt lat="49.19117500644225" lon="2.4861353219467928"><ele>49.66666666666667</ele><time>2026-04-24T13:45:47.997Z</time></trkpt><trkpt lat="49.191115347428365" lon="2.486221217301577"><ele>50.0</ele><time>2026-04-24T13:45:50.996Z</time></trkpt><trkpt lat="49.191069061973295" lon="2.4862920982334673"><ele>50.66666666666667</ele><time>2026-04-24T13:45:53Z</time></trkpt><trkpt lat="49.19101471631393" lon="2.4863967287946322"><ele>51.333333333333336</ele><time>2026-04-24T13:45:56Z</time></trkpt><trkpt lat="49.190968974199414" lon="2.4864689455132845"><ele>52.0</ele><time>2026-04-24T13:45:58Z</time></trkpt><trkpt lat="49.19092061432398" lon="2.4865424742465456"><ele>52.66666666666667</ele><time>2026-04-24T13:46:00Z</time></trkpt><trkpt lat="49.19086659982476" lon="2.4866331533230914"><ele>53.333333333333336</ele><time>2026-04-24T13:46:02Z</time></trkpt><trkpt lat="49.19080970152714" lon="2.486724009048143"><ele>54.0</ele><time>2026-04-24T13:46:05Z</time></trkpt><trkpt lat="49.19075966435717" lon="2.486800600766853"><ele>54.0</ele><time>2026-04-24T13:46:07Z</time></trkpt><trkpt lat="49.19070981758481" lon="2.486874740225992"><ele>54.0</ele><time>2026-04-24T13:46:09Z</time></trkpt><trkpt lat="49.19065838712369" lon="2.4869507431363362"><ele>54.0</ele><time>2026-04-24T13:46:11Z</time></trkpt><trkpt lat="49.19061340740747" lon="2.4870287560942628"><ele>54.0</ele><time>2026-04-24T13:46:13Z</time></trkpt><trkpt lat="49.19056393047702" lon="2.487106402414234"><ele>54.0</ele><time>2026-04-24T13:46:15Z</time></trkpt><trkpt lat="49.19048903563581" lon="2.487211620071332"><ele>54.0</ele><time>2026-04-24T13:46:17.999Z</time></trkpt><trkpt lat="49.190436744138474" lon="2.4872786310982185"><ele>54.666666666666664</ele><time>2026-04-24T13:46:19.999Z</time></trkpt><trkpt lat="49.190388317143245" lon="2.487349432172946"><ele>55.33333333333333</ele><time>2026-04-24T13:46:21.999Z</time></trkpt><trkpt lat="49.19036270726931" lon="2.4874574480421616"><ele>56.0</ele><time>2026-04-24T13:46:23.999Z</time></trkpt><trkpt lat="49.19031771498805" lon="2.487558571654615"><ele>56.666666666666664</ele><time>2026-04-24T13:46:25.999Z</time></trkpt><trkpt lat="49.19027597769724" lon="2.487657694503218"><ele>57.33333333333333</ele><time>2026-04-24T13:46:27.999Z</time></trkpt><trkpt lat="49.19022926474857" lon="2.4877504525312126"><ele>58.0</ele><time>2026-04-24T13:46:29.999Z</time></trkpt><trkpt lat="49.19018601276352" lon="2.487853891310292"><ele>57.599999999999994</ele><time>2026-04-24T13:46:31.999Z</time></trkpt><trkpt lat="49.190145014998635" lon="2.487950684431973"><ele>57.199999999999996</ele><time>2026-04-24T13:46:33.999Z</time></trkpt><trkpt lat="49.18997751804329" lon="2.4879479481024984"><ele>56.8</ele><time>2026-04-24T13:46:34.999Z</time></trkpt><trkpt lat="49.18996230272766" lon="2.488051661891239"><ele>56.4</ele><time>2026-04-24T13:46:36.999Z</time></trkpt><trkpt lat="49.18994616454493" lon="2.4881580673332317"><ele>56.0</ele><time>2026-04-24T13:46:39.999Z</time></trkpt><trkpt lat="49.189912670378824" lon="2.4882906681606007"><ele>56.0</ele><time>2026-04-24T13:46:42.999Z</time></trkpt><trkpt lat="49.189874834935615" lon="2.488371350432034"><ele>56.0</ele><time>2026-04-24T13:46:44.999Z</time></trkpt><trkpt lat="49.189817778602524" lon="2.4885088421727746"><ele>56.0</ele><time>2026-04-24T13:46:46.999Z</time></trkpt><trkpt lat="49.18973266137813" lon="2.488552247431623"><ele>56.0</ele><time>2026-04-24T13:46:48.999Z</time></trkpt><trkpt lat="49.18981673303761" lon="2.4888645091655555"><ele>55.0</ele><time>2026-04-24T13:46:49.998Z</time></trkpt><trkpt lat="49.18976827627856" lon="2.488960927613014"><ele>54.0</ele><time>2026-04-24T13:46:50.998Z</time></trkpt><trkpt lat="49.18972044728902" lon="2.489066732325024"><ele>53.0</ele><time>2026-04-24T13:46:51.998Z</time></trkpt><trkpt lat="49.18982244353716" lon="2.489328918565884"><ele>52.0</ele><time>2026-04-24T13:46:52.998Z</time></trkpt><trkpt lat="49.189775844476124" lon="2.4894418278146624"><ele>51.99999999999999</ele><time>2026-04-24T13:46:53.998Z</time></trkpt><trkpt lat="49.189737333048384" lon="2.4895419204062765"><ele>52.0</ele><time>2026-04-24T13:46:54.998Z</time></trkpt><trkpt lat="49.18969611384155" lon="2.489655095022313"><ele>52.0</ele><time>2026-04-24T13:46:55.998Z</time></trkpt><trkpt lat="49.189660537777144" lon="2.4897603219068465"><ele>52.0</ele><time>2026-04-24T13:46:56.998Z</time></trkpt><trkpt lat="49.18963614192023" lon="2.489853488318908"><ele>51.99999999999999</ele><time>2026-04-24T13:46:57.998Z</time></trkpt><trkpt lat="49.18960577519893" lon="2.4900211816406324"><ele>52.0</ele><time>2026-04-24T13:46:59.998Z</time></trkpt><trkpt lat="49.18960617752336" lon="2.4901192830784056"><ele>52.49999999999999</ele><time>2026-04-24T13:47:01.998Z</time></trkpt><trkpt lat="49.189619201887645" lon="2.490256804705297"><ele>53.0</ele><time>2026-04-24T13:47:05.998Z</time></trkpt><trkpt lat="49.18964000948085" lon="2.49034943827935"><ele>53.5</ele><time>2026-04-24T13:47:10.998Z</time></trkpt><trkpt lat="49.18966383984676" lon="2.490455056866462"><ele>54.0</ele><time>2026-04-24T13:47:18.998Z</time></trkpt><trkpt lat="49.18969224618423" lon="2.4905566408163287"><ele>54.49999999999999</ele><time>2026-04-24T13:47:22.997Z</time></trkpt><trkpt lat="49.18972286428961" lon="2.490665178901298"><ele>55.0</ele><time>2026-04-24T13:47:25.997Z</time></trkpt><trkpt lat="49.18975237101867" lon="2.490775024477454"><ele>55.2</ele><time>2026-04-24T13:47:28.997Z</time></trkpt><trkpt lat="49.18979772202231" lon="2.4909385638247445"><ele>55.4</ele><time>2026-04-24T13:47:30.997Z</time></trkpt><trkpt lat="49.18983155473415" lon="2.491160156758751"><ele>55.599999999999994</ele><time>2026-04-24T13:47:33.997Z</time></trkpt><trkpt lat="49.189841451453866" lon="2.4912704615288397"><ele>55.8</ele><time>2026-04-24T13:47:35.997Z</time></trkpt><trkpt lat="49.189850244035746" lon="2.4913749662414024"><ele>56.0</ele><time>2026-04-24T13:47:37.997Z</time></trkpt><trkpt lat="49.18985696131429" lon="2.491472339182935"><ele>56.333333333333336</ele><time>2026-04-24T13:47:39.997Z</time></trkpt><trkpt lat="49.189865846407926" lon="2.4915934020726924"><ele>56.66666666666667</ele><time>2026-04-24T13:47:42.997Z</time></trkpt><trkpt lat="49.189874438027836" lon="2.491710466367476"><ele>57.0</ele><time>2026-04-24T13:47:45.997Z</time></trkpt><trkpt lat="49.189884112653225" lon="2.4918298267826775"><ele>57.33333333333333</ele><time>2026-04-24T13:47:48.997Z</time></trkpt><trkpt lat="49.18989495148609" lon="2.491953917845064"><ele>57.666666666666664</ele><time>2026-04-24T13:47:51.997Z</time></trkpt><trkpt lat="49.18990591966626" lon="2.4920794896670704"><ele>58.0</ele><time>2026-04-24T13:47:54.996Z</time></trkpt><trkpt lat="49.1899142639637" lon="2.4921750213869673"><ele>57.99999999999999</ele><time>2026-04-24T13:47:56.996Z</time></trkpt><trkpt lat="49.18992283539969" lon="2.4922731536640086"><ele>58.0</ele><time>2026-04-24T13:47:59Z</time></trkpt><trkpt lat="49.18993497999894" lon="2.4924121940403525"><ele>58.0</ele><time>2026-04-24T13:48:02Z</time></trkpt><trkpt lat="49.18994719334225" lon="2.4925520214969366"><ele>58.0</ele><time>2026-04-24T13:48:05Z</time></trkpt><trkpt lat="49.18996007642551" lon="2.492699516603283"><ele>57.99999999999999</ele><time>2026-04-24T13:48:08Z</time></trkpt><trkpt lat="49.18996845925355" lon="2.4927954894767006"><ele>58.0</ele><time>2026-04-24T13:48:10Z</time></trkpt><trkpt lat="49.18998166607842" lon="2.4929387509396927"><ele>58.0</ele><time>2026-04-24T13:48:13Z</time></trkpt><trkpt lat="49.189990906953106" lon="2.4930349439588784"><ele>58.0</ele><time>2026-04-24T13:48:15Z</time></trkpt><trkpt lat="49.190000637447625" lon="2.49313208649937"><ele>58.0</ele><time>2026-04-24T13:48:17Z</time></trkpt><trkpt lat="49.18941972289315" lon="2.4933733787706833"><ele>58.14285714285715</ele><time>2026-04-24T13:48:19Z</time></trkpt><trkpt lat="49.189408367323544" lon="2.4934818168725403"><ele>58.28571428571429</ele><time>2026-04-24T13:48:21Z</time></trkpt><trkpt lat="49.18943340930851" lon="2.49359015060358"><ele>58.42857142857143</ele><time>2026-04-24T13:48:22.999Z</time></trkpt><trkpt lat="49.18947276348495" lon="2.4936710329938108"><ele>58.57142857142858</ele><time>2026-04-24T13:48:24.999Z</time></trkpt><trkpt lat="49.189497735685066" lon="2.4937691766418877"><ele>58.71428571428572</ele><time>2026-04-24T13:48:26.999Z</time></trkpt><trkpt lat="49.189506974096226" lon="2.493865330535464"><ele>58.857142857142854</ele><time>2026-04-24T13:48:28.999Z</time></trkpt><trkpt lat="49.18951980657013" lon="2.4939789205078107"><ele>59.0</ele><time>2026-04-24T13:48:30.999Z</time></trkpt><trkpt lat="49.18952591211438" lon="2.494081722823597"><ele>59.14285714285714</ele><time>2026-04-24T13:48:32.999Z</time></trkpt><trkpt lat="49.18952948443719" lon="2.4941898864778773"><ele>59.28571428571429</ele><time>2026-04-24T13:48:34.999Z</time></trkpt><trkpt lat="49.1895254538588" lon="2.494295200791381"><ele>59.42857142857143</ele><time>2026-04-24T13:48:36.999Z</time></trkpt><trkpt lat="49.18951647887077" lon="2.494406140227475"><ele>59.57142857142857</ele><time>2026-04-24T13:48:38.999Z</time></trkpt><trkpt lat="49.189509399772945" lon="2.4945202762499448"><ele>59.71428571428571</ele><time>2026-04-24T13:48:40.999Z</time></trkpt><trkpt lat="49.18950272683296" lon="2.4946328595829796"><ele>59.85714285714286</ele><time>2026-04-24T13:48:42.999Z</time></trkpt><trkpt lat="49.18949592535459" lon="2.4947463280313884"><ele>60.0</ele><time>2026-04-24T13:48:44.999Z</time></trkpt><trkpt lat="49.18948596003329" lon="2.4948513246145656"><ele>60.0</ele><time>2026-04-24T13:48:46.999Z</time></trkpt><trkpt lat="49.18948198893202" lon="2.4949717766891646"><ele>60.0</ele><time>2026-04-24T13:48:48.999Z</time></trkpt><trkpt lat="49.189472381418675" lon="2.4950927664727534"><ele>60.0</ele><time>2026-04-24T13:48:50.999Z</time></trkpt><trkpt lat="49.18946276802391" lon="2.495217986781485"><ele>60.0</ele><time>2026-04-24T13:48:52.999Z</time></trkpt><trkpt lat="49.189455675208464" lon="2.4953461500652176"><ele>60.0</ele><time>2026-04-24T13:48:54.998Z</time></trkpt><trkpt lat="49.189445040062175" lon="2.4954741293126395"><ele>60.0</ele><time>2026-04-24T13:48:56.998Z</time></trkpt><trkpt lat="49.18943455642567" lon="2.495606019175258"><ele>60.0</ele><time>2026-04-24T13:48:58.998Z</time></trkpt><trkpt lat="49.189429732670234" lon="2.49574439617372"><ele>60.0</ele><time>2026-04-24T13:49:00.998Z</time></trkpt><trkpt lat="49.18942100689409" lon="2.4958830580683102"><ele>60.0</ele><time>2026-04-24T13:49:02.998Z</time></trkpt><trkpt lat="49.18940932239407" lon="2.4960226732232997"><ele>60.0</ele><time>2026-04-24T13:49:04.998Z</time></trkpt><trkpt lat="49.18940312867165" lon="2.4961647859698646"><ele>60.0</ele><time>2026-04-24T13:49:06.998Z</time></trkpt><trkpt lat="49.18939688937565" lon="2.4962985035979854"><ele>60.2</ele><time>2026-04-24T13:49:08.998Z</time></trkpt><trkpt lat="49.18938805833204" lon="2.4964459628744113"><ele>60.4</ele><time>2026-04-24T13:49:10.998Z</time></trkpt><trkpt lat="49.18938094772661" lon="2.4965868799668396"><ele>60.599999999999994</ele><time>2026-04-24T13:49:12.998Z</time></trkpt><trkpt lat="49.18937321600693" lon="2.496726281393074"><ele>60.8</ele><time>2026-04-24T13:49:14.998Z</time></trkpt><trkpt lat="49.189367617438975" lon="2.496869698818747"><ele>61.0</ele><time>2026-04-24T13:49:16.998Z</time></trkpt><trkpt lat="49.18936236457749" lon="2.4970100005837987"><ele>61.8</ele><time>2026-04-24T13:49:18.998Z</time></trkpt><trkpt lat="49.189362189892805" lon="2.497149300498919"><ele>62.599999999999994</ele><time>2026-04-24T13:49:20.998Z</time></trkpt><trkpt lat="49.18935353859686" lon="2.497288069488454"><ele>63.4</ele><time>2026-04-24T13:49:22.998Z</time></trkpt><trkpt lat="49.189346696619694" lon="2.497429136905363"><ele>64.2</ele><time>2026-04-24T13:49:24.998Z</time></trkpt><trkpt lat="49.18934249108803" lon="2.497570945464539"><ele>65.0</ele><time>2026-04-24T13:49:26.998Z</time></trkpt><trkpt lat="49.18936919629408" lon="2.497711494555323"><ele>65.0</ele><time>2026-04-24T13:49:28.997Z</time></trkpt><trkpt lat="49.18940229606603" lon="2.497844598034434"><ele>65.0</ele><time>2026-04-24T13:49:30.997Z</time></trkpt><trkpt lat="49.189423913096206" lon="2.497991404758658"><ele>65.0</ele><time>2026-04-24T13:49:32.997Z</time></trkpt><trkpt lat="49.18945445152192" lon="2.4981317357901065"><ele>65.0</ele><time>2026-04-24T13:49:34.997Z</time></trkpt><trkpt lat="49.189483416184174" lon="2.498274379482517"><ele>65.0</ele><time>2026-04-24T13:49:36.997Z</time></trkpt><trkpt lat="49.18951202776573" lon="2.4984089159174827"><ele>64.4</ele><time>2026-04-24T13:49:38.997Z</time></trkpt><trkpt lat="49.189545439838284" lon="2.498555286866049"><ele>63.8</ele><time>2026-04-24T13:49:40.997Z</time></trkpt><trkpt lat="49.189572760534176" lon="2.4986990178795394"><ele>63.2</ele><time>2026-04-24T13:49:42.997Z</time></trkpt><trkpt lat="49.18959771942095" lon="2.4988398958317637"><ele>62.6</ele><time>2026-04-24T13:49:44.997Z</time></trkpt><trkpt lat="49.189632466473824" lon="2.4989658920886377"><ele>62.0</ele><time>2026-04-24T13:49:46.997Z</time></trkpt><trkpt lat="49.189661168072604" lon="2.4991054785337403"><ele>61.8</ele><time>2026-04-24T13:49:48.997Z</time></trkpt><trkpt lat="49.189678216410776" lon="2.499250420631427"><ele>61.6</ele><time>2026-04-24T13:49:50.997Z</time></trkpt><trkpt lat="49.18970916270207" lon="2.499395822138084"><ele>61.39999999999999</ele><time>2026-04-24T13:49:52.997Z</time></trkpt><trkpt lat="49.18973853290095" lon="2.4995292926176336"><ele>61.199999999999996</ele><time>2026-04-24T13:49:54.997Z</time></trkpt><trkpt lat="49.189765802833605" lon="2.499671988970364"><ele>61.0</ele><time>2026-04-24T13:49:56.997Z</time></trkpt><trkpt lat="49.18979550229657" lon="2.4998125239088425"><ele>61.0</ele><time>2026-04-24T13:49:58.997Z</time></trkpt><trkpt lat="49.18982477245245" lon="2.4999448420648553"><ele>60.99999999999999</ele><time>2026-04-24T13:50:00.996Z</time></trkpt><trkpt lat="49.18985354252961" lon="2.500081267906673"><ele>60.99999999999999</ele><time>2026-04-24T13:50:02.996Z</time></trkpt><trkpt lat="49.1898813566134" lon="2.5002160405285627"><ele>61.0</ele><time>2026-04-24T13:50:05Z</time></trkpt><trkpt lat="49.18991407838012" lon="2.5003560695109663"><ele>61.0</ele><time>2026-04-24T13:50:07Z</time></trkpt><trkpt lat="49.18994588791466" lon="2.500492670362395"><ele>61.599999999999994</ele><time>2026-04-24T13:50:09Z</time></trkpt><trkpt lat="49.18997653089605" lon="2.5006345348154477"><ele>62.199999999999996</ele><time>2026-04-24T13:50:11Z</time></trkpt><trkpt lat="49.18999559896109" lon="2.5007740418930955"><ele>62.800000000000004</ele><time>2026-04-24T13:50:13Z</time></trkpt><trkpt lat="49.190026324296994" lon="2.500907130750555"><ele>63.400000000000006</ele><time>2026-04-24T13:50:15Z</time></trkpt><trkpt lat="49.19006689712495" lon="2.5010315620673507"><ele>64.0</ele><time>2026-04-24T13:50:17Z</time></trkpt><trkpt lat="49.19009256093231" lon="2.5011496415633547"><ele>64.0</ele><time>2026-04-24T13:50:19Z</time></trkpt><trkpt lat="49.19011680878938" lon="2.50128658116594"><ele>64.0</ele><time>2026-04-24T13:50:21Z</time></trkpt><trkpt lat="49.19015921875042" lon="2.501430244779909"><ele>64.0</ele><time>2026-04-24T13:50:23Z</time></trkpt><trkpt lat="49.190194240051575" lon="2.501571771260073"><ele>64.0</ele><time>2026-04-24T13:50:25Z</time></trkpt><trkpt lat="49.19022021479453" lon="2.5017182127113555"><ele>64.0</ele><time>2026-04-24T13:50:27Z</time></trkpt><trkpt lat="49.190257701712255" lon="2.5018699587537867"><ele>64.0</ele><time>2026-04-24T13:50:28.999Z</time></trkpt><trkpt lat="49.190290681747705" lon="2.5020023030878034"><ele>64.0</ele><time>2026-04-24T13:50:30.999Z</time></trkpt><trkpt lat="49.190326506741876" lon="2.5021498782810707"><ele>64.0</ele><time>2026-04-24T13:50:32.999Z</time></trkpt><trkpt lat="49.19035614406174" lon="2.5022956240163414"><ele>64.0</ele><time>2026-04-24T13:50:34.999Z</time></trkpt><trkpt lat="49.190388284445646" lon="2.5024298447486286"><ele>64.0</ele><time>2026-04-24T13:50:36.999Z</time></trkpt><trkpt lat="49.19041521001413" lon="2.5025602937639397"><ele>63.5</ele><time>2026-04-24T13:50:38.999Z</time></trkpt><trkpt lat="49.190447047061056" lon="2.5027257492866806"><ele>63.0</ele><time>2026-04-24T13:50:40.999Z</time></trkpt><trkpt lat="49.19048218470899" lon="2.5028937802778075"><ele>62.5</ele><time>2026-04-24T13:50:42.999Z</time></trkpt><trkpt lat="49.19050988915186" lon="2.5030514650617692"><ele>62.0</ele><time>2026-04-24T13:50:44.999Z</time></trkpt><trkpt lat="49.19054668296485" lon="2.503218487845626"><ele>61.8</ele><time>2026-04-24T13:50:46.999Z</time></trkpt><trkpt lat="49.19058919682684" lon="2.503359863817711"><ele>61.6</ele><time>2026-04-24T13:50:48.999Z</time></trkpt><trkpt lat="49.190649481609626" lon="2.503487231041616"><ele>61.39999999999999</ele><time>2026-04-24T13:50:50.999Z</time></trkpt><trkpt lat="49.19070705210043" lon="2.5036151383482665"><ele>61.199999999999996</ele><time>2026-04-24T13:50:52.999Z</time></trkpt><trkpt lat="49.19076029771542" lon="2.5037629390156058"><ele>61.0</ele><time>2026-04-24T13:50:54.999Z</time></trkpt><trkpt lat="49.190781577742605" lon="2.5038541989972907"><ele>60.8</ele><time>2026-04-24T13:50:55.999Z</time></trkpt><trkpt lat="49.19081328679845" lon="2.503938483067489"><ele>60.599999999999994</ele><time>2026-04-24T13:50:56.999Z</time></trkpt><trkpt lat="49.190881990193375" lon="2.504102176153966"><ele>60.4</ele><time>2026-04-24T13:50:58.999Z</time></trkpt><trkpt lat="49.190950709801335" lon="2.504252787141027"><ele>60.2</ele><time>2026-04-24T13:51:00.999Z</time></trkpt><trkpt lat="49.19097944120446" lon="2.5043409939147994"><ele>60.0</ele><time>2026-04-24T13:51:01.998Z</time></trkpt><trkpt lat="49.19104680141747" lon="2.504492184086455"><ele>60.25</ele><time>2026-04-24T13:51:03.998Z</time></trkpt><trkpt lat="49.19110646013658" lon="2.5046448249836635"><ele>60.5</ele><time>2026-04-24T13:51:05.998Z</time></trkpt><trkpt lat="49.191169165731225" lon="2.504797850233628"><ele>60.75</ele><time>2026-04-24T13:51:07.998Z</time></trkpt><trkpt lat="49.191226120370274" lon="2.5049471098844243"><ele>61.0</ele><time>2026-04-24T13:51:09.998Z</time></trkpt><trkpt lat="49.19129712405246" lon="2.5051075360127295"><ele>61.0</ele><time>2026-04-24T13:51:11.998Z</time></trkpt><trkpt lat="49.19136557753684" lon="2.5052551165918193"><ele>60.99999999999999</ele><time>2026-04-24T13:51:13.998Z</time></trkpt><trkpt lat="49.1913957250309" lon="2.505341158999119"><ele>60.99999999999999</ele><time>2026-04-24T13:51:14.998Z</time></trkpt><trkpt lat="49.19143394876864" lon="2.5054187524158364"><ele>61.0</ele><time>2026-04-24T13:51:15.998Z</time></trkpt><trkpt lat="49.19149688399736" lon="2.5055743880891623"><ele>61.0</ele><time>2026-04-24T13:51:17.998Z</time></trkpt><trkpt lat="49.19156496059597" lon="2.5057250918910903"><ele>60.4</ele><time>2026-04-24T13:51:19.998Z</time></trkpt><trkpt lat="49.191600491393395" lon="2.505810412869171"><ele>59.8</ele><time>2026-04-24T13:51:20.998Z</time></trkpt><trkpt lat="49.19166132207806" lon="2.5059552906315137"><ele>59.199999999999996</ele><time>2026-04-24T13:51:22.998Z</time></trkpt><trkpt lat="49.19173428951756" lon="2.506099419995322"><ele>58.599999999999994</ele><time>2026-04-24T13:51:24.998Z</time></trkpt><trkpt lat="49.19179222756504" lon="2.5062343901661843"><ele>58.0</ele><time>2026-04-24T13:51:26.998Z</time></trkpt><trkpt lat="49.19184831731092" lon="2.506363348185399"><ele>57.666666666666664</ele><time>2026-04-24T13:51:28.998Z</time></trkpt><trkpt lat="49.191907523214596" lon="2.506486361209862"><ele>57.33333333333333</ele><time>2026-04-24T13:51:30.998Z</time></trkpt><trkpt lat="49.19194702718802" lon="2.506596646255385"><ele>57.0</ele><time>2026-04-24T13:51:32.998Z</time></trkpt><trkpt lat="49.1919965222728" lon="2.5066910765644614"><ele>56.66666666666667</ele><time>2026-04-24T13:51:34.997Z</time></trkpt><trkpt lat="49.19207294718732" lon="2.506788939891521"><ele>56.333333333333336</ele><time>2026-04-24T13:51:36.997Z</time></trkpt><trkpt lat="49.19207281412427" lon="2.5069202562363775"><ele>56.0</ele><time>2026-04-24T13:51:39.997Z</time></trkpt><trkpt lat="49.19207392996477" lon="2.5070315747468035"><ele>55.0</ele><time>2026-04-24T13:51:41.997Z</time></trkpt><trkpt lat="49.19205004837935" lon="2.507145517204286"><ele>54.0</ele><time>2026-04-24T13:51:43.997Z</time></trkpt><trkpt lat="49.192038008602964" lon="2.5072631628537447"><ele>53.0</ele><time>2026-04-24T13:51:45.997Z</time></trkpt><trkpt lat="49.19200677906628" lon="2.5073731727340896"><ele>52.0</ele><time>2026-04-24T13:51:49.997Z</time></trkpt><trkpt lat="49.19222358737208" lon="2.5075346735568536"><ele>51.99999999999999</ele><time>2026-04-24T13:51:50.997Z</time></trkpt><trkpt lat="49.19228803127557" lon="2.507618390244635"><ele>52.0</ele><time>2026-04-24T13:51:52.997Z</time></trkpt><trkpt lat="49.192356404185524" lon="2.5077042683287725"><ele>52.0</ele><time>2026-04-24T13:51:54.997Z</time></trkpt><trkpt lat="49.19241701103705" lon="2.50778040191247"><ele>52.0</ele><time>2026-04-24T13:51:56.997Z</time></trkpt><trkpt lat="49.19247604744587" lon="2.5078494316189133"><ele>51.99999999999999</ele><time>2026-04-24T13:51:58.997Z</time></trkpt><trkpt lat="49.19255364037811" lon="2.5079371153508876"><ele>52.0</ele><time>2026-04-24T13:52:01.997Z</time></trkpt><trkpt lat="49.19260544037024" lon="2.5080017082987944"><ele>51.49999999999999</ele><time>2026-04-24T13:52:03.997Z</time></trkpt><trkpt lat="49.19265598567256" lon="2.508066673794598"><ele>51.0</ele><time>2026-04-24T13:52:05.997Z</time></trkpt><trkpt lat="49.19270931828167" lon="2.5081275390131275"><ele>50.5</ele><time>2026-04-24T13:52:07.996Z</time></trkpt><trkpt lat="49.1927662694496" lon="2.5082357558770587"><ele>50.0</ele><time>2026-04-24T13:52:11Z</time></trkpt><trkpt lat="49.192826680953665" lon="2.508266532609834"><ele>49.49999999999999</ele><time>2026-04-24T13:52:13Z</time></trkpt><trkpt lat="49.19289754247923" lon="2.508353369780494"><ele>49.0</ele><time>2026-04-24T13:52:16Z</time></trkpt><trkpt lat="49.1929701601805" lon="2.508444108846219"><ele>48.99999999999999</ele><time>2026-04-24T13:52:19Z</time></trkpt><trkpt lat="49.193042933202165" lon="2.508537915763031"><ele>49.0</ele><time>2026-04-24T13:52:22Z</time></trkpt><trkpt lat="49.19309730243883" lon="2.508599173028795"><ele>49.0</ele><time>2026-04-24T13:52:24Z</time></trkpt><trkpt lat="49.19314962105971" lon="2.5086639411964056"><ele>49.0</ele><time>2026-04-24T13:52:26Z</time></trkpt><trkpt lat="49.193216257889375" lon="2.5087546132009764"><ele>48.99999999999999</ele><time>2026-04-24T13:52:29Z</time></trkpt><trkpt lat="49.1932685993411" lon="2.5088151217371006"><ele>49.0</ele><time>2026-04-24T13:52:31Z</time></trkpt><trkpt lat="49.193329086866335" lon="2.5088820724130176"><ele>49.142857142857146</ele><time>2026-04-24T13:52:33Z</time></trkpt><trkpt lat="49.19338054193902" lon="2.508953394492153"><ele>49.285714285714285</ele><time>2026-04-24T13:52:34.999Z</time></trkpt><trkpt lat="49.19343609345098" lon="2.5090232139619117"><ele>49.42857142857143</ele><time>2026-04-24T13:52:36.999Z</time></trkpt><trkpt lat="49.193486648723436" lon="2.50910693277234"><ele>49.57142857142857</ele><time>2026-04-24T13:52:38.999Z</time></trkpt><trkpt lat="49.19352801216622" lon="2.5091957771103086"><ele>49.714285714285715</ele><time>2026-04-24T13:52:40.999Z</time></trkpt><trkpt lat="49.193568681574035" lon="2.5092968917899943"><ele>49.85714285714286</ele><time>2026-04-24T13:52:42.999Z</time></trkpt><trkpt lat="49.19362184916783" lon="2.5093963278618445"><ele>50.0</ele><time>2026-04-24T13:52:44.999Z</time></trkpt><trkpt lat="49.19366327060949" lon="2.5094993162884665"><ele>50.16666666666667</ele><time>2026-04-24T13:52:46.999Z</time></trkpt><trkpt lat="49.19369601921898" lon="2.509608636884628"><ele>50.333333333333336</ele><time>2026-04-24T13:52:48.999Z</time></trkpt><trkpt lat="49.193724502184594" lon="2.5097207101718646"><ele>50.5</ele><time>2026-04-24T13:52:50.999Z</time></trkpt><trkpt lat="49.19374076155867" lon="2.5098390054978093"><ele>50.66666666666667</ele><time>2026-04-24T13:52:52.999Z</time></trkpt><trkpt lat="49.19375651145177" lon="2.50996073153027"><ele>50.833333333333336</ele><time>2026-04-24T13:52:54.999Z</time></trkpt><trkpt lat="49.19377179146346" lon="2.5100712016492754"><ele>51.0</ele><time>2026-04-24T13:52:56.999Z</time></trkpt><trkpt lat="49.193777804659895" lon="2.5101970877907016"><ele>51.0</ele><time>2026-04-24T13:52:59.999Z</time></trkpt><trkpt lat="49.19379442443116" lon="2.5103111969036886"><ele>51.0</ele><time>2026-04-24T13:53:03.999Z</time></trkpt><trkpt lat="49.19378278859133" lon="2.510412576051559"><ele>51.0</ele><time>2026-04-24T13:53:58.997Z</time></trkpt><trkpt lat="49.19378517608313" lon="2.5105109817975055"><ele>51.0</ele><time>2026-04-24T13:54:07.997Z</time></trkpt><trkpt lat="49.19378662296607" lon="2.5106087820757974"><ele>51.0</ele><time>2026-04-24T14:00:50Z</time></trkpt><trkpt lat="49.193785965459554" lon="2.510707802953834"><ele>51.0</ele><time>2026-04-24T14:00:58.999Z</time></trkpt><trkpt lat="49.19379111882792" lon="2.5108085977539076"><ele>51.0</ele><time>2026-04-24T14:01:09.999Z</time></trkpt><trkpt lat="49.19378829244479" lon="2.5109210363748335"><ele>51.0</ele><time>2026-04-24T14:01:12.999Z</time></trkpt><trkpt lat="49.19379419120242" lon="2.511030615011264"><ele>51.0</ele><time>2026-04-24T14:01:14.999Z</time></trkpt><trkpt lat="49.193791798068055" lon="2.5111512138231356"><ele>51.0</ele><time>2026-04-24T14:01:16.999Z</time></trkpt><trkpt lat="49.19379376766043" lon="2.5112773604770897"><ele>51.0</ele><time>2026-04-24T14:01:18.999Z</time></trkpt><trkpt lat="49.193798868495506" lon="2.511401522731368"><ele>51.0</ele><time>2026-04-24T14:01:20.999Z</time></trkpt><trkpt lat="49.193810074957725" lon="2.5115262468903277"><ele>51.0</ele><time>2026-04-24T14:01:22.999Z</time></trkpt><trkpt lat="49.19381980843162" lon="2.5116552328450865"><ele>51.0</ele><time>2026-04-24T14:01:24.999Z</time></trkpt><trkpt lat="49.193820475512005" lon="2.5117878418934807"><ele>51.0</ele><time>2026-04-24T14:01:26.998Z</time></trkpt><trkpt lat="49.19382063054219" lon="2.5119240274321775"><ele>51.0</ele><time>2026-04-24T14:01:28.998Z</time></trkpt><trkpt lat="49.19382064311917" lon="2.512061922221086"><ele>51.0</ele><time>2026-04-24T14:01:30.998Z</time></trkpt><trkpt lat="49.193821339498356" lon="2.5122035683768327"><ele>51.0</ele><time>2026-04-24T14:01:32.998Z</time></trkpt><trkpt lat="49.19382156525985" lon="2.512330569773866"><ele>51.0</ele><time>2026-04-24T14:01:34.998Z</time></trkpt><trkpt lat="49.19382559384016" lon="2.5124838381782117"><ele>51.0</ele><time>2026-04-24T14:01:36.998Z</time></trkpt><trkpt lat="49.19383174118647" lon="2.5126181941291135"><ele>51.0</ele><time>2026-04-24T14:01:38.998Z</time></trkpt><trkpt lat="49.19383734312285" lon="2.5127513209599734"><ele>51.0</ele><time>2026-04-24T14:01:40.998Z</time></trkpt><trkpt lat="49.19384278253605" lon="2.5128586412348195"><ele>51.0</ele><time>2026-04-24T14:01:42.998Z</time></trkpt><trkpt lat="49.19385432999254" lon="2.512973255480342"><ele>51.0</ele><time>2026-04-24T14:01:45.998Z</time></trkpt><trkpt lat="49.19397272779721" lon="2.5129710623544637"><ele>51.0</ele><time>2026-04-24T14:01:48.998Z</time></trkpt><trkpt lat="49.19404663581013" lon="2.513030658270151"><ele>50.833333333333336</ele><time>2026-04-24T14:01:50.998Z</time></trkpt><trkpt lat="49.19412056342088" lon="2.5130889414048267"><ele>50.66666666666667</ele><time>2026-04-24T14:01:52.998Z</time></trkpt><trkpt lat="49.19417992673773" lon="2.513132958044257"><ele>50.5</ele><time>2026-04-24T14:01:54.998Z</time></trkpt><trkpt lat="49.194177148737374" lon="2.513300374582046"><ele>50.333333333333336</ele><time>2026-04-24T14:01:56.998Z</time></trkpt><trkpt lat="49.19419721378608" lon="2.5134132043252215"><ele>50.16666666666667</ele><time>2026-04-24T14:01:58.997Z</time></trkpt><trkpt lat="49.194200101197325" lon="2.513537043480625"><ele>50.0</ele><time>2026-04-24T14:02:00.997Z</time></trkpt><trkpt lat="49.19418984340806" lon="2.513674634015713"><ele>49.8</ele><time>2026-04-24T14:02:02.997Z</time></trkpt><trkpt lat="49.19416518664572" lon="2.5138189421014"><ele>49.6</ele><time>2026-04-24T14:02:04.997Z</time></trkpt><trkpt lat="49.1941435834213" lon="2.513971835204381"><ele>49.400000000000006</ele><time>2026-04-24T14:02:06.997Z</time></trkpt><trkpt lat="49.194125809871636" lon="2.5141333595938953"><ele>49.2</ele><time>2026-04-24T14:02:08.997Z</time></trkpt><trkpt lat="49.1941073021275" lon="2.514303235573074"><ele>49.0</ele><time>2026-04-24T14:02:10.997Z</time></trkpt><trkpt lat="49.19408533047976" lon="2.514484866107768"><ele>49.0</ele><time>2026-04-24T14:02:12.997Z</time></trkpt><trkpt lat="49.19405188457734" lon="2.5146615427989754"><ele>49.0</ele><time>2026-04-24T14:02:14.997Z</time></trkpt><trkpt lat="49.1940142391338" lon="2.5148422207041548"><ele>49.0</ele><time>2026-04-24T14:02:16.997Z</time></trkpt><trkpt lat="49.1939410528125" lon="2.5149866127302847"><ele>49.0</ele><time>2026-04-24T14:02:18.997Z</time></trkpt><trkpt lat="49.193832295297696" lon="2.51504492578583"><ele>49.2</ele><time>2026-04-24T14:02:20.997Z</time></trkpt><trkpt lat="49.193728928987994" lon="2.5150783230336726"><ele>49.400000000000006</ele><time>2026-04-24T14:02:22.997Z</time></trkpt><trkpt lat="49.193646754155864" lon="2.5151539971459904"><ele>49.6</ele><time>2026-04-24T14:02:24.997Z</time></trkpt><trkpt lat="49.193589792030835" lon="2.5152564018499346"><ele>49.8</ele><time>2026-04-24T14:02:26.997Z</time></trkpt><trkpt lat="49.193556062855855" lon="2.515376083807535"><ele>50.0</ele><time>2026-04-24T14:02:28.997Z</time></trkpt><trkpt lat="49.19352833404099" lon="2.515500070507942"><ele>49.4</ele><time>2026-04-24T14:02:30.996Z</time></trkpt><trkpt lat="49.193503824092645" lon="2.515636526710046"><ele>48.8</ele><time>2026-04-24T14:02:32.996Z</time></trkpt><trkpt lat="49.19346325023743" lon="2.5157671937087183"><ele>48.2</ele><time>2026-04-24T14:02:34.996Z</time></trkpt><trkpt lat="49.19342368959129" lon="2.5158990925209066"><ele>47.6</ele><time>2026-04-24T14:02:36.996Z</time></trkpt><trkpt lat="49.1933787461051" lon="2.5160267817349884"><ele>47.0</ele><time>2026-04-24T14:02:38.996Z</time></trkpt><trkpt lat="49.19333245140651" lon="2.516164685642141"><ele>47.2</ele><time>2026-04-24T14:02:41Z</time></trkpt><trkpt lat="49.19328799814622" lon="2.5163035026113367"><ele>47.400000000000006</ele><time>2026-04-24T14:02:43Z</time></trkpt><trkpt lat="49.19324476340741" lon="2.5164438867905603"><ele>47.599999999999994</ele><time>2026-04-24T14:02:45Z</time></trkpt><trkpt lat="49.193200744493716" lon="2.5165745981570895"><ele>47.8</ele><time>2026-04-24T14:02:47Z</time></trkpt><trkpt lat="49.19315739636902" lon="2.5167052116500326"><ele>48.0</ele><time>2026-04-24T14:02:49Z</time></trkpt><trkpt lat="49.19311657111252" lon="2.516838156813603"><ele>48.4</ele><time>2026-04-24T14:02:51Z</time></trkpt><trkpt lat="49.1930814866435" lon="2.516972623723012"><ele>48.8</ele><time>2026-04-24T14:02:53Z</time></trkpt><trkpt lat="49.19304210029329" lon="2.517102469539661"><ele>49.2</ele><time>2026-04-24T14:02:55Z</time></trkpt><trkpt lat="49.19299849721696" lon="2.517231689171863"><ele>49.6</ele><time>2026-04-24T14:02:57Z</time></trkpt><trkpt lat="49.19296315227609" lon="2.5173628507916708"><ele>50.0</ele><time>2026-04-24T14:02:59Z</time></trkpt><trkpt lat="49.19293620152477" lon="2.5175007762484283"><ele>50.0</ele><time>2026-04-24T14:03:00.999Z</time></trkpt><trkpt lat="49.19290815771577" lon="2.5176370233829757"><ele>50.0</ele><time>2026-04-24T14:03:02.999Z</time></trkpt><trkpt lat="49.1928786498132" lon="2.5177774538105306"><ele>50.0</ele><time>2026-04-24T14:03:04.999Z</time></trkpt><trkpt lat="49.192849870594635" lon="2.5179142178936513"><ele>50.0</ele><time>2026-04-24T14:03:06.999Z</time></trkpt><trkpt lat="49.19282346447168" lon="2.5180495487007826"><ele>50.0</ele><time>2026-04-24T14:03:08.999Z</time></trkpt><trkpt lat="49.19280931515668" lon="2.5181955904588036"><ele>49.8</ele><time>2026-04-24T14:03:10.999Z</time></trkpt><trkpt lat="49.192786073261786" lon="2.518335361790256"><ele>49.6</ele><time>2026-04-24T14:03:12.999Z</time></trkpt><trkpt lat="49.19275919019174" lon="2.5184730573164287"><ele>49.400000000000006</ele><time>2026-04-24T14:03:14.999Z</time></trkpt><trkpt lat="49.19272847716658" lon="2.518609662151751"><ele>49.2</ele><time>2026-04-24T14:03:16.999Z</time></trkpt><trkpt lat="49.1927015775627" lon="2.5187468081856963"><ele>49.0</ele><time>2026-04-24T14:03:18.999Z</time></trkpt><trkpt lat="49.19268283075049" lon="2.51889270959584"><ele>49.0</ele><time>2026-04-24T14:03:20.999Z</time></trkpt><trkpt lat="49.19265747024755" lon="2.51903472335153"><ele>49.0</ele><time>2026-04-24T14:03:22.999Z</time></trkpt><trkpt lat="49.192628155646645" lon="2.5191770069006436"><ele>49.0</ele><time>2026-04-24T14:03:24.999Z</time></trkpt><trkpt lat="49.19260084833749" lon="2.5193229786655302"><ele>49.0</ele><time>2026-04-24T14:03:26.999Z</time></trkpt><trkpt lat="49.19257351719714" lon="2.5194706540455583"><ele>49.0</ele><time>2026-04-24T14:03:28.999Z</time></trkpt><trkpt lat="49.19254299434793" lon="2.5196165410599933"><ele>48.800000000000004</ele><time>2026-04-24T14:03:30.999Z</time></trkpt><trkpt lat="49.192514283818795" lon="2.51976474059404"><ele>48.6</ele><time>2026-04-24T14:03:32.998Z</time></trkpt><trkpt lat="49.192487568147804" lon="2.5199084504563816"><ele>48.4</ele><time>2026-04-24T14:03:34.998Z</time></trkpt><trkpt lat="49.19246393302686" lon="2.5200534444354137"><ele>48.2</ele><time>2026-04-24T14:03:36.998Z</time></trkpt><trkpt lat="49.19244682972361" lon="2.5201913684533848"><ele>48.0</ele><time>2026-04-24T14:03:38.998Z</time></trkpt><trkpt lat="49.19243011263445" lon="2.5203331066561665"><ele>48.0</ele><time>2026-04-24T14:03:40.998Z</time></trkpt><trkpt lat="49.19241748051572" lon="2.5204726944034688"><ele>48.0</ele><time>2026-04-24T14:03:42.998Z</time></trkpt><trkpt lat="49.19240197284933" lon="2.5206153494694554"><ele>48.0</ele><time>2026-04-24T14:03:44.998Z</time></trkpt><trkpt lat="49.19238697369118" lon="2.5207612457668174"><ele>48.0</ele><time>2026-04-24T14:03:46.998Z</time></trkpt><trkpt lat="49.19237266075944" lon="2.5209094752916825"><ele>48.0</ele><time>2026-04-24T14:03:48.998Z</time></trkpt><trkpt lat="49.19235637153661" lon="2.521067953869879"><ele>48.0</ele><time>2026-04-24T14:03:50.998Z</time></trkpt><trkpt lat="49.19233823848524" lon="2.5212276961577005"><ele>48.0</ele><time>2026-04-24T14:03:52.998Z</time></trkpt><trkpt lat="49.19232355613036" lon="2.5213863330543367"><ele>48.0</ele><time>2026-04-24T14:03:54.998Z</time></trkpt><trkpt lat="49.19230087321207" lon="2.5215607860164813"><ele>48.0</ele><time>2026-04-24T14:03:56.998Z</time></trkpt><trkpt lat="49.192287529009484" lon="2.5217263592683037"><ele>48.0</ele><time>2026-04-24T14:03:58.998Z</time></trkpt><trkpt lat="49.19227908082893" lon="2.5218224227010055"><ele>48.0</ele><time>2026-04-24T14:03:59.998Z</time></trkpt><trkpt lat="49.19226135591842" lon="2.521993065993412"><ele>48.0</ele><time>2026-04-24T14:04:01.998Z</time></trkpt><trkpt lat="49.1922611186884" lon="2.522170578025244"><ele>48.0</ele><time>2026-04-24T14:04:03.997Z</time></trkpt><trkpt lat="49.19227468556156" lon="2.522350284755891"><ele>48.0</ele><time>2026-04-24T14:04:05.997Z</time></trkpt><trkpt lat="49.19229041250667" lon="2.5225224061430738"><ele>48.2</ele><time>2026-04-24T14:04:07.997Z</time></trkpt><trkpt lat="49.19231371068987" lon="2.522688633521224"><ele>48.4</ele><time>2026-04-24T14:04:09.997Z</time></trkpt><trkpt lat="49.19233162572136" lon="2.5228513488445192"><ele>48.6</ele><time>2026-04-24T14:04:11.997Z</time></trkpt><trkpt lat="49.192352341201655" lon="2.5229933879986346"><ele>48.800000000000004</ele><time>2026-04-24T14:04:13.997Z</time></trkpt><trkpt lat="49.19236872243551" lon="2.523126099394871"><ele>49.0</ele><time>2026-04-24T14:04:15.997Z</time></trkpt><trkpt lat="49.192384836911984" lon="2.52325079125086"><ele>48.49999999999999</ele><time>2026-04-24T14:04:17.997Z</time></trkpt><trkpt lat="49.192397295993814" lon="2.5233772982194864"><ele>48.0</ele><time>2026-04-24T14:04:19.997Z</time></trkpt><trkpt lat="49.19241530694855" lon="2.5234983763697207"><ele>47.5</ele><time>2026-04-24T14:04:21.997Z</time></trkpt><trkpt lat="49.19242985099711" lon="2.523625729218368"><ele>47.0</ele><time>2026-04-24T14:04:23.997Z</time></trkpt><trkpt lat="49.19244493540663" lon="2.5237547000410476"><ele>46.5</ele><time>2026-04-24T14:04:25.997Z</time></trkpt><trkpt lat="49.192462294991245" lon="2.5238834598295834"><ele>46.0</ele><time>2026-04-24T14:04:27.997Z</time></trkpt><trkpt lat="49.192477727738385" lon="2.5240189785496554"><ele>46.0</ele><time>2026-04-24T14:04:29.997Z</time></trkpt><trkpt lat="49.19249419549114" lon="2.5241510686429973"><ele>46.0</ele><time>2026-04-24T14:04:31.997Z</time></trkpt><trkpt lat="49.192512828398876" lon="2.5243031928089326"><ele>46.0</ele><time>2026-04-24T14:04:33.997Z</time></trkpt><trkpt lat="49.192529877902835" lon="2.5244485205271707"><ele>46.0</ele><time>2026-04-24T14:04:35.996Z</time></trkpt><trkpt lat="49.192546041190006" lon="2.524600797419705"><ele>46.0</ele><time>2026-04-24T14:04:37.996Z</time></trkpt><trkpt lat="49.19256356570466" lon="2.524752224473424"><ele>46.199999999999996</ele><time>2026-04-24T14:04:39.996Z</time></trkpt><trkpt lat="49.19258029860458" lon="2.5249011185823824"><ele>46.4</ele><time>2026-04-24T14:04:41.996Z</time></trkpt><trkpt lat="49.19259901237688" lon="2.5250475025974914"><ele>46.6</ele><time>2026-04-24T14:04:43.996Z</time></trkpt><trkpt lat="49.19261621730264" lon="2.525198793970219"><ele>46.8</ele><time>2026-04-24T14:04:46Z</time></trkpt><trkpt lat="49.192638210434716" lon="2.5253415660076515"><ele>47.0</ele><time>2026-04-24T14:04:48Z</time></trkpt><trkpt lat="49.19265268528143" lon="2.5254810918648034"><ele>47.33333333333333</ele><time>2026-04-24T14:04:50Z</time></trkpt><trkpt lat="49.19266773379947" lon="2.525622045261488"><ele>47.666666666666664</ele><time>2026-04-24T14:04:52Z</time></trkpt><trkpt lat="49.19268442234132" lon="2.525767927407261"><ele>48.0</ele><time>2026-04-24T14:04:54Z</time></trkpt><trkpt lat="49.192701598296026" lon="2.525895887733088"><ele>48.33333333333333</ele><time>2026-04-24T14:04:56Z</time></trkpt><trkpt lat="49.19271890188039" lon="2.526027878390466"><ele>48.666666666666664</ele><time>2026-04-24T14:04:58Z</time></trkpt><trkpt lat="49.19273289116779" lon="2.5261555175849764"><ele>49.0</ele><time>2026-04-24T14:05:00Z</time></trkpt><trkpt lat="49.19274672285198" lon="2.5262861361281153"><ele>49.33333333333333</ele><time>2026-04-24T14:05:02Z</time></trkpt><trkpt lat="49.19276448997532" lon="2.526415526803144"><ele>49.666666666666664</ele><time>2026-04-24T14:05:04Z</time></trkpt><trkpt lat="49.19277990164121" lon="2.5265372995343562"><ele>50.0</ele><time>2026-04-24T14:05:05.999Z</time></trkpt><trkpt lat="49.19279538857936" lon="2.5266670221600926"><ele>50.33333333333333</ele><time>2026-04-24T14:05:07.999Z</time></trkpt><trkpt lat="49.192809114077576" lon="2.5267924858500685"><ele>50.666666666666664</ele><time>2026-04-24T14:05:09.999Z</time></trkpt><trkpt lat="49.192824466730805" lon="2.5269187257002477"><ele>51.0</ele><time>2026-04-24T14:05:11.999Z</time></trkpt><trkpt lat="49.19283943139687" lon="2.5270398462401773"><ele>51.333333333333336</ele><time>2026-04-24T14:05:13.999Z</time></trkpt><trkpt lat="49.19285597695289" lon="2.527164412938622"><ele>51.66666666666667</ele><time>2026-04-24T14:05:15.999Z</time></trkpt><trkpt lat="49.192872506802836" lon="2.5272873647948098"><ele>52.0</ele><time>2026-04-24T14:05:17.999Z</time></trkpt><trkpt lat="49.192889468321695" lon="2.5274175828775145"><ele>52.333333333333336</ele><time>2026-04-24T14:05:19.999Z</time></trkpt><trkpt lat="49.192901806635994" lon="2.527547271541982"><ele>52.66666666666667</ele><time>2026-04-24T14:05:21.999Z</time></trkpt><trkpt lat="49.192917700146715" lon="2.527677730136398"><ele>53.0</ele><time>2026-04-24T14:05:23.999Z</time></trkpt><trkpt lat="49.19293142868818" lon="2.5278129821633937"><ele>52.8</ele><time>2026-04-24T14:05:25.999Z</time></trkpt><trkpt lat="49.19294699107362" lon="2.5279511597596818"><ele>52.599999999999994</ele><time>2026-04-24T14:05:27.999Z</time></trkpt><trkpt lat="49.19296261328173" lon="2.528081115648685"><ele>52.400000000000006</ele><time>2026-04-24T14:05:29.999Z</time></trkpt><trkpt lat="49.192976841657604" lon="2.52821787110209"><ele>52.2</ele><time>2026-04-24T14:05:31.999Z</time></trkpt><trkpt lat="49.192993684265815" lon="2.5283549384096053"><ele>52.0</ele><time>2026-04-24T14:05:33.999Z</time></trkpt><trkpt lat="49.193015001463685" lon="2.5284927876498893"><ele>52.0</ele><time>2026-04-24T14:05:35.999Z</time></trkpt><trkpt lat="49.193026874108746" lon="2.5286298509588327"><ele>52.0</ele><time>2026-04-24T14:05:37.998Z</time></trkpt><trkpt lat="49.193047387442995" lon="2.5287648562300564"><ele>52.0</ele><time>2026-04-24T14:05:39.998Z</time></trkpt><trkpt lat="49.19306678759327" lon="2.5289017511116962"><ele>52.0</ele><time>2026-04-24T14:05:41.998Z</time></trkpt><trkpt lat="49.19308347934953" lon="2.529038896688677"><ele>52.0</ele><time>2026-04-24T14:05:43.998Z</time></trkpt><trkpt lat="49.19310264372805" lon="2.5291704430646806"><ele>52.0</ele><time>2026-04-24T14:05:45.998Z</time></trkpt><trkpt lat="49.19312692663341" lon="2.529310601482446"><ele>52.0</ele><time>2026-04-24T14:05:47.998Z</time></trkpt><trkpt lat="49.19315359005837" lon="2.529445806327167"><ele>52.0</ele><time>2026-04-24T14:05:49.998Z</time></trkpt><trkpt lat="49.19317924734615" lon="2.5295764400491487"><ele>52.0</ele><time>2026-04-24T14:05:51.998Z</time></trkpt><trkpt lat="49.193206503759804" lon="2.5297052235523947"><ele>52.0</ele><time>2026-04-24T14:05:53.998Z</time></trkpt><trkpt lat="49.193233041186026" lon="2.5298358691273672"><ele>51.99999999999999</ele><time>2026-04-24T14:05:55.998Z</time></trkpt><trkpt lat="49.19325958715017" lon="2.529961220018469"><ele>52.0</ele><time>2026-04-24T14:05:57.998Z</time></trkpt><trkpt lat="49.19328778821075" lon="2.5300896279907863"><ele>52.0</ele><time>2026-04-24T14:05:59.998Z</time></trkpt><trkpt lat="49.19331285042706" lon="2.5302181889140667"><ele>52.0</ele><time>2026-04-24T14:06:01.998Z</time></trkpt><trkpt lat="49.19334261341199" lon="2.5303469399395135"><ele>51.99999999999999</ele><time>2026-04-24T14:06:03.998Z</time></trkpt><trkpt lat="49.19337573751256" lon="2.530472193410949"><ele>52.0</ele><time>2026-04-24T14:06:05.998Z</time></trkpt><trkpt lat="49.193402638544036" lon="2.530598628537822"><ele>51.99999999999999</ele><time>2026-04-24T14:06:07.998Z</time></trkpt><trkpt lat="49.19342873440446" lon="2.5307284627461715"><ele>52.0</ele><time>2026-04-24T14:06:09.997Z</time></trkpt><trkpt lat="49.19345498486708" lon="2.5308585818881375"><ele>52.0</ele><time>2026-04-24T14:06:11.997Z</time></trkpt><trkpt lat="49.19348122831602" lon="2.5309842396499107"><ele>52.0</ele><time>2026-04-24T14:06:13.997Z</time></trkpt><trkpt lat="49.19351057475323" lon="2.5311072318821175"><ele>51.99999999999999</ele><time>2026-04-24T14:06:15.997Z</time></trkpt><trkpt lat="49.19353885793256" lon="2.5312321965855564"><ele>52.0</ele><time>2026-04-24T14:06:17.997Z</time></trkpt><trkpt lat="49.1935693120047" lon="2.531358215197627"><ele>52.33333333333333</ele><time>2026-04-24T14:06:19.997Z</time></trkpt><trkpt lat="49.19360178675818" lon="2.5314813183463056"><ele>52.666666666666664</ele><time>2026-04-24T14:06:21.997Z</time></trkpt><trkpt lat="49.193634215766075" lon="2.531604589247327"><ele>53.0</ele><time>2026-04-24T14:06:23.997Z</time></trkpt><trkpt lat="49.19367352675381" lon="2.531727177887159"><ele>53.33333333333333</ele><time>2026-04-24T14:06:25.997Z</time></trkpt><trkpt lat="49.19371392996352" lon="2.531848484182925"><ele>53.666666666666664</ele><time>2026-04-24T14:06:27.997Z</time></trkpt><trkpt lat="49.193754191158746" lon="2.5319754523846156"><ele>54.0</ele><time>2026-04-24T14:06:29.997Z</time></trkpt><trkpt lat="49.19380525371445" lon="2.532102635952149"><ele>54.0</ele><time>2026-04-24T14:06:31.997Z</time></trkpt><trkpt lat="49.1938511543786" lon="2.532226310541992"><ele>54.00000000000001</ele><time>2026-04-24T14:06:33.997Z</time></trkpt><trkpt lat="49.19389188244531" lon="2.5323562466839125"><ele>54.00000000000001</ele><time>2026-04-24T14:06:35.997Z</time></trkpt><trkpt lat="49.19394233859193" lon="2.5324892001154717"><ele>54.0</ele><time>2026-04-24T14:06:37.997Z</time></trkpt><trkpt lat="49.19399246212059" lon="2.5326301960540185"><ele>54.0</ele><time>2026-04-24T14:06:39.997Z</time></trkpt><trkpt lat="49.19404676203487" lon="2.532769771167067"><ele>53.800000000000004</ele><time>2026-04-24T14:06:41.996Z</time></trkpt><trkpt lat="49.19409611745385" lon="2.5329200624963457"><ele>53.60000000000001</ele><time>2026-04-24T14:06:43.996Z</time></trkpt><trkpt lat="49.19414329680157" lon="2.533062765995523"><ele>53.4</ele><time>2026-04-24T14:06:45.996Z</time></trkpt><trkpt lat="49.1941885988835" lon="2.5332147628738295"><ele>53.2</ele><time>2026-04-24T14:06:47.996Z</time></trkpt><trkpt lat="49.19421894644008" lon="2.533383668752538"><ele>53.0</ele><time>2026-04-24T14:06:49.996Z</time></trkpt><trkpt lat="49.1942421148863" lon="2.5335515968941738"><ele>53.0</ele><time>2026-04-24T14:06:52Z</time></trkpt><trkpt lat="49.19424581959112" lon="2.533721885889713"><ele>53.0</ele><time>2026-04-24T14:06:54Z</time></trkpt><trkpt lat="49.19424403906187" lon="2.5338840298681244"><ele>53.0</ele><time>2026-04-24T14:06:56Z</time></trkpt><trkpt lat="49.19423415274095" lon="2.5340401491094435"><ele>53.0</ele><time>2026-04-24T14:06:58Z</time></trkpt><trkpt lat="49.194214746327454" lon="2.5341950490108816"><ele>53.0</ele><time>2026-04-24T14:07:00Z</time></trkpt><trkpt lat="49.19421200259664" lon="2.5343493245213318"><ele>53.0</ele><time>2026-04-24T14:07:02Z</time></trkpt><trkpt lat="49.194206388571374" lon="2.5345011543924665"><ele>53.0</ele><time>2026-04-24T14:07:04Z</time></trkpt><trkpt lat="49.19420153698215" lon="2.5346475102691213"><ele>53.0</ele><time>2026-04-24T14:07:06Z</time></trkpt><trkpt lat="49.19419397100016" lon="2.5347929243375655"><ele>53.0</ele><time>2026-04-24T14:07:08Z</time></trkpt><trkpt lat="49.19417828887038" lon="2.5349400974253027"><ele>53.0</ele><time>2026-04-24T14:07:10Z</time></trkpt><trkpt lat="49.19416682498762" lon="2.5350775984539786"><ele>53.4</ele><time>2026-04-24T14:07:11.999Z</time></trkpt><trkpt lat="49.194158587659814" lon="2.535214710785619"><ele>53.8</ele><time>2026-04-24T14:07:13.999Z</time></trkpt><trkpt lat="49.19415858445486" lon="2.5353601000011206"><ele>54.2</ele><time>2026-04-24T14:07:15.999Z</time></trkpt><trkpt lat="49.19415627858708" lon="2.535498622111259"><ele>54.6</ele><time>2026-04-24T14:07:17.999Z</time></trkpt><trkpt lat="49.19416021522549" lon="2.535632746192571"><ele>55.0</ele><time>2026-04-24T14:07:19.999Z</time></trkpt><trkpt lat="49.19416372536545" lon="2.5357674977750584"><ele>54.99999999999999</ele><time>2026-04-24T14:07:21.999Z</time></trkpt><trkpt lat="49.19416645162627" lon="2.535898038013286"><ele>55.0</ele><time>2026-04-24T14:07:23.999Z</time></trkpt><trkpt lat="49.19417372197826" lon="2.5360277856626112"><ele>55.0</ele><time>2026-04-24T14:07:25.999Z</time></trkpt><trkpt lat="49.19416412431156" lon="2.5361635605353334"><ele>55.0</ele><time>2026-04-24T14:07:27.999Z</time></trkpt><trkpt lat="49.19417919158285" lon="2.5363046472446307"><ele>54.99999999999999</ele><time>2026-04-24T14:07:29.999Z</time></trkpt><trkpt lat="49.19413880825272" lon="2.5364369977909655"><ele>55.0</ele><time>2026-04-24T14:07:31.999Z</time></trkpt><trkpt lat="49.19410595790361" lon="2.536568047710852"><ele>55.0</ele><time>2026-04-24T14:07:33.999Z</time></trkpt><trkpt lat="49.194051391092486" lon="2.536682269682796"><ele>55.0</ele><time>2026-04-24T14:07:35.999Z</time></trkpt><trkpt lat="49.193991351565046" lon="2.5367864656614683"><ele>55.0</ele><time>2026-04-24T14:07:37.999Z</time></trkpt><trkpt lat="49.193914313340905" lon="2.536871968656862"><ele>55.0</ele><time>2026-04-24T14:07:39.999Z</time></trkpt><trkpt lat="49.193847925654396" lon="2.5369679865638473"><ele>55.0</ele><time>2026-04-24T14:07:41.999Z</time></trkpt><trkpt lat="49.19377712595158" lon="2.5370438822530303"><ele>55.2</ele><time>2026-04-24T14:07:43.998Z</time></trkpt><trkpt lat="49.193721178150696" lon="2.5371490153653613"><ele>55.4</ele><time>2026-04-24T14:07:45.998Z</time></trkpt><trkpt lat="49.19370796115741" lon="2.537308694235283"><ele>55.599999999999994</ele><time>2026-04-24T14:07:47.998Z</time></trkpt><trkpt lat="49.19373958720863" lon="2.5374593726993986"><ele>55.8</ele><time>2026-04-24T14:07:49.998Z</time></trkpt><trkpt lat="49.193762100067396" lon="2.5376123856186488"><ele>56.0</ele><time>2026-04-24T14:07:51.998Z</time></trkpt><trkpt lat="49.19376447614714" lon="2.53776237763123"><ele>55.8</ele><time>2026-04-24T14:07:53.998Z</time></trkpt><trkpt lat="49.19374859473745" lon="2.53791176018859"><ele>55.599999999999994</ele><time>2026-04-24T14:07:55.998Z</time></trkpt><trkpt lat="49.19373686008744" lon="2.5380627380291103"><ele>55.4</ele><time>2026-04-24T14:07:57.998Z</time></trkpt><trkpt lat="49.19374827441552" lon="2.538216461391506"><ele>55.2</ele><time>2026-04-24T14:07:59.998Z</time></trkpt><trkpt lat="49.19374222927284" lon="2.5383720689099865"><ele>55.0</ele><time>2026-04-24T14:08:01.998Z</time></trkpt><trkpt lat="49.19376886336709" lon="2.5385419007245225"><ele>54.99999999999999</ele><time>2026-04-24T14:08:03.998Z</time></trkpt><trkpt lat="49.193782957177056" lon="2.5386378065500743"><ele>55.0</ele><time>2026-04-24T14:08:04.998Z</time></trkpt><trkpt lat="49.193807207607236" lon="2.5388137407238527"><ele>55.0</ele><time>2026-04-24T14:08:06.998Z</time></trkpt><trkpt lat="49.193832387671165" lon="2.538912119915452"><ele>55.0</ele><time>2026-04-24T14:08:07.998Z</time></trkpt><trkpt lat="49.19384414013589" lon="2.5390127184682596"><ele>54.99999999999999</ele><time>2026-04-24T14:08:08.998Z</time></trkpt><trkpt lat="49.19384569538743" lon="2.5391299644891543"><ele>55.0</ele><time>2026-04-24T14:08:09.998Z</time></trkpt><trkpt lat="49.1938765352815" lon="2.5392340162510685"><ele>54.666666666666664</ele><time>2026-04-24T14:08:10.998Z</time></trkpt><trkpt lat="49.193903684152296" lon="2.539326967302653"><ele>54.33333333333333</ele><time>2026-04-24T14:08:11.998Z</time></trkpt><trkpt lat="49.19393079251877" lon="2.5394361211115544"><ele>54.0</ele><time>2026-04-24T14:08:12.998Z</time></trkpt><trkpt lat="49.19395656079179" lon="2.539548335769613"><ele>53.66666666666667</ele><time>2026-04-24T14:08:13.998Z</time></trkpt><trkpt lat="49.193997340273214" lon="2.53965835809228"><ele>53.333333333333336</ele><time>2026-04-24T14:08:14.998Z</time></trkpt><trkpt lat="49.194021561855216" lon="2.539778131126751"><ele>53.0</ele><time>2026-04-24T14:08:15.997Z</time></trkpt><trkpt lat="49.19403021901807" lon="2.5398999687064747"><ele>52.50000000000001</ele><time>2026-04-24T14:08:16.997Z</time></trkpt><trkpt lat="49.19405361098234" lon="2.5400170830993805"><ele>52.0</ele><time>2026-04-24T14:08:17.997Z</time></trkpt><trkpt lat="49.19407706060259" lon="2.540135980426928"><ele>51.5</ele><time>2026-04-24T14:08:18.997Z</time></trkpt><trkpt lat="49.19410045818641" lon="2.5402542726486477"><ele>51.0</ele><time>2026-04-24T14:08:19.997Z</time></trkpt><trkpt lat="49.19412355361169" lon="2.5403677627089327"><ele>50.50000000000001</ele><time>2026-04-24T14:08:20.997Z</time></trkpt><trkpt lat="49.194160535588104" lon="2.5404719800981046"><ele>50.0</ele><time>2026-04-24T14:08:21.997Z</time></trkpt><trkpt lat="49.19417803249329" lon="2.5405977378843243"><ele>50.00000000000001</ele><time>2026-04-24T14:08:22.997Z</time></trkpt><trkpt lat="49.19420742798225" lon="2.5407188636857487"><ele>50.0</ele><time>2026-04-24T14:08:23.997Z</time></trkpt><trkpt lat="49.19423574859944" lon="2.5408392969453044"><ele>50.0</ele><time>2026-04-24T14:08:24.997Z</time></trkpt><trkpt lat="49.19425625688979" lon="2.5409627601750677"><ele>50.0</ele><time>2026-04-24T14:08:25.997Z</time></trkpt><trkpt lat="49.19427774297231" lon="2.541081926624807"><ele>50.00000000000001</ele><time>2026-04-24T14:08:26.997Z</time></trkpt><trkpt lat="49.194298984813514" lon="2.541192451931571"><ele>50.0</ele><time>2026-04-24T14:08:27.997Z</time></trkpt><trkpt lat="49.194316705713" lon="2.5413019839785607"><ele>50.0</ele><time>2026-04-24T14:08:28.997Z</time></trkpt><trkpt lat="49.19433810224069" lon="2.5413964716451987"><ele>50.0</ele><time>2026-04-24T14:08:29.997Z</time></trkpt><trkpt lat="49.194382328302545" lon="2.5415706653486243"><ele>50.0</ele><time>2026-04-24T14:08:31.997Z</time></trkpt><trkpt lat="49.19443412988853" lon="2.5417189930201487"><ele>50.0</ele><time>2026-04-24T14:08:33.997Z</time></trkpt><trkpt lat="49.194518780120085" lon="2.5418336182682517"><ele>50.0</ele><time>2026-04-24T14:08:35.997Z</time></trkpt><trkpt lat="49.19459202588538" lon="2.5419242233058266"><ele>50.00000000000001</ele><time>2026-04-24T14:08:37.997Z</time></trkpt><trkpt lat="49.19467030788292" lon="2.542023942190473"><ele>50.0</ele><time>2026-04-24T14:08:39.997Z</time></trkpt><trkpt lat="49.194742711329994" lon="2.5420987990666775"><ele>50.0</ele><time>2026-04-24T14:08:41.997Z</time></trkpt><trkpt lat="49.19481220965329" lon="2.5421726836468777"><ele>50.0</ele><time>2026-04-24T14:08:43.997Z</time></trkpt><trkpt lat="49.194874560210145" lon="2.5422433154150665"><ele>50.00000000000001</ele><time>2026-04-24T14:08:45.997Z</time></trkpt><trkpt lat="49.19494110891312" lon="2.5423057998588967"><ele>50.0</ele><time>2026-04-24T14:08:47.996Z</time></trkpt><trkpt lat="49.195003925899236" lon="2.5423711182619364"><ele>50.833333333333336</ele><time>2026-04-24T14:08:49.996Z</time></trkpt><trkpt lat="49.195061256052874" lon="2.542450221161596"><ele>51.66666666666667</ele><time>2026-04-24T14:08:51.996Z</time></trkpt><trkpt lat="49.19511370966702" lon="2.5425382738468842"><ele>52.5</ele><time>2026-04-24T14:08:53.996Z</time></trkpt><trkpt lat="49.195166259780486" lon="2.542626967061024"><ele>53.33333333333333</ele><time>2026-04-24T14:08:55.996Z</time></trkpt><trkpt lat="49.1951959017724" lon="2.542736674054412"><ele>54.166666666666664</ele><time>2026-04-24T14:08:58Z</time></trkpt><trkpt lat="49.19520174910275" lon="2.5428573995550288"><ele>55.0</ele><time>2026-04-24T14:09:00Z</time></trkpt><trkpt lat="49.195213899757306" lon="2.5429749763895413"><ele>55.166666666666664</ele><time>2026-04-24T14:09:02Z</time></trkpt><trkpt lat="49.19521902324253" lon="2.543097933446315"><ele>55.33333333333333</ele><time>2026-04-24T14:09:04Z</time></trkpt><trkpt lat="49.19521958291576" lon="2.5432153123325367"><ele>55.5</ele><time>2026-04-24T14:09:06Z</time></trkpt><trkpt lat="49.19522025756961" lon="2.543337891527411"><ele>55.66666666666667</ele><time>2026-04-24T14:09:08Z</time></trkpt><trkpt lat="49.19522847394992" lon="2.543462006386615"><ele>55.833333333333336</ele><time>2026-04-24T14:09:10Z</time></trkpt><trkpt lat="49.19523608180006" lon="2.5435884219231544"><ele>56.0</ele><time>2026-04-24T14:09:12Z</time></trkpt><trkpt lat="49.19523691547766" lon="2.5437094483152296"><ele>56.00000000000001</ele><time>2026-04-24T14:09:14Z</time></trkpt><trkpt lat="49.195236414778606" lon="2.5438425655042773"><ele>56.0</ele><time>2026-04-24T14:09:15.999Z</time></trkpt><trkpt lat="49.19523883177284" lon="2.5439746382420094"><ele>56.0</ele><time>2026-04-24T14:09:17.999Z</time></trkpt><trkpt lat="49.195245983555765" lon="2.5441033658635526"><ele>56.0</ele><time>2026-04-24T14:09:19.999Z</time></trkpt><trkpt lat="49.19525005612911" lon="2.544235822985715"><ele>56.00000000000001</ele><time>2026-04-24T14:09:21.999Z</time></trkpt><trkpt lat="49.19525364433886" lon="2.5443705945324235"><ele>56.0</ele><time>2026-04-24T14:09:23.999Z</time></trkpt><trkpt lat="49.19525771491799" lon="2.5445130930767696"><ele>55.8</ele><time>2026-04-24T14:09:25.999Z</time></trkpt><trkpt lat="49.195268507755195" lon="2.5446511758851815"><ele>55.599999999999994</ele><time>2026-04-24T14:09:27.999Z</time></trkpt><trkpt lat="49.19527209008318" lon="2.544791648917388"><ele>55.4</ele><time>2026-04-24T14:09:29.999Z</time></trkpt><trkpt lat="49.19526715685981" lon="2.5449249403969163"><ele>55.2</ele><time>2026-04-24T14:09:31.999Z</time></trkpt><trkpt lat="49.19527125204149" lon="2.545065425159538"><ele>55.0</ele><time>2026-04-24T14:09:33.999Z</time></trkpt><trkpt lat="49.1952724904219" lon="2.545217692698184"><ele>55.0</ele><time>2026-04-24T14:09:35.999Z</time></trkpt><trkpt lat="49.19528023397822" lon="2.545362581935478"><ele>55.0</ele><time>2026-04-24T14:09:37.999Z</time></trkpt><trkpt lat="49.19529176119466" lon="2.545520097984456"><ele>55.0</ele><time>2026-04-24T14:09:39.999Z</time></trkpt><trkpt lat="49.19530326150111" lon="2.5457062174888803"><ele>55.0</ele><time>2026-04-24T14:09:41.998Z</time></trkpt><trkpt lat="49.19531064302634" lon="2.5458117194781806"><ele>55.0</ele><time>2026-04-24T14:09:42.998Z</time></trkpt><trkpt lat="49.19529430875584" lon="2.5459569048830955"><ele>55.0</ele><time>2026-04-24T14:09:45.998Z</time></trkpt><trkpt lat="49.19529961943524" lon="2.5460972176825103"><ele>55.0</ele><time>2026-04-24T14:09:47.998Z</time></trkpt><trkpt lat="49.19529812536824" lon="2.546235943107781"><ele>55.0</ele><time>2026-04-24T14:09:49.998Z</time></trkpt><trkpt lat="49.19529765143248" lon="2.5463761614490976"><ele>55.0</ele><time>2026-04-24T14:09:51.998Z</time></trkpt><trkpt lat="49.19530558356088" lon="2.546517412975156"><ele>55.0</ele><time>2026-04-24T14:09:53.998Z</time></trkpt><trkpt lat="49.1953126217974" lon="2.546649913599422"><ele>55.4</ele><time>2026-04-24T14:09:55.998Z</time></trkpt><trkpt lat="49.19531736893762" lon="2.546784081273254"><ele>55.8</ele><time>2026-04-24T14:09:57.998Z</time></trkpt><trkpt lat="49.195324248998446" lon="2.5469267524402293"><ele>56.2</ele><time>2026-04-24T14:09:59.998Z</time></trkpt><trkpt lat="49.195326921158" lon="2.5470665614983266"><ele>56.6</ele><time>2026-04-24T14:10:01.998Z</time></trkpt><trkpt lat="49.19532828937037" lon="2.547201927935325"><ele>57.0</ele><time>2026-04-24T14:10:03.998Z</time></trkpt><trkpt lat="49.195333233617205" lon="2.547341697319271"><ele>57.0</ele><time>2026-04-24T14:10:05.998Z</time></trkpt><trkpt lat="49.195338334677515" lon="2.547484509240114"><ele>57.0</ele><time>2026-04-24T14:10:07.998Z</time></trkpt><trkpt lat="49.19534277711707" lon="2.5476317417465975"><ele>57.0</ele><time>2026-04-24T14:10:09.998Z</time></trkpt><trkpt lat="49.19535046314241" lon="2.5477775805472733"><ele>57.0</ele><time>2026-04-24T14:10:11.997Z</time></trkpt><trkpt lat="49.19536011235671" lon="2.5479234008501455"><ele>57.0</ele><time>2026-04-24T14:10:13.997Z</time></trkpt><trkpt lat="49.1953665752043" lon="2.548070847463868"><ele>56.8</ele><time>2026-04-24T14:10:15.997Z</time></trkpt><trkpt lat="49.19537429309662" lon="2.5482173916699793"><ele>56.6</ele><time>2026-04-24T14:10:17.997Z</time></trkpt><trkpt lat="49.19537912144575" lon="2.5483685443252884"><ele>56.39999999999999</ele><time>2026-04-24T14:10:19.997Z</time></trkpt><trkpt lat="49.19538556695774" lon="2.548516602291619"><ele>56.199999999999996</ele><time>2026-04-24T14:10:21.997Z</time></trkpt><trkpt lat="49.19539370881104" lon="2.5486673540448574"><ele>56.0</ele><time>2026-04-24T14:10:23.997Z</time></trkpt><trkpt lat="49.19539602609315" lon="2.548814019280252"><ele>56.0</ele><time>2026-04-24T14:10:25.997Z</time></trkpt><trkpt lat="49.19540818794145" lon="2.5489569748270533"><ele>55.99999999999999</ele><time>2026-04-24T14:10:27.997Z</time></trkpt><trkpt lat="49.195410716512804" lon="2.5491028653531718"><ele>55.99999999999999</ele><time>2026-04-24T14:10:29.997Z</time></trkpt><trkpt lat="49.19541906346108" lon="2.5492446929182497"><ele>56.0</ele><time>2026-04-24T14:10:31.997Z</time></trkpt><trkpt lat="49.19542648859789" lon="2.5493884200538437"><ele>56.0</ele><time>2026-04-24T14:10:33.997Z</time></trkpt><trkpt lat="49.195433497345064" lon="2.5495306452916635"><ele>56.0</ele><time>2026-04-24T14:10:35.997Z</time></trkpt><trkpt lat="49.19543960068663" lon="2.549669755705872"><ele>55.99999999999999</ele><time>2026-04-24T14:10:37.997Z</time></trkpt><trkpt lat="49.19545009948525" lon="2.5498082952977557"><ele>55.99999999999999</ele><time>2026-04-24T14:10:39.997Z</time></trkpt><trkpt lat="49.19545929034645" lon="2.5499444274167753"><ele>56.0</ele><time>2026-04-24T14:10:41.997Z</time></trkpt><trkpt lat="49.19546771395991" lon="2.5500873481622257"><ele>56.0</ele><time>2026-04-24T14:10:43.996Z</time></trkpt><trkpt lat="49.19547327934773" lon="2.5502299553331493"><ele>56.0</ele><time>2026-04-24T14:10:45.996Z</time></trkpt><trkpt lat="49.19548543727011" lon="2.5503740817760634"><ele>55.99999999999999</ele><time>2026-04-24T14:10:47.996Z</time></trkpt><trkpt lat="49.195496804628426" lon="2.5505184289068508"><ele>55.99999999999999</ele><time>2026-04-24T14:10:49.996Z</time></trkpt><trkpt lat="49.19550639563408" lon="2.5506687276733726"><ele>56.0</ele><time>2026-04-24T14:10:51.996Z</time></trkpt><trkpt lat="49.195520912732974" lon="2.5508232575808374"><ele>56.0</ele><time>2026-04-24T14:10:53.996Z</time></trkpt><trkpt lat="49.19553329530925" lon="2.550976701722494"><ele>56.0</ele><time>2026-04-24T14:10:55.996Z</time></trkpt><trkpt lat="49.195550534246394" lon="2.551132154971055"><ele>55.99999999999999</ele><time>2026-04-24T14:10:57.996Z</time></trkpt><trkpt lat="49.195573545723526" lon="2.5512952713811097"><ele>55.99999999999999</ele><time>2026-04-24T14:10:59.996Z</time></trkpt><trkpt lat="49.19559741094752" lon="2.551464402164539"><ele>56.0</ele><time>2026-04-24T14:11:01.996Z</time></trkpt><trkpt lat="49.195620124575704" lon="2.55164350975882"><ele>56.0</ele><time>2026-04-24T14:11:03.999Z</time></trkpt><trkpt lat="49.19564932108556" lon="2.551816129496006"><ele>55.599999999999994</ele><time>2026-04-24T14:11:05.999Z</time></trkpt><trkpt lat="49.19568645151731" lon="2.5519902168761672"><ele>55.199999999999996</ele><time>2026-04-24T14:11:07.999Z</time></trkpt><trkpt lat="49.195707231337536" lon="2.5520812218719184"><ele>54.800000000000004</ele><time>2026-04-24T14:11:08.999Z</time></trkpt><trkpt lat="49.19575523257108" lon="2.5522666066365307"><ele>54.400000000000006</ele><time>2026-04-24T14:11:10.999Z</time></trkpt><trkpt lat="49.19578243976931" lon="2.552364525925704"><ele>54.0</ele><time>2026-04-24T14:11:11.999Z</time></trkpt><trkpt lat="49.19581202590897" lon="2.5524615451818438"><ele>53.833333333333336</ele><time>2026-04-24T14:11:12.999Z</time></trkpt><trkpt lat="49.19584063540436" lon="2.552563406483693"><ele>53.66666666666667</ele><time>2026-04-24T14:11:13.999Z</time></trkpt><trkpt lat="49.195873764738224" lon="2.5526670924550277"><ele>53.5</ele><time>2026-04-24T14:11:14.999Z</time></trkpt><trkpt lat="49.19590459062179" lon="2.5527752656992075"><ele>53.333333333333336</ele><time>2026-04-24T14:11:15.999Z</time></trkpt><trkpt lat="49.19593598259496" lon="2.552875515365282"><ele>53.16666666666667</ele><time>2026-04-24T14:11:17Z</time></trkpt><trkpt lat="49.19596444973188" lon="2.5529906095263293"><ele>53.0</ele><time>2026-04-24T14:11:17.999Z</time></trkpt><trkpt lat="49.19599551086819" lon="2.5531071622113672"><ele>52.833333333333336</ele><time>2026-04-24T14:11:18.999Z</time></trkpt><trkpt lat="49.19602222225902" lon="2.553220326972053"><ele>52.66666666666667</ele><time>2026-04-24T14:11:19.999Z</time></trkpt><trkpt lat="49.196041442657084" lon="2.5533442055664506"><ele>52.5</ele><time>2026-04-24T14:11:20.999Z</time></trkpt><trkpt lat="49.196048976416456" lon="2.553470642946311"><ele>52.33333333333333</ele><time>2026-04-24T14:11:21.999Z</time></trkpt><trkpt lat="49.19605158794515" lon="2.55359232315481"><ele>52.166666666666664</ele><time>2026-04-24T14:11:22.999Z</time></trkpt><trkpt lat="49.19604660574562" lon="2.553714918684818"><ele>52.0</ele><time>2026-04-24T14:11:23.999Z</time></trkpt><trkpt lat="49.19603918782985" lon="2.5538360839980645"><ele>51.666666666666664</ele><time>2026-04-24T14:11:24.999Z</time></trkpt><trkpt lat="49.19602802877254" lon="2.5539533287132286"><ele>51.33333333333333</ele><time>2026-04-24T14:11:25.999Z</time></trkpt><trkpt lat="49.19601803664665" lon="2.554068741134956"><ele>51.0</ele><time>2026-04-24T14:11:26.999Z</time></trkpt><trkpt lat="49.1960016291335" lon="2.5541804327267843"><ele>50.66666666666667</ele><time>2026-04-24T14:11:27.999Z</time></trkpt><trkpt lat="49.19598553474977" lon="2.5542975636134644"><ele>50.333333333333336</ele><time>2026-04-24T14:11:28.999Z</time></trkpt><trkpt lat="49.1959708679409" lon="2.5544059547420583"><ele>50.0</ele><time>2026-04-24T14:11:29.999Z</time></trkpt><trkpt lat="49.19595676558166" lon="2.5545174112260463"><ele>50.142857142857146</ele><time>2026-04-24T14:11:30.999Z</time></trkpt><trkpt lat="49.195939548345216" lon="2.5546251069974337"><ele>50.285714285714285</ele><time>2026-04-24T14:11:31.999Z</time></trkpt><trkpt lat="49.195926893375" lon="2.554736427994905"><ele>50.42857142857143</ele><time>2026-04-24T14:11:32.999Z</time></trkpt><trkpt lat="49.19591424445602" lon="2.554847923170995"><ele>50.57142857142857</ele><time>2026-04-24T14:11:33.999Z</time></trkpt><trkpt lat="49.19590612868583" lon="2.5549581990826633"><ele>50.714285714285715</ele><time>2026-04-24T14:11:34.999Z</time></trkpt><trkpt lat="49.195889986695846" lon="2.5550564088261627"><ele>50.85714285714286</ele><time>2026-04-24T14:11:35.999Z</time></trkpt><trkpt lat="49.19588530922294" lon="2.5551659806430234"><ele>51.0</ele><time>2026-04-24T14:11:36.999Z</time></trkpt><trkpt lat="49.19587277787419" lon="2.5552713839781345"><ele>50.5</ele><time>2026-04-24T14:11:37.999Z</time></trkpt><trkpt lat="49.19585399536764" lon="2.555377699851935"><ele>50.0</ele><time>2026-04-24T14:11:38.999Z</time></trkpt><trkpt lat="49.195838223506136" lon="2.5554806044296456"><ele>49.5</ele><time>2026-04-24T14:11:39.999Z</time></trkpt><trkpt lat="49.19582704786371" lon="2.555581174416436"><ele>49.0</ele><time>2026-04-24T14:11:40.999Z</time></trkpt><trkpt lat="49.19581758917589" lon="2.555682135294707"><ele>48.5</ele><time>2026-04-24T14:11:41.999Z</time></trkpt><trkpt lat="49.19579384594049" lon="2.555871356284172"><ele>48.0</ele><time>2026-04-24T14:11:43.999Z</time></trkpt><trkpt lat="49.19577826715071" lon="2.5560558423311117"><ele>47.75</ele><time>2026-04-24T14:11:45.999Z</time></trkpt><trkpt lat="49.19575395021901" lon="2.556231292085626"><ele>47.5</ele><time>2026-04-24T14:11:47.999Z</time></trkpt><trkpt lat="49.19573127313409" lon="2.5564095565850535"><ele>47.25</ele><time>2026-04-24T14:11:49.999Z</time></trkpt><trkpt lat="49.19571120905645" lon="2.5565838034205814"><ele>47.0</ele><time>2026-04-24T14:11:51.998Z</time></trkpt><trkpt lat="49.19568576040811" lon="2.556764249442657"><ele>48.25</ele><time>2026-04-24T14:11:53.998Z</time></trkpt><trkpt lat="49.19566149820333" lon="2.5569356306995417"><ele>49.5</ele><time>2026-04-24T14:11:55.998Z</time></trkpt><trkpt lat="49.19563960832137" lon="2.5571119338229535"><ele>50.75</ele><time>2026-04-24T14:11:57.998Z</time></trkpt><trkpt lat="49.19561166242361" lon="2.5572894732008074"><ele>52.0</ele><time>2026-04-24T14:11:59.998Z</time></trkpt><trkpt lat="49.19558928318614" lon="2.5574638539575045"><ele>52.25</ele><time>2026-04-24T14:12:01.998Z</time></trkpt><trkpt lat="49.195580469368764" lon="2.557642316158863"><ele>52.5</ele><time>2026-04-24T14:12:03.998Z</time></trkpt><trkpt lat="49.19558092689739" lon="2.557817877202985"><ele>52.75</ele><time>2026-04-24T14:12:05.998Z</time></trkpt><trkpt lat="49.19558358913535" lon="2.557989197076785"><ele>53.0</ele><time>2026-04-24T14:12:07.998Z</time></trkpt><trkpt lat="49.19559058933475" lon="2.5581594661469875"><ele>53.0</ele><time>2026-04-24T14:12:09.998Z</time></trkpt><trkpt lat="49.19559682104028" lon="2.5583268150860556"><ele>53.0</ele><time>2026-04-24T14:12:11.998Z</time></trkpt><trkpt lat="49.195600710317144" lon="2.5584938900297685"><ele>53.0</ele><time>2026-04-24T14:12:13.998Z</time></trkpt><trkpt lat="49.19561043094193" lon="2.5586552114327823"><ele>53.0</ele><time>2026-04-24T14:12:15.998Z</time></trkpt><trkpt lat="49.195617182523605" lon="2.5588162387900977"><ele>53.0</ele><time>2026-04-24T14:12:17.998Z</time></trkpt><trkpt lat="49.195627463043685" lon="2.5589807489734966"><ele>53.0</ele><time>2026-04-24T14:12:19.998Z</time></trkpt><trkpt lat="49.195631422894444" lon="2.559145045825641"><ele>53.0</ele><time>2026-04-24T14:12:21.998Z</time></trkpt><trkpt lat="49.19563350442538" lon="2.5593074402406657"><ele>53.0</ele><time>2026-04-24T14:12:23.997Z</time></trkpt><trkpt lat="49.195639163281065" lon="2.5594679558731808"><ele>53.0</ele><time>2026-04-24T14:12:25.997Z</time></trkpt><trkpt lat="49.195644004806" lon="2.5596314384564756"><ele>53.0</ele><time>2026-04-24T14:12:27.997Z</time></trkpt><trkpt lat="49.19565164907508" lon="2.559792387211033"><ele>53.0</ele><time>2026-04-24T14:12:29.997Z</time></trkpt><trkpt lat="49.19565302344045" lon="2.5599502799765403"><ele>53.0</ele><time>2026-04-24T14:12:31.997Z</time></trkpt><trkpt lat="49.19565639454686" lon="2.5601077613582257"><ele>53.0</ele><time>2026-04-24T14:12:33.997Z</time></trkpt><trkpt lat="49.19566182398691" lon="2.5602654134145775"><ele>53.0</ele><time>2026-04-24T14:12:35.997Z</time></trkpt><trkpt lat="49.19566725717256" lon="2.56042387872199"><ele>53.0</ele><time>2026-04-24T14:12:37.997Z</time></trkpt><trkpt lat="49.1956703628783" lon="2.560589658528547"><ele>53.25</ele><time>2026-04-24T14:12:39.997Z</time></trkpt><trkpt lat="49.19567860508432" lon="2.5607636815317663"><ele>53.5</ele><time>2026-04-24T14:12:41.997Z</time></trkpt><trkpt lat="49.195683951006046" lon="2.560939466084677"><ele>53.75</ele><time>2026-04-24T14:12:43.997Z</time></trkpt><trkpt lat="49.195690302787916" lon="2.5611218440264594"><ele>54.0</ele><time>2026-04-24T14:12:45.997Z</time></trkpt><trkpt lat="49.195709188202976" lon="2.5612990450090733"><ele>54.0</ele><time>2026-04-24T14:12:47.997Z</time></trkpt><trkpt lat="49.19575270992875" lon="2.5614755395178967"><ele>54.00000000000001</ele><time>2026-04-24T14:12:49.997Z</time></trkpt><trkpt lat="49.195799454438536" lon="2.5616286069199092"><ele>54.00000000000001</ele><time>2026-04-24T14:12:51.997Z</time></trkpt><trkpt lat="49.19582900466335" lon="2.561801012197317"><ele>54.0</ele><time>2026-04-24T14:12:53.997Z</time></trkpt><trkpt lat="49.19588772428928" lon="2.5619045731934875"><ele>54.0</ele><time>2026-04-24T14:12:54.997Z</time></trkpt><trkpt lat="49.195916918904835" lon="2.56200282554308"><ele>54.0</ele><time>2026-04-24T14:12:55.996Z</time></trkpt><trkpt lat="49.19594578438344" lon="2.5620919668473277"><ele>54.00000000000001</ele><time>2026-04-24T14:12:56.996Z</time></trkpt><trkpt lat="49.19597446103176" lon="2.5621802092016144"><ele>54.00000000000001</ele><time>2026-04-24T14:12:57.996Z</time></trkpt><trkpt lat="49.19602744553553" lon="2.562340021122743"><ele>54.0</ele><time>2026-04-24T14:12:59.996Z</time></trkpt><trkpt lat="49.1960813330069" lon="2.5624966650227385"><ele>54.0</ele><time>2026-04-24T14:13:01.996Z</time></trkpt><trkpt lat="49.19612900670584" lon="2.5626362211314917"><ele>54.0</ele><time>2026-04-24T14:13:03.996Z</time></trkpt><trkpt lat="49.19616465653663" lon="2.5627691207086705"><ele>54.00000000000001</ele><time>2026-04-24T14:13:05.996Z</time></trkpt><trkpt lat="49.19620992935122" lon="2.562907725772662"><ele>54.00000000000001</ele><time>2026-04-24T14:13:07.996Z</time></trkpt><trkpt lat="49.196240892127214" lon="2.5630749722157056"><ele>54.0</ele><time>2026-04-24T14:13:10Z</time></trkpt><trkpt lat="49.19628530237325" lon="2.5632263342962776"><ele>54.0</ele><time>2026-04-24T14:13:12Z</time></trkpt><trkpt lat="49.196327683993474" lon="2.5633717939482996"><ele>54.400000000000006</ele><time>2026-04-24T14:13:14Z</time></trkpt><trkpt lat="49.196359401022725" lon="2.5635165015859593"><ele>54.800000000000004</ele><time>2026-04-24T14:13:16Z</time></trkpt><trkpt lat="49.19637731427181" lon="2.5636513634556533"><ele>55.199999999999996</ele><time>2026-04-24T14:13:18Z</time></trkpt><trkpt lat="49.1964124072347" lon="2.563797315388007"><ele>55.599999999999994</ele><time>2026-04-24T14:13:20Z</time></trkpt><trkpt lat="49.19644453965419" lon="2.563942424718097"><ele>56.0</ele><time>2026-04-24T14:13:22Z</time></trkpt><trkpt lat="49.196474186039204" lon="2.5640872877080665"><ele>56.0</ele><time>2026-04-24T14:13:24Z</time></trkpt><trkpt lat="49.19649934237568" lon="2.564235714526319"><ele>55.99999999999999</ele><time>2026-04-24T14:13:25.999Z</time></trkpt><trkpt lat="49.19652448575261" lon="2.564386486396243"><ele>55.99999999999999</ele><time>2026-04-24T14:13:27.999Z</time></trkpt><trkpt lat="49.196542424270646" lon="2.564537769989714"><ele>56.0</ele><time>2026-04-24T14:13:29.999Z</time></trkpt><trkpt lat="49.19655531567301" lon="2.5646877848915977"><ele>56.0</ele><time>2026-04-24T14:13:31.999Z</time></trkpt><trkpt lat="49.19656531847477" lon="2.5648433306579417"><ele>55.4</ele><time>2026-04-24T14:13:33.999Z</time></trkpt><trkpt lat="49.196561351590226" lon="2.565004536186001"><ele>54.8</ele><time>2026-04-24T14:13:35.999Z</time></trkpt><trkpt lat="49.196531627370014" lon="2.565161379895437"><ele>54.199999999999996</ele><time>2026-04-24T14:13:37.999Z</time></trkpt><trkpt lat="49.1964860128971" lon="2.5653080459061073"><ele>53.599999999999994</ele><time>2026-04-24T14:13:39.999Z</time></trkpt><trkpt lat="49.19645035651936" lon="2.565443274430306"><ele>53.0</ele><time>2026-04-24T14:13:41.999Z</time></trkpt><trkpt lat="49.19640635719899" lon="2.5655968593689105"><ele>52.8</ele><time>2026-04-24T14:13:43.999Z</time></trkpt><trkpt lat="49.196365173431595" lon="2.5657370517505917"><ele>52.599999999999994</ele><time>2026-04-24T14:13:45.999Z</time></trkpt><trkpt lat="49.19633024940601" lon="2.565879364490911"><ele>52.400000000000006</ele><time>2026-04-24T14:13:47.999Z</time></trkpt><trkpt lat="49.19628434703849" lon="2.566026782253397"><ele>52.2</ele><time>2026-04-24T14:13:49.999Z</time></trkpt><trkpt lat="49.196238258204176" lon="2.5661581817344654"><ele>52.0</ele><time>2026-04-24T14:13:51.999Z</time></trkpt><trkpt lat="49.19620234702458" lon="2.5663101583374037"><ele>52.0</ele><time>2026-04-24T14:13:53.999Z</time></trkpt><trkpt lat="49.19615859341522" lon="2.56647177823447"><ele>52.0</ele><time>2026-04-24T14:13:55.999Z</time></trkpt><trkpt lat="49.19611027863998" lon="2.566631010949451"><ele>52.0</ele><time>2026-04-24T14:13:57.998Z</time></trkpt><trkpt lat="49.19606684630161" lon="2.5667875394883994"><ele>52.0</ele><time>2026-04-24T14:13:59.998Z</time></trkpt><trkpt lat="49.19602738682355" lon="2.5669429403542"><ele>52.0</ele><time>2026-04-24T14:14:01.998Z</time></trkpt><trkpt lat="49.19598987591309" lon="2.567097736479952"><ele>52.0</ele><time>2026-04-24T14:14:03.998Z</time></trkpt><trkpt lat="49.19596175666449" lon="2.5672524779732604"><ele>52.0</ele><time>2026-04-24T14:14:05.998Z</time></trkpt><trkpt lat="49.19596467525498" lon="2.567411083086167"><ele>52.0</ele><time>2026-04-24T14:14:07.998Z</time></trkpt><trkpt lat="49.19599058065556" lon="2.567561990053951"><ele>52.0</ele><time>2026-04-24T14:14:09.998Z</time></trkpt><trkpt lat="49.196031021621906" lon="2.5677111929068612"><ele>52.0</ele><time>2026-04-24T14:14:11.998Z</time></trkpt><trkpt lat="49.196065677704325" lon="2.5678639368298724"><ele>52.400000000000006</ele><time>2026-04-24T14:14:13.998Z</time></trkpt><trkpt lat="49.19609883972973" lon="2.568008365768247"><ele>52.800000000000004</ele><time>2026-04-24T14:14:15.998Z</time></trkpt><trkpt lat="49.19613852713856" lon="2.56815154754066"><ele>53.2</ele><time>2026-04-24T14:14:17.998Z</time></trkpt><trkpt lat="49.19617979097883" lon="2.568313129439199"><ele>53.6</ele><time>2026-04-24T14:14:19.998Z</time></trkpt><trkpt lat="49.19621508195924" lon="2.5684443736674125"><ele>54.0</ele><time>2026-04-24T14:14:21.998Z</time></trkpt><trkpt lat="49.19625513358932" lon="2.568586221359086"><ele>54.0</ele><time>2026-04-24T14:14:23.998Z</time></trkpt><trkpt lat="49.196289544150666" lon="2.5687336319190903"><ele>54.00000000000001</ele><time>2026-04-24T14:14:25.998Z</time></trkpt><trkpt lat="49.196323978112865" lon="2.5688768437736673"><ele>54.00000000000001</ele><time>2026-04-24T14:14:27.998Z</time></trkpt><trkpt lat="49.19636292052265" lon="2.5690161728426886"><ele>54.0</ele><time>2026-04-24T14:14:29.997Z</time></trkpt><trkpt lat="49.196395091787664" lon="2.5691589230554497"><ele>54.0</ele><time>2026-04-24T14:14:31.997Z</time></trkpt><trkpt lat="49.19642432041579" lon="2.569296171023343"><ele>54.0</ele><time>2026-04-24T14:14:33.997Z</time></trkpt><trkpt lat="49.196450199117436" lon="2.569430449080864"><ele>54.00000000000001</ele><time>2026-04-24T14:14:35.997Z</time></trkpt><trkpt lat="49.19650529180305" lon="2.56956004343553"><ele>54.00000000000001</ele><time>2026-04-24T14:14:37.997Z</time></trkpt><trkpt lat="49.19651226578951" lon="2.5697231462238808"><ele>54.0</ele><time>2026-04-24T14:14:39.997Z</time></trkpt><trkpt lat="49.196471522872585" lon="2.5698665698859102"><ele>54.0</ele><time>2026-04-24T14:14:41.997Z</time></trkpt><trkpt lat="49.19644127283726" lon="2.5699963730826636"><ele>53.6</ele><time>2026-04-24T14:14:43.997Z</time></trkpt><trkpt lat="49.19643924955822" lon="2.570144004858705"><ele>53.2</ele><time>2026-04-24T14:14:45.997Z</time></trkpt><trkpt lat="49.19643221286757" lon="2.570288301652621"><ele>52.800000000000004</ele><time>2026-04-24T14:14:47.997Z</time></trkpt><trkpt lat="49.196418792303795" lon="2.5704356922181693"><ele>52.400000000000006</ele><time>2026-04-24T14:14:49.997Z</time></trkpt><trkpt lat="49.196415998436386" lon="2.570586422269537"><ele>52.0</ele><time>2026-04-24T14:14:51.997Z</time></trkpt><trkpt lat="49.19641389885269" lon="2.570742011458916"><ele>52.0</ele><time>2026-04-24T14:14:53.997Z</time></trkpt><trkpt lat="49.19641657843006" lon="2.5709005069172637"><ele>52.0</ele><time>2026-04-24T14:14:55.997Z</time></trkpt><trkpt lat="49.19641917431142" lon="2.5710571476578754"><ele>52.0</ele><time>2026-04-24T14:14:57.997Z</time></trkpt><trkpt lat="49.196413967626206" lon="2.571217826034955"><ele>52.0</ele><time>2026-04-24T14:14:59.997Z</time></trkpt><trkpt lat="49.19639399428376" lon="2.5713669608139815"><ele>52.0</ele><time>2026-04-24T14:15:01.996Z</time></trkpt><trkpt lat="49.19637193161086" lon="2.5715216037413486"><ele>52.0</ele><time>2026-04-24T14:15:03.996Z</time></trkpt><trkpt lat="49.1963531754244" lon="2.57167018955835"><ele>52.0</ele><time>2026-04-24T14:15:05.996Z</time></trkpt><trkpt lat="49.19633695882995" lon="2.571816950667376"><ele>52.0</ele><time>2026-04-24T14:15:07.996Z</time></trkpt><trkpt lat="49.19632332802127" lon="2.5719616542127177"><ele>52.0</ele><time>2026-04-24T14:15:09.996Z</time></trkpt><trkpt lat="49.196309388357456" lon="2.572108530210085"><ele>52.0</ele><time>2026-04-24T14:15:11.996Z</time></trkpt><trkpt lat="49.196292211470805" lon="2.5722552354972286"><ele>52.2</ele><time>2026-04-24T14:15:14Z</time></trkpt><trkpt lat="49.19626940994245" lon="2.572394387992059"><ele>52.400000000000006</ele><time>2026-04-24T14:15:16Z</time></trkpt><trkpt lat="49.19625623465366" lon="2.5725335548402897"><ele>52.599999999999994</ele><time>2026-04-24T14:15:18Z</time></trkpt><trkpt lat="49.19623804315408" lon="2.572672639430529"><ele>52.8</ele><time>2026-04-24T14:15:20Z</time></trkpt><trkpt lat="49.19622059379799" lon="2.572812851156849"><ele>53.0</ele><time>2026-04-24T14:15:22Z</time></trkpt><trkpt lat="49.19620727627387" lon="2.572949403276834"><ele>53.00000000000001</ele><time>2026-04-24T14:15:24Z</time></trkpt><trkpt lat="49.19618313837145" lon="2.573077916965938"><ele>53.0</ele><time>2026-04-24T14:15:26Z</time></trkpt><trkpt lat="49.19616942777097" lon="2.5732112435204697"><ele>53.0</ele><time>2026-04-24T14:15:28Z</time></trkpt><trkpt lat="49.196153801980834" lon="2.5733461283317833"><ele>53.0</ele><time>2026-04-24T14:15:30Z</time></trkpt><trkpt lat="49.196140104465655" lon="2.573481437577077"><ele>53.00000000000001</ele><time>2026-04-24T14:15:31.999Z</time></trkpt><trkpt lat="49.19612231023869" lon="2.5736147432109475"><ele>53.0</ele><time>2026-04-24T14:15:33.999Z</time></trkpt><trkpt lat="49.19610970576839" lon="2.573743174959703"><ele>53.00000000000001</ele><time>2026-04-24T14:15:35.999Z</time></trkpt><trkpt lat="49.19609740984279" lon="2.573874272359128"><ele>53.0</ele><time>2026-04-24T14:15:37.999Z</time></trkpt><trkpt lat="49.19608099326771" lon="2.574006956936147"><ele>53.0</ele><time>2026-04-24T14:15:39.999Z</time></trkpt><trkpt lat="49.19605844507124" lon="2.574140193526179"><ele>53.0</ele><time>2026-04-24T14:15:41.999Z</time></trkpt><trkpt lat="49.196037688445564" lon="2.5742768126079105"><ele>53.00000000000001</ele><time>2026-04-24T14:15:43.999Z</time></trkpt><trkpt lat="49.19602443357003" lon="2.574415630424362"><ele>53.0</ele><time>2026-04-24T14:15:45.999Z</time></trkpt><trkpt lat="49.19600690346537" lon="2.5745554962552495"><ele>52.8</ele><time>2026-04-24T14:15:47.999Z</time></trkpt><trkpt lat="49.19598565498244" lon="2.574702682738015"><ele>52.599999999999994</ele><time>2026-04-24T14:15:49.999Z</time></trkpt><trkpt lat="49.195960851492984" lon="2.574848490843762"><ele>52.400000000000006</ele><time>2026-04-24T14:15:51.999Z</time></trkpt><trkpt lat="49.19594064421474" lon="2.575000256244746"><ele>52.2</ele><time>2026-04-24T14:15:53.999Z</time></trkpt><trkpt lat="49.19591415386105" lon="2.575140918563964"><ele>52.0</ele><time>2026-04-24T14:15:55.999Z</time></trkpt><trkpt lat="49.19588424518277" lon="2.5752834442185386"><ele>52.400000000000006</ele><time>2026-04-24T14:15:57.999Z</time></trkpt><trkpt lat="49.195852999599516" lon="2.575424688662642"><ele>52.800000000000004</ele><time>2026-04-24T14:15:59.999Z</time></trkpt><trkpt lat="49.1958225741587" lon="2.575560911533613"><ele>53.2</ele><time>2026-04-24T14:16:01.999Z</time></trkpt><trkpt lat="49.195793578817884" lon="2.575705439881822"><ele>53.6</ele><time>2026-04-24T14:16:03.998Z</time></trkpt><trkpt lat="49.19576763022945" lon="2.575833611787087"><ele>54.0</ele><time>2026-04-24T14:16:05.998Z</time></trkpt><trkpt lat="49.19573969370315" lon="2.575969800091167"><ele>54.0</ele><time>2026-04-24T14:16:07.998Z</time></trkpt><trkpt lat="49.19571467266181" lon="2.576095698156571"><ele>54.0</ele><time>2026-04-24T14:16:09.998Z</time></trkpt><trkpt lat="49.19568303691645" lon="2.5762126387742685"><ele>54.0</ele><time>2026-04-24T14:16:11.998Z</time></trkpt><trkpt lat="49.19566294546019" lon="2.5763217257498474"><ele>54.0</ele><time>2026-04-24T14:16:13.998Z</time></trkpt><trkpt lat="49.19564452719129" lon="2.576436913022749"><ele>54.0</ele><time>2026-04-24T14:16:15.998Z</time></trkpt><trkpt lat="49.195637183065536" lon="2.5765593053178164"><ele>54.0</ele><time>2026-04-24T14:16:17.998Z</time></trkpt><trkpt lat="49.19564437042573" lon="2.5766668215911834"><ele>54.166666666666664</ele><time>2026-04-24T14:16:19.998Z</time></trkpt><trkpt lat="49.195627320925105" lon="2.5767869836999933"><ele>54.33333333333333</ele><time>2026-04-24T14:16:22.998Z</time></trkpt><trkpt lat="49.19559960666596" lon="2.5768869724180417"><ele>54.5</ele><time>2026-04-24T14:16:24.998Z</time></trkpt><trkpt lat="49.195588043958836" lon="2.5770157608333375"><ele>54.666666666666664</ele><time>2026-04-24T14:16:27.998Z</time></trkpt><trkpt lat="49.195659234707804" lon="2.577088046602589"><ele>54.83333333333333</ele><time>2026-04-24T14:16:30.998Z</time></trkpt><trkpt lat="49.19572273779326" lon="2.5771229988794797"><ele>55.0</ele><time>2026-04-24T14:16:32.998Z</time></trkpt><trkpt lat="49.195798196539286" lon="2.5771708059920924"><ele>54.99999999999999</ele><time>2026-04-24T14:16:34.997Z</time></trkpt><trkpt lat="49.195868847656875" lon="2.577216637872437"><ele>55.0</ele><time>2026-04-24T14:16:36.997Z</time></trkpt><trkpt lat="49.195944145083516" lon="2.5772735151414885"><ele>55.0</ele><time>2026-04-24T14:16:38.997Z</time></trkpt><trkpt lat="49.19602161293798" lon="2.577320875803653"><ele>55.0</ele><time>2026-04-24T14:16:40.997Z</time></trkpt><trkpt lat="49.19609836798649" lon="2.5773716011956265"><ele>54.99999999999999</ele><time>2026-04-24T14:16:42.997Z</time></trkpt><trkpt lat="49.196173254659236" lon="2.577423903474315"><ele>55.0</ele><time>2026-04-24T14:16:44.997Z</time></trkpt><trkpt lat="49.19625313565796" lon="2.5774674779309614"><ele>54.99999999999999</ele><time>2026-04-24T14:16:46.997Z</time></trkpt><trkpt lat="49.19633254254721" lon="2.5775223454632132"><ele>55.0</ele><time>2026-04-24T14:16:48.997Z</time></trkpt><trkpt lat="49.1964122801282" lon="2.577579056832528"><ele>55.0</ele><time>2026-04-24T14:16:50.997Z</time></trkpt><trkpt lat="49.19648753384504" lon="2.577629031651615"><ele>55.0</ele><time>2026-04-24T14:16:52.997Z</time></trkpt><trkpt lat="49.196562714309586" lon="2.5776794634627853"><ele>54.99999999999999</ele><time>2026-04-24T14:16:54.997Z</time></trkpt><trkpt lat="49.19663846517148" lon="2.5777264470668735"><ele>55.0</ele><time>2026-04-24T14:16:56.997Z</time></trkpt><trkpt lat="49.196687320191344" lon="2.5778427065829694"><ele>54.99999999999999</ele><time>2026-04-24T14:16:58.997Z</time></trkpt><trkpt lat="49.196765106304106" lon="2.5778941486744733"><ele>55.0</ele><time>2026-04-24T14:17:00.997Z</time></trkpt><trkpt lat="49.19683842418658" lon="2.577942635908181"><ele>55.0</ele><time>2026-04-24T14:17:02.997Z</time></trkpt><trkpt lat="49.1969130564135" lon="2.577991992312119"><ele>55.0</ele><time>2026-04-24T14:17:04.997Z</time></trkpt><trkpt lat="49.196991941414865" lon="2.5780441611219076"><ele>54.99999999999999</ele><time>2026-04-24T14:17:06.996Z</time></trkpt><trkpt lat="49.197066410998204" lon="2.578093409918347"><ele>55.0</ele><time>2026-04-24T14:17:08.996Z</time></trkpt><trkpt lat="49.19713865111348" lon="2.5781411844306534"><ele>54.99999999999999</ele><time>2026-04-24T14:17:10.996Z</time></trkpt><trkpt lat="49.19721264110662" lon="2.578190116032184"><ele>55.0</ele><time>2026-04-24T14:17:12.996Z</time></trkpt><trkpt lat="49.197285543678625" lon="2.5782382128989396"><ele>55.0</ele><time>2026-04-24T14:17:14.996Z</time></trkpt><trkpt lat="49.19735966592442" lon="2.5782871069286704"><ele>55.0</ele><time>2026-04-24T14:17:16.996Z</time></trkpt><trkpt lat="49.197432843727334" lon="2.5783353781571074"><ele>54.99999999999999</ele><time>2026-04-24T14:17:19Z</time></trkpt><trkpt lat="49.19750881949027" lon="2.578385494990879"><ele>55.0</ele><time>2026-04-24T14:17:20.999Z</time></trkpt><trkpt lat="49.19757910650493" lon="2.578431859033356"><ele>55.14285714285714</ele><time>2026-04-24T14:17:23Z</time></trkpt><trkpt lat="49.19765012589421" lon="2.578478185185191"><ele>55.285714285714285</ele><time>2026-04-24T14:17:25Z</time></trkpt><trkpt lat="49.19771960113333" lon="2.578524319536157"><ele>55.42857142857143</ele><time>2026-04-24T14:17:26.999Z</time></trkpt><trkpt lat="49.197789431556856" lon="2.578570858540424"><ele>55.57142857142857</ele><time>2026-04-24T14:17:29Z</time></trkpt><trkpt lat="49.19785422746402" lon="2.578614042363949"><ele>55.714285714285715</ele><time>2026-04-24T14:17:30.999Z</time></trkpt><trkpt lat="49.19792246802323" lon="2.5786595218519794"><ele>55.857142857142854</ele><time>2026-04-24T14:17:32.999Z</time></trkpt><trkpt lat="49.19798561276093" lon="2.57870167700464"><ele>56.0</ele><time>2026-04-24T14:17:34.999Z</time></trkpt><trkpt lat="49.19804845316978" lon="2.5787439841761355"><ele>56.285714285714285</ele><time>2026-04-24T14:17:36.999Z</time></trkpt><trkpt lat="49.19811002401177" lon="2.578785436499063"><ele>56.57142857142857</ele><time>2026-04-24T14:17:38.999Z</time></trkpt><trkpt lat="49.19817324403498" lon="2.57882799911555"><ele>56.85714285714286</ele><time>2026-04-24T14:17:40.999Z</time></trkpt><trkpt lat="49.19823812653746" lon="2.578871681018405"><ele>57.142857142857146</ele><time>2026-04-24T14:17:42.999Z</time></trkpt><trkpt lat="49.19830033291153" lon="2.5789135612118215"><ele>57.42857142857143</ele><time>2026-04-24T14:17:44.999Z</time></trkpt><trkpt lat="49.19836462817128" lon="2.5789568476738007"><ele>57.71428571428572</ele><time>2026-04-24T14:17:46.999Z</time></trkpt><trkpt lat="49.19842932783699" lon="2.5790004064366046"><ele>58.00000000000001</ele><time>2026-04-24T14:17:48.999Z</time></trkpt><trkpt lat="49.198491214317585" lon="2.579042071283341"><ele>58.00000000000001</ele><time>2026-04-24T14:17:50.999Z</time></trkpt><trkpt lat="49.198554032430756" lon="2.579084363338955"><ele>58.0</ele><time>2026-04-24T14:17:52.999Z</time></trkpt><trkpt lat="49.19861566330515" lon="2.579125856052804"><ele>58.00000000000001</ele><time>2026-04-24T14:17:56.999Z</time></trkpt><trkpt lat="49.19867801409289" lon="2.579167833447867"><ele>58.00000000000001</ele><time>2026-04-24T14:18:00.999Z</time></trkpt><trkpt lat="49.19875646882148" lon="2.579220652712396"><ele>58.0</ele><time>2026-04-24T14:18:03.999Z</time></trkpt><trkpt lat="49.198817426046745" lon="2.57926181687967"><ele>58.00000000000001</ele><time>2026-04-24T14:18:05.998Z</time></trkpt><trkpt lat="49.19887511028759" lon="2.579301273734234"><ele>58.00000000000001</ele><time>2026-04-24T14:18:07.998Z</time></trkpt><trkpt lat="49.198933043736226" lon="2.579340901227438"><ele>57.99999999999999</ele><time>2026-04-24T14:18:09.998Z</time></trkpt><trkpt lat="49.19899469377142" lon="2.579383070912406"><ele>58.0</ele><time>2026-04-24T14:18:12.998Z</time></trkpt><trkpt lat="49.199072945548686" lon="2.5794375237709444"><ele>58.0</ele><time>2026-04-24T14:18:15.998Z</time></trkpt><trkpt lat="49.199158679936" lon="2.5794972001734147"><ele>58.0</ele><time>2026-04-24T14:18:18.998Z</time></trkpt><trkpt lat="49.199247419239626" lon="2.5795589671509056"><ele>57.99999999999999</ele><time>2026-04-24T14:18:21.998Z</time></trkpt><trkpt lat="49.19930823864528" lon="2.579602940458045"><ele>58.0</ele><time>2026-04-24T14:18:23.998Z</time></trkpt><trkpt lat="49.199369371653695" lon="2.5796466179027804"><ele>58.49999999999999</ele><time>2026-04-24T14:18:25.998Z</time></trkpt><trkpt lat="49.19943066239544" lon="2.579690408022619"><ele>59.0</ele><time>2026-04-24T14:18:27.998Z</time></trkpt><trkpt lat="49.199491344496735" lon="2.579733763341475"><ele>59.5</ele><time>2026-04-24T14:18:29.998Z</time></trkpt><trkpt lat="49.199574686378384" lon="2.5797939183675695"><ele>60.0</ele><time>2026-04-24T14:18:32.998Z</time></trkpt><trkpt lat="49.199655065610834" lon="2.5798526224180702"><ele>60.49999999999999</ele><time>2026-04-24T14:18:35.998Z</time></trkpt><trkpt lat="49.199730630925416" lon="2.57990781056677"><ele>61.0</ele><time>2026-04-24T14:18:38.997Z</time></trkpt><trkpt lat="49.19979931400462" lon="2.5799579736306737"><ele>60.99999999999999</ele><time>2026-04-24T14:18:41.997Z</time></trkpt><trkpt lat="49.19974815195763" lon="2.5800324384114037"><ele>61.0</ele><time>2026-04-24T14:18:50.997Z</time></trkpt><trkpt lat="49.199677761348084" lon="2.5801349266102673"><ele>61.0</ele><time>2026-04-24T14:18:53.997Z</time></trkpt><trkpt lat="49.19964789590727" lon="2.5802421707659096"><ele>61.0</ele><time>2026-04-24T14:18:57.997Z</time></trkpt><trkpt lat="49.19951600444833" lon="2.5802011573564334"><ele>60.99999999999999</ele><time>2026-04-24T14:18:58.997Z</time></trkpt><trkpt lat="49.19950169365037" lon="2.5803030107987603"><ele>61.0</ele><time>2026-04-24T14:19:00.997Z</time></trkpt><trkpt lat="49.1994081641972" lon="2.5803122310322824"><ele>60.83333333333333</ele><time>2026-04-24T14:19:02.997Z</time></trkpt><trkpt lat="49.19936740442358" lon="2.5804445876836213"><ele>60.666666666666664</ele><time>2026-04-24T14:19:05.997Z</time></trkpt><trkpt lat="49.199327316221606" lon="2.5805699099023114"><ele>60.5</ele><time>2026-04-24T14:19:08.997Z</time></trkpt><trkpt lat="49.199295350491326" lon="2.5806676073389565"><ele>60.33333333333333</ele><time>2026-04-24T14:19:11.996Z</time></trkpt><trkpt lat="49.19925735109818" lon="2.5807814198307177"><ele>60.166666666666664</ele><time>2026-04-24T14:19:14.996Z</time></trkpt><trkpt lat="49.19922143297921" lon="2.5808889983880534"><ele>60.0</ele><time>2026-04-24T14:19:17.996Z</time></trkpt><trkpt lat="49.1991898844314" lon="2.5809834898395736"><ele>60.0</ele><time>2026-04-24T14:19:20.996Z</time></trkpt><trkpt lat="49.19930256828321" lon="2.581110184705755"><ele>60.0</ele><time>2026-04-24T14:19:22.996Z</time></trkpt><trkpt lat="49.19937086718944" lon="2.5811672816752806"><ele>60.0</ele><time>2026-04-24T14:19:25.999Z</time></trkpt><trkpt lat="49.19944226194762" lon="2.5812150543625783"><ele>60.0</ele><time>2026-04-24T14:19:28.999Z</time></trkpt><trkpt lat="49.19950077053126" lon="2.58127112344885"><ele>60.0</ele><time>2026-04-24T14:19:31.999Z</time></trkpt><trkpt lat="49.19957926152959" lon="2.581318417042171"><ele>60.0</ele><time>2026-04-24T14:19:34.999Z</time></trkpt><trkpt lat="49.19965547445872" lon="2.5813920124650473"><ele>59.833333333333336</ele><time>2026-04-24T14:19:38Z</time></trkpt><trkpt lat="49.19972495142045" lon="2.581448837256888"><ele>59.66666666666667</ele><time>2026-04-24T14:19:40.999Z</time></trkpt><trkpt lat="49.19978787850119" lon="2.5815321544877547"><ele>59.5</ele><time>2026-04-24T14:19:43.999Z</time></trkpt><trkpt lat="49.199867768415935" lon="2.5815913364107055"><ele>59.333333333333336</ele><time>2026-04-24T14:19:46.999Z</time></trkpt><trkpt lat="49.19992548665081" lon="2.5816333344909683"><ele>59.16666666666667</ele><time>2026-04-24T14:19:48.999Z</time></trkpt><trkpt lat="49.200011282699386" lon="2.5816905585083223"><ele>59.0</ele><time>2026-04-24T14:19:51.999Z</time></trkpt><trkpt lat="49.20008498046104" lon="2.581773855708021"><ele>59.0</ele><time>2026-04-24T14:19:54.999Z</time></trkpt><trkpt lat="49.20015623531043" lon="2.5818002765388015"><ele>59.0</ele><time>2026-04-24T14:19:57.999Z</time></trkpt><trkpt lat="49.20023832330501" lon="2.5818635392894764"><ele>59.0</ele><time>2026-04-24T14:20:00.999Z</time></trkpt><trkpt lat="49.20029870036426" lon="2.5819102454905027"><ele>59.0</ele><time>2026-04-24T14:20:02.999Z</time></trkpt><trkpt lat="49.20036026830319" lon="2.581957873949684"><ele>59.0</ele><time>2026-04-24T14:20:04.999Z</time></trkpt><trkpt lat="49.20042013898125" lon="2.5820034420344355"><ele>59.0</ele><time>2026-04-24T14:20:06.999Z</time></trkpt><trkpt lat="49.200480860600216" lon="2.5820498813817916"><ele>59.0</ele><time>2026-04-24T14:20:08.999Z</time></trkpt><trkpt lat="49.20053609099432" lon="2.5821194128234524"><ele>58.6</ele><time>2026-04-24T14:20:10.998Z</time></trkpt><trkpt lat="49.200608566004455" lon="2.582156198956866"><ele>58.2</ele><time>2026-04-24T14:20:12.998Z</time></trkpt><trkpt lat="49.200686707139226" lon="2.5822082648121225"><ele>57.800000000000004</ele><time>2026-04-24T14:20:14.998Z</time></trkpt><trkpt lat="49.20075862190464" lon="2.582279690498159"><ele>57.400000000000006</ele><time>2026-04-24T14:20:16.998Z</time></trkpt><trkpt lat="49.20077424196386" lon="2.582428122022681"><ele>57.0</ele><time>2026-04-24T14:20:18.998Z</time></trkpt><trkpt lat="49.20087547599797" lon="2.582591564406746"><ele>56.8</ele><time>2026-04-24T14:20:21.998Z</time></trkpt><trkpt lat="49.20098013130973" lon="2.58264208583508"><ele>56.6</ele><time>2026-04-24T14:20:23.998Z</time></trkpt><trkpt lat="49.201080114019135" lon="2.5827173160701715"><ele>56.39999999999999</ele><time>2026-04-24T14:20:25.998Z</time></trkpt><trkpt lat="49.20117046767336" lon="2.5828078288125687"><ele>56.199999999999996</ele><time>2026-04-24T14:20:27.998Z</time></trkpt><trkpt lat="49.2011230546507" lon="2.582968450033047"><ele>56.0</ele><time>2026-04-24T14:20:29.998Z</time></trkpt><trkpt lat="49.20107144293474" lon="2.5830929636843347"><ele>55.599999999999994</ele><time>2026-04-24T14:20:31.998Z</time></trkpt><trkpt lat="49.201023473659156" lon="2.58320146714993"><ele>55.199999999999996</ele><time>2026-04-24T14:20:33.998Z</time></trkpt><trkpt lat="49.20094660435032" lon="2.583216566214168"><ele>54.800000000000004</ele><time>2026-04-24T14:20:35.998Z</time></trkpt><trkpt lat="49.20101788465103" lon="2.5835261840413755"><ele>54.400000000000006</ele><time>2026-04-24T14:20:38.998Z</time></trkpt><trkpt lat="49.20098208493099" lon="2.5836113397110942"><ele>54.0</ele><time>2026-04-24T14:20:40.997Z</time></trkpt><trkpt lat="49.2009282928085" lon="2.5837325318971227"><ele>53.833333333333336</ele><time>2026-04-24T14:20:42.997Z</time></trkpt><trkpt lat="49.20089766157417" lon="2.583854761719514"><ele>53.66666666666667</ele><time>2026-04-24T14:20:46.997Z</time></trkpt><trkpt lat="49.20086312075615" lon="2.583946655773655"><ele>53.5</ele><time>2026-04-24T14:20:48.997Z</time></trkpt><trkpt lat="49.20082273915006" lon="2.584052861248943"><ele>53.333333333333336</ele><time>2026-04-24T14:20:50.997Z</time></trkpt><trkpt lat="49.20077561808906" lon="2.5841514481021877"><ele>53.16666666666667</ele><time>2026-04-24T14:20:52.997Z</time></trkpt><trkpt lat="49.200733250906154" lon="2.5842517324780747"><ele>53.0</ele><time>2026-04-24T14:20:54.997Z</time></trkpt><trkpt lat="49.20069033002898" lon="2.5843475858424445"><ele>53.333333333333336</ele><time>2026-04-24T14:20:56.997Z</time></trkpt><trkpt lat="49.20065382838953" lon="2.5844440503066535"><ele>53.66666666666667</ele><time>2026-04-24T14:20:58.997Z</time></trkpt><trkpt lat="49.20060997015945" lon="2.5845519621118607"><ele>54.0</ele><time>2026-04-24T14:21:00.997Z</time></trkpt><trkpt lat="49.200563936056575" lon="2.584643139055496"><ele>54.33333333333333</ele><time>2026-04-24T14:21:02.997Z</time></trkpt><trkpt lat="49.20052198871561" lon="2.5847400297363"><ele>54.666666666666664</ele><time>2026-04-24T14:21:04.997Z</time></trkpt><trkpt lat="49.20048014703878" lon="2.5848317132978806"><ele>55.0</ele><time>2026-04-24T14:21:06.997Z</time></trkpt><trkpt lat="49.2004396403546" lon="2.5849433751850635"><ele>54.99999999999999</ele><time>2026-04-24T14:21:08.997Z</time></trkpt><trkpt lat="49.20040077418411" lon="2.5850519222096993"><ele>55.0</ele><time>2026-04-24T14:21:10.997Z</time></trkpt><trkpt lat="49.20034749839447" lon="2.5851530088785766"><ele>55.0</ele><time>2026-04-24T14:21:12.996Z</time></trkpt><trkpt lat="49.200293815486745" lon="2.585265879430923"><ele>55.0</ele><time>2026-04-24T14:21:14.996Z</time></trkpt><trkpt lat="49.20026540051388" lon="2.585371313429798"><ele>54.99999999999999</ele><time>2026-04-24T14:21:16.996Z</time></trkpt><trkpt lat="49.20021323008276" lon="2.5854561836002166"><ele>55.0</ele><time>2026-04-24T14:21:18.996Z</time></trkpt><trkpt lat="49.200174702642826" lon="2.5855636007467564"><ele>54.666666666666664</ele><time>2026-04-24T14:21:20.996Z</time></trkpt><trkpt lat="49.20013280667539" lon="2.585662566369137"><ele>54.33333333333333</ele><time>2026-04-24T14:21:22.996Z</time></trkpt><trkpt lat="49.200082387467106" lon="2.5857596258933553"><ele>54.0</ele><time>2026-04-24T14:21:24.996Z</time></trkpt><trkpt lat="49.20002902280241" lon="2.5858494126599254"><ele>53.66666666666667</ele><time>2026-04-24T14:21:26.996Z</time></trkpt><trkpt lat="49.199981772814866" lon="2.5859547130091447"><ele>53.333333333333336</ele><time>2026-04-24T14:21:28.996Z</time></trkpt><trkpt lat="49.1999383770207" lon="2.586052131432142"><ele>53.0</ele><time>2026-04-24T14:21:30.999Z</time></trkpt><trkpt lat="49.199902823882766" lon="2.5861691349944493"><ele>52.66666666666667</ele><time>2026-04-24T14:21:32.999Z</time></trkpt><trkpt lat="49.19985362719206" lon="2.5862690501824854"><ele>52.333333333333336</ele><time>2026-04-24T14:21:34.999Z</time></trkpt><trkpt lat="49.199806729042564" lon="2.5863703321921427"><ele>52.0</ele><time>2026-04-24T14:21:37Z</time></trkpt><trkpt lat="49.19975589850001" lon="2.5864659477706526"><ele>51.66666666666667</ele><time>2026-04-24T14:21:38.999Z</time></trkpt><trkpt lat="49.19970356508726" lon="2.5865852777545"><ele>51.333333333333336</ele><time>2026-04-24T14:21:40.999Z</time></trkpt><trkpt lat="49.19966376583779" lon="2.5867144813959952"><ele>51.0</ele><time>2026-04-24T14:21:43Z</time></trkpt><trkpt lat="49.19961340350779" lon="2.5868282066170236"><ele>51.599999999999994</ele><time>2026-04-24T14:21:44.999Z</time></trkpt><trkpt lat="49.19954551685183" lon="2.5869309419202167"><ele>52.2</ele><time>2026-04-24T14:21:46.999Z</time></trkpt><trkpt lat="49.19948631433393" lon="2.5870229125626882"><ele>52.800000000000004</ele><time>2026-04-24T14:21:48.999Z</time></trkpt><trkpt lat="49.19943594763509" lon="2.5870981926530656"><ele>53.400000000000006</ele><time>2026-04-24T14:21:50.999Z</time></trkpt><trkpt lat="49.19949971462938" lon="2.5872269679215583"><ele>54.0</ele><time>2026-04-24T14:21:51.999Z</time></trkpt><trkpt lat="49.199531564530474" lon="2.5873635161197766"><ele>54.0</ele><time>2026-04-24T14:21:53.999Z</time></trkpt><trkpt lat="49.19956718277761" lon="2.5874958443296223"><ele>54.00000000000001</ele><time>2026-04-24T14:21:55.999Z</time></trkpt><trkpt lat="49.19960488073784" lon="2.587632664577307"><ele>54.00000000000001</ele><time>2026-04-24T14:21:57.999Z</time></trkpt><trkpt lat="49.19963248821671" lon="2.5877774538565834"><ele>54.0</ele><time>2026-04-24T14:21:59.999Z</time></trkpt><trkpt lat="49.19964817361007" lon="2.587926716106799"><ele>54.0</ele><time>2026-04-24T14:22:01.999Z</time></trkpt><trkpt lat="49.19968931605149" lon="2.588064856072792"><ele>54.0</ele><time>2026-04-24T14:22:03.999Z</time></trkpt><trkpt lat="49.19971692627202" lon="2.5882089486528965"><ele>54.00000000000001</ele><time>2026-04-24T14:22:05.999Z</time></trkpt><trkpt lat="49.19974507009048" lon="2.5883493584011408"><ele>54.00000000000001</ele><time>2026-04-24T14:22:07.999Z</time></trkpt><trkpt lat="49.19976911784498" lon="2.588482692030002"><ele>54.0</ele><time>2026-04-24T14:22:09.999Z</time></trkpt><trkpt lat="49.19979082196959" lon="2.5886049127052515"><ele>54.0</ele><time>2026-04-24T14:22:11.999Z</time></trkpt><trkpt lat="49.19980580056145" lon="2.5887302952404014"><ele>54.0</ele><time>2026-04-24T14:22:13.999Z</time></trkpt><trkpt lat="49.199832347047696" lon="2.588849360300814"><ele>54.0</ele><time>2026-04-24T14:22:15.999Z</time></trkpt><trkpt lat="49.19985856374772" lon="2.588964692489878"><ele>54.0</ele><time>2026-04-24T14:22:17.999Z</time></trkpt><trkpt lat="49.19987552590184" lon="2.5890722612012302"><ele>54.0</ele><time>2026-04-24T14:22:19.998Z</time></trkpt><trkpt lat="49.19988005819289" lon="2.5891863907122286"><ele>54.0</ele><time>2026-04-24T14:22:21.998Z</time></trkpt><trkpt lat="49.199870554544255" lon="2.589306141563726"><ele>54.0</ele><time>2026-04-24T14:22:23.998Z</time></trkpt><trkpt lat="49.19986001250947" lon="2.589425815010019"><ele>53.833333333333336</ele><time>2026-04-24T14:22:25.998Z</time></trkpt><trkpt lat="49.19986311901977" lon="2.589544455274978"><ele>53.66666666666667</ele><time>2026-04-24T14:22:27.998Z</time></trkpt><trkpt lat="49.19984948664392" lon="2.589656568452137"><ele>53.5</ele><time>2026-04-24T14:22:29.998Z</time></trkpt><trkpt lat="49.199844207790505" lon="2.589771461355826"><ele>53.333333333333336</ele><time>2026-04-24T14:22:31.998Z</time></trkpt><trkpt lat="49.199838432087994" lon="2.5898971675672016"><ele>53.16666666666667</ele><time>2026-04-24T14:22:33.998Z</time></trkpt><trkpt lat="49.19983224821962" lon="2.5900129026799057"><ele>53.0</ele><time>2026-04-24T14:22:35.998Z</time></trkpt><trkpt lat="49.199825256683646" lon="2.5901235285363486"><ele>53.333333333333336</ele><time>2026-04-24T14:22:37.998Z</time></trkpt><trkpt lat="49.19981814974596" lon="2.590235980341774"><ele>53.66666666666667</ele><time>2026-04-24T14:22:39.998Z</time></trkpt><trkpt lat="49.199810702796405" lon="2.5903538119000658"><ele>54.0</ele><time>2026-04-24T14:22:41.998Z</time></trkpt><trkpt lat="49.19980320937083" lon="2.5904723790959827"><ele>54.33333333333333</ele><time>2026-04-24T14:22:43.998Z</time></trkpt><trkpt lat="49.19979559498698" lon="2.5905928600918173"><ele>54.666666666666664</ele><time>2026-04-24T14:22:45.998Z</time></trkpt><trkpt lat="49.19978850945607" lon="2.590713462433553"><ele>55.0</ele><time>2026-04-24T14:22:47.998Z</time></trkpt><trkpt lat="49.19978162046261" lon="2.590832679026583"><ele>55.33333333333333</ele><time>2026-04-24T14:22:49.998Z</time></trkpt><trkpt lat="49.19977461892744" lon="2.590952380365889"><ele>55.666666666666664</ele><time>2026-04-24T14:22:51.997Z</time></trkpt><trkpt lat="49.19976796890563" lon="2.5910705074657883"><ele>56.0</ele><time>2026-04-24T14:22:53.997Z</time></trkpt><trkpt lat="49.19976142734424" lon="2.591186509124309"><ele>56.33333333333333</ele><time>2026-04-24T14:22:55.997Z</time></trkpt><trkpt lat="49.19975491932698" lon="2.591301916087917"><ele>56.666666666666664</ele><time>2026-04-24T14:22:57.997Z</time></trkpt><trkpt lat="49.199763827912584" lon="2.591418388734992"><ele>57.0</ele><time>2026-04-24T14:22:59.997Z</time></trkpt><trkpt lat="49.199740049820335" lon="2.5915306265568976"><ele>57.0</ele><time>2026-04-24T14:23:01.997Z</time></trkpt><trkpt lat="49.19973221259446" lon="2.5916453278254306"><ele>56.99999999999999</ele><time>2026-04-24T14:23:03.997Z</time></trkpt><trkpt lat="49.19972441439835" lon="2.591759457718171"><ele>57.0</ele><time>2026-04-24T14:23:05.997Z</time></trkpt><trkpt lat="49.19973144384315" lon="2.5918722147108433"><ele>57.0</ele><time>2026-04-24T14:23:07.997Z</time></trkpt><trkpt lat="49.19972445475391" lon="2.5919766577324426"><ele>56.99999999999999</ele><time>2026-04-24T14:23:09.997Z</time></trkpt><trkpt lat="49.19971882851297" lon="2.592083717481796"><ele>57.0</ele><time>2026-04-24T14:23:11.997Z</time></trkpt><trkpt lat="49.19969997076687" lon="2.5921775401358906"><ele>57.0</ele><time>2026-04-24T14:23:13.997Z</time></trkpt><trkpt lat="49.19982842573138" lon="2.5921933424662513"><ele>56.5</ele><time>2026-04-24T14:23:16.997Z</time></trkpt><trkpt lat="49.19989676663141" lon="2.5921638922312624"><ele>56.0</ele><time>2026-04-24T14:23:18.997Z</time></trkpt><trkpt lat="49.19996462971854" lon="2.592114154648231"><ele>55.5</ele><time>2026-04-24T14:23:20.997Z</time></trkpt><trkpt lat="49.20003506596448" lon="2.5920823169666836"><ele>55.0</ele><time>2026-04-24T14:23:22.997Z</time></trkpt><trkpt lat="49.200107613365915" lon="2.5920417652589047"><ele>54.5</ele><time>2026-04-24T14:23:24.996Z</time></trkpt><trkpt lat="49.200187104778806" lon="2.5920063954303387"><ele>54.0</ele><time>2026-04-24T14:23:26.996Z</time></trkpt><trkpt lat="49.2002592646137" lon="2.591959966990652"><ele>54.0</ele><time>2026-04-24T14:23:28.996Z</time></trkpt><trkpt lat="49.20034852441949" lon="2.5919034403433483"><ele>54.0</ele><time>2026-04-24T14:23:30.996Z</time></trkpt><trkpt lat="49.200440241592794" lon="2.5918806566739487"><ele>54.0</ele><time>2026-04-24T14:23:32.996Z</time></trkpt><trkpt lat="49.20052205446532" lon="2.5918413377361698"><ele>54.0</ele><time>2026-04-24T14:23:35Z</time></trkpt><trkpt lat="49.20060108626708" lon="2.59179787844597"><ele>54.0</ele><time>2026-04-24T14:23:37Z</time></trkpt><trkpt lat="49.200679242785014" lon="2.5917694691164903"><ele>54.0</ele><time>2026-04-24T14:23:39Z</time></trkpt><trkpt lat="49.20075752745466" lon="2.5917093596415715"><ele>53.6</ele><time>2026-04-24T14:23:41Z</time></trkpt><trkpt lat="49.20084008659407" lon="2.5916510472021517"><ele>53.2</ele><time>2026-04-24T14:23:43Z</time></trkpt><trkpt lat="49.200927267419665" lon="2.591631714654494"><ele>52.800000000000004</ele><time>2026-04-24T14:23:45Z</time></trkpt><trkpt lat="49.201003226850474" lon="2.591572637396991"><ele>52.400000000000006</ele><time>2026-04-24T14:23:47Z</time></trkpt><trkpt lat="49.2010896421388" lon="2.59154934193788"><ele>52.0</ele><time>2026-04-24T14:23:49Z</time></trkpt><trkpt lat="49.201160450531795" lon="2.5914306796173636"><ele>52.0</ele><time>2026-04-24T14:23:50.999Z</time></trkpt><trkpt lat="49.201244258522316" lon="2.5913719918855405"><ele>52.0</ele><time>2026-04-24T14:23:52.999Z</time></trkpt><trkpt lat="49.20133540368198" lon="2.5914390511899708"><ele>52.0</ele><time>2026-04-24T14:23:54.999Z</time></trkpt><trkpt lat="49.20139952784873" lon="2.59156231338811"><ele>52.0</ele><time>2026-04-24T14:23:56.999Z</time></trkpt><trkpt lat="49.20142495608115" lon="2.591728646132631"><ele>52.0</ele><time>2026-04-24T14:23:58.999Z</time></trkpt><trkpt lat="49.20144175603286" lon="2.5918915185084646"><ele>52.0</ele><time>2026-04-24T14:24:00.999Z</time></trkpt><trkpt lat="49.20148846472237" lon="2.592040300196082"><ele>52.0</ele><time>2026-04-24T14:24:02.999Z</time></trkpt><trkpt lat="49.201563688143345" lon="2.592157734537962"><ele>52.0</ele><time>2026-04-24T14:24:04.999Z</time></trkpt><trkpt lat="49.201662572091465" lon="2.5922231216812004"><ele>52.0</ele><time>2026-04-24T14:24:06.999Z</time></trkpt><trkpt lat="49.20176728062179" lon="2.5922494490157937"><ele>52.0</ele><time>2026-04-24T14:24:08.999Z</time></trkpt><trkpt lat="49.2018670410906" lon="2.5922658206870643"><ele>52.166666666666664</ele><time>2026-04-24T14:24:10.999Z</time></trkpt><trkpt lat="49.20196848761089" lon="2.5922697757278574"><ele>52.33333333333333</ele><time>2026-04-24T14:24:12.999Z</time></trkpt><trkpt lat="49.202052637038754" lon="2.5922806355239243"><ele>52.5</ele><time>2026-04-24T14:24:14.999Z</time></trkpt><trkpt lat="49.20212625338276" lon="2.5922872860626294"><ele>52.66666666666667</ele><time>2026-04-24T14:24:16.999Z</time></trkpt><trkpt lat="49.20220604798104" lon="2.5922877332400347"><ele>52.833333333333336</ele><time>2026-04-24T14:24:19.999Z</time></trkpt><trkpt lat="49.202268985756874" lon="2.592291094395769"><ele>53.0</ele><time>2026-04-24T14:24:25.998Z</time></trkpt><trkpt lat="49.20234476981549" lon="2.5922953256823376"><ele>53.66666666666667</ele><time>2026-04-24T14:27:13.998Z</time></trkpt><trkpt lat="49.202438911311695" lon="2.5922943802226284"><ele>54.333333333333336</ele><time>2026-04-24T14:27:16.998Z</time></trkpt><trkpt lat="49.20251466895422" lon="2.59227922658752"><ele>55.0</ele><time>2026-04-24T14:27:18.998Z</time></trkpt><trkpt lat="49.2025923500973" lon="2.5922665088722905"><ele>55.66666666666667</ele><time>2026-04-24T14:27:20.998Z</time></trkpt><trkpt lat="49.20266166492062" lon="2.592241733353443"><ele>56.333333333333336</ele><time>2026-04-24T14:27:22.998Z</time></trkpt><trkpt lat="49.20273413518705" lon="2.5921769183021808"><ele>57.0</ele><time>2026-04-24T14:27:25.998Z</time></trkpt><trkpt lat="49.2028109107694" lon="2.592120026416782"><ele>57.0</ele><time>2026-04-24T14:27:28.998Z</time></trkpt><trkpt lat="49.20287723871476" lon="2.5920539258345294"><ele>57.0</ele><time>2026-04-24T14:27:31.997Z</time></trkpt><trkpt lat="49.202938382279406" lon="2.591998676571949"><ele>57.0</ele><time>2026-04-24T14:27:34.997Z</time></trkpt><trkpt lat="49.20300676604913" lon="2.591952515478489"><ele>57.0</ele><time>2026-04-24T14:27:37.997Z</time></trkpt><trkpt lat="49.20306626614591" lon="2.591905969339788"><ele>57.0</ele><time>2026-04-24T14:27:40.997Z</time></trkpt><trkpt lat="49.2031427339555" lon="2.5918540011142706"><ele>57.0</ele><time>2026-04-24T14:27:43.997Z</time></trkpt><trkpt lat="49.20322792216019" lon="2.5918002846153154"><ele>57.333333333333336</ele><time>2026-04-24T14:27:47Z</time></trkpt><trkpt lat="49.20329018930657" lon="2.5917632501470425"><ele>57.66666666666667</ele><time>2026-04-24T14:27:49Z</time></trkpt><trkpt lat="49.203373660148195" lon="2.5917171182796674"><ele>58.0</ele><time>2026-04-24T14:27:52Z</time></trkpt><trkpt lat="49.203434163533714" lon="2.591686528276867"><ele>58.333333333333336</ele><time>2026-04-24T14:27:54Z</time></trkpt><trkpt lat="49.20352161474453" lon="2.591645710213352"><ele>58.66666666666667</ele><time>2026-04-24T14:27:57Z</time></trkpt><trkpt lat="49.20360365718664" lon="2.591612357819662"><ele>59.0</ele><time>2026-04-24T14:28:00Z</time></trkpt><trkpt lat="49.20368558997105" lon="2.59158402035242"><ele>59.00000000000001</ele><time>2026-04-24T14:28:03Z</time></trkpt><trkpt lat="49.20376636702906" lon="2.5915354625036606"><ele>59.0</ele><time>2026-04-24T14:28:06Z</time></trkpt><trkpt lat="49.203852187833675" lon="2.5915313547471714"><ele>59.0</ele><time>2026-04-24T14:28:09Z</time></trkpt><trkpt lat="49.20393767073036" lon="2.5915066328335263"><ele>59.0</ele><time>2026-04-24T14:28:12Z</time></trkpt><trkpt lat="49.20402806661189" lon="2.5914844363670477"><ele>59.00000000000001</ele><time>2026-04-24T14:28:15Z</time></trkpt><trkpt lat="49.204120773509274" lon="2.591494136297821"><ele>59.0</ele><time>2026-04-24T14:28:18Z</time></trkpt><trkpt lat="49.20421528667204" lon="2.591499653978063"><ele>59.50000000000001</ele><time>2026-04-24T14:28:21Z</time></trkpt><trkpt lat="49.204282223812946" lon="2.5914997768105845"><ele>60.0</ele><time>2026-04-24T14:28:23Z</time></trkpt><trkpt lat="49.20437518208221" lon="2.5915063672011454"><ele>60.5</ele><time>2026-04-24T14:28:26Z</time></trkpt><trkpt lat="49.204469513657344" lon="2.5915134704083966"><ele>61.0</ele><time>2026-04-24T14:28:28.999Z</time></trkpt><trkpt lat="49.20455955002233" lon="2.5915152019958603"><ele>61.50000000000001</ele><time>2026-04-24T14:28:31.999Z</time></trkpt><trkpt lat="49.20462249228335" lon="2.591521333371846"><ele>62.0</ele><time>2026-04-24T14:28:33.999Z</time></trkpt><trkpt lat="49.20470959035322" lon="2.5915301784996103"><ele>62.00000000000001</ele><time>2026-04-24T14:28:36.999Z</time></trkpt><trkpt lat="49.204720056853404" lon="2.5917209162718993"><ele>62.0</ele><time>2026-04-24T14:28:40.999Z</time></trkpt><trkpt lat="49.20470665555373" lon="2.5918454389367835"><ele>62.0</ele><time>2026-04-24T14:28:42.999Z</time></trkpt><trkpt lat="49.20468020121193" lon="2.5919523643839617"><ele>62.0</ele><time>2026-04-24T14:28:44.999Z</time></trkpt><trkpt lat="49.20463387521493" lon="2.592071691674734"><ele>62.00000000000001</ele><time>2026-04-24T14:28:47.999Z</time></trkpt><trkpt lat="49.20460337891698" lon="2.5921616034212955"><ele>62.0</ele><time>2026-04-24T14:28:49.999Z</time></trkpt><trkpt lat="49.20476536618346" lon="2.5923405473243686"><ele>62.833333333333336</ele><time>2026-04-24T14:28:51.999Z</time></trkpt><trkpt lat="49.2048473555416" lon="2.59233595372916"><ele>63.66666666666667</ele><time>2026-04-24T14:28:53.999Z</time></trkpt><trkpt lat="49.204915893233036" lon="2.5923308172409816"><ele>64.5</ele><time>2026-04-24T14:28:55.999Z</time></trkpt><trkpt lat="49.205004269706926" lon="2.5923241939421384"><ele>65.33333333333333</ele><time>2026-04-24T14:28:58.999Z</time></trkpt><trkpt lat="49.2050940647122" lon="2.5923176823993526"><ele>66.16666666666666</ele><time>2026-04-24T14:29:01.998Z</time></trkpt><trkpt lat="49.205181154949564" lon="2.5923133371359772"><ele>67.0</ele><time>2026-04-24T14:29:04.998Z</time></trkpt><trkpt lat="49.205258097765515" lon="2.592309498163123"><ele>67.0</ele><time>2026-04-24T14:29:07.998Z</time></trkpt><trkpt lat="49.205321821630065" lon="2.5923068770427578"><ele>67.0</ele><time>2026-04-24T14:29:09.998Z</time></trkpt><trkpt lat="49.20540676784522" lon="2.592303627584224"><ele>67.0</ele><time>2026-04-24T14:29:12.998Z</time></trkpt><trkpt lat="49.20547104964334" lon="2.5923011686054798"><ele>67.0</ele><time>2026-04-24T14:29:14.998Z</time></trkpt><trkpt lat="49.20556222593248" lon="2.592297680829142"><ele>67.0</ele><time>2026-04-24T14:29:17.998Z</time></trkpt><trkpt lat="49.205628294415696" lon="2.592273641178816"><ele>67.0</ele><time>2026-04-24T14:29:20.998Z</time></trkpt><trkpt lat="49.20570293887042" lon="2.592260379968526"><ele>67.0</ele><time>2026-04-24T14:29:23.998Z</time></trkpt><trkpt lat="49.205775091548844" lon="2.5922481119169203"><ele>67.66666666666666</ele><time>2026-04-24T14:29:26.998Z</time></trkpt><trkpt lat="49.205850322570136" lon="2.5922347470100635"><ele>68.33333333333333</ele><time>2026-04-24T14:29:29.998Z</time></trkpt><trkpt lat="49.206106075183634" lon="2.592060428728839"><ele>69.0</ele><time>2026-04-24T14:29:31.998Z</time></trkpt><trkpt lat="49.206217084402894" lon="2.5915859884345944"><ele>69.16666666666667</ele><time>2026-04-24T14:29:32.998Z</time></trkpt><trkpt lat="49.20621992435391" lon="2.591483061968487"><ele>69.33333333333333</ele><time>2026-04-24T14:29:35.997Z</time></trkpt><trkpt lat="49.20622504413627" lon="2.5913604366905236"><ele>69.5</ele><time>2026-04-24T14:29:39.997Z</time></trkpt><trkpt lat="49.206239262056926" lon="2.59124641596091"><ele>69.66666666666666</ele><time>2026-04-24T14:29:42.997Z</time></trkpt><trkpt lat="49.20623616181646" lon="2.591142926276835"><ele>69.83333333333333</ele><time>2026-04-24T14:29:44.997Z</time></trkpt><trkpt lat="49.206231854671756" lon="2.5909991493119335"><ele>70.0</ele><time>2026-04-24T14:29:47.997Z</time></trkpt><trkpt lat="49.206228833649995" lon="2.59089830394631"><ele>70.0</ele><time>2026-04-24T14:29:49.997Z</time></trkpt><trkpt lat="49.2062259231707" lon="2.5908011490612646"><ele>70.0</ele><time>2026-04-24T14:29:51.997Z</time></trkpt><trkpt lat="49.20622191820613" lon="2.590667458868135"><ele>70.0</ele><time>2026-04-24T14:29:55Z</time></trkpt><trkpt lat="49.206218658503154" lon="2.590554785039554"><ele>70.0</ele><time>2026-04-24T14:29:58Z</time></trkpt><trkpt lat="49.206513206626134" lon="2.590216452363577"><ele>70.5</ele><time>2026-04-24T14:30:11Z</time></trkpt><trkpt lat="49.20656434721671" lon="2.5901475191082928"><ele>71.0</ele><time>2026-04-24T14:30:13Z</time></trkpt><trkpt lat="49.2066135226093" lon="2.5900834385135774"><ele>71.5</ele><time>2026-04-24T14:30:15Z</time></trkpt><trkpt lat="49.20665512054372" lon="2.590007356661384"><ele>72.0</ele><time>2026-04-24T14:30:17Z</time></trkpt><trkpt lat="49.20670571561252" lon="2.5898884883931355"><ele>72.5</ele><time>2026-04-24T14:30:20Z</time></trkpt><trkpt lat="49.2067862410037" lon="2.5899058407469857"><ele>73.0</ele><time>2026-04-24T14:30:23Z</time></trkpt><trkpt lat="49.20687013245127" lon="2.589948067327088"><ele>73.0</ele><time>2026-04-24T14:30:26Z</time></trkpt><trkpt lat="49.206955684773725" lon="2.5899887484378774"><ele>73.0</ele><time>2026-04-24T14:30:29Z</time></trkpt><trkpt lat="49.207029550215026" lon="2.590025590361793"><ele>73.0</ele><time>2026-04-24T14:30:32Z</time></trkpt><trkpt lat="49.20710354958697" lon="2.58998716904006"><ele>73.0</ele><time>2026-04-24T14:30:35.999Z</time></trkpt><trkpt lat="49.2071707975029" lon="2.5900497952528037"><ele>73.0</ele><time>2026-04-24T14:30:38.999Z</time></trkpt><trkpt lat="49.207271214606834" lon="2.589862864605868"><ele>73.0</ele><time>2026-04-24T14:30:59.999Z</time></trkpt><trkpt lat="49.207199967499875" lon="2.590029159274356"><ele>73.0</ele><time>2026-04-24T14:31:24.998Z</time></trkpt><trkpt lat="49.20717674966503" lon="2.5898866006242303"><ele>73.0</ele><time>2026-04-24T14:31:29.998Z</time></trkpt><trkpt lat="49.20725041108598" lon="2.5898849401128192"><ele>73.0</ele><time>2026-04-24T14:31:56.997Z</time></trkpt><trkpt lat="49.20731662404917" lon="2.589851912819392"><ele>73.0</ele><time>2026-04-24T14:32:58.999Z</time></trkpt><trkpt lat="49.20747965239782" lon="2.5898803414558236"><ele>73.16666666666666</ele><time>2026-04-24T14:33:12.999Z</time></trkpt><trkpt lat="49.20754864838137" lon="2.589887231094167"><ele>73.33333333333333</ele><time>2026-04-24T14:33:16.998Z</time></trkpt><trkpt lat="49.20765364144131" lon="2.5898661474398166"><ele>73.5</ele><time>2026-04-24T14:33:18.998Z</time></trkpt><trkpt lat="49.20773187462335" lon="2.589826189969019"><ele>73.66666666666667</ele><time>2026-04-24T14:33:20.998Z</time></trkpt><trkpt lat="49.20783658090492" lon="2.5898019267771812"><ele>73.83333333333334</ele><time>2026-04-24T14:33:23.998Z</time></trkpt><trkpt lat="49.20790437225657" lon="2.5897775726884613"><ele>74.0</ele><time>2026-04-24T14:33:25.998Z</time></trkpt><trkpt lat="49.207462957120214" lon="2.590001084406334"><ele>73.8</ele><time>2026-04-24T14:33:31.998Z</time></trkpt><trkpt lat="49.207264238305356" lon="2.59001057170858"><ele>73.60000000000001</ele><time>2026-04-24T14:33:32.998Z</time></trkpt><trkpt lat="49.20720131208765" lon="2.5899684988008764"><ele>73.4</ele><time>2026-04-24T14:35:09.999Z</time></trkpt><trkpt lat="49.207124108364575" lon="2.5899216888737033"><ele>73.2</ele><time>2026-04-24T14:35:30.998Z</time></trkpt><trkpt lat="49.20707513382399" lon="2.5898335316419447"><ele>73.0</ele><time>2026-04-24T14:35:33.998Z</time></trkpt><trkpt lat="49.20700401051013" lon="2.5898041003386534"><ele>73.0</ele><time>2026-04-24T14:35:36.998Z</time></trkpt><trkpt lat="49.20694244971868" lon="2.5898350437770317"><ele>73.0</ele><time>2026-04-24T14:35:38.998Z</time></trkpt><trkpt lat="49.20685794135618" lon="2.589794219872798"><ele>73.0</ele><time>2026-04-24T14:35:40.998Z</time></trkpt><trkpt lat="49.20677720786512" lon="2.5897262259444225"><ele>73.0</ele><time>2026-04-24T14:35:42.998Z</time></trkpt><trkpt lat="49.20669263927905" lon="2.5896531472229367"><ele>73.0</ele><time>2026-04-24T14:35:44.998Z</time></trkpt><trkpt lat="49.206607946537865" lon="2.589565472624241"><ele>73.0</ele><time>2026-04-24T14:35:46.998Z</time></trkpt><trkpt lat="49.20653283450225" lon="2.589447752615835"><ele>72.6</ele><time>2026-04-24T14:35:48.998Z</time></trkpt><trkpt lat="49.20648435543534" lon="2.5892991845463627"><ele>72.19999999999999</ele><time>2026-04-24T14:35:50.998Z</time></trkpt><trkpt lat="49.206410579324434" lon="2.5891703862467197"><ele>71.8</ele><time>2026-04-24T14:35:52.998Z</time></trkpt><trkpt lat="49.206366890991056" lon="2.5890284658727545"><ele>71.39999999999999</ele><time>2026-04-24T14:35:54.998Z</time></trkpt><trkpt lat="49.20633632350041" lon="2.5888810408109872"><ele>71.0</ele><time>2026-04-24T14:35:56.998Z</time></trkpt><trkpt lat="49.20628855095415" lon="2.588758073425379"><ele>71.0</ele><time>2026-04-24T14:35:58.997Z</time></trkpt><trkpt lat="49.20623982133102" lon="2.588632202827006"><ele>71.0</ele><time>2026-04-24T14:36:00.997Z</time></trkpt><trkpt lat="49.2061966945006" lon="2.5885123594621415"><ele>71.0</ele><time>2026-04-24T14:36:02.997Z</time></trkpt><trkpt lat="49.206178633119194" lon="2.5883876937837194"><ele>71.0</ele><time>2026-04-24T14:36:04.997Z</time></trkpt><trkpt lat="49.206159501814774" lon="2.588253477962884"><ele>71.0</ele><time>2026-04-24T14:36:06.997Z</time></trkpt><trkpt lat="49.20617334227125" lon="2.588115211849783"><ele>71.0</ele><time>2026-04-24T14:36:08.997Z</time></trkpt><trkpt lat="49.206166016918885" lon="2.587986039415553"><ele>71.0</ele><time>2026-04-24T14:36:11.001Z</time></trkpt><trkpt lat="49.20618134565398" lon="2.5878744421152096"><ele>71.0</ele><time>2026-04-24T14:36:13Z</time></trkpt><trkpt lat="49.20615531735762" lon="2.5877725760399"><ele>71.0</ele><time>2026-04-24T14:36:15.001Z</time></trkpt><trkpt lat="49.20618841795918" lon="2.5876737786023356"><ele>71.0</ele><time>2026-04-24T14:36:17.001Z</time></trkpt><trkpt lat="49.206156222189264" lon="2.5875514149636705"><ele>71.0</ele><time>2026-04-24T14:36:20Z</time></trkpt><trkpt lat="49.20610738703356" lon="2.5874869448328734"><ele>71.16666666666667</ele><time>2026-04-24T14:36:22Z</time></trkpt><trkpt lat="49.206057614647435" lon="2.587400573870248"><ele>71.33333333333334</ele><time>2026-04-24T14:36:24.001Z</time></trkpt><trkpt lat="49.20601719600282" lon="2.5873149286486563"><ele>71.5</ele><time>2026-04-24T14:36:26Z</time></trkpt><trkpt lat="49.20596196829438" lon="2.5872326560610155"><ele>71.66666666666667</ele><time>2026-04-24T14:36:29Z</time></trkpt><trkpt lat="49.20590413094819" lon="2.587325096626648"><ele>71.83333333333333</ele><time>2026-04-24T14:36:32Z</time></trkpt><trkpt lat="49.205867883879364" lon="2.5874415705820812"><ele>72.0</ele><time>2026-04-24T14:36:35Z</time></trkpt><trkpt lat="49.2058323631741" lon="2.587533281558989"><ele>72.00000000000001</ele><time>2026-04-24T14:36:37Z</time></trkpt><trkpt lat="49.205772269232234" lon="2.58762603869694"><ele>72.0</ele><time>2026-04-24T14:36:40Z</time></trkpt><trkpt lat="49.20571182399414" lon="2.5875696925854137"><ele>72.0</ele><time>2026-04-24T14:36:42Z</time></trkpt><trkpt lat="49.20568190003086" lon="2.5874807288628836"><ele>72.0</ele><time>2026-04-24T14:36:44Z</time></trkpt><trkpt lat="49.205647151836935" lon="2.587387896932051"><ele>72.0</ele><time>2026-04-24T14:36:46Z</time></trkpt><trkpt lat="49.20559856241549" lon="2.5873148542389988"><ele>72.00000000000001</ele><time>2026-04-24T14:36:48Z</time></trkpt><trkpt lat="49.205568661121404" lon="2.5872157086131584"><ele>72.0</ele><time>2026-04-24T14:36:50Z</time></trkpt><trkpt lat="49.205533408450364" lon="2.5871244035962007"><ele>71.5</ele><time>2026-04-24T14:36:52Z</time></trkpt><trkpt lat="49.20550085940419" lon="2.5870335557841067"><ele>71.0</ele><time>2026-04-24T14:36:54Z</time></trkpt><trkpt lat="49.20546153771753" lon="2.5869037302072018"><ele>70.5</ele><time>2026-04-24T14:36:57Z</time></trkpt><trkpt lat="49.205429643430456" lon="2.58682012262535"><ele>70.0</ele><time>2026-04-24T14:36:58.999Z</time></trkpt><trkpt lat="49.20537285699442" lon="2.5866970673062424"><ele>69.5</ele><time>2026-04-24T14:37:01.999Z</time></trkpt><trkpt lat="49.205334270335776" lon="2.586613384983094"><ele>69.0</ele><time>2026-04-24T14:37:03.999Z</time></trkpt><trkpt lat="49.20529883764821" lon="2.5865308981885717"><ele>69.0</ele><time>2026-04-24T14:37:05.999Z</time></trkpt><trkpt lat="49.20525504248339" lon="2.586432203913358"><ele>69.0</ele><time>2026-04-24T14:37:08.999Z</time></trkpt><trkpt lat="49.2052263126804" lon="2.5863375536095496"><ele>69.0</ele><time>2026-04-24T14:37:12.999Z</time></trkpt><trkpt lat="49.20522887302992" lon="2.586240245557196"><ele>69.0</ele><time>2026-04-24T14:37:22.999Z</time></trkpt><trkpt lat="49.205246792666124" lon="2.586067641167095"><ele>69.0</ele><time>2026-04-24T14:38:13.997Z</time></trkpt><trkpt lat="49.20517603934093" lon="2.586067031745187"><ele>69.0</ele><time>2026-04-24T14:38:23.001Z</time></trkpt><trkpt lat="49.205096820469755" lon="2.586050963908795"><ele>69.16666666666667</ele><time>2026-04-24T14:38:32Z</time></trkpt><trkpt lat="49.20503148094284" lon="2.5859700998177857"><ele>69.33333333333333</ele><time>2026-04-24T14:38:35Z</time></trkpt><trkpt lat="49.20507110974904" lon="2.585850066223076"><ele>69.5</ele><time>2026-04-24T14:38:37Z</time></trkpt><trkpt lat="49.205044044159784" lon="2.585761914443988"><ele>69.66666666666666</ele><time>2026-04-24T14:38:40Z</time></trkpt><trkpt lat="49.205033460183614" lon="2.585648365862725"><ele>69.83333333333333</ele><time>2026-04-24T14:38:43Z</time></trkpt><trkpt lat="49.20502280978152" lon="2.5855178352104007"><ele>70.0</ele><time>2026-04-24T14:38:46Z</time></trkpt><trkpt lat="49.20502555808669" lon="2.5853825301880975"><ele>70.28571428571429</ele><time>2026-04-24T14:38:49Z</time></trkpt><trkpt lat="49.20503207884906" lon="2.5852833394171473"><ele>70.57142857142857</ele><time>2026-04-24T14:38:51Z</time></trkpt><trkpt lat="49.20504524520809" lon="2.5851798764805882"><ele>70.85714285714286</ele><time>2026-04-24T14:38:53Z</time></trkpt><trkpt lat="49.2050502587715" lon="2.585068514541358"><ele>71.14285714285714</ele><time>2026-04-24T14:38:55Z</time></trkpt><trkpt lat="49.205045780181294" lon="2.5849509876203576"><ele>71.42857142857143</ele><time>2026-04-24T14:38:58Z</time></trkpt><trkpt lat="49.20504510054467" lon="2.5848115439382435"><ele>71.71428571428572</ele><time>2026-04-24T14:39:01Z</time></trkpt><trkpt lat="49.2050474741747" lon="2.584714834253659"><ele>72.0</ele><time>2026-04-24T14:39:03.999Z</time></trkpt><trkpt lat="49.20506018446994" lon="2.5845908219040346"><ele>72.16666666666667</ele><time>2026-04-24T14:39:08.999Z</time></trkpt><trkpt lat="49.20506600236796" lon="2.584472989586106"><ele>72.33333333333333</ele><time>2026-04-24T14:39:11.999Z</time></trkpt><trkpt lat="49.20509329195625" lon="2.584347677085682"><ele>72.5</ele><time>2026-04-24T14:39:14.999Z</time></trkpt><trkpt lat="49.20511342018163" lon="2.5842552492046327"><ele>72.66666666666666</ele><time>2026-04-24T14:39:16.999Z</time></trkpt><trkpt lat="49.205142117836104" lon="2.5841234711523833"><ele>72.83333333333333</ele><time>2026-04-24T14:39:19.999Z</time></trkpt><trkpt lat="49.205175236726" lon="2.58401294880096"><ele>73.0</ele><time>2026-04-24T14:39:27.999Z</time></trkpt><trkpt lat="49.2052059795153" lon="2.5839066379155216"><ele>73.0</ele><time>2026-04-24T14:40:04.998Z</time></trkpt><trkpt lat="49.20522596566612" lon="2.5837973916677432"><ele>73.0</ele><time>2026-04-24T14:40:08.997Z</time></trkpt><trkpt lat="49.20516123132546" lon="2.583690275037833"><ele>73.0</ele><time>2026-04-24T14:40:12.997Z</time></trkpt><trkpt lat="49.20506951723173" lon="2.5836657117451165"><ele>73.0</ele><time>2026-04-24T14:40:14.997Z</time></trkpt><trkpt lat="49.20497092004604" lon="2.583621149555749"><ele>73.0</ele><time>2026-04-24T14:40:16.997Z</time></trkpt><trkpt lat="49.20490763730763" lon="2.5835684570472277"><ele>73.0</ele><time>2026-04-24T14:40:17.997Z</time></trkpt><trkpt lat="49.2048397381094" lon="2.5834942021957423"><ele>71.16666666666666</ele><time>2026-04-24T14:40:18.997Z</time></trkpt><trkpt lat="49.20477761892933" lon="2.5834727727239737"><ele>69.33333333333333</ele><time>2026-04-24T14:40:19.997Z</time></trkpt><trkpt lat="49.20470644861721" lon="2.5834378897596033"><ele>67.5</ele><time>2026-04-24T14:40:20.997Z</time></trkpt><trkpt lat="49.20463020134291" lon="2.5833879212686415"><ele>65.66666666666667</ele><time>2026-04-24T14:40:22Z</time></trkpt><trkpt lat="49.204546507514394" lon="2.5833294820510746"><ele>63.833333333333336</ele><time>2026-04-24T14:40:23.001Z</time></trkpt><trkpt lat="49.20447134597369" lon="2.583258787282069"><ele>62.0</ele><time>2026-04-24T14:40:24Z</time></trkpt><trkpt lat="49.204383382956046" lon="2.583185148538825"><ele>62.0</ele><time>2026-04-24T14:40:25Z</time></trkpt><trkpt lat="49.204301142499034" lon="2.5831199540054763"><ele>62.0</ele><time>2026-04-24T14:40:26.001Z</time></trkpt><trkpt lat="49.20421438880372" lon="2.5830513354829234"><ele>62.0</ele><time>2026-04-24T14:40:27Z</time></trkpt><trkpt lat="49.2041226142223" lon="2.5829783799080177"><ele>62.0</ele><time>2026-04-24T14:40:28Z</time></trkpt><trkpt lat="49.20401853210869" lon="2.5829176191441197"><ele>62.0</ele><time>2026-04-24T14:40:29.001Z</time></trkpt><trkpt lat="49.203925879381565" lon="2.582834845135808"><ele>60.8</ele><time>2026-04-24T14:40:30Z</time></trkpt><trkpt lat="49.20384128397798" lon="2.5827613084138537"><ele>59.6</ele><time>2026-04-24T14:40:31.001Z</time></trkpt><trkpt lat="49.203745567859265" lon="2.582699255968053"><ele>58.39999999999999</ele><time>2026-04-24T14:40:32.001Z</time></trkpt><trkpt lat="49.20365335103665" lon="2.5826338224176464"><ele>57.199999999999996</ele><time>2026-04-24T14:40:33Z</time></trkpt><trkpt lat="49.203560619569934" lon="2.58255181781897"><ele>56.0</ele><time>2026-04-24T14:40:34.001Z</time></trkpt><trkpt lat="49.20346421706795" lon="2.5824735749493444"><ele>56.0</ele><time>2026-04-24T14:40:35.001Z</time></trkpt><trkpt lat="49.203357894258986" lon="2.5824131971724116"><ele>55.99999999999999</ele><time>2026-04-24T14:40:36Z</time></trkpt><trkpt lat="49.20325561025229" lon="2.582347351356287"><ele>55.99999999999999</ele><time>2026-04-24T14:40:37Z</time></trkpt><trkpt lat="49.20316513528149" lon="2.582249589180396"><ele>56.0</ele><time>2026-04-24T14:40:38Z</time></trkpt><trkpt lat="49.203068189100776" lon="2.5821866071444988"><ele>56.0</ele><time>2026-04-24T14:40:39Z</time></trkpt><trkpt lat="49.2029657293022" lon="2.5821167646927434"><ele>55.50000000000001</ele><time>2026-04-24T14:40:40Z</time></trkpt><trkpt lat="49.20288580629557" lon="2.5820576505835553"><ele>55.0</ele><time>2026-04-24T14:40:41Z</time></trkpt><trkpt lat="49.2028165032124" lon="2.5820073107229753"><ele>54.5</ele><time>2026-04-24T14:40:42Z</time></trkpt><trkpt lat="49.20274766243692" lon="2.581954807498175"><ele>54.0</ele><time>2026-04-24T14:40:43Z</time></trkpt><trkpt lat="49.20267839498689" lon="2.581902146872323"><ele>53.50000000000001</ele><time>2026-04-24T14:40:44Z</time></trkpt><trkpt lat="49.20260196063371" lon="2.5818687628250534"><ele>53.0</ele><time>2026-04-24T14:40:45Z</time></trkpt><trkpt lat="49.20254505768286" lon="2.5818007767168325"><ele>53.00000000000001</ele><time>2026-04-24T14:40:46Z</time></trkpt><trkpt lat="49.202471811207666" lon="2.581782182866776"><ele>53.0</ele><time>2026-04-24T14:40:47Z</time></trkpt><trkpt lat="49.20240920252665" lon="2.581731776631393"><ele>53.0</ele><time>2026-04-24T14:40:48Z</time></trkpt><trkpt lat="49.20234897940458" lon="2.581688001649621"><ele>53.0</ele><time>2026-04-24T14:40:49Z</time></trkpt><trkpt lat="49.20228804557722" lon="2.5816425824239566"><ele>53.00000000000001</ele><time>2026-04-24T14:40:50Z</time></trkpt><trkpt lat="49.20224264625821" lon="2.581565292222048"><ele>53.0</ele><time>2026-04-24T14:40:51Z</time></trkpt><trkpt lat="49.202127109420964" lon="2.5814801794054305"><ele>53.4</ele><time>2026-04-24T14:40:53Z</time></trkpt><trkpt lat="49.20202051612018" lon="2.581409211289369"><ele>53.8</ele><time>2026-04-24T14:40:55Z</time></trkpt><trkpt lat="49.2019043406905" lon="2.5813892790511774"><ele>54.2</ele><time>2026-04-24T14:40:57Z</time></trkpt><trkpt lat="49.2018012987498" lon="2.581332302816177"><ele>54.6</ele><time>2026-04-24T14:40:59Z</time></trkpt><trkpt lat="49.20170740718497" lon="2.5812736128524656"><ele>55.0</ele><time>2026-04-24T14:41:01Z</time></trkpt><trkpt lat="49.20161677089717" lon="2.581216205109971"><ele>55.33333333333333</ele><time>2026-04-24T14:41:03Z</time></trkpt><trkpt lat="49.20152784016353" lon="2.581158914149333"><ele>55.666666666666664</ele><time>2026-04-24T14:41:05Z</time></trkpt><trkpt lat="49.201442010768176" lon="2.581103121672739"><ele>56.0</ele><time>2026-04-24T14:41:07Z</time></trkpt><trkpt lat="49.20136160817034" lon="2.5810520394626257"><ele>56.33333333333333</ele><time>2026-04-24T14:41:09Z</time></trkpt><trkpt lat="49.20128018655055" lon="2.581013306609019"><ele>56.666666666666664</ele><time>2026-04-24T14:41:10.999Z</time></trkpt><trkpt lat="49.201201605912345" lon="2.5809676943065445"><ele>57.0</ele><time>2026-04-24T14:41:12.999Z</time></trkpt><trkpt lat="49.20112332839715" lon="2.5809157467328467"><ele>57.5</ele><time>2026-04-24T14:41:14.999Z</time></trkpt><trkpt lat="49.201042702311995" lon="2.580865888968074"><ele>58.0</ele><time>2026-04-24T14:41:16.999Z</time></trkpt><trkpt lat="49.200962398146885" lon="2.5808161880689595"><ele>58.5</ele><time>2026-04-24T14:41:18.999Z</time></trkpt><trkpt lat="49.20088209693047" lon="2.5807677796589394"><ele>59.0</ele><time>2026-04-24T14:41:20.999Z</time></trkpt><trkpt lat="49.200807533684646" lon="2.5807074720586303"><ele>59.5</ele><time>2026-04-24T14:41:22.999Z</time></trkpt><trkpt lat="49.20073196005504" lon="2.5806458842167848"><ele>60.0</ele><time>2026-04-24T14:41:24.999Z</time></trkpt><trkpt lat="49.20065627875557" lon="2.5805828190069056"><ele>60.0</ele><time>2026-04-24T14:41:26.999Z</time></trkpt><trkpt lat="49.2005833294524" lon="2.580512107900446"><ele>60.0</ele><time>2026-04-24T14:41:28.999Z</time></trkpt><trkpt lat="49.20051185023707" lon="2.580424160473725"><ele>60.0</ele><time>2026-04-24T14:41:30.999Z</time></trkpt><trkpt lat="49.20043180202314" lon="2.580364075621683"><ele>60.0</ele><time>2026-04-24T14:41:32.999Z</time></trkpt><trkpt lat="49.20034726472454" lon="2.580301924020229"><ele>60.0</ele><time>2026-04-24T14:41:34.999Z</time></trkpt><trkpt lat="49.20026337897334" lon="2.5802418921982344"><ele>60.0</ele><time>2026-04-24T14:41:36.999Z</time></trkpt><trkpt lat="49.20018016637744" lon="2.5801823412765823"><ele>60.0</ele><time>2026-04-24T14:41:38.999Z</time></trkpt><trkpt lat="49.20009722756007" lon="2.5801229879262437"><ele>60.0</ele><time>2026-04-24T14:41:40.999Z</time></trkpt><trkpt lat="49.20001506040774" lon="2.5800623256468556"><ele>60.0</ele><time>2026-04-24T14:41:42.999Z</time></trkpt><trkpt lat="49.19993174809619" lon="2.580000683273621"><ele>60.0</ele><time>2026-04-24T14:41:44.998Z</time></trkpt><trkpt lat="49.19984743466765" lon="2.5799380973995665"><ele>60.2</ele><time>2026-04-24T14:41:46.998Z</time></trkpt><trkpt lat="49.199751958827484" lon="2.579913651712208"><ele>60.4</ele><time>2026-04-24T14:41:48.998Z</time></trkpt><trkpt lat="49.19967078100827" lon="2.5798490929024487"><ele>60.599999999999994</ele><time>2026-04-24T14:41:50.998Z</time></trkpt><trkpt lat="49.19958822810018" lon="2.5797886519738613"><ele>60.8</ele><time>2026-04-24T14:41:52.998Z</time></trkpt><trkpt lat="49.1995062128911" lon="2.579726505031091"><ele>61.0</ele><time>2026-04-24T14:41:54.998Z</time></trkpt><trkpt lat="49.199420068749845" lon="2.5796699008066906"><ele>61.0</ele><time>2026-04-24T14:41:56.998Z</time></trkpt><trkpt lat="49.1993363215095" lon="2.579609687832081"><ele>60.99999999999999</ele><time>2026-04-24T14:41:58.998Z</time></trkpt><trkpt lat="49.19924828944548" lon="2.579547932297725"><ele>60.99999999999999</ele><time>2026-04-24T14:42:00.998Z</time></trkpt><trkpt lat="49.19915758008455" lon="2.5794910628282963"><ele>61.0</ele><time>2026-04-24T14:42:02.998Z</time></trkpt><trkpt lat="49.19906459408691" lon="2.579422768827342"><ele>61.0</ele><time>2026-04-24T14:42:04.998Z</time></trkpt><trkpt lat="49.198968058225255" lon="2.5793408783069216"><ele>60.25</ele><time>2026-04-24T14:42:06.998Z</time></trkpt><trkpt lat="49.19886284309493" lon="2.579269583165179"><ele>59.5</ele><time>2026-04-24T14:42:08.998Z</time></trkpt><trkpt lat="49.19875280067626" lon="2.5791955391763355"><ele>58.75</ele><time>2026-04-24T14:42:10.998Z</time></trkpt><trkpt lat="49.1986410152562" lon="2.579120040328449"><ele>58.0</ele><time>2026-04-24T14:42:12.998Z</time></trkpt><trkpt lat="49.19852635065362" lon="2.579043765804574"><ele>58.00000000000001</ele><time>2026-04-24T14:42:14.998Z</time></trkpt><trkpt lat="49.19846691551931" lon="2.5790066847505857"><ele>58.0</ele><time>2026-04-24T14:42:15.998Z</time></trkpt><trkpt lat="49.198408182343066" lon="2.5789651369744497"><ele>58.00000000000001</ele><time>2026-04-24T14:42:16.998Z</time></trkpt><trkpt lat="49.19834860906032" lon="2.5789252850837716"><ele>58.00000000000001</ele><time>2026-04-24T14:42:17.997Z</time></trkpt><trkpt lat="49.19828682366441" lon="2.578885559043587"><ele>58.0</ele><time>2026-04-24T14:42:18.997Z</time></trkpt><trkpt lat="49.19822662734404" lon="2.578843451189827"><ele>58.00000000000001</ele><time>2026-04-24T14:42:19.997Z</time></trkpt><trkpt lat="49.19816535605807" lon="2.5788016962920217"><ele>58.00000000000001</ele><time>2026-04-24T14:42:20.997Z</time></trkpt><trkpt lat="49.19810281227456" lon="2.578758743165975"><ele>58.00000000000001</ele><time>2026-04-24T14:42:21.997Z</time></trkpt><trkpt lat="49.198038314386054" lon="2.578719467015991"><ele>58.0</ele><time>2026-04-24T14:42:22.997Z</time></trkpt><trkpt lat="49.19797173211438" lon="2.5786769500645566"><ele>58.00000000000001</ele><time>2026-04-24T14:42:23.997Z</time></trkpt><trkpt lat="49.197905367318754" lon="2.5786344719338254"><ele>58.00000000000001</ele><time>2026-04-24T14:42:24.997Z</time></trkpt><trkpt lat="49.197838794660406" lon="2.5785908399310937"><ele>58.0</ele><time>2026-04-24T14:42:25.997Z</time></trkpt><trkpt lat="49.19777209779056" lon="2.578541865033314"><ele>58.00000000000001</ele><time>2026-04-24T14:42:26.997Z</time></trkpt><trkpt lat="49.197703655106665" lon="2.5784932930492936"><ele>58.00000000000001</ele><time>2026-04-24T14:42:28.001Z</time></trkpt><trkpt lat="49.19763441324081" lon="2.5784480587747742"><ele>57.666666666666664</ele><time>2026-04-24T14:42:29.001Z</time></trkpt><trkpt lat="49.19756492718322" lon="2.5784025275082616"><ele>57.33333333333333</ele><time>2026-04-24T14:42:30.001Z</time></trkpt><trkpt lat="49.19749266268339" lon="2.5783568218352126"><ele>57.0</ele><time>2026-04-24T14:42:31.001Z</time></trkpt><trkpt lat="49.19742139281858" lon="2.5783103454829046"><ele>56.66666666666667</ele><time>2026-04-24T14:42:32.001Z</time></trkpt><trkpt lat="49.19734931884504" lon="2.578264104163279"><ele>56.333333333333336</ele><time>2026-04-24T14:42:33.001Z</time></trkpt><trkpt lat="49.19727736501201" lon="2.5782184892060633"><ele>56.0</ele><time>2026-04-24T14:42:34.001Z</time></trkpt><trkpt lat="49.19720539512739" lon="2.5781726237719482"><ele>55.833333333333336</ele><time>2026-04-24T14:42:35.001Z</time></trkpt><trkpt lat="49.19713253247789" lon="2.57812592627831"><ele>55.66666666666667</ele><time>2026-04-24T14:42:36.001Z</time></trkpt><trkpt lat="49.197062067786185" lon="2.5780750708913667"><ele>55.5</ele><time>2026-04-24T14:42:37.001Z</time></trkpt><trkpt lat="49.19698855472989" lon="2.5780293683034743"><ele>55.33333333333333</ele><time>2026-04-24T14:42:38.001Z</time></trkpt><trkpt lat="49.196913648759406" lon="2.577987066285953"><ele>55.166666666666664</ele><time>2026-04-24T14:42:39.001Z</time></trkpt><trkpt lat="49.19683939434032" lon="2.5779404676930766"><ele>55.0</ele><time>2026-04-24T14:42:40.001Z</time></trkpt><trkpt lat="49.196764622254356" lon="2.5778899408290634"><ele>54.99999999999999</ele><time>2026-04-24T14:42:41.001Z</time></trkpt><trkpt lat="49.1966880832241" lon="2.577841645104192"><ele>55.0</ele><time>2026-04-24T14:42:42.001Z</time></trkpt><trkpt lat="49.1966130246001" lon="2.5777935906631066"><ele>55.0</ele><time>2026-04-24T14:42:43.001Z</time></trkpt><trkpt lat="49.19654942860905" lon="2.577698931145559"><ele>55.0</ele><time>2026-04-24T14:42:44Z</time></trkpt><trkpt lat="49.196473677746845" lon="2.57765049871849"><ele>54.99999999999999</ele><time>2026-04-24T14:42:45Z</time></trkpt><trkpt lat="49.196400795020736" lon="2.5776044174178043"><ele>55.0</ele><time>2026-04-24T14:42:46Z</time></trkpt><trkpt lat="49.196326707180035" lon="2.577558414352301"><ele>54.99999999999999</ele><time>2026-04-24T14:42:47Z</time></trkpt><trkpt lat="49.19625596450536" lon="2.57751448844002"><ele>55.0</ele><time>2026-04-24T14:42:48Z</time></trkpt><trkpt lat="49.196185924338" lon="2.5774722168992508"><ele>55.0</ele><time>2026-04-24T14:42:49Z</time></trkpt><trkpt lat="49.1961192092714" lon="2.5774323384331623"><ele>55.0</ele><time>2026-04-24T14:42:50Z</time></trkpt><trkpt lat="49.19605536534174" lon="2.5773941164605123"><ele>55.0</ele><time>2026-04-24T14:42:51Z</time></trkpt><trkpt lat="49.1959890313738" lon="2.5773541963267443"><ele>54.99999999999999</ele><time>2026-04-24T14:42:52Z</time></trkpt><trkpt lat="49.195921571449375" lon="2.57731359856159"><ele>55.0</ele><time>2026-04-24T14:42:53Z</time></trkpt><trkpt lat="49.195854505264876" lon="2.5772732377948495"><ele>54.99999999999999</ele><time>2026-04-24T14:42:54Z</time></trkpt><trkpt lat="49.19578080183736" lon="2.5772567299965736"><ele>55.0</ele><time>2026-04-24T14:42:55Z</time></trkpt><trkpt lat="49.195714402207344" lon="2.5772104162878398"><ele>55.0</ele><time>2026-04-24T14:42:56Z</time></trkpt><trkpt lat="49.1956486615625" lon="2.5771692321295374"><ele>55.0</ele><time>2026-04-24T14:42:57Z</time></trkpt><trkpt lat="49.19558541959295" lon="2.577117711180556"><ele>55.0</ele><time>2026-04-24T14:42:58Z</time></trkpt><trkpt lat="49.19553351868296" lon="2.5770505266308414"><ele>54.99999999999999</ele><time>2026-04-24T14:42:59Z</time></trkpt><trkpt lat="49.195485929291195" lon="2.576966322720648"><ele>55.0</ele><time>2026-04-24T14:43:00Z</time></trkpt><trkpt lat="49.195433176479604" lon="2.576905323482182"><ele>55.0</ele><time>2026-04-24T14:43:01Z</time></trkpt><trkpt lat="49.19537235392422" lon="2.5768653555670458"><ele>55.0</ele><time>2026-04-24T14:43:02Z</time></trkpt><trkpt lat="49.19525258570901" lon="2.5768414478836426"><ele>55.0</ele><time>2026-04-24T14:43:04Z</time></trkpt><trkpt lat="49.19514451578121" lon="2.576769047225319"><ele>55.0</ele><time>2026-04-24T14:43:06Z</time></trkpt><trkpt lat="49.195033879283756" lon="2.5766975983546363"><ele>55.0</ele><time>2026-04-24T14:43:08Z</time></trkpt><trkpt lat="49.19492872542283" lon="2.5766178821096464"><ele>55.0</ele><time>2026-04-24T14:43:10Z</time></trkpt><trkpt lat="49.19482548729028" lon="2.5765456758960092"><ele>55.0</ele><time>2026-04-24T14:43:12Z</time></trkpt><trkpt lat="49.194722997957456" lon="2.576473178480717"><ele>55.0</ele><time>2026-04-24T14:43:14Z</time></trkpt><trkpt lat="49.19462187140441" lon="2.5764114001615166"><ele>55.0</ele><time>2026-04-24T14:43:16Z</time></trkpt><trkpt lat="49.19452515708789" lon="2.576339657734144"><ele>55.0</ele><time>2026-04-24T14:43:17.999Z</time></trkpt><trkpt lat="49.194430494215474" lon="2.5762691913424947"><ele>55.0</ele><time>2026-04-24T14:43:19.999Z</time></trkpt><trkpt lat="49.19433985837397" lon="2.5762039055191144"><ele>55.0</ele><time>2026-04-24T14:43:21.999Z</time></trkpt><trkpt lat="49.19424350322492" lon="2.5761423398381824"><ele>55.0</ele><time>2026-04-24T14:43:23.999Z</time></trkpt><trkpt lat="49.194152809075376" lon="2.5760777580506082"><ele>55.0</ele><time>2026-04-24T14:43:25.999Z</time></trkpt><trkpt lat="49.19406294699163" lon="2.576011026990208"><ele>55.0</ele><time>2026-04-24T14:43:27.999Z</time></trkpt><trkpt lat="49.193975354667785" lon="2.5759441299276165"><ele>55.4</ele><time>2026-04-24T14:43:29.999Z</time></trkpt><trkpt lat="49.19388866423521" lon="2.575888862933591"><ele>55.8</ele><time>2026-04-24T14:43:31.999Z</time></trkpt><trkpt lat="49.19380404338317" lon="2.575832537826634"><ele>56.2</ele><time>2026-04-24T14:43:33.999Z</time></trkpt><trkpt lat="49.19371985903925" lon="2.575774137037095"><ele>56.6</ele><time>2026-04-24T14:43:35.999Z</time></trkpt><trkpt lat="49.19364097545887" lon="2.575712032587405"><ele>57.0</ele><time>2026-04-24T14:43:37.999Z</time></trkpt><trkpt lat="49.19355889821024" lon="2.575659806343525"><ele>57.0</ele><time>2026-04-24T14:43:39.999Z</time></trkpt><trkpt lat="49.19348163325698" lon="2.575604559071209"><ele>57.0</ele><time>2026-04-24T14:43:41.999Z</time></trkpt><trkpt lat="49.193403206923286" lon="2.575551682956427"><ele>57.0</ele><time>2026-04-24T14:43:43.999Z</time></trkpt><trkpt lat="49.19332773808482" lon="2.5754987618623426"><ele>57.0</ele><time>2026-04-24T14:43:45.999Z</time></trkpt><trkpt lat="49.19325218629844" lon="2.5754458743531363"><ele>57.0</ele><time>2026-04-24T14:43:47.999Z</time></trkpt><trkpt lat="49.193176848014105" lon="2.5753865489598096"><ele>57.0</ele><time>2026-04-24T14:43:49.998Z</time></trkpt><trkpt lat="49.19310222684368" lon="2.5753449968470856"><ele>57.333333333333336</ele><time>2026-04-24T14:43:51.998Z</time></trkpt><trkpt lat="49.19302818513578" lon="2.5752903431142014"><ele>57.66666666666667</ele><time>2026-04-24T14:43:53.998Z</time></trkpt><trkpt lat="49.192952604839554" lon="2.5752384648163993"><ele>58.0</ele><time>2026-04-24T14:43:55.998Z</time></trkpt><trkpt lat="49.19287709026636" lon="2.575190932862684"><ele>58.333333333333336</ele><time>2026-04-24T14:43:57.998Z</time></trkpt><trkpt lat="49.19280725701341" lon="2.5751359733947745"><ele>58.66666666666667</ele><time>2026-04-24T14:43:59.998Z</time></trkpt><trkpt lat="49.192733785937705" lon="2.575087784296687"><ele>59.0</ele><time>2026-04-24T14:44:01.998Z</time></trkpt><trkpt lat="49.19266124360323" lon="2.5750372461777054"><ele>59.00000000000001</ele><time>2026-04-24T14:44:03.998Z</time></trkpt><trkpt lat="49.192591553974914" lon="2.574986403968311"><ele>59.0</ele><time>2026-04-24T14:44:05.998Z</time></trkpt><trkpt lat="49.19252119537617" lon="2.5749293234975634"><ele>59.0</ele><time>2026-04-24T14:44:07.998Z</time></trkpt><trkpt lat="49.192447372735366" lon="2.574878222911557"><ele>59.0</ele><time>2026-04-24T14:44:09.998Z</time></trkpt><trkpt lat="49.19237169581327" lon="2.574831194869766"><ele>59.00000000000001</ele><time>2026-04-24T14:44:11.998Z</time></trkpt><trkpt lat="49.19229751113863" lon="2.5747763984202274"><ele>59.0</ele><time>2026-04-24T14:44:13.998Z</time></trkpt><trkpt lat="49.19222231600455" lon="2.574717844577562"><ele>59.16666666666667</ele><time>2026-04-24T14:44:15.998Z</time></trkpt><trkpt lat="49.192143933232096" lon="2.574660704368389"><ele>59.333333333333336</ele><time>2026-04-24T14:44:17.998Z</time></trkpt><trkpt lat="49.19206513742718" lon="2.5746050058888055"><ele>59.5</ele><time>2026-04-24T14:44:19.998Z</time></trkpt><trkpt lat="49.19199065568247" lon="2.5745410713290577"><ele>59.66666666666667</ele><time>2026-04-24T14:44:21.998Z</time></trkpt><trkpt lat="49.19191188659313" lon="2.574480035102943"><ele>59.833333333333336</ele><time>2026-04-24T14:44:23.997Z</time></trkpt><trkpt lat="49.19183472221927" lon="2.574420204289544"><ele>60.0</ele><time>2026-04-24T14:44:25.997Z</time></trkpt><trkpt lat="49.19175895261905" lon="2.57435463619916"><ele>60.2</ele><time>2026-04-24T14:44:27.997Z</time></trkpt><trkpt lat="49.19168265758991" lon="2.574279667455654"><ele>60.4</ele><time>2026-04-24T14:44:29.997Z</time></trkpt><trkpt lat="49.19162264098408" lon="2.5741691178675934"><ele>60.599999999999994</ele><time>2026-04-24T14:44:31.997Z</time></trkpt><trkpt lat="49.19157134564047" lon="2.5740350558721614"><ele>60.8</ele><time>2026-04-24T14:44:34.001Z</time></trkpt><trkpt lat="49.191521267426246" lon="2.5739035445438008"><ele>61.0</ele><time>2026-04-24T14:44:36.001Z</time></trkpt><trkpt lat="49.191421571070606" lon="2.5738382987931714"><ele>61.4</ele><time>2026-04-24T14:44:38.001Z</time></trkpt><trkpt lat="49.19130686982667" lon="2.573855807871376"><ele>61.8</ele><time>2026-04-24T14:44:40.001Z</time></trkpt><trkpt lat="49.19120983655828" lon="2.5738879675194712"><ele>62.199999999999996</ele><time>2026-04-24T14:44:42.001Z</time></trkpt><trkpt lat="49.191130242719105" lon="2.5739851149172024"><ele>62.599999999999994</ele><time>2026-04-24T14:44:44.001Z</time></trkpt><trkpt lat="49.191084970421606" lon="2.5741241859150303"><ele>63.0</ele><time>2026-04-24T14:44:46.001Z</time></trkpt><trkpt lat="49.191060170317364" lon="2.5742781533063086"><ele>63.0</ele><time>2026-04-24T14:44:48.001Z</time></trkpt><trkpt lat="49.19105042622177" lon="2.574429043024821"><ele>63.0</ele><time>2026-04-24T14:44:50Z</time></trkpt><trkpt lat="49.1910234598285" lon="2.5745171180922846"><ele>63.0</ele><time>2026-04-24T14:44:53Z</time></trkpt><trkpt lat="49.19093932716636" lon="2.574539305421952"><ele>63.0</ele><time>2026-04-24T14:44:57Z</time></trkpt><trkpt lat="49.1908723612853" lon="2.5744976633637084"><ele>63.0</ele><time>2026-04-24T14:44:59Z</time></trkpt><trkpt lat="49.19078183710816" lon="2.574493673633269"><ele>63.0</ele><time>2026-04-24T14:45:02Z</time></trkpt><trkpt lat="49.190710390951175" lon="2.574494542337112"><ele>63.666666666666664</ele><time>2026-04-24T14:45:05Z</time></trkpt><trkpt lat="49.190620300411524" lon="2.57450366404493"><ele>64.33333333333333</ele><time>2026-04-24T14:45:08Z</time></trkpt><trkpt lat="49.19055310182997" lon="2.574507466670048"><ele>65.0</ele><time>2026-04-24T14:45:10Z</time></trkpt><trkpt lat="49.19048416837206" lon="2.5745011945375915"><ele>65.66666666666666</ele><time>2026-04-24T14:45:12Z</time></trkpt><trkpt lat="49.190414242157225" lon="2.574489471276916"><ele>66.33333333333333</ele><time>2026-04-24T14:45:14Z</time></trkpt><trkpt lat="49.19032077989598" lon="2.574486001858578"><ele>67.0</ele><time>2026-04-24T14:45:17Z</time></trkpt><trkpt lat="49.19022241308455" lon="2.5744901101882625"><ele>67.0</ele><time>2026-04-24T14:45:19.999Z</time></trkpt><trkpt lat="49.19014563433315" lon="2.5744933742763867"><ele>67.0</ele><time>2026-04-24T14:45:21.999Z</time></trkpt><trkpt lat="49.19006865065453" lon="2.5744833079044587"><ele>67.0</ele><time>2026-04-24T14:45:23.999Z</time></trkpt><trkpt lat="49.189988051630756" lon="2.5744890267501535"><ele>67.0</ele><time>2026-04-24T14:45:25.999Z</time></trkpt><trkpt lat="49.18990722595355" lon="2.574491766315403"><ele>67.0</ele><time>2026-04-24T14:45:27.999Z</time></trkpt><trkpt lat="49.189820815535214" lon="2.5744898985071014"><ele>67.0</ele><time>2026-04-24T14:45:29.999Z</time></trkpt><trkpt lat="49.18973698555247" lon="2.574481394217341"><ele>67.66666666666666</ele><time>2026-04-24T14:45:31.999Z</time></trkpt><trkpt lat="49.189645449158114" lon="2.5744795249070935"><ele>68.33333333333333</ele><time>2026-04-24T14:45:33.999Z</time></trkpt><trkpt lat="49.18956240989672" lon="2.5744632702065657"><ele>69.0</ele><time>2026-04-24T14:45:35.999Z</time></trkpt><trkpt lat="49.18947133621254" lon="2.574480975349532"><ele>69.66666666666667</ele><time>2026-04-24T14:45:37.999Z</time></trkpt><trkpt lat="49.18939729643387" lon="2.5744850473640195"><ele>70.33333333333334</ele><time>2026-04-24T14:45:39.999Z</time></trkpt><trkpt lat="49.18930587398239" lon="2.5744920102923943"><ele>71.0</ele><time>2026-04-24T14:45:41.999Z</time></trkpt><trkpt lat="49.18922473089273" lon="2.5744881581044936"><ele>71.0</ele><time>2026-04-24T14:45:43.999Z</time></trkpt><trkpt lat="49.18915205860804" lon="2.574478319388686"><ele>71.0</ele><time>2026-04-24T14:45:45.999Z</time></trkpt><trkpt lat="49.1890758781098" lon="2.574472496170781"><ele>71.0</ele><time>2026-04-24T14:45:47.999Z</time></trkpt><trkpt lat="49.18900686112577" lon="2.5744644923708773"><ele>71.0</ele><time>2026-04-24T14:45:49.999Z</time></trkpt><trkpt lat="49.18893955869797" lon="2.5744718664144215"><ele>71.0</ele><time>2026-04-24T14:45:51.998Z</time></trkpt><trkpt lat="49.18886031171544" lon="2.5744923258001506"><ele>71.0</ele><time>2026-04-24T14:45:53.998Z</time></trkpt><trkpt lat="49.18878082426965" lon="2.574492351752428"><ele>71.0</ele><time>2026-04-24T14:45:55.998Z</time></trkpt><trkpt lat="49.18869594929" lon="2.574508265949704"><ele>71.0</ele><time>2026-04-24T14:45:57.998Z</time></trkpt><trkpt lat="49.18861721658344" lon="2.5745170658139247"><ele>71.0</ele><time>2026-04-24T14:45:59.998Z</time></trkpt><trkpt lat="49.18854336640248" lon="2.5745254044788886"><ele>71.0</ele><time>2026-04-24T14:46:01.998Z</time></trkpt><trkpt lat="49.18846898894058" lon="2.574520702284972"><ele>71.0</ele><time>2026-04-24T14:46:03.998Z</time></trkpt><trkpt lat="49.18840154580841" lon="2.5744795263058475"><ele>71.0</ele><time>2026-04-24T14:46:05.998Z</time></trkpt><trkpt lat="49.18831577368267" lon="2.5744785599039735"><ele>71.0</ele><time>2026-04-24T14:46:07.998Z</time></trkpt><trkpt lat="49.18824156717298" lon="2.5744846841166513"><ele>70.5</ele><time>2026-04-24T14:46:09.998Z</time></trkpt><trkpt lat="49.188166160653346" lon="2.5744866588389046"><ele>70.0</ele><time>2026-04-24T14:46:11.998Z</time></trkpt><trkpt lat="49.18808315873308" lon="2.574481940397942"><ele>69.5</ele><time>2026-04-24T14:46:13.998Z</time></trkpt><trkpt lat="49.18799518871191" lon="2.5744724973834416"><ele>69.0</ele><time>2026-04-24T14:46:15.998Z</time></trkpt><trkpt lat="49.18791255004307" lon="2.5744632561425664"><ele>68.5</ele><time>2026-04-24T14:46:17.998Z</time></trkpt><trkpt lat="49.18783470004181" lon="2.5744571749668923"><ele>68.0</ele><time>2026-04-24T14:46:19.998Z</time></trkpt><trkpt lat="49.187760696393426" lon="2.574459478058287"><ele>68.0</ele><time>2026-04-24T14:46:21.998Z</time></trkpt><trkpt lat="49.18769212224631" lon="2.5744668133897215"><ele>68.0</ele><time>2026-04-24T14:46:23.998Z</time></trkpt><trkpt lat="49.18761228235936" lon="2.5744703974033563"><ele>68.0</ele><time>2026-04-24T14:46:25.997Z</time></trkpt><trkpt lat="49.18753782677183" lon="2.574489253648454"><ele>68.0</ele><time>2026-04-24T14:46:27.997Z</time></trkpt><trkpt lat="49.18745894400349" lon="2.5744782591059554"><ele>68.0</ele><time>2026-04-24T14:46:29.997Z</time></trkpt><trkpt lat="49.18737340414667" lon="2.5744732455059456"><ele>68.0</ele><time>2026-04-24T14:46:31.997Z</time></trkpt><trkpt lat="49.18729070535567" lon="2.574465624760565"><ele>67.66666666666667</ele><time>2026-04-24T14:46:33.997Z</time></trkpt><trkpt lat="49.1872047247307" lon="2.574457282953103"><ele>67.33333333333334</ele><time>2026-04-24T14:46:35.997Z</time></trkpt><trkpt lat="49.18713393764225" lon="2.5744395709216508"><ele>67.0</ele><time>2026-04-24T14:46:37.997Z</time></trkpt><trkpt lat="49.187056014984414" lon="2.574449740255834"><ele>66.66666666666667</ele><time>2026-04-24T14:46:40.001Z</time></trkpt><trkpt lat="49.18698000965521" lon="2.5744458512432256"><ele>66.33333333333333</ele><time>2026-04-24T14:46:42Z</time></trkpt><trkpt lat="49.18690519223562" lon="2.5744412447423572"><ele>66.0</ele><time>2026-04-24T14:46:44.001Z</time></trkpt><trkpt lat="49.18682358839313" lon="2.574425518184514"><ele>66.0</ele><time>2026-04-24T14:46:46.001Z</time></trkpt><trkpt lat="49.1867392773108" lon="2.5744032373735677"><ele>66.0</ele><time>2026-04-24T14:46:48.001Z</time></trkpt><trkpt lat="49.186662788469434" lon="2.5743666899136595"><ele>66.0</ele><time>2026-04-24T14:46:50.001Z</time></trkpt><trkpt lat="49.18658991472118" lon="2.574295583869237"><ele>66.0</ele><time>2026-04-24T14:46:52.001Z</time></trkpt><trkpt lat="49.18653634950829" lon="2.574219817006374"><ele>66.0</ele><time>2026-04-24T14:46:54Z</time></trkpt><trkpt lat="49.18647276024144" lon="2.574150316282831"><ele>66.0</ele><time>2026-04-24T14:46:56Z</time></trkpt><trkpt lat="49.186403344363896" lon="2.574080913566129"><ele>65.8</ele><time>2026-04-24T14:46:59Z</time></trkpt><trkpt lat="49.18635679680444" lon="2.5743195093841336"><ele>65.6</ele><time>2026-04-24T14:47:00Z</time></trkpt><trkpt lat="49.18627560196983" lon="2.5743008427646092"><ele>65.4</ele><time>2026-04-24T14:47:02Z</time></trkpt><trkpt lat="49.18621099113405" lon="2.5742790586568893"><ele>65.2</ele><time>2026-04-24T14:47:04Z</time></trkpt><trkpt lat="49.18613064029436" lon="2.574251967215763"><ele>65.0</ele><time>2026-04-24T14:47:06Z</time></trkpt><trkpt lat="49.186065616815526" lon="2.574230042416914"><ele>65.0</ele><time>2026-04-24T14:47:08Z</time></trkpt><trkpt lat="49.18600041172404" lon="2.5742080564014804"><ele>65.0</ele><time>2026-04-24T14:47:10Z</time></trkpt><trkpt lat="49.18592939884762" lon="2.574184112092588"><ele>65.0</ele><time>2026-04-24T14:47:12Z</time></trkpt><trkpt lat="49.185929936456574" lon="2.5738893478444873"><ele>65.0</ele><time>2026-04-24T14:47:13Z</time></trkpt><trkpt lat="49.18586454543478" lon="2.5738527977371586"><ele>65.0</ele><time>2026-04-24T14:47:15Z</time></trkpt><trkpt lat="49.18579084075099" lon="2.573831850504418"><ele>65.0</ele><time>2026-04-24T14:47:17Z</time></trkpt><trkpt lat="49.18570764422406" lon="2.5738019577066273"><ele>65.0</ele><time>2026-04-24T14:47:19Z</time></trkpt><trkpt lat="49.185622239770034" lon="2.5737901733314943"><ele>65.0</ele><time>2026-04-24T14:47:21Z</time></trkpt><trkpt lat="49.185542136691275" lon="2.573788851136446"><ele>65.0</ele><time>2026-04-24T14:47:23Z</time></trkpt><trkpt lat="49.185458072412544" lon="2.5738269367818263"><ele>65.0</ele><time>2026-04-24T14:47:25Z</time></trkpt><trkpt lat="49.185379493867025" lon="2.5738488051109107"><ele>65.0</ele><time>2026-04-24T14:47:26.999Z</time></trkpt><trkpt lat="49.18529464615824" lon="2.5738677609275546"><ele>64.66666666666667</ele><time>2026-04-24T14:47:28.999Z</time></trkpt><trkpt lat="49.185209025710634" lon="2.573899975315498"><ele>64.33333333333334</ele><time>2026-04-24T14:47:30.999Z</time></trkpt><trkpt lat="49.18512221589163" lon="2.5739341733426433"><ele>64.0</ele><time>2026-04-24T14:47:32.999Z</time></trkpt><trkpt lat="49.18504414219372" lon="2.573985609676251"><ele>63.66666666666667</ele><time>2026-04-24T14:47:34.999Z</time></trkpt><trkpt lat="49.184958224219166" lon="2.5740467339295963"><ele>63.333333333333336</ele><time>2026-04-24T14:47:36.999Z</time></trkpt><trkpt lat="49.18488182426706" lon="2.57409341023741"><ele>63.0</ele><time>2026-04-24T14:47:38.999Z</time></trkpt><trkpt lat="49.18482739748693" lon="2.574142992366899"><ele>62.4</ele><time>2026-04-24T14:47:40.999Z</time></trkpt><trkpt lat="49.184711994622496" lon="2.5742129706416756"><ele>61.8</ele><time>2026-04-24T14:47:42.999Z</time></trkpt><trkpt lat="49.18464300740636" lon="2.5742741064366923"><ele>61.2</ele><time>2026-04-24T14:47:44.999Z</time></trkpt><trkpt lat="49.18454897011381" lon="2.574344312361462"><ele>60.6</ele><time>2026-04-24T14:47:46.999Z</time></trkpt><trkpt lat="49.18449053913585" lon="2.57438698782692"><ele>60.0</ele><time>2026-04-24T14:47:47.999Z</time></trkpt><trkpt lat="49.184398007132046" lon="2.574453242558705"><ele>60.0</ele><time>2026-04-24T14:47:49.999Z</time></trkpt><trkpt lat="49.18431654780758" lon="2.5745163167118594"><ele>60.0</ele><time>2026-04-24T14:47:51.999Z</time></trkpt><trkpt lat="49.184231506142694" lon="2.5745383065703904"><ele>60.0</ele><time>2026-04-24T14:47:53.999Z</time></trkpt><trkpt lat="49.184148871637035" lon="2.574566402501806"><ele>60.0</ele><time>2026-04-24T14:47:55.999Z</time></trkpt><trkpt lat="49.18405914502874" lon="2.5745982317510507"><ele>60.0</ele><time>2026-04-24T14:47:57.999Z</time></trkpt><trkpt lat="49.18397144630776" lon="2.5746240636932107"><ele>60.0</ele><time>2026-04-24T14:47:59.998Z</time></trkpt><trkpt lat="49.1838797609476" lon="2.574676189062577"><ele>60.8</ele><time>2026-04-24T14:48:01.998Z</time></trkpt><trkpt lat="49.1837957839828" lon="2.5747174797196104"><ele>61.6</ele><time>2026-04-24T14:48:03.998Z</time></trkpt><trkpt lat="49.18369744147952" lon="2.5747664590830377"><ele>62.400000000000006</ele><time>2026-04-24T14:48:05.998Z</time></trkpt><trkpt lat="49.18361572704385" lon="2.5748072809532947"><ele>63.2</ele><time>2026-04-24T14:48:07.998Z</time></trkpt><trkpt lat="49.183512315912054" lon="2.5748371472104488"><ele>64.0</ele><time>2026-04-24T14:48:10.998Z</time></trkpt><trkpt lat="49.18343343198339" lon="2.5748813379404925"><ele>64.0</ele><time>2026-04-24T14:48:12.998Z</time></trkpt><trkpt lat="49.18334251092878" lon="2.574919639829205"><ele>64.0</ele><time>2026-04-24T14:48:14.998Z</time></trkpt><trkpt lat="49.18325138451827" lon="2.5749172407652083"><ele>64.0</ele><time>2026-04-24T14:48:16.998Z</time></trkpt><trkpt lat="49.18316506001812" lon="2.574879215357991"><ele>64.0</ele><time>2026-04-24T14:48:18.998Z</time></trkpt><trkpt lat="49.18307845398178" lon="2.5748186866724394"><ele>64.0</ele><time>2026-04-24T14:48:20.998Z</time></trkpt><trkpt lat="49.182989778724824" lon="2.5747609085953416"><ele>64.2</ele><time>2026-04-24T14:48:22.998Z</time></trkpt><trkpt lat="49.18289518200955" lon="2.5747313292123826"><ele>64.4</ele><time>2026-04-24T14:48:24.998Z</time></trkpt><trkpt lat="49.18279487824736" lon="2.5747107700336413"><ele>64.6</ele><time>2026-04-24T14:48:26.998Z</time></trkpt><trkpt lat="49.18271330395551" lon="2.5747018619716133"><ele>64.8</ele><time>2026-04-24T14:48:28.998Z</time></trkpt><trkpt lat="49.18261931390312" lon="2.5747024703649046"><ele>65.0</ele><time>2026-04-24T14:48:30.998Z</time></trkpt><trkpt lat="49.182534211865296" lon="2.574721661176781"><ele>65.0</ele><time>2026-04-24T14:48:32.997Z</time></trkpt><trkpt lat="49.18243331581673" lon="2.5747330868819143"><ele>65.0</ele><time>2026-04-24T14:48:34.997Z</time></trkpt><trkpt lat="49.18234090283835" lon="2.574714774141182"><ele>65.0</ele><time>2026-04-24T14:48:36.997Z</time></trkpt><trkpt lat="49.18226313168176" lon="2.5746570018603094"><ele>65.0</ele><time>2026-04-24T14:48:38.997Z</time></trkpt><trkpt lat="49.18217817737601" lon="2.574594401098059"><ele>65.0</ele><time>2026-04-24T14:48:40.997Z</time></trkpt><trkpt lat="49.18208975636856" lon="2.5745336698861894"><ele>64.6</ele><time>2026-04-24T14:48:42.997Z</time></trkpt><trkpt lat="49.18200279177298" lon="2.5744727134766"><ele>64.2</ele><time>2026-04-24T14:48:44.997Z</time></trkpt><trkpt lat="49.18191118692797" lon="2.574412340538117"><ele>63.8</ele><time>2026-04-24T14:48:47.001Z</time></trkpt><trkpt lat="49.181827446846704" lon="2.5743567289410647"><ele>63.4</ele><time>2026-04-24T14:48:49.001Z</time></trkpt><trkpt lat="49.18174070362057" lon="2.5742982382730553"><ele>63.0</ele><time>2026-04-24T14:48:51.001Z</time></trkpt><trkpt lat="49.18165011949577" lon="2.574240724729452"><ele>63.0</ele><time>2026-04-24T14:48:53.001Z</time></trkpt><trkpt lat="49.18156403599666" lon="2.574187386729914"><ele>63.0</ele><time>2026-04-24T14:48:55.001Z</time></trkpt><trkpt lat="49.18147926080693" lon="2.574137532067071"><ele>63.0</ele><time>2026-04-24T14:48:57.001Z</time></trkpt><trkpt lat="49.181390832654444" lon="2.5740762990107515"><ele>63.0</ele><time>2026-04-24T14:48:59.001Z</time></trkpt><trkpt lat="49.18130478946931" lon="2.574014856253522"><ele>63.0</ele><time>2026-04-24T14:49:01Z</time></trkpt><trkpt lat="49.18120927392593" lon="2.5739479779405694"><ele>63.0</ele><time>2026-04-24T14:49:03Z</time></trkpt><trkpt lat="49.18111414640398" lon="2.5738867996439416"><ele>63.0</ele><time>2026-04-24T14:49:05Z</time></trkpt><trkpt lat="49.18101384385193" lon="2.573811882683552"><ele>63.0</ele><time>2026-04-24T14:49:07Z</time></trkpt><trkpt lat="49.18092658677029" lon="2.5737610163577456"><ele>63.0</ele><time>2026-04-24T14:49:09Z</time></trkpt><trkpt lat="49.18083955026882" lon="2.5736858151377917"><ele>63.0</ele><time>2026-04-24T14:49:11Z</time></trkpt><trkpt lat="49.18075464168617" lon="2.5736330771023757"><ele>63.0</ele><time>2026-04-24T14:49:13Z</time></trkpt><trkpt lat="49.18064878482393" lon="2.573574820467024"><ele>63.0</ele><time>2026-04-24T14:49:15Z</time></trkpt><trkpt lat="49.18057203935129" lon="2.573530905165433"><ele>63.0</ele><time>2026-04-24T14:49:17Z</time></trkpt><trkpt lat="49.180492529783876" lon="2.5734929553280437"><ele>63.0</ele><time>2026-04-24T14:49:19Z</time></trkpt><trkpt lat="49.18041587024162" lon="2.5734476293972284"><ele>63.0</ele><time>2026-04-24T14:49:21Z</time></trkpt><trkpt lat="49.18034818700747" lon="2.5733896387719057"><ele>63.0</ele><time>2026-04-24T14:49:23Z</time></trkpt><trkpt lat="49.18028713028203" lon="2.573308854193673"><ele>63.0</ele><time>2026-04-24T14:49:25Z</time></trkpt><trkpt lat="49.18022115533741" lon="2.573254269549302"><ele>63.0</ele><time>2026-04-24T14:49:27Z</time></trkpt><trkpt lat="49.18014942196357" lon="2.5732081712218853"><ele>63.0</ele><time>2026-04-24T14:49:29Z</time></trkpt><trkpt lat="49.180069495962705" lon="2.5731661215318997"><ele>63.0</ele><time>2026-04-24T14:49:30Z</time></trkpt><trkpt lat="49.179988252627595" lon="2.5731037161851766"><ele>63.0</ele><time>2026-04-24T14:49:32.999Z</time></trkpt><trkpt lat="49.17989354312549" lon="2.5730370230282578"><ele>63.0</ele><time>2026-04-24T14:49:34.999Z</time></trkpt><trkpt lat="49.17980655980345" lon="2.57298053881245"><ele>63.0</ele><time>2026-04-24T14:49:36.999Z</time></trkpt><trkpt lat="49.17972622213702" lon="2.572899121692753"><ele>63.0</ele><time>2026-04-24T14:49:38.999Z</time></trkpt><trkpt lat="49.179638031566675" lon="2.572828113784176"><ele>63.0</ele><time>2026-04-24T14:49:40.999Z</time></trkpt><trkpt lat="49.1795379445269" lon="2.572770125857309"><ele>63.0</ele><time>2026-04-24T14:49:42.999Z</time></trkpt><trkpt lat="49.179467809630246" lon="2.5727054817639257"><ele>63.0</ele><time>2026-04-24T14:49:44.999Z</time></trkpt><trkpt lat="49.179377584811995" lon="2.5726596706145863"><ele>63.0</ele><time>2026-04-24T14:49:46.999Z</time></trkpt><trkpt lat="49.17931545319361" lon="2.572601790666693"><ele>63.0</ele><time>2026-04-24T14:49:48.999Z</time></trkpt><trkpt lat="49.179240211790024" lon="2.5725540718457465"><ele>63.0</ele><time>2026-04-24T14:49:50.999Z</time></trkpt><trkpt lat="49.17915620774693" lon="2.572495265521141"><ele>63.0</ele><time>2026-04-24T14:49:52.999Z</time></trkpt><trkpt lat="49.17907080277759" lon="2.5724408770224536"><ele>63.0</ele><time>2026-04-24T14:49:54.999Z</time></trkpt><trkpt lat="49.17898093391152" lon="2.572378222767997"><ele>63.0</ele><time>2026-04-24T14:49:56.999Z</time></trkpt><trkpt lat="49.17890011233766" lon="2.5723189093556913"><ele>63.0</ele><time>2026-04-24T14:49:58.999Z</time></trkpt><trkpt lat="49.178819567160524" lon="2.572250373723416"><ele>63.0</ele><time>2026-04-24T14:50:00.999Z</time></trkpt><trkpt lat="49.17872926005673" lon="2.572198555054058"><ele>63.0</ele><time>2026-04-24T14:50:02.999Z</time></trkpt><trkpt lat="49.178636320291226" lon="2.57212737854756"><ele>63.0</ele><time>2026-04-24T14:50:04.998Z</time></trkpt><trkpt lat="49.178561196504404" lon="2.5720823442972742"><ele>63.0</ele><time>2026-04-24T14:50:06.998Z</time></trkpt><trkpt lat="49.178494840709256" lon="2.572030372425361"><ele>63.0</ele><time>2026-04-24T14:50:08.998Z</time></trkpt><trkpt lat="49.17841715895209" lon="2.5719893824410534"><ele>63.166666666666664</ele><time>2026-04-24T14:50:10.998Z</time></trkpt><trkpt lat="49.17834215156408" lon="2.5719357525000146"><ele>63.33333333333333</ele><time>2026-04-24T14:50:12.998Z</time></trkpt><trkpt lat="49.178271114620266" lon="2.5718966104862453"><ele>63.5</ele><time>2026-04-24T14:50:14.998Z</time></trkpt><trkpt lat="49.178202427522294" lon="2.57185065757734"><ele>63.666666666666664</ele><time>2026-04-24T14:50:16.998Z</time></trkpt><trkpt lat="49.17813076346663" lon="2.571802074199064"><ele>63.83333333333333</ele><time>2026-04-24T14:50:18.998Z</time></trkpt><trkpt lat="49.178054989947725" lon="2.5717535662603925"><ele>64.0</ele><time>2026-04-24T14:50:20.998Z</time></trkpt><trkpt lat="49.17797534426378" lon="2.5716972308916026"><ele>63.2</ele><time>2026-04-24T14:50:22.998Z</time></trkpt><trkpt lat="49.17789829583065" lon="2.571642138683375"><ele>62.400000000000006</ele><time>2026-04-24T14:50:24.998Z</time></trkpt><trkpt lat="49.17781915821235" lon="2.5715825983658815"><ele>61.6</ele><time>2026-04-24T14:50:26.998Z</time></trkpt><trkpt lat="49.17773400648599" lon="2.5715269731207036"><ele>60.8</ele><time>2026-04-24T14:50:28.998Z</time></trkpt><trkpt lat="49.17765266463465" lon="2.5714633016394077"><ele>60.0</ele><time>2026-04-24T14:50:30.998Z</time></trkpt><trkpt lat="49.17756523611944" lon="2.571407573730131"><ele>60.0</ele><time>2026-04-24T14:50:32.998Z</time></trkpt><trkpt lat="49.17748079720913" lon="2.5713511794095187"><ele>60.0</ele><time>2026-04-24T14:50:34.998Z</time></trkpt><trkpt lat="49.1774000546789" lon="2.5712947699028192"><ele>60.0</ele><time>2026-04-24T14:50:36.997Z</time></trkpt><trkpt lat="49.177329628373975" lon="2.5712463842077042"><ele>60.0</ele><time>2026-04-24T14:50:38.997Z</time></trkpt><trkpt lat="49.17725296007916" lon="2.5711879887489584"><ele>60.0</ele><time>2026-04-24T14:50:40.997Z</time></trkpt><trkpt lat="49.17718287129166" lon="2.5711372216695927"><ele>60.0</ele><time>2026-04-24T14:50:42.997Z</time></trkpt><trkpt lat="49.177096357930466" lon="2.571082743382377"><ele>60.0</ele><time>2026-04-24T14:50:44.997Z</time></trkpt><trkpt lat="49.177010810956254" lon="2.5710161318927276"><ele>60.0</ele><time>2026-04-24T14:50:46.997Z</time></trkpt><trkpt lat="49.176925548478714" lon="2.5709525431266407"><ele>60.0</ele><time>2026-04-24T14:50:48.997Z</time></trkpt><trkpt lat="49.176846325223146" lon="2.570891487962184"><ele>60.0</ele><time>2026-04-24T14:50:50.997Z</time></trkpt><trkpt lat="49.17676017701481" lon="2.5708395817315086"><ele>60.0</ele><time>2026-04-24T14:50:53Z</time></trkpt><trkpt lat="49.17667686958384" lon="2.570780521641754"><ele>60.0</ele><time>2026-04-24T14:50:55Z</time></trkpt><trkpt lat="49.1766072928568" lon="2.570713294706294"><ele>60.0</ele><time>2026-04-24T14:50:57Z</time></trkpt><trkpt lat="49.17651665674688" lon="2.570659660414439"><ele>60.0</ele><time>2026-04-24T14:50:59Z</time></trkpt><trkpt lat="49.17643051934985" lon="2.570601490511847"><ele>60.0</ele><time>2026-04-24T14:51:01Z</time></trkpt><trkpt lat="49.17636138348135" lon="2.5705304707319216"><ele>60.0</ele><time>2026-04-24T14:51:03Z</time></trkpt><trkpt lat="49.17627305223784" lon="2.570473266423917"><ele>60.6</ele><time>2026-04-24T14:51:05Z</time></trkpt><trkpt lat="49.17618594072589" lon="2.570419668400879"><ele>61.2</ele><time>2026-04-24T14:51:07Z</time></trkpt><trkpt lat="49.1760974669342" lon="2.5703571142986985"><ele>61.8</ele><time>2026-04-24T14:51:09Z</time></trkpt><trkpt lat="49.17601911965236" lon="2.5702932319555662"><ele>62.4</ele><time>2026-04-24T14:51:11Z</time></trkpt><trkpt lat="49.175927932026326" lon="2.570228059404499"><ele>63.0</ele><time>2026-04-24T14:51:13Z</time></trkpt><trkpt lat="49.175854337524974" lon="2.570162316776651"><ele>63.0</ele><time>2026-04-24T14:51:15Z</time></trkpt><trkpt lat="49.17576649784771" lon="2.5700978569156936"><ele>63.0</ele><time>2026-04-24T14:51:17Z</time></trkpt><trkpt lat="49.17567946802456" lon="2.570037819796221"><ele>63.0</ele><time>2026-04-24T14:51:19Z</time></trkpt><trkpt lat="49.175593279351766" lon="2.569990379187167"><ele>63.0</ele><time>2026-04-24T14:51:21Z</time></trkpt><trkpt lat="49.175509132204866" lon="2.569932146700871"><ele>63.0</ele><time>2026-04-24T14:51:23Z</time></trkpt><trkpt lat="49.17541298020529" lon="2.569870280814962"><ele>63.8</ele><time>2026-04-24T14:51:25Z</time></trkpt><trkpt lat="49.175314942550536" lon="2.5698046188344557"><ele>64.6</ele><time>2026-04-24T14:51:27Z</time></trkpt><trkpt lat="49.17522280545585" lon="2.5697503673500526"><ele>65.4</ele><time>2026-04-24T14:51:29Z</time></trkpt><trkpt lat="49.17513743819867" lon="2.5696710519903427"><ele>66.2</ele><time>2026-04-24T14:51:31Z</time></trkpt><trkpt lat="49.17504989493485" lon="2.5696177046750903"><ele>67.0</ele><time>2026-04-24T14:51:33Z</time></trkpt><trkpt lat="49.1749566812823" lon="2.5695451616868095"><ele>66.8</ele><time>2026-04-24T14:51:35Z</time></trkpt><trkpt lat="49.17486366705677" lon="2.569481414108649"><ele>66.6</ele><time>2026-04-24T14:51:36.999Z</time></trkpt><trkpt lat="49.17478335012654" lon="2.5694225242629196"><ele>66.39999999999999</ele><time>2026-04-24T14:51:38.999Z</time></trkpt><trkpt lat="49.17469282010381" lon="2.5693621571234124"><ele>66.2</ele><time>2026-04-24T14:51:40.999Z</time></trkpt><trkpt lat="49.174622825753545" lon="2.5693135405117116"><ele>66.0</ele><time>2026-04-24T14:51:42.999Z</time></trkpt><trkpt lat="49.17452842086078" lon="2.569270621776585"><ele>66.33333333333333</ele><time>2026-04-24T14:51:44.999Z</time></trkpt><trkpt lat="49.17444316451571" lon="2.569200061024072"><ele>66.66666666666667</ele><time>2026-04-24T14:51:46.999Z</time></trkpt><trkpt lat="49.174360698944604" lon="2.569140111532457"><ele>67.0</ele><time>2026-04-24T14:51:48.999Z</time></trkpt><trkpt lat="49.174277357266355" lon="2.5690819080044"><ele>67.33333333333334</ele><time>2026-04-24T14:51:50.999Z</time></trkpt><trkpt lat="49.17420547234166" lon="2.5690373459556595"><ele>67.66666666666667</ele><time>2026-04-24T14:51:52.999Z</time></trkpt><trkpt lat="49.17412876855883" lon="2.5689808260141844"><ele>68.0</ele><time>2026-04-24T14:51:54.999Z</time></trkpt><trkpt lat="49.174058482943245" lon="2.568930160309587"><ele>67.99999999999999</ele><time>2026-04-24T14:51:56.999Z</time></trkpt><trkpt lat="49.17398993035761" lon="2.568882633578603"><ele>68.0</ele><time>2026-04-24T14:51:58.999Z</time></trkpt><trkpt lat="49.17392837093075" lon="2.568843138648873"><ele>68.0</ele><time>2026-04-24T14:52:00.999Z</time></trkpt><trkpt lat="49.173856658181265" lon="2.568800345671842"><ele>68.0</ele><time>2026-04-24T14:52:03.999Z</time></trkpt><trkpt lat="49.17380038467231" lon="2.5687524159434294"><ele>68.0</ele><time>2026-04-24T14:53:46.999Z</time></trkpt><trkpt lat="49.17374049939434" lon="2.5687022987684385"><ele>67.99999999999999</ele><time>2026-04-24T14:53:49.999Z</time></trkpt><trkpt lat="49.17366544838605" lon="2.5686346707158503"><ele>68.0</ele><time>2026-04-24T14:53:52.999Z</time></trkpt><trkpt lat="49.173596548205296" lon="2.568588079862222"><ele>68.0</ele><time>2026-04-24T14:53:54.999Z</time></trkpt><trkpt lat="49.17350637772677" lon="2.568527819017504"><ele>68.0</ele><time>2026-04-24T14:53:57.999Z</time></trkpt><trkpt lat="49.17342956840905" lon="2.5684691685373777"><ele>68.0</ele><time>2026-04-24T14:54:00.999Z</time></trkpt><trkpt lat="49.173351232826036" lon="2.568414248662831"><ele>68.0</ele><time>2026-04-24T14:54:02.999Z</time></trkpt><trkpt lat="49.17327680177837" lon="2.568361479893094"><ele>68.0</ele><time>2026-04-24T14:54:04.999Z</time></trkpt><trkpt lat="49.17320584754494" lon="2.568310637888959"><ele>68.0</ele><time>2026-04-24T14:54:06.999Z</time></trkpt><trkpt lat="49.17313993926927" lon="2.568276785883767"><ele>68.0</ele><time>2026-04-24T14:54:08.999Z</time></trkpt><trkpt lat="49.173055630164406" lon="2.568204029170305"><ele>68.0</ele><time>2026-04-24T14:54:11.998Z</time></trkpt><trkpt lat="49.17298867661323" lon="2.5681583648876685"><ele>68.0</ele><time>2026-04-24T14:54:13.998Z</time></trkpt><trkpt lat="49.172914869202216" lon="2.5681162348680697"><ele>68.0</ele><time>2026-04-24T14:54:15.998Z</time></trkpt><trkpt lat="49.17284451247846" lon="2.568066602637541"><ele>68.0</ele><time>2026-04-24T14:54:17.998Z</time></trkpt><trkpt lat="49.17277359191091" lon="2.5680149527601"><ele>68.0</ele><time>2026-04-24T14:54:19.998Z</time></trkpt><trkpt lat="49.17270822424867" lon="2.567968279649041"><ele>68.0</ele><time>2026-04-24T14:54:21.998Z</time></trkpt><trkpt lat="49.172644175307965" lon="2.5679199328895606"><ele>68.0</ele><time>2026-04-24T14:54:23.998Z</time></trkpt><trkpt lat="49.17257063371907" lon="2.5678697605217566"><ele>68.0</ele><time>2026-04-24T14:54:25.998Z</time></trkpt><trkpt lat="49.1725050805575" lon="2.5678225376219035"><ele>68.0</ele><time>2026-04-24T14:54:27.998Z</time></trkpt><trkpt lat="49.17243864936901" lon="2.5677717683758887"><ele>68.0</ele><time>2026-04-24T14:54:29.998Z</time></trkpt><trkpt lat="49.1723811891379" lon="2.567731285265641"><ele>68.0</ele><time>2026-04-24T14:54:31.998Z</time></trkpt><trkpt lat="49.172296079181265" lon="2.5676797001176097"><ele>68.33333333333334</ele><time>2026-04-24T14:54:34.998Z</time></trkpt><trkpt lat="49.17223074304141" lon="2.567632222186825"><ele>68.66666666666667</ele><time>2026-04-24T14:54:36.998Z</time></trkpt><trkpt lat="49.17215493925417" lon="2.5675731307379115"><ele>69.0</ele><time>2026-04-24T14:54:39.998Z</time></trkpt><trkpt lat="49.17208811192496" lon="2.567520219148964"><ele>69.33333333333333</ele><time>2026-04-24T14:54:42.998Z</time></trkpt><trkpt lat="49.17200762474494" lon="2.567470976121897"><ele>69.66666666666666</ele><time>2026-04-24T14:54:45.997Z</time></trkpt><trkpt lat="49.171939972401375" lon="2.5674182972875745"><ele>70.0</ele><time>2026-04-24T14:54:48.997Z</time></trkpt><trkpt lat="49.17185506884347" lon="2.5673617114942426"><ele>70.0</ele><time>2026-04-24T14:54:51.997Z</time></trkpt><trkpt lat="49.17179787372317" lon="2.5673125858383705"><ele>70.0</ele><time>2026-04-24T14:54:53.997Z</time></trkpt><trkpt lat="49.17171746207684" lon="2.5672654344973997"><ele>70.0</ele><time>2026-04-24T14:54:56.997Z</time></trkpt><trkpt lat="49.171640814989125" lon="2.5672004378517927"><ele>70.0</ele><time>2026-04-24T14:54:59.997Z</time></trkpt><trkpt lat="49.17155576680356" lon="2.567141800278149"><ele>70.0</ele><time>2026-04-24T14:55:03Z</time></trkpt><trkpt lat="49.171476145676685" lon="2.567081353798852"><ele>70.0</ele><time>2026-04-24T14:55:06Z</time></trkpt><trkpt lat="49.17140787963274" lon="2.5670518719340154"><ele>70.28571428571429</ele><time>2026-04-24T14:55:08Z</time></trkpt><trkpt lat="49.17133821394734" lon="2.566997398889078"><ele>70.57142857142857</ele><time>2026-04-24T14:55:11Z</time></trkpt><trkpt lat="49.17127993834911" lon="2.5669514116409946"><ele>70.85714285714286</ele><time>2026-04-24T14:55:13Z</time></trkpt><trkpt lat="49.17120216900304" lon="2.5669050458269114"><ele>71.14285714285714</ele><time>2026-04-24T14:55:16Z</time></trkpt><trkpt lat="49.17113712335266" lon="2.5668499008472336"><ele>71.42857142857143</ele><time>2026-04-24T14:55:18Z</time></trkpt><trkpt lat="49.171070422071914" lon="2.5668227907892596"><ele>71.71428571428572</ele><time>2026-04-24T14:55:21Z</time></trkpt><trkpt lat="49.1710092143856" lon="2.5667476801235676"><ele>72.0</ele><time>2026-04-24T14:56:36.998Z</time></trkpt><trkpt lat="49.170937917863704" lon="2.566676007011331"><ele>72.0</ele><time>2026-04-24T14:56:39.998Z</time></trkpt><trkpt lat="49.1708665935658" lon="2.5666364575562044"><ele>72.0</ele><time>2026-04-24T14:56:42.998Z</time></trkpt><trkpt lat="49.17080466474898" lon="2.5666008152956867"><ele>72.0</ele><time>2026-04-24T14:56:44.997Z</time></trkpt><trkpt lat="49.17071835973286" lon="2.566540316428112"><ele>72.0</ele><time>2026-04-24T14:56:47.997Z</time></trkpt><trkpt lat="49.17065739892509" lon="2.566505944872931"><ele>72.0</ele><time>2026-04-24T14:56:49.997Z</time></trkpt><trkpt lat="49.17059425364108" lon="2.5664628392301316"><ele>72.0</ele><time>2026-04-24T14:56:51.997Z</time></trkpt><trkpt lat="49.17050315207338" lon="2.56639677439932"><ele>72.0</ele><time>2026-04-24T14:56:54.997Z</time></trkpt><trkpt lat="49.17042651292425" lon="2.5663481963632724"><ele>72.0</ele><time>2026-04-24T14:56:57.997Z</time></trkpt><trkpt lat="49.17036869335731" lon="2.566306783022522"><ele>72.0</ele><time>2026-04-24T14:56:59.997Z</time></trkpt><trkpt lat="49.170305442190006" lon="2.566262388123521"><ele>72.0</ele><time>2026-04-24T14:57:01.997Z</time></trkpt><trkpt lat="49.17023673508835" lon="2.566220163859751"><ele>72.0</ele><time>2026-04-24T14:57:03.997Z</time></trkpt><trkpt lat="49.170179566209036" lon="2.5661695834670994"><ele>72.0</ele><time>2026-04-24T14:57:05.997Z</time></trkpt><trkpt lat="49.17009595304303" lon="2.5661054816010784"><ele>72.00000000000001</ele><time>2026-04-24T14:57:09Z</time></trkpt><trkpt lat="49.170030774217416" lon="2.566057612846238"><ele>72.0</ele><time>2026-04-24T14:57:12Z</time></trkpt><trkpt lat="49.16997155447497" lon="2.5660166938939444"><ele>72.0</ele><time>2026-04-24T14:57:14Z</time></trkpt><trkpt lat="49.16989454299835" lon="2.5659542806898403"><ele>72.0</ele><time>2026-04-24T14:57:17Z</time></trkpt><trkpt lat="49.16982418386466" lon="2.5659066617562356"><ele>72.0</ele><time>2026-04-24T14:57:19Z</time></trkpt><trkpt lat="49.16976196258345" lon="2.5658482408594723"><ele>72.00000000000001</ele><time>2026-04-24T14:57:21Z</time></trkpt><trkpt lat="49.169697403272174" lon="2.56579780148752"><ele>72.0</ele><time>2026-04-24T14:57:23Z</time></trkpt><trkpt lat="49.16963702651792" lon="2.565754790725013"><ele>71.71428571428572</ele><time>2026-04-24T14:57:25Z</time></trkpt><trkpt lat="49.16956925165942" lon="2.565708365148134"><ele>71.42857142857143</ele><time>2026-04-24T14:57:27Z</time></trkpt><trkpt lat="49.169508869331224" lon="2.5656605215738275"><ele>71.14285714285714</ele><time>2026-04-24T14:57:29Z</time></trkpt><trkpt lat="49.16944227917302" lon="2.565610793661023"><ele>70.85714285714286</ele><time>2026-04-24T14:57:31Z</time></trkpt><trkpt lat="49.16936591559106" lon="2.5655576510452187"><ele>70.57142857142857</ele><time>2026-04-24T14:57:33Z</time></trkpt><trkpt lat="49.169296314624276" lon="2.565506063465432"><ele>70.28571428571429</ele><time>2026-04-24T14:57:35Z</time></trkpt><trkpt lat="49.169234708964716" lon="2.565456715343477"><ele>70.0</ele><time>2026-04-24T14:57:37Z</time></trkpt><trkpt lat="49.16917122839117" lon="2.5654119599047283"><ele>70.0</ele><time>2026-04-24T14:57:39Z</time></trkpt><trkpt lat="49.169103027030125" lon="2.5653680237085186"><ele>70.0</ele><time>2026-04-24T14:57:40.999Z</time></trkpt><trkpt lat="49.16903379993477" lon="2.5653218731594536"><ele>70.0</ele><time>2026-04-24T14:57:42.999Z</time></trkpt><trkpt lat="49.16896890901155" lon="2.5652755810313432"><ele>70.0</ele><time>2026-04-24T14:57:44.999Z</time></trkpt><trkpt lat="49.16889743304232" lon="2.565228487961923"><ele>70.0</ele><time>2026-04-24T14:57:46.999Z</time></trkpt><trkpt lat="49.16883505099148" lon="2.5651715167578146"><ele>70.0</ele><time>2026-04-24T14:57:48.999Z</time></trkpt><trkpt lat="49.16875899046722" lon="2.565128852317114"><ele>70.5</ele><time>2026-04-24T14:57:50.999Z</time></trkpt><trkpt lat="49.168696086538326" lon="2.565069644885964"><ele>71.0</ele><time>2026-04-24T14:57:52.999Z</time></trkpt><trkpt lat="49.16862791949622" lon="2.565020816608093"><ele>71.5</ele><time>2026-04-24T14:57:54.999Z</time></trkpt><trkpt lat="49.16855591183061" lon="2.56497943205252"><ele>72.0</ele><time>2026-04-24T14:57:56.999Z</time></trkpt><trkpt lat="49.16849126383018" lon="2.5649287473049958"><ele>72.5</ele><time>2026-04-24T14:57:58.999Z</time></trkpt><trkpt lat="49.16841728959679" lon="2.5648766413009176"><ele>73.0</ele><time>2026-04-24T14:58:00.999Z</time></trkpt><trkpt lat="49.168350072885524" lon="2.564825698154578"><ele>73.0</ele><time>2026-04-24T14:58:02.999Z</time></trkpt><trkpt lat="49.16828127487912" lon="2.564774455249096"><ele>73.0</ele><time>2026-04-24T14:58:04.999Z</time></trkpt><trkpt lat="49.16821076229918" lon="2.5647303712189844"><ele>73.0</ele><time>2026-04-24T14:58:06.999Z</time></trkpt><trkpt lat="49.168136741893974" lon="2.564684755833233"><ele>73.0</ele><time>2026-04-24T14:58:08.999Z</time></trkpt><trkpt lat="49.168068339511855" lon="2.5646389035082904"><ele>73.0</ele><time>2026-04-24T14:58:10.999Z</time></trkpt><trkpt lat="49.167984572957515" lon="2.5645779136486406"><ele>73.0</ele><time>2026-04-24T14:58:12.999Z</time></trkpt><trkpt lat="49.16790228175134" lon="2.564520103856238"><ele>72.6</ele><time>2026-04-24T14:58:14.999Z</time></trkpt><trkpt lat="49.16781719715236" lon="2.564453831914687"><ele>72.19999999999999</ele><time>2026-04-24T14:58:16.998Z</time></trkpt><trkpt lat="49.16773486317668" lon="2.564393701479293"><ele>71.8</ele><time>2026-04-24T14:58:18.998Z</time></trkpt><trkpt lat="49.167647451032316" lon="2.564332298414438"><ele>71.39999999999999</ele><time>2026-04-24T14:58:20.998Z</time></trkpt><trkpt lat="49.167562539541954" lon="2.5642632630393303"><ele>71.0</ele><time>2026-04-24T14:58:22.998Z</time></trkpt><trkpt lat="49.16747084371592" lon="2.564194576542487"><ele>71.0</ele><time>2026-04-24T14:58:24.998Z</time></trkpt><trkpt lat="49.16738143038394" lon="2.564130731298822"><ele>71.0</ele><time>2026-04-24T14:58:26.998Z</time></trkpt><trkpt lat="49.16729076289156" lon="2.5640629520240656"><ele>71.0</ele><time>2026-04-24T14:58:28.998Z</time></trkpt><trkpt lat="49.16720113204015" lon="2.563998611995965"><ele>71.0</ele><time>2026-04-24T14:58:30.998Z</time></trkpt><trkpt lat="49.16711129078064" lon="2.5639368294757956"><ele>71.0</ele><time>2026-04-24T14:58:32.998Z</time></trkpt><trkpt lat="49.16701746998097" lon="2.5638664637168613"><ele>71.0</ele><time>2026-04-24T14:58:34.998Z</time></trkpt><trkpt lat="49.166922953670195" lon="2.5638018471617348"><ele>71.0</ele><time>2026-04-24T14:58:36.998Z</time></trkpt><trkpt lat="49.16683236718447" lon="2.563738283279808"><ele>71.0</ele><time>2026-04-24T14:58:38.998Z</time></trkpt><trkpt lat="49.16674182093285" lon="2.563669918686214"><ele>71.0</ele><time>2026-04-24T14:58:40.998Z</time></trkpt><trkpt lat="49.16664135232014" lon="2.5635957946208157"><ele>71.0</ele><time>2026-04-24T14:58:42.998Z</time></trkpt><trkpt lat="49.16654235934678" lon="2.5635260430014624"><ele>71.2</ele><time>2026-04-24T14:58:44.998Z</time></trkpt><trkpt lat="49.16645273844246" lon="2.5634605231984793"><ele>71.39999999999999</ele><time>2026-04-24T14:58:46.998Z</time></trkpt><trkpt lat="49.16636595413398" lon="2.563406779092028"><ele>71.6</ele><time>2026-04-24T14:58:48.998Z</time></trkpt><trkpt lat="49.16626891266396" lon="2.5633321181575033"><ele>71.8</ele><time>2026-04-24T14:58:50.997Z</time></trkpt><trkpt lat="49.16617530634422" lon="2.56325948505246"><ele>72.0</ele><time>2026-04-24T14:58:52.997Z</time></trkpt><trkpt lat="49.16607713883723" lon="2.563198032679632"><ele>72.0</ele><time>2026-04-24T14:58:54.997Z</time></trkpt><trkpt lat="49.165983098376444" lon="2.563130567445106"><ele>72.0</ele><time>2026-04-24T14:58:56.997Z</time></trkpt><trkpt lat="49.165893713130586" lon="2.5630747952298183"><ele>72.0</ele><time>2026-04-24T14:58:58.997Z</time></trkpt><trkpt lat="49.165814706710286" lon="2.5630130211242332"><ele>72.0</ele><time>2026-04-24T14:59:00.997Z</time></trkpt><trkpt lat="49.16573535634864" lon="2.5629507367287703"><ele>72.0</ele><time>2026-04-24T14:59:02.997Z</time></trkpt><trkpt lat="49.16565079899566" lon="2.562893229189857"><ele>71.83333333333333</ele><time>2026-04-24T14:59:04.997Z</time></trkpt><trkpt lat="49.16556481416583" lon="2.562832187904147"><ele>71.66666666666667</ele><time>2026-04-24T14:59:06.997Z</time></trkpt><trkpt lat="49.165481964778174" lon="2.562777957680643"><ele>71.5</ele><time>2026-04-24T14:59:08.997Z</time></trkpt><trkpt lat="49.165410424091064" lon="2.562716599666513"><ele>71.33333333333334</ele><time>2026-04-24T14:59:10.997Z</time></trkpt><trkpt lat="49.16533250318004" lon="2.5626608818607552"><ele>71.16666666666667</ele><time>2026-04-24T14:59:12.997Z</time></trkpt><trkpt lat="49.165258179847385" lon="2.562602280261112"><ele>71.0</ele><time>2026-04-24T14:59:15Z</time></trkpt><trkpt lat="49.165189009688554" lon="2.5625527466793647"><ele>71.0</ele><time>2026-04-24T14:59:17Z</time></trkpt><trkpt lat="49.16511599500396" lon="2.5625028564649424"><ele>71.0</ele><time>2026-04-24T14:59:19Z</time></trkpt><trkpt lat="49.16504178566669" lon="2.5624461916172447"><ele>71.0</ele><time>2026-04-24T14:59:21Z</time></trkpt><trkpt lat="49.164965517904974" lon="2.5623898750488476"><ele>71.0</ele><time>2026-04-24T14:59:23Z</time></trkpt><trkpt lat="49.16488708302863" lon="2.562325875820772"><ele>71.0</ele><time>2026-04-24T14:59:25Z</time></trkpt><trkpt lat="49.16480963626442" lon="2.562279598329005"><ele>71.0</ele><time>2026-04-24T14:59:27Z</time></trkpt><trkpt lat="49.1647308429778" lon="2.562223191211943"><ele>71.16666666666667</ele><time>2026-04-24T14:59:29Z</time></trkpt><trkpt lat="49.164654602993096" lon="2.5621654341645677"><ele>71.33333333333334</ele><time>2026-04-24T14:59:31Z</time></trkpt><trkpt lat="49.164580789873" lon="2.562117284267037"><ele>71.5</ele><time>2026-04-24T14:59:33Z</time></trkpt><trkpt lat="49.164503206788936" lon="2.562068482260901"><ele>71.66666666666667</ele><time>2026-04-24T14:59:35Z</time></trkpt><trkpt lat="49.164431983274795" lon="2.5620148839843564"><ele>71.83333333333333</ele><time>2026-04-24T14:59:37Z</time></trkpt><trkpt lat="49.1643678516951" lon="2.561970467101437"><ele>72.0</ele><time>2026-04-24T14:59:39Z</time></trkpt><trkpt lat="49.164293316232495" lon="2.5619145069815783"><ele>71.66666666666667</ele><time>2026-04-24T14:59:41Z</time></trkpt><trkpt lat="49.16421011381104" lon="2.561855012891572"><ele>71.33333333333333</ele><time>2026-04-24T14:59:43Z</time></trkpt><trkpt lat="49.16414636982363" lon="2.561812741078298"><ele>71.0</ele><time>2026-04-24T14:59:45Z</time></trkpt><trkpt lat="49.16407698334286" lon="2.56175337721717"><ele>70.66666666666666</ele><time>2026-04-24T14:59:47Z</time></trkpt><trkpt lat="49.164019338701465" lon="2.5616350746789296"><ele>70.33333333333333</ele><time>2026-04-24T14:59:48.999Z</time></trkpt><trkpt lat="49.164012455733285" lon="2.561501087377831"><ele>70.0</ele><time>2026-04-24T14:59:50.999Z</time></trkpt><trkpt lat="49.16399578548422" lon="2.561383345987337"><ele>70.0</ele><time>2026-04-24T14:59:52.999Z</time></trkpt><trkpt lat="49.163984892993874" lon="2.561241474625232"><ele>70.0</ele><time>2026-04-24T14:59:55.999Z</time></trkpt><trkpt lat="49.16393649198778" lon="2.5611266262907617"><ele>70.0</ele><time>2026-04-24T14:59:57.999Z</time></trkpt><trkpt lat="49.163850140901395" lon="2.5610552554828385"><ele>70.0</ele><time>2026-04-24T14:59:59.999Z</time></trkpt><trkpt lat="49.16374869889424" lon="2.56104612932434"><ele>70.0</ele><time>2026-04-24T15:00:01.999Z</time></trkpt><trkpt lat="49.16365069745959" lon="2.5610369304238243"><ele>70.0</ele><time>2026-04-24T15:00:03.999Z</time></trkpt><trkpt lat="49.163547376172986" lon="2.5610260387244246"><ele>70.0</ele><time>2026-04-24T15:00:05.999Z</time></trkpt><trkpt lat="49.16347155526274" lon="2.561073142839672"><ele>70.0</ele><time>2026-04-24T15:00:07.999Z</time></trkpt><trkpt lat="49.16338726786918" lon="2.5610962632800764"><ele>70.0</ele><time>2026-04-24T15:00:09.999Z</time></trkpt><trkpt lat="49.163322942823775" lon="2.5611153387398145"><ele>70.0</ele><time>2026-04-24T15:00:11.999Z</time></trkpt><trkpt lat="49.16325476843425" lon="2.5611259455638837"><ele>70.0</ele><time>2026-04-24T15:00:13.999Z</time></trkpt><trkpt lat="49.16316340721154" lon="2.5610982559694255"><ele>69.5</ele><time>2026-04-24T15:00:16.999Z</time></trkpt><trkpt lat="49.16308755170852" lon="2.5610496614010794"><ele>69.0</ele><time>2026-04-24T15:00:19.999Z</time></trkpt><trkpt lat="49.163008885017405" lon="2.5609991206699285"><ele>68.5</ele><time>2026-04-24T15:00:21.999Z</time></trkpt><trkpt lat="49.162930753974386" lon="2.560949829450927"><ele>68.0</ele><time>2026-04-24T15:00:23.999Z</time></trkpt><trkpt lat="49.16287682055626" lon="2.5608921238286357"><ele>67.5</ele><time>2026-04-24T15:00:25.998Z</time></trkpt><trkpt lat="49.16280965835811" lon="2.5608447313306026"><ele>67.0</ele><time>2026-04-24T15:00:27.998Z</time></trkpt><trkpt lat="49.162726375912584" lon="2.560788508765385"><ele>67.0</ele><time>2026-04-24T15:00:29.998Z</time></trkpt><trkpt lat="49.162640962903396" lon="2.5607358996229985"><ele>67.0</ele><time>2026-04-24T15:00:31.998Z</time></trkpt><trkpt lat="49.16257637343474" lon="2.5606947481878497"><ele>67.0</ele><time>2026-04-24T15:00:33.998Z</time></trkpt><trkpt lat="49.16249484502629" lon="2.5606301869547"><ele>67.0</ele><time>2026-04-24T15:00:35.998Z</time></trkpt><trkpt lat="49.16234172774133" lon="2.5605305921421815"><ele>67.0</ele><time>2026-04-24T15:00:39.998Z</time></trkpt><trkpt lat="49.162269268540356" lon="2.5604692620898866"><ele>66.83333333333333</ele><time>2026-04-24T15:00:41.998Z</time></trkpt><trkpt lat="49.162178124672984" lon="2.560400847641095"><ele>66.66666666666666</ele><time>2026-04-24T15:00:43.998Z</time></trkpt><trkpt lat="49.16210602377699" lon="2.5603542191042283"><ele>66.5</ele><time>2026-04-24T15:00:45.998Z</time></trkpt><trkpt lat="49.16202699991211" lon="2.5602920886365754"><ele>66.33333333333333</ele><time>2026-04-24T15:00:47.998Z</time></trkpt><trkpt lat="49.16194524676522" lon="2.560230401677018"><ele>66.16666666666667</ele><time>2026-04-24T15:00:49.998Z</time></trkpt><trkpt lat="49.161870352719916" lon="2.5601826508541166"><ele>66.0</ele><time>2026-04-24T15:00:51.998Z</time></trkpt><trkpt lat="49.16178809920345" lon="2.5601196605855447"><ele>66.0</ele><time>2026-04-24T15:00:53.998Z</time></trkpt><trkpt lat="49.16170211339807" lon="2.560051423718017"><ele>66.0</ele><time>2026-04-24T15:00:55.998Z</time></trkpt><trkpt lat="49.16162438063271" lon="2.5599943443273445"><ele>66.0</ele><time>2026-04-24T15:00:57.998Z</time></trkpt><trkpt lat="49.1615477151029" lon="2.559938029477419"><ele>66.0</ele><time>2026-04-24T15:00:59.997Z</time></trkpt><trkpt lat="49.16147882641136" lon="2.5598980700299405"><ele>66.0</ele><time>2026-04-24T15:01:01.997Z</time></trkpt><trkpt lat="49.16139371530995" lon="2.5598318204261923"><ele>66.0</ele><time>2026-04-24T15:01:03.997Z</time></trkpt><trkpt lat="49.161308086692884" lon="2.559773670783966"><ele>65.83333333333333</ele><time>2026-04-24T15:01:05.997Z</time></trkpt><trkpt lat="49.16122247626735" lon="2.5597174608516395"><ele>65.66666666666667</ele><time>2026-04-24T15:01:07.997Z</time></trkpt><trkpt lat="49.16114398030645" lon="2.5596669625220594"><ele>65.5</ele><time>2026-04-24T15:01:09.997Z</time></trkpt><trkpt lat="49.16106223462015" lon="2.5596117079847462"><ele>65.33333333333334</ele><time>2026-04-24T15:01:11.997Z</time></trkpt><trkpt lat="49.16098407653929" lon="2.559557887914209"><ele>65.16666666666667</ele><time>2026-04-24T15:01:13.997Z</time></trkpt><trkpt lat="49.160904330106604" lon="2.559502648654602"><ele>65.0</ele><time>2026-04-24T15:01:15.997Z</time></trkpt><trkpt lat="49.16083501470897" lon="2.5594546627072474"><ele>65.5</ele><time>2026-04-24T15:01:17.997Z</time></trkpt><trkpt lat="49.160769252156285" lon="2.5594061558584884"><ele>66.0</ele><time>2026-04-24T15:01:19.997Z</time></trkpt><trkpt lat="49.16070506481036" lon="2.559367336153953"><ele>66.5</ele><time>2026-04-24T15:01:22Z</time></trkpt><trkpt lat="49.160627195387455" lon="2.5593074578573205"><ele>67.0</ele><time>2026-04-24T15:01:25Z</time></trkpt><trkpt lat="49.16055789683142" lon="2.559228764661349"><ele>67.5</ele><time>2026-04-24T15:01:28Z</time></trkpt><trkpt lat="49.160503509666256" lon="2.559144391409476"><ele>68.0</ele><time>2026-04-24T15:01:31Z</time></trkpt><trkpt lat="49.160432530901765" lon="2.5591058158644078"><ele>68.28571428571428</ele><time>2026-04-24T15:13:46.997Z</time></trkpt><trkpt lat="49.16037748706356" lon="2.5590548213322086"><ele>68.57142857142857</ele><time>2026-04-24T15:13:49.997Z</time></trkpt><trkpt lat="49.16031145576697" lon="2.559009083753771"><ele>68.85714285714286</ele><time>2026-04-24T15:13:52.997Z</time></trkpt><trkpt lat="49.160251567197825" lon="2.5589772042076073"><ele>69.14285714285714</ele><time>2026-04-24T15:13:55.997Z</time></trkpt><trkpt lat="49.16018365343728" lon="2.558953980488223"><ele>69.42857142857143</ele><time>2026-04-24T15:13:58Z</time></trkpt><trkpt lat="49.160128196550744" lon="2.5588944265269995"><ele>69.71428571428571</ele><time>2026-04-24T15:14:00Z</time></trkpt><trkpt lat="49.16006483682175" lon="2.558783704919422"><ele>70.0</ele><time>2026-04-24T15:14:03Z</time></trkpt><trkpt lat="49.16002718479877" lon="2.5586827272388737"><ele>70.16666666666666</ele><time>2026-04-24T15:14:05Z</time></trkpt><trkpt lat="49.160011246125755" lon="2.5585727226178845"><ele>70.33333333333333</ele><time>2026-04-24T15:14:07Z</time></trkpt><trkpt lat="49.15999210581721" lon="2.5584638378380595"><ele>70.5</ele><time>2026-04-24T15:14:09Z</time></trkpt><trkpt lat="49.15994911957176" lon="2.558330414392742"><ele>70.66666666666667</ele><time>2026-04-24T15:14:12Z</time></trkpt><trkpt lat="49.15989863581602" lon="2.5582011299085496"><ele>70.83333333333334</ele><time>2026-04-24T15:14:15Z</time></trkpt><trkpt lat="49.1598476820587" lon="2.558092675240425"><ele>71.0</ele><time>2026-04-24T15:14:17Z</time></trkpt><trkpt lat="49.15981308498238" lon="2.5579966176366993"><ele>71.0</ele><time>2026-04-24T15:14:19Z</time></trkpt><trkpt lat="49.1597830979999" lon="2.5578590434533934"><ele>71.0</ele><time>2026-04-24T15:14:22Z</time></trkpt><trkpt lat="49.15975877094302" lon="2.5577305107416195"><ele>71.0</ele><time>2026-04-24T15:14:25Z</time></trkpt><trkpt lat="49.15975184388888" lon="2.5576337165595344"><ele>71.0</ele><time>2026-04-24T15:14:27Z</time></trkpt><trkpt lat="49.15974937851167" lon="2.557531827767048"><ele>71.0</ele><time>2026-04-24T15:14:29Z</time></trkpt><trkpt lat="49.15973153462155" lon="2.557428530283141"><ele>71.0</ele><time>2026-04-24T15:14:31Z</time></trkpt><trkpt lat="49.159704937082466" lon="2.557289439564608"><ele>71.0</ele><time>2026-04-24T15:14:34Z</time></trkpt><trkpt lat="49.15969556871045" lon="2.5571900492255675"><ele>71.0</ele><time>2026-04-24T15:14:35.999Z</time></trkpt><trkpt lat="49.15966778125225" lon="2.557101243416919"><ele>71.0</ele><time>2026-04-24T15:14:37.999Z</time></trkpt><trkpt lat="49.159631201547356" lon="2.5569981857210946"><ele>71.0</ele><time>2026-04-24T15:14:39.999Z</time></trkpt><trkpt lat="49.159601091726714" lon="2.5569048614514824"><ele>71.0</ele><time>2026-04-24T15:14:41.999Z</time></trkpt><trkpt lat="49.159588379374675" lon="2.5567627981056296"><ele>71.0</ele><time>2026-04-24T15:14:44.999Z</time></trkpt><trkpt lat="49.15955934947562" lon="2.556612412999699"><ele>70.66666666666667</ele><time>2026-04-24T15:14:47.999Z</time></trkpt><trkpt lat="49.15954083820926" lon="2.556508221036652"><ele>70.33333333333334</ele><time>2026-04-24T15:14:49.999Z</time></trkpt><trkpt lat="49.159540821883446" lon="2.5564059686002722"><ele>70.0</ele><time>2026-04-24T15:14:51.999Z</time></trkpt><trkpt lat="49.15953963551363" lon="2.5562604794110024"><ele>69.66666666666667</ele><time>2026-04-24T15:14:54.999Z</time></trkpt><trkpt lat="49.15952778178418" lon="2.556148592784482"><ele>69.33333333333333</ele><time>2026-04-24T15:14:56.999Z</time></trkpt><trkpt lat="49.15951285264364" lon="2.5560401013018237"><ele>69.0</ele><time>2026-04-24T15:14:58.999Z</time></trkpt><trkpt lat="49.15951643719774" lon="2.555927397925342"><ele>69.0</ele><time>2026-04-24T15:15:00.999Z</time></trkpt><trkpt lat="49.15949816489527" lon="2.5558112048302886"><ele>69.0</ele><time>2026-04-24T15:15:02.999Z</time></trkpt><trkpt lat="49.15946881078565" lon="2.5557107667451215"><ele>69.0</ele><time>2026-04-24T15:15:04.999Z</time></trkpt><trkpt lat="49.15944242379864" lon="2.555611929261421"><ele>69.0</ele><time>2026-04-24T15:15:06.999Z</time></trkpt><trkpt lat="49.15941938098524" lon="2.555517055594273"><ele>69.0</ele><time>2026-04-24T15:15:08.999Z</time></trkpt><trkpt lat="49.15937288128014" lon="2.55538069906815"><ele>69.0</ele><time>2026-04-24T15:15:10.999Z</time></trkpt><trkpt lat="49.15933014637499" lon="2.55525267826766"><ele>69.16666666666667</ele><time>2026-04-24T15:15:12.999Z</time></trkpt><trkpt lat="49.15929716280452" lon="2.5551105122761606"><ele>69.33333333333333</ele><time>2026-04-24T15:15:14.999Z</time></trkpt><trkpt lat="49.159259557306264" lon="2.5549846437196595"><ele>69.5</ele><time>2026-04-24T15:15:16.998Z</time></trkpt><trkpt lat="49.1592386736162" lon="2.554866242250464"><ele>69.66666666666666</ele><time>2026-04-24T15:15:18.998Z</time></trkpt><trkpt lat="49.15918449730732" lon="2.5547684144877123"><ele>69.83333333333333</ele><time>2026-04-24T15:15:20.998Z</time></trkpt><trkpt lat="49.15912909220949" lon="2.554676025188166"><ele>70.0</ele><time>2026-04-24T15:15:22.998Z</time></trkpt><trkpt lat="49.15905895083205" lon="2.5545958953452628"><ele>69.5</ele><time>2026-04-24T15:15:24.998Z</time></trkpt><trkpt lat="49.159008324025905" lon="2.5544984636056065"><ele>69.0</ele><time>2026-04-24T15:15:26.998Z</time></trkpt><trkpt lat="49.158937853652134" lon="2.5544242750110127"><ele>68.5</ele><time>2026-04-24T15:15:28.998Z</time></trkpt><trkpt lat="49.1588884731767" lon="2.554319676348598"><ele>68.0</ele><time>2026-04-24T15:15:30.998Z</time></trkpt><trkpt lat="49.15882874788919" lon="2.554212976400871"><ele>67.5</ele><time>2026-04-24T15:15:32.998Z</time></trkpt><trkpt lat="49.15876978851519" lon="2.554104929418169"><ele>67.0</ele><time>2026-04-24T15:15:34.998Z</time></trkpt><trkpt lat="49.158714238659655" lon="2.554004259797844"><ele>67.0</ele><time>2026-04-24T15:15:36.998Z</time></trkpt><trkpt lat="49.15864915772011" lon="2.5538902893970667"><ele>67.0</ele><time>2026-04-24T15:15:38.998Z</time></trkpt><trkpt lat="49.158594296828774" lon="2.553789683455088"><ele>67.0</ele><time>2026-04-24T15:15:40.998Z</time></trkpt><trkpt lat="49.15855351913926" lon="2.553684739830165"><ele>67.0</ele><time>2026-04-24T15:15:42.998Z</time></trkpt><trkpt lat="49.15850432218083" lon="2.5535740742275275"><ele>67.0</ele><time>2026-04-24T15:15:44.998Z</time></trkpt><trkpt lat="49.15843655098549" lon="2.5534513154973073"><ele>67.0</ele><time>2026-04-24T15:15:46.998Z</time></trkpt><trkpt lat="49.15838689576912" lon="2.553331243680117"><ele>67.0</ele><time>2026-04-24T15:15:48.998Z</time></trkpt><trkpt lat="49.15834815122121" lon="2.5531954402772308"><ele>67.0</ele><time>2026-04-24T15:15:50.998Z</time></trkpt><trkpt lat="49.15830966199219" lon="2.5530827872679276"><ele>67.0</ele><time>2026-04-24T15:15:52.998Z</time></trkpt><trkpt lat="49.15825619582623" lon="2.552949381961214"><ele>67.0</ele><time>2026-04-24T15:15:54.997Z</time></trkpt><trkpt lat="49.1582090125135" lon="2.552835768133445"><ele>66.4</ele><time>2026-04-24T15:15:56.997Z</time></trkpt><trkpt lat="49.15814651267871" lon="2.552707133727901"><ele>65.80000000000001</ele><time>2026-04-24T15:15:58.997Z</time></trkpt><trkpt lat="49.15807617411834" lon="2.5526218859414644"><ele>65.2</ele><time>2026-04-24T15:16:00.997Z</time></trkpt><trkpt lat="49.15800265268687" lon="2.5525587963677268"><ele>64.60000000000001</ele><time>2026-04-24T15:16:03Z</time></trkpt><trkpt lat="49.15792614628893" lon="2.5524743830209906"><ele>64.0</ele><time>2026-04-24T15:16:05Z</time></trkpt><trkpt lat="49.15782769389265" lon="2.5524037260355406"><ele>63.99999999999999</ele><time>2026-04-24T15:16:07Z</time></trkpt><trkpt lat="49.1577543077661" lon="2.552330860122557"><ele>64.0</ele><time>2026-04-24T15:16:09Z</time></trkpt><trkpt lat="49.15767678808896" lon="2.552261890619112"><ele>64.0</ele><time>2026-04-24T15:16:11Z</time></trkpt><trkpt lat="49.15760316817436" lon="2.5521899741797127"><ele>64.0</ele><time>2026-04-24T15:16:13Z</time></trkpt><trkpt lat="49.157542248611186" lon="2.5521042957060134"><ele>63.99999999999999</ele><time>2026-04-24T15:16:15Z</time></trkpt><trkpt lat="49.15747349231425" lon="2.552030784926196"><ele>64.0</ele><time>2026-04-24T15:16:17Z</time></trkpt><trkpt lat="49.15739040950269" lon="2.551969778706357"><ele>62.83333333333333</ele><time>2026-04-24T15:16:19Z</time></trkpt><trkpt lat="49.15729690395462" lon="2.551905898787581"><ele>61.666666666666664</ele><time>2026-04-24T15:16:21Z</time></trkpt><trkpt lat="49.15721451207479" lon="2.551861125046988"><ele>60.5</ele><time>2026-04-24T15:16:23Z</time></trkpt><trkpt lat="49.157146445466644" lon="2.551803499742562"><ele>59.33333333333333</ele><time>2026-04-24T15:16:25Z</time></trkpt><trkpt lat="49.157148649258595" lon="2.5516936443545735"><ele>58.166666666666664</ele><time>2026-04-24T15:16:27Z</time></trkpt><trkpt lat="49.15717469698671" lon="2.551591564695749"><ele>57.0</ele><time>2026-04-24T15:16:29Z</time></trkpt><trkpt lat="49.157180803750855" lon="2.5514727163817335"><ele>57.0</ele><time>2026-04-24T15:16:31Z</time></trkpt><trkpt lat="49.15711090586557" lon="2.5514103128786116"><ele>57.0</ele><time>2026-04-24T15:16:33Z</time></trkpt><trkpt lat="49.1570363986895" lon="2.551394697581046"><ele>57.0</ele><time>2026-04-24T15:16:35Z</time></trkpt><trkpt lat="49.15697268355135" lon="2.551375549156259"><ele>57.0</ele><time>2026-04-24T15:16:37Z</time></trkpt><trkpt lat="49.15691268064476" lon="2.551293353531537"><ele>57.0</ele><time>2026-04-24T15:16:39Z</time></trkpt><trkpt lat="49.15684840114113" lon="2.551235207250971"><ele>57.0</ele><time>2026-04-24T15:16:41Z</time></trkpt><trkpt lat="49.15675883726582" lon="2.551178655491745"><ele>57.0</ele><time>2026-04-24T15:16:43Z</time></trkpt><trkpt lat="49.156671023638005" lon="2.5511482617472385"><ele>57.0</ele><time>2026-04-24T15:16:45Z</time></trkpt><trkpt lat="49.15664687118793" lon="2.5512611912607954"><ele>57.0</ele><time>2026-04-24T15:16:47Z</time></trkpt><trkpt lat="49.156582812426706" lon="2.5513175950145683"><ele>57.0</ele><time>2026-04-24T15:16:50.999Z</time></trkpt><trkpt lat="49.156501236804324" lon="2.5512576531817017"><ele>57.0</ele><time>2026-04-24T15:16:52.999Z</time></trkpt><trkpt lat="49.15642007808777" lon="2.5512281405598833"><ele>57.0</ele><time>2026-04-24T15:16:54.999Z</time></trkpt><trkpt lat="49.156338403465114" lon="2.5511916930180174"><ele>56.666666666666664</ele><time>2026-04-24T15:16:56.999Z</time></trkpt><trkpt lat="49.15624762059856" lon="2.5511600381361843"><ele>56.33333333333333</ele><time>2026-04-24T15:16:58.999Z</time></trkpt><trkpt lat="49.15616907832965" lon="2.551120044488801"><ele>56.0</ele><time>2026-04-24T15:17:00.999Z</time></trkpt><trkpt lat="49.15608943661237" lon="2.5510772699042072"><ele>55.666666666666664</ele><time>2026-04-24T15:17:02.999Z</time></trkpt><trkpt lat="49.15600862538431" lon="2.551034132342395"><ele>55.33333333333333</ele><time>2026-04-24T15:17:04.999Z</time></trkpt><trkpt lat="49.15593231902087" lon="2.550995059429084"><ele>55.0</ele><time>2026-04-24T15:17:06.999Z</time></trkpt><trkpt lat="49.15585776397974" lon="2.5509592255222557"><ele>54.99999999999999</ele><time>2026-04-24T15:17:08.999Z</time></trkpt><trkpt lat="49.155789105560814" lon="2.5509231683015834"><ele>55.0</ele><time>2026-04-24T15:17:10.999Z</time></trkpt><trkpt lat="49.15571958828515" lon="2.5508866072545158"><ele>55.0</ele><time>2026-04-24T15:17:12.999Z</time></trkpt><trkpt lat="49.15564566157871" lon="2.5508401287726725"><ele>55.0</ele><time>2026-04-24T15:17:14.999Z</time></trkpt><trkpt lat="49.155571165918786" lon="2.550801815236423"><ele>54.99999999999999</ele><time>2026-04-24T15:17:16.999Z</time></trkpt><trkpt lat="49.15549875934867" lon="2.5507532984560584"><ele>55.0</ele><time>2026-04-24T15:17:18.999Z</time></trkpt><trkpt lat="49.15542626155521" lon="2.550712980529226"><ele>54.83333333333333</ele><time>2026-04-24T15:17:20.999Z</time></trkpt><trkpt lat="49.155357201208744" lon="2.5506715684686014"><ele>54.666666666666664</ele><time>2026-04-24T15:17:22.999Z</time></trkpt><trkpt lat="49.155296250015645" lon="2.550626149494079"><ele>54.5</ele><time>2026-04-24T15:17:24.999Z</time></trkpt><trkpt lat="49.15523945106868" lon="2.5505827488863395"><ele>54.33333333333333</ele><time>2026-04-24T15:17:26.999Z</time></trkpt><trkpt lat="49.15515664968794" lon="2.550526565093173"><ele>54.166666666666664</ele><time>2026-04-24T15:17:29.998Z</time></trkpt><trkpt lat="49.15507409955492" lon="2.5504748046079317"><ele>54.0</ele><time>2026-04-24T15:17:32.998Z</time></trkpt><trkpt lat="49.15499286030044" lon="2.550473143040091"><ele>54.0</ele><time>2026-04-24T15:17:35.998Z</time></trkpt><trkpt lat="49.15491421838461" lon="2.5504073599579913"><ele>54.0</ele><time>2026-04-24T15:17:38.998Z</time></trkpt><trkpt lat="49.154832195697374" lon="2.550359461760995"><ele>54.0</ele><time>2026-04-24T15:17:41.998Z</time></trkpt><trkpt lat="49.154744280753334" lon="2.550366187066817"><ele>54.0</ele><time>2026-04-24T15:17:44.998Z</time></trkpt><trkpt lat="49.15468021168105" lon="2.550418533353372"><ele>54.0</ele><time>2026-04-24T15:17:48.998Z</time></trkpt><trkpt lat="49.154610855416905" lon="2.5504624742035835"><ele>54.0</ele><time>2026-04-24T15:17:52.998Z</time></trkpt><trkpt lat="49.15455069736868" lon="2.5505254547812437"><ele>54.333333333333336</ele><time>2026-04-24T15:17:55.998Z</time></trkpt><trkpt lat="49.15448695776024" lon="2.5504160778317453"><ele>54.66666666666667</ele><time>2026-04-24T15:17:59.998Z</time></trkpt><trkpt lat="49.1544225119736" lon="2.5504406625365137"><ele>55.0</ele><time>2026-04-24T15:18:01.998Z</time></trkpt><trkpt lat="49.15436227245073" lon="2.550503376789022"><ele>55.333333333333336</ele><time>2026-04-24T15:18:03.998Z</time></trkpt><trkpt lat="49.15428021996036" lon="2.5505596739759873"><ele>55.66666666666667</ele><time>2026-04-24T15:18:06.997Z</time></trkpt><trkpt lat="49.15422431271543" lon="2.55060723691266"><ele>56.0</ele><time>2026-04-24T15:18:09.001Z</time></trkpt><trkpt lat="49.15414118742104" lon="2.5506330037384735"><ele>56.00000000000001</ele><time>2026-04-24T15:18:12.001Z</time></trkpt><trkpt lat="49.15405777504675" lon="2.5506361901426726"><ele>56.0</ele><time>2026-04-24T15:18:15.001Z</time></trkpt><trkpt lat="49.153974413025146" lon="2.550600271436836"><ele>56.0</ele><time>2026-04-24T15:18:18.001Z</time></trkpt><trkpt lat="49.15389808594678" lon="2.550522187773951"><ele>56.0</ele><time>2026-04-24T15:18:21.001Z</time></trkpt><trkpt lat="49.15385044119085" lon="2.5504571824820603"><ele>56.00000000000001</ele><time>2026-04-24T15:18:23.001Z</time></trkpt><trkpt lat="49.153796194889765" lon="2.550402033431935"><ele>56.0</ele><time>2026-04-24T15:18:25.001Z</time></trkpt><trkpt lat="49.153749013593796" lon="2.5503344520575366"><ele>56.599999999999994</ele><time>2026-04-24T15:18:27.001Z</time></trkpt><trkpt lat="49.153673045272306" lon="2.5502492103151333"><ele>57.199999999999996</ele><time>2026-04-24T15:18:30Z</time></trkpt><trkpt lat="49.153603762511274" lon="2.55016238292996"><ele>57.800000000000004</ele><time>2026-04-24T15:18:33Z</time></trkpt><trkpt lat="49.15352476575718" lon="2.550101059961396"><ele>58.400000000000006</ele><time>2026-04-24T15:18:36Z</time></trkpt><trkpt lat="49.15345222594776" lon="2.550018976976638"><ele>59.0</ele><time>2026-04-24T15:18:39Z</time></trkpt><trkpt lat="49.153381041871604" lon="2.5499297143009385"><ele>59.00000000000001</ele><time>2026-04-24T15:18:42Z</time></trkpt><trkpt lat="49.153310146135944" lon="2.5498489944103424"><ele>59.0</ele><time>2026-04-24T15:18:45Z</time></trkpt><trkpt lat="49.15323276608839" lon="2.5497717579037245"><ele>59.0</ele><time>2026-04-24T15:18:48Z</time></trkpt><trkpt lat="49.15316327180987" lon="2.54968812603709"><ele>59.0</ele><time>2026-04-24T15:18:51Z</time></trkpt><trkpt lat="49.15310910187432" lon="2.549634096392866"><ele>59.00000000000001</ele><time>2026-04-24T15:18:53Z</time></trkpt><trkpt lat="49.15305088697531" lon="2.5495743226744083"><ele>59.0</ele><time>2026-04-24T15:18:55Z</time></trkpt><trkpt lat="49.15296651468393" lon="2.5495176123019445"><ele>59.00000000000001</ele><time>2026-04-24T15:18:58Z</time></trkpt><trkpt lat="49.152903227866354" lon="2.549476091795095"><ele>59.0</ele><time>2026-04-24T15:19:00Z</time></trkpt><trkpt lat="49.15284114368094" lon="2.5494382463349523"><ele>59.0</ele><time>2026-04-24T15:19:01.999Z</time></trkpt><trkpt lat="49.15275533390324" lon="2.5493945349984526"><ele>59.0</ele><time>2026-04-24T15:19:04.999Z</time></trkpt><trkpt lat="49.1526751996672" lon="2.5494541393877546"><ele>59.00000000000001</ele><time>2026-04-24T15:19:07.999Z</time></trkpt><trkpt lat="49.152645641924515" lon="2.549548015305731"><ele>59.0</ele><time>2026-04-24T15:19:09.999Z</time></trkpt><trkpt lat="49.15260079646162" lon="2.5496705116268044"><ele>59.0</ele><time>2026-04-24T15:19:12.999Z</time></trkpt><trkpt lat="49.15255965235597" lon="2.549794776071764"><ele>59.0</ele><time>2026-04-24T15:19:15.999Z</time></trkpt><trkpt lat="49.15252435037945" lon="2.5498757198863533"><ele>59.0</ele><time>2026-04-24T15:19:17.999Z</time></trkpt><trkpt lat="49.1524906585032" lon="2.549967361819585"><ele>59.0</ele><time>2026-04-24T15:19:19.999Z</time></trkpt><trkpt lat="49.15246030719229" lon="2.550059017622977"><ele>59.0</ele><time>2026-04-24T15:19:21.999Z</time></trkpt><trkpt lat="49.152425258445284" lon="2.5501520999489147"><ele>59.0</ele><time>2026-04-24T15:19:23.999Z</time></trkpt><trkpt lat="49.15239531083114" lon="2.5502399143363204"><ele>59.0</ele><time>2026-04-24T15:19:25.999Z</time></trkpt><trkpt lat="49.152370065895866" lon="2.550331561134565"><ele>59.14285714285714</ele><time>2026-04-24T15:19:27.999Z</time></trkpt><trkpt lat="49.15233317839339" lon="2.550417810158502"><ele>59.28571428571429</ele><time>2026-04-24T15:19:29.999Z</time></trkpt><trkpt lat="49.15230608998701" lon="2.5505058879947664"><ele>59.42857142857143</ele><time>2026-04-24T15:19:31.999Z</time></trkpt><trkpt lat="49.15227090089381" lon="2.550593558822053"><ele>59.57142857142857</ele><time>2026-04-24T15:19:33.999Z</time></trkpt><trkpt lat="49.15223088651836" lon="2.550684428379468"><ele>59.71428571428571</ele><time>2026-04-24T15:19:35.999Z</time></trkpt><trkpt lat="49.152194130616365" lon="2.550779958465443"><ele>59.85714285714286</ele><time>2026-04-24T15:19:37.999Z</time></trkpt><trkpt lat="49.1521578362936" lon="2.5508697136392113"><ele>60.0</ele><time>2026-04-24T15:19:39.998Z</time></trkpt><trkpt lat="49.15211534665685" lon="2.5509588617222394"><ele>60.0</ele><time>2026-04-24T15:19:41.998Z</time></trkpt><trkpt lat="49.152073545957016" lon="2.551057653940119"><ele>60.0</ele><time>2026-04-24T15:19:43.998Z</time></trkpt><trkpt lat="49.15203155061351" lon="2.5511459423842258"><ele>60.0</ele><time>2026-04-24T15:19:45.998Z</time></trkpt><trkpt lat="49.15199426100319" lon="2.551246108116829"><ele>60.0</ele><time>2026-04-24T15:19:47.998Z</time></trkpt><trkpt lat="49.15196018248465" lon="2.5513525449505225"><ele>60.0</ele><time>2026-04-24T15:19:49.998Z</time></trkpt><trkpt lat="49.151929980720986" lon="2.551452438984304"><ele>60.0</ele><time>2026-04-24T15:19:51.998Z</time></trkpt><trkpt lat="49.15189632429807" lon="2.551553461812817"><ele>60.0</ele><time>2026-04-24T15:19:53.998Z</time></trkpt><trkpt lat="49.15186102553691" lon="2.5516414591396424"><ele>60.0</ele><time>2026-04-24T15:19:55.998Z</time></trkpt><trkpt lat="49.1518236262241" lon="2.5517312825007195"><ele>60.0</ele><time>2026-04-24T15:19:57.998Z</time></trkpt><trkpt lat="49.15178571444783" lon="2.5518211782646243"><ele>60.0</ele><time>2026-04-24T15:19:59.998Z</time></trkpt><trkpt lat="49.151749522375354" lon="2.551905521210648"><ele>60.0</ele><time>2026-04-24T15:20:01.998Z</time></trkpt><trkpt lat="49.15169516786008" lon="2.5520170710008907"><ele>60.0</ele><time>2026-04-24T15:20:04.998Z</time></trkpt><trkpt lat="49.151643792313756" lon="2.5521108422304"><ele>60.0</ele><time>2026-04-24T15:20:07.998Z</time></trkpt><trkpt lat="49.15158565159577" lon="2.5522235071817363"><ele>59.85714285714286</ele><time>2026-04-24T15:20:10.998Z</time></trkpt><trkpt lat="49.15154131613147" lon="2.5523031445633926"><ele>59.71428571428571</ele><time>2026-04-24T15:20:12.998Z</time></trkpt><trkpt lat="49.15150605470374" lon="2.5523910978889974"><ele>59.57142857142857</ele><time>2026-04-24T15:20:15.001Z</time></trkpt><trkpt lat="49.15146928419834" lon="2.5524764629065677"><ele>59.42857142857143</ele><time>2026-04-24T15:20:17.001Z</time></trkpt><trkpt lat="49.151430458251205" lon="2.55255817734779"><ele>59.28571428571429</ele><time>2026-04-24T15:20:19.001Z</time></trkpt><trkpt lat="49.15138644616646" lon="2.5526335744868853"><ele>59.14285714285714</ele><time>2026-04-24T15:20:21.001Z</time></trkpt><trkpt lat="49.151349281168216" lon="2.5527150854531064"><ele>59.0</ele><time>2026-04-24T15:20:23.001Z</time></trkpt><trkpt lat="49.15131768110613" lon="2.552801871702611"><ele>58.857142857142854</ele><time>2026-04-24T15:20:25.001Z</time></trkpt><trkpt lat="49.151283592166415" lon="2.552892170197029"><ele>58.71428571428572</ele><time>2026-04-24T15:20:27.001Z</time></trkpt><trkpt lat="49.151245951223814" lon="2.552983141903145"><ele>58.57142857142858</ele><time>2026-04-24T15:20:29.001Z</time></trkpt><trkpt lat="49.15120531711365" lon="2.5530690847930626"><ele>58.42857142857143</ele><time>2026-04-24T15:20:31.001Z</time></trkpt><trkpt lat="49.15116421144607" lon="2.553155742574635"><ele>58.28571428571429</ele><time>2026-04-24T15:20:33.001Z</time></trkpt><trkpt lat="49.15112522992812" lon="2.553241019951769"><ele>58.14285714285715</ele><time>2026-04-24T15:20:35.001Z</time></trkpt><trkpt lat="49.15108630731015" lon="2.553318763854302"><ele>58.00000000000001</ele><time>2026-04-24T15:20:37Z</time></trkpt><trkpt lat="49.15104239894208" lon="2.5534304350771615"><ele>57.99999999999999</ele><time>2026-04-24T15:20:40Z</time></trkpt><trkpt lat="49.15101241921532" lon="2.553525480845332"><ele>58.0</ele><time>2026-04-24T15:20:43Z</time></trkpt><trkpt lat="49.15096059111958" lon="2.553616568242224"><ele>58.0</ele><time>2026-04-24T15:21:22.999Z</time></trkpt><trkpt lat="49.15091579141015" lon="2.5537172289127663"><ele>58.0</ele><time>2026-04-24T15:21:25.999Z</time></trkpt><trkpt lat="49.15088072997673" lon="2.5537986908533408"><ele>57.99999999999999</ele><time>2026-04-24T15:21:27.999Z</time></trkpt><trkpt lat="49.150816399292935" lon="2.55391016897801"><ele>58.0</ele><time>2026-04-24T15:21:30.999Z</time></trkpt><trkpt lat="49.15077295295508" lon="2.553989949597938"><ele>58.14285714285715</ele><time>2026-04-24T15:21:32.999Z</time></trkpt><trkpt lat="49.15072067537284" lon="2.5540693444933966"><ele>58.28571428571429</ele><time>2026-04-24T15:21:34.999Z</time></trkpt><trkpt lat="49.150672581593504" lon="2.554149332089763"><ele>58.42857142857143</ele><time>2026-04-24T15:21:36.999Z</time></trkpt><trkpt lat="49.15062203540955" lon="2.5542275888997663"><ele>58.57142857142858</ele><time>2026-04-24T15:21:38.999Z</time></trkpt><trkpt lat="49.150575822281056" lon="2.554299129222791"><ele>58.71428571428572</ele><time>2026-04-24T15:21:40.999Z</time></trkpt><trkpt lat="49.150529094758035" lon="2.5543685934682436"><ele>58.857142857142854</ele><time>2026-04-24T15:21:42.998Z</time></trkpt><trkpt lat="49.150471155814714" lon="2.5544422331831442"><ele>59.0</ele><time>2026-04-24T15:21:44.998Z</time></trkpt><trkpt lat="49.15041442374317" lon="2.5544982010512536"><ele>59.333333333333336</ele><time>2026-04-24T15:21:46.998Z</time></trkpt><trkpt lat="49.15034416289407" lon="2.5545433719864685"><ele>59.66666666666667</ele><time>2026-04-24T15:21:48.998Z</time></trkpt><trkpt lat="49.15027256366343" lon="2.554609921405226"><ele>60.0</ele><time>2026-04-24T15:21:50.998Z</time></trkpt><trkpt lat="49.150186885906166" lon="2.5546849737092585"><ele>60.33333333333333</ele><time>2026-04-24T15:21:53.998Z</time></trkpt><trkpt lat="49.15012970249072" lon="2.5547340373098435"><ele>60.666666666666664</ele><time>2026-04-24T15:21:55.998Z</time></trkpt><trkpt lat="49.15007186555125" lon="2.5547837625158922"><ele>61.0</ele><time>2026-04-24T15:21:57.998Z</time></trkpt><trkpt lat="49.150006880753146" lon="2.5548306447963776"><ele>60.99999999999999</ele><time>2026-04-24T15:21:59.998Z</time></trkpt><trkpt lat="49.149939440181434" lon="2.554887424168749"><ele>61.0</ele><time>2026-04-24T15:22:01.998Z</time></trkpt><trkpt lat="49.1498795670394" lon="2.5549459723143375"><ele>60.99999999999999</ele><time>2026-04-24T15:22:03.998Z</time></trkpt><trkpt lat="49.14981727585894" lon="2.554988976532694"><ele>60.99999999999999</ele><time>2026-04-24T15:22:05.998Z</time></trkpt><trkpt lat="49.14975560939033" lon="2.5550274721263944"><ele>61.0</ele><time>2026-04-24T15:22:07.998Z</time></trkpt><trkpt lat="49.149688158088075" lon="2.5550794209487155"><ele>60.99999999999999</ele><time>2026-04-24T15:22:09.998Z</time></trkpt><trkpt lat="49.14961999011374" lon="2.555109013907742"><ele>60.99999999999999</ele><time>2026-04-24T15:22:12.998Z</time></trkpt><trkpt lat="49.14951270899227" lon="2.5552067514300907"><ele>60.666666666666664</ele><time>2026-04-24T15:22:14.998Z</time></trkpt><trkpt lat="49.14943656070126" lon="2.555249310733113"><ele>60.33333333333333</ele><time>2026-04-24T15:22:16.998Z</time></trkpt><trkpt lat="49.14936022352486" lon="2.5552966457724136"><ele>60.0</ele><time>2026-04-24T15:22:18.997Z</time></trkpt><trkpt lat="49.14928262309516" lon="2.555341291657527"><ele>59.66666666666667</ele><time>2026-04-24T15:22:21.001Z</time></trkpt><trkpt lat="49.14920992394723" lon="2.555393271724135"><ele>59.333333333333336</ele><time>2026-04-24T15:22:23.001Z</time></trkpt><trkpt lat="49.149132500919976" lon="2.5554453525113328"><ele>59.0</ele><time>2026-04-24T15:22:25.001Z</time></trkpt><trkpt lat="49.14905351688187" lon="2.5555012206783236"><ele>58.66666666666667</ele><time>2026-04-24T15:22:27.001Z</time></trkpt><trkpt lat="49.1489753253651" lon="2.5555637715337567"><ele>58.333333333333336</ele><time>2026-04-24T15:22:29.001Z</time></trkpt><trkpt lat="49.14889346887175" lon="2.5556325743682056"><ele>58.0</ele><time>2026-04-24T15:22:31.001Z</time></trkpt><trkpt lat="49.14880877121123" lon="2.5556756978270108"><ele>57.66666666666667</ele><time>2026-04-24T15:22:33.001Z</time></trkpt><trkpt lat="49.1487290342309" lon="2.55571563738803"><ele>57.333333333333336</ele><time>2026-04-24T15:22:35.001Z</time></trkpt><trkpt lat="49.14865060546523" lon="2.55577886735443"><ele>57.0</ele><time>2026-04-24T15:22:37.001Z</time></trkpt><trkpt lat="49.14857332874741" lon="2.5558292751448426"><ele>57.0</ele><time>2026-04-24T15:22:39Z</time></trkpt><trkpt lat="49.14850128163684" lon="2.5558803591409593"><ele>57.0</ele><time>2026-04-24T15:22:41Z</time></trkpt><trkpt lat="49.148427782310975" lon="2.5559269995490372"><ele>57.0</ele><time>2026-04-24T15:22:43Z</time></trkpt><trkpt lat="49.14835842210645" lon="2.555966900885673"><ele>57.0</ele><time>2026-04-24T15:22:45Z</time></trkpt><trkpt lat="49.14828868931064" lon="2.556009031042912"><ele>57.0</ele><time>2026-04-24T15:22:47Z</time></trkpt><trkpt lat="49.14821686516703" lon="2.5560715944658323"><ele>57.0</ele><time>2026-04-24T15:22:49Z</time></trkpt><trkpt lat="49.14813889246843" lon="2.5561145831503804"><ele>57.5</ele><time>2026-04-24T15:22:51Z</time></trkpt><trkpt lat="49.148060851649625" lon="2.5561608136498823"><ele>58.0</ele><time>2026-04-24T15:22:53Z</time></trkpt><trkpt lat="49.147987036254534" lon="2.5562229125317346"><ele>58.5</ele><time>2026-04-24T15:22:55Z</time></trkpt><trkpt lat="49.14790897318044" lon="2.5562675885928097"><ele>59.0</ele><time>2026-04-24T15:22:57Z</time></trkpt><trkpt lat="49.14783364285754" lon="2.5563146038396534"><ele>59.5</ele><time>2026-04-24T15:22:59Z</time></trkpt><trkpt lat="49.14775835081676" lon="2.5563588310868908"><ele>60.0</ele><time>2026-04-24T15:23:01Z</time></trkpt><trkpt lat="49.14769386564189" lon="2.5564141743313127"><ele>60.85714285714286</ele><time>2026-04-24T15:23:03Z</time></trkpt><trkpt lat="49.14763145005186" lon="2.556452174752023"><ele>61.71428571428571</ele><time>2026-04-24T15:23:05Z</time></trkpt><trkpt lat="49.14757157494977" lon="2.5564912909252597"><ele>62.57142857142857</ele><time>2026-04-24T15:23:07Z</time></trkpt><trkpt lat="49.14748556683865" lon="2.5565499823099276"><ele>63.42857142857143</ele><time>2026-04-24T15:23:10Z</time></trkpt><trkpt lat="49.14741838911138" lon="2.5565479315707047"><ele>64.28571428571429</ele><time>2026-04-24T15:23:11.999Z</time></trkpt><trkpt lat="49.14734873593687" lon="2.5565311587630566"><ele>65.14285714285714</ele><time>2026-04-24T15:23:13.999Z</time></trkpt><trkpt lat="49.147284873991396" lon="2.5564994532892173"><ele>66.0</ele><time>2026-04-24T15:23:15.999Z</time></trkpt><trkpt lat="49.147223572287395" lon="2.556446827838163"><ele>65.85714285714286</ele><time>2026-04-24T15:23:17.999Z</time></trkpt><trkpt lat="49.147160601002156" lon="2.5564009999399366"><ele>65.71428571428572</ele><time>2026-04-24T15:23:19.999Z</time></trkpt><trkpt lat="49.147092817668344" lon="2.556369817572521"><ele>65.57142857142858</ele><time>2026-04-24T15:23:21.999Z</time></trkpt><trkpt lat="49.147030895061945" lon="2.55631991044056"><ele>65.42857142857143</ele><time>2026-04-24T15:23:23.999Z</time></trkpt><trkpt lat="49.14696893545042" lon="2.556294195168473"><ele>65.28571428571429</ele><time>2026-04-24T15:23:25.999Z</time></trkpt><trkpt lat="49.146908777183654" lon="2.5562601469740467"><ele>65.14285714285715</ele><time>2026-04-24T15:23:27.999Z</time></trkpt><trkpt lat="49.14684713311024" lon="2.5562250106672764"><ele>65.0</ele><time>2026-04-24T15:23:29.999Z</time></trkpt><trkpt lat="49.14678206490891" lon="2.5561998795764485"><ele>65.0</ele><time>2026-04-24T15:23:31.999Z</time></trkpt><trkpt lat="49.14671720539878" lon="2.556185256162808"><ele>65.0</ele><time>2026-04-24T15:23:33.999Z</time></trkpt><trkpt lat="49.1466275976424" lon="2.556143441841358"><ele>65.0</ele><time>2026-04-24T15:23:36.999Z</time></trkpt><trkpt lat="49.14656667436788" lon="2.5561058264859167"><ele>65.0</ele><time>2026-04-24T15:23:38.999Z</time></trkpt><trkpt lat="49.1465107658115" lon="2.5560579769362803"><ele>65.0</ele><time>2026-04-24T15:23:40.999Z</time></trkpt><trkpt lat="49.14643338094691" lon="2.5559864128001157"><ele>65.0</ele><time>2026-04-24T15:23:43.999Z</time></trkpt><trkpt lat="49.146366904861544" lon="2.5559029848855626"><ele>65.71428571428572</ele><time>2026-04-24T15:23:46.998Z</time></trkpt><trkpt lat="49.146328414822705" lon="2.555783190374937"><ele>66.42857142857143</ele><time>2026-04-24T15:23:49.998Z</time></trkpt><trkpt lat="49.14626116490767" lon="2.555776943626106"><ele>67.14285714285714</ele><time>2026-04-24T15:23:52.998Z</time></trkpt><trkpt lat="49.14620142440734" lon="2.5558531168426613"><ele>67.85714285714286</ele><time>2026-04-24T15:23:55.998Z</time></trkpt><trkpt lat="49.146176082770204" lon="2.555961466251045"><ele>68.57142857142857</ele><time>2026-04-24T15:23:58.998Z</time></trkpt><trkpt lat="49.146147345056846" lon="2.5560566920357797"><ele>69.28571428571429</ele><time>2026-04-24T15:24:01.998Z</time></trkpt><trkpt lat="49.14612072004081" lon="2.5561499382945034"><ele>70.0</ele><time>2026-04-24T15:24:04.998Z</time></trkpt><trkpt lat="49.14609330542427" lon="2.5562688455683613"><ele>70.0</ele><time>2026-04-24T15:24:09.998Z</time></trkpt><trkpt lat="49.146019225993946" lon="2.5562728055704973"><ele>70.0</ele><time>2026-04-24T15:24:13.998Z</time></trkpt><trkpt lat="49.14600249610682" lon="2.5561650689761946"><ele>70.0</ele><time>2026-04-24T15:24:16.998Z</time></trkpt><trkpt lat="49.14598584512899" lon="2.5560555822609126"><ele>70.0</ele><time>2026-04-24T15:24:19.998Z</time></trkpt><trkpt lat="49.14596764341127" lon="2.555945118027466"><ele>70.0</ele><time>2026-04-24T15:24:22.997Z</time></trkpt><trkpt lat="49.14594716034419" lon="2.5558453864677446"><ele>70.0</ele><time>2026-04-24T15:24:24.997Z</time></trkpt><trkpt lat="49.14590833277155" lon="2.555710645808767"><ele>70.5</ele><time>2026-04-24T15:24:28.001Z</time></trkpt><trkpt lat="49.145877885400715" lon="2.5555795885976074"><ele>71.0</ele><time>2026-04-24T15:24:31.001Z</time></trkpt><trkpt lat="49.14584235311942" lon="2.55548985991022"><ele>71.5</ele><time>2026-04-24T15:24:33.001Z</time></trkpt><trkpt lat="49.14581505877302" lon="2.5553957513022882"><ele>72.0</ele><time>2026-04-24T15:24:35.001Z</time></trkpt><trkpt lat="49.14578672916808" lon="2.555305192816694"><ele>72.5</ele><time>2026-04-24T15:24:37.001Z</time></trkpt><trkpt lat="49.14572224645151" lon="2.5550881208500593"><ele>73.0</ele><time>2026-04-24T15:24:40.001Z</time></trkpt><trkpt lat="49.145687421850305" lon="2.554977851105473"><ele>73.0</ele><time>2026-04-24T15:24:42.001Z</time></trkpt><trkpt lat="49.1456692804997" lon="2.554882289372171"><ele>73.0</ele><time>2026-04-24T15:24:44Z</time></trkpt><trkpt lat="49.14563881241804" lon="2.554773841770225"><ele>73.0</ele><time>2026-04-24T15:24:46Z</time></trkpt><trkpt lat="49.14560395931619" lon="2.554682808667792"><ele>73.0</ele><time>2026-04-24T15:24:48Z</time></trkpt><trkpt lat="49.14557537379498" lon="2.5545690621062933"><ele>73.0</ele><time>2026-04-24T15:24:50Z</time></trkpt><trkpt lat="49.14553218528163" lon="2.554473842135775"><ele>73.0</ele><time>2026-04-24T15:24:52Z</time></trkpt><trkpt lat="49.14549600489727" lon="2.5543593296325486"><ele>72.33333333333333</ele><time>2026-04-24T15:24:54Z</time></trkpt><trkpt lat="49.14546898285469" lon="2.554242643428529"><ele>71.66666666666666</ele><time>2026-04-24T15:24:56Z</time></trkpt><trkpt lat="49.14543276240406" lon="2.554129627148795"><ele>71.0</ele><time>2026-04-24T15:24:58Z</time></trkpt><trkpt lat="49.14540967550657" lon="2.5540383089647123"><ele>70.33333333333333</ele><time>2026-04-24T15:25:00Z</time></trkpt><trkpt lat="49.14539593538868" lon="2.553925659226441"><ele>69.66666666666667</ele><time>2026-04-24T15:25:03Z</time></trkpt><trkpt lat="49.14536461755711" lon="2.5538052173592143"><ele>69.0</ele><time>2026-04-24T15:25:05Z</time></trkpt><trkpt lat="49.145338841146774" lon="2.5537047344760264"><ele>68.28571428571429</ele><time>2026-04-24T15:25:07Z</time></trkpt><trkpt lat="49.145311218652296" lon="2.5536136189296847"><ele>67.57142857142858</ele><time>2026-04-24T15:25:09Z</time></trkpt><trkpt lat="49.145268943142696" lon="2.5535331260177743"><ele>66.85714285714286</ele><time>2026-04-24T15:25:11Z</time></trkpt><trkpt lat="49.1452438292057" lon="2.553420448019503"><ele>66.14285714285714</ele><time>2026-04-24T15:25:13.999Z</time></trkpt><trkpt lat="49.14522387766007" lon="2.5533223415943125"><ele>65.42857142857142</ele><time>2026-04-24T15:25:15.999Z</time></trkpt><trkpt lat="49.14518910677388" lon="2.5532140587694063"><ele>64.71428571428571</ele><time>2026-04-24T15:25:17.999Z</time></trkpt><trkpt lat="49.145158857213964" lon="2.5530990138448915"><ele>64.0</ele><time>2026-04-24T15:25:19.999Z</time></trkpt><trkpt lat="49.14512198764834" lon="2.552990356469459"><ele>63.99999999999999</ele><time>2026-04-24T15:25:21.999Z</time></trkpt><trkpt lat="49.14508674094666" lon="2.5528921931802917"><ele>64.0</ele><time>2026-04-24T15:25:23.999Z</time></trkpt><trkpt lat="49.1450415907285" lon="2.5527800776581735"><ele>64.0</ele><time>2026-04-24T15:25:25.999Z</time></trkpt><trkpt lat="49.144995304910275" lon="2.552698467204144"><ele>64.0</ele><time>2026-04-24T15:25:27.999Z</time></trkpt><trkpt lat="49.14495833462224" lon="2.552603190670939"><ele>63.99999999999999</ele><time>2026-04-24T15:25:29.999Z</time></trkpt><trkpt lat="49.144917644605655" lon="2.55249280783649"><ele>64.0</ele><time>2026-04-24T15:25:31.999Z</time></trkpt><trkpt lat="49.14488387867348" lon="2.552385596221291"><ele>63.42857142857142</ele><time>2026-04-24T15:25:33.999Z</time></trkpt><trkpt lat="49.144849474095274" lon="2.552293044039433"><ele>62.85714285714285</ele><time>2026-04-24T15:25:35.999Z</time></trkpt><trkpt lat="49.14481999160401" lon="2.552205363639737"><ele>62.285714285714285</ele><time>2026-04-24T15:25:37.999Z</time></trkpt><trkpt lat="49.14478305343337" lon="2.5521000188755556"><ele>61.71428571428571</ele><time>2026-04-24T15:25:39.999Z</time></trkpt><trkpt lat="49.14474670434733" lon="2.55199509421678"><ele>61.14285714285714</ele><time>2026-04-24T15:25:41.999Z</time></trkpt><trkpt lat="49.144714088689504" lon="2.551894652516389"><ele>60.57142857142857</ele><time>2026-04-24T15:25:43.999Z</time></trkpt><trkpt lat="49.1446709494634" lon="2.551780959977095"><ele>60.0</ele><time>2026-04-24T15:25:45.999Z</time></trkpt><trkpt lat="49.14463922545928" lon="2.5516756705461345"><ele>59.833333333333336</ele><time>2026-04-24T15:25:47.998Z</time></trkpt><trkpt lat="49.14459289881383" lon="2.551556788659991"><ele>59.66666666666667</ele><time>2026-04-24T15:25:49.998Z</time></trkpt><trkpt lat="49.14457109757785" lon="2.551423551268952"><ele>59.5</ele><time>2026-04-24T15:25:52.998Z</time></trkpt><trkpt lat="49.14454274704555" lon="2.55132875499457"><ele>59.333333333333336</ele><time>2026-04-24T15:25:54.998Z</time></trkpt><trkpt lat="49.144506533697125" lon="2.551237198342374"><ele>59.16666666666667</ele><time>2026-04-24T15:25:56.998Z</time></trkpt><trkpt lat="49.14447549880319" lon="2.5511413394338223"><ele>59.0</ele><time>2026-04-24T15:25:58.998Z</time></trkpt><trkpt lat="49.14442966918271" lon="2.551020766912531"><ele>59.333333333333336</ele><time>2026-04-24T15:26:01.998Z</time></trkpt><trkpt lat="49.144380908227404" lon="2.5508913494238907"><ele>59.66666666666667</ele><time>2026-04-24T15:26:04.998Z</time></trkpt><trkpt lat="49.144348764085876" lon="2.550785016878579"><ele>60.0</ele><time>2026-04-24T15:26:07.998Z</time></trkpt><trkpt lat="49.14432556638784" lon="2.550694653608998"><ele>60.33333333333333</ele><time>2026-04-24T15:26:10.998Z</time></trkpt><trkpt lat="49.14434451169324" lon="2.5505873946260955"><ele>60.666666666666664</ele><time>2026-04-24T15:27:56.998Z</time></trkpt><trkpt lat="49.144280789798714" lon="2.5505274761344094"><ele>61.0</ele><time>2026-04-24T15:27:59.998Z</time></trkpt><trkpt lat="49.14419938045935" lon="2.550516805575731"><ele>60.99999999999999</ele><time>2026-04-24T15:28:02.998Z</time></trkpt><trkpt lat="49.144126238991944" lon="2.550500721512865"><ele>61.0</ele><time>2026-04-24T15:28:04.998Z</time></trkpt><trkpt lat="49.144047920756464" lon="2.5504551406973786"><ele>61.0</ele><time>2026-04-24T15:28:07.998Z</time></trkpt><trkpt lat="49.14396487704944" lon="2.55042365733664"><ele>61.0</ele><time>2026-04-24T15:28:10.998Z</time></trkpt><trkpt lat="49.14387354912361" lon="2.5503845539824113"><ele>60.99999999999999</ele><time>2026-04-24T15:28:13.998Z</time></trkpt><trkpt lat="49.14380676726087" lon="2.5503663000387142"><ele>61.0</ele><time>2026-04-24T15:28:15.998Z</time></trkpt><trkpt lat="49.143737861339154" lon="2.5503416556337206"><ele>60.57142857142856</ele><time>2026-04-24T15:28:17.998Z</time></trkpt><trkpt lat="49.14365980909125" lon="2.55031004526432"><ele>60.14285714285714</ele><time>2026-04-24T15:28:19.998Z</time></trkpt><trkpt lat="49.14359878365992" lon="2.5502741137512412"><ele>59.714285714285715</ele><time>2026-04-24T15:28:21.998Z</time></trkpt><trkpt lat="49.143529327425554" lon="2.550245391594834"><ele>59.285714285714285</ele><time>2026-04-24T15:28:23.997Z</time></trkpt><trkpt lat="49.14345274276618" lon="2.550211994716599"><ele>58.85714285714286</ele><time>2026-04-24T15:28:25.997Z</time></trkpt><trkpt lat="49.14338070061649" lon="2.550182131228776"><ele>58.42857142857144</ele><time>2026-04-24T15:28:27.997Z</time></trkpt><trkpt lat="49.14331480532129" lon="2.5501420156884733"><ele>58.00000000000001</ele><time>2026-04-24T15:28:29.997Z</time></trkpt><trkpt lat="49.1432417856605" lon="2.550103567099818"><ele>57.99999999999999</ele><time>2026-04-24T15:28:31.997Z</time></trkpt><trkpt lat="49.14315508396067" lon="2.5500366489122297"><ele>58.0</ele><time>2026-04-24T15:28:34.997Z</time></trkpt><trkpt lat="49.14309053569408" lon="2.549981842853698"><ele>58.0</ele><time>2026-04-24T15:28:36.997Z</time></trkpt><trkpt lat="49.143028616451126" lon="2.5499079484734013"><ele>58.0</ele><time>2026-04-24T15:28:39Z</time></trkpt><trkpt lat="49.142974213177325" lon="2.5498191513827613"><ele>57.99999999999999</ele><time>2026-04-24T15:28:41Z</time></trkpt><trkpt lat="49.14293815572958" lon="2.549732964848063"><ele>58.0</ele><time>2026-04-24T15:28:43Z</time></trkpt><trkpt lat="49.142873464442125" lon="2.5496315422810696"><ele>57.99999999999999</ele><time>2026-04-24T15:28:46Z</time></trkpt><trkpt lat="49.1428269513929" lon="2.549562377475345"><ele>58.0</ele><time>2026-04-24T15:28:48Z</time></trkpt><trkpt lat="49.14277622492998" lon="2.5494846373682125"><ele>58.0</ele><time>2026-04-24T15:28:50Z</time></trkpt><trkpt lat="49.14270536833322" lon="2.549366077756202"><ele>58.0</ele><time>2026-04-24T15:28:53Z</time></trkpt><trkpt lat="49.14264215076509" lon="2.5492744113933763"><ele>57.99999999999999</ele><time>2026-04-24T15:28:56Z</time></trkpt><trkpt lat="49.142593494849464" lon="2.549202705512249"><ele>58.0</ele><time>2026-04-24T15:28:58Z</time></trkpt><trkpt lat="49.14253932551575" lon="2.5491523420141577"><ele>58.166666666666664</ele><time>2026-04-24T15:29:00Z</time></trkpt><trkpt lat="49.142491720244166" lon="2.549070437422877"><ele>58.33333333333333</ele><time>2026-04-24T15:29:02Z</time></trkpt><trkpt lat="49.14245235666002" lon="2.548994181125356"><ele>58.5</ele><time>2026-04-24T15:29:04Z</time></trkpt><trkpt lat="49.14240187688967" lon="2.5489315205439205"><ele>58.66666666666667</ele><time>2026-04-24T15:29:06Z</time></trkpt><trkpt lat="49.14233914272582" lon="2.548863502272987"><ele>58.833333333333336</ele><time>2026-04-24T15:29:08Z</time></trkpt><trkpt lat="49.1422870213123" lon="2.5487327396196107"><ele>59.0</ele><time>2026-04-24T15:29:10.999Z</time></trkpt><trkpt lat="49.142250976518106" lon="2.548632969505426"><ele>59.00000000000001</ele><time>2026-04-24T15:29:12.999Z</time></trkpt><trkpt lat="49.14220676903063" lon="2.5485431825011013"><ele>59.0</ele><time>2026-04-24T15:29:14.999Z</time></trkpt><trkpt lat="49.142153867798555" lon="2.548440197901098"><ele>59.0</ele><time>2026-04-24T15:29:16.999Z</time></trkpt><trkpt lat="49.14211601269885" lon="2.548324473594285"><ele>59.0</ele><time>2026-04-24T15:29:18.999Z</time></trkpt><trkpt lat="49.14207155713846" lon="2.5482028408312973"><ele>59.00000000000001</ele><time>2026-04-24T15:29:20.999Z</time></trkpt><trkpt lat="49.142024176804" lon="2.5480930938951882"><ele>59.0</ele><time>2026-04-24T15:29:22.999Z</time></trkpt><trkpt lat="49.14197813391611" lon="2.5479906716641403"><ele>59.00000000000001</ele><time>2026-04-24T15:29:24.999Z</time></trkpt><trkpt lat="49.14194669336793" lon="2.547903749761923"><ele>59.0</ele><time>2026-04-24T15:29:26.999Z</time></trkpt><trkpt lat="49.141895778246536" lon="2.5478029908446134"><ele>59.0</ele><time>2026-04-24T15:29:28.999Z</time></trkpt><trkpt lat="49.141851683241995" lon="2.547718588939277"><ele>59.0</ele><time>2026-04-24T15:29:30.999Z</time></trkpt><trkpt lat="49.14181367798233" lon="2.5476116736734076"><ele>59.00000000000001</ele><time>2026-04-24T15:29:32.999Z</time></trkpt><trkpt lat="49.141759053165586" lon="2.5475085495982284"><ele>59.0</ele><time>2026-04-24T15:29:34.999Z</time></trkpt><trkpt lat="49.14170827995882" lon="2.5474005580837287"><ele>58.857142857142854</ele><time>2026-04-24T15:29:36.999Z</time></trkpt><trkpt lat="49.14166263347756" lon="2.5473051438810383"><ele>58.71428571428572</ele><time>2026-04-24T15:29:38.999Z</time></trkpt><trkpt lat="49.14163235343938" lon="2.5471999022014837"><ele>58.57142857142858</ele><time>2026-04-24T15:29:40.999Z</time></trkpt><trkpt lat="49.141596502762646" lon="2.5471074206682416"><ele>58.42857142857143</ele><time>2026-04-24T15:29:42.999Z</time></trkpt><trkpt lat="49.14155329692338" lon="2.5470187492268566"><ele>58.28571428571429</ele><time>2026-04-24T15:29:44.999Z</time></trkpt><trkpt lat="49.14151337456834" lon="2.5469373400554836"><ele>58.14285714285715</ele><time>2026-04-24T15:29:46.998Z</time></trkpt><trkpt lat="49.14147108446955" lon="2.54684283346274"><ele>58.00000000000001</ele><time>2026-04-24T15:29:48.998Z</time></trkpt><trkpt lat="49.1414145369295" lon="2.546719804001333"><ele>57.83333333333333</ele><time>2026-04-24T15:29:51.998Z</time></trkpt><trkpt lat="49.14136924868793" lon="2.5466213725316202"><ele>57.666666666666664</ele><time>2026-04-24T15:29:54.998Z</time></trkpt><trkpt lat="49.14132958992044" lon="2.54654590598445"><ele>57.5</ele><time>2026-04-24T15:29:56.998Z</time></trkpt><trkpt lat="49.14128136513189" lon="2.5464117984396224"><ele>57.33333333333333</ele><time>2026-04-24T15:29:59.998Z</time></trkpt><trkpt lat="49.14124439633109" lon="2.546314618008096"><ele>57.166666666666664</ele><time>2026-04-24T15:30:01.998Z</time></trkpt><trkpt lat="49.141216030427344" lon="2.546219857511434"><ele>57.0</ele><time>2026-04-24T15:30:03.998Z</time></trkpt><trkpt lat="49.14117423234014" lon="2.5461277158798685"><ele>57.333333333333336</ele><time>2026-04-24T15:30:05.998Z</time></trkpt><trkpt lat="49.14113669902673" lon="2.5460322470598307"><ele>57.66666666666667</ele><time>2026-04-24T15:30:07.998Z</time></trkpt><trkpt lat="49.141074556823334" lon="2.5459587516189814"><ele>58.0</ele><time>2026-04-24T15:30:10.998Z</time></trkpt><trkpt lat="49.140989903023275" lon="2.5458931044478335"><ele>58.333333333333336</ele><time>2026-04-24T15:30:12.998Z</time></trkpt><trkpt lat="49.14092305949887" lon="2.545860123850993"><ele>58.66666666666667</ele><time>2026-04-24T15:30:14.998Z</time></trkpt><trkpt lat="49.140839007521315" lon="2.5458266255882056"><ele>59.0</ele><time>2026-04-24T15:30:16.998Z</time></trkpt><trkpt lat="49.14076960567142" lon="2.545778848340146"><ele>59.00000000000001</ele><time>2026-04-24T15:30:18.998Z</time></trkpt><trkpt lat="49.140696297063684" lon="2.5457378354121922"><ele>59.0</ele><time>2026-04-24T15:30:20.997Z</time></trkpt><trkpt lat="49.14062149230429" lon="2.545691084482551"><ele>59.0</ele><time>2026-04-24T15:30:22.997Z</time></trkpt><trkpt lat="49.14054939382518" lon="2.5456392014597475"><ele>59.0</ele><time>2026-04-24T15:30:24.997Z</time></trkpt><trkpt lat="49.140472179031676" lon="2.545588532440189"><ele>59.00000000000001</ele><time>2026-04-24T15:30:26.997Z</time></trkpt><trkpt lat="49.1403959265022" lon="2.5455537423974124"><ele>59.0</ele><time>2026-04-24T15:30:28.997Z</time></trkpt><trkpt lat="49.14033161603341" lon="2.54550995498715"><ele>59.0</ele><time>2026-04-24T15:30:30.997Z</time></trkpt><trkpt lat="49.14025347737053" lon="2.5454988025032903"><ele>59.0</ele><time>2026-04-24T15:30:32.997Z</time></trkpt><trkpt lat="49.140188092441555" lon="2.5455080915302974"><ele>59.0</ele><time>2026-04-24T15:30:34.997Z</time></trkpt><trkpt lat="49.140117876077234" lon="2.545508954032046"><ele>59.0</ele><time>2026-04-24T15:30:36.997Z</time></trkpt><trkpt lat="49.14004754339281" lon="2.545527267938681"><ele>59.0</ele><time>2026-04-24T15:30:38.997Z</time></trkpt><trkpt lat="49.13998310683236" lon="2.5455393317803634"><ele>59.0</ele><time>2026-04-24T15:30:40.997Z</time></trkpt><trkpt lat="49.1399107961299" lon="2.5455619473470565"><ele>59.0</ele><time>2026-04-24T15:30:42.997Z</time></trkpt><trkpt lat="49.139843954411056" lon="2.545597810450535"><ele>60.00000000000001</ele><time>2026-04-24T15:30:45Z</time></trkpt><trkpt lat="49.13977196375162" lon="2.5456158360502315"><ele>61.0</ele><time>2026-04-24T15:30:47Z</time></trkpt><trkpt lat="49.13969865618025" lon="2.5456435679547673"><ele>62.0</ele><time>2026-04-24T15:30:49Z</time></trkpt><trkpt lat="49.13963025900838" lon="2.5456751676023"><ele>63.0</ele><time>2026-04-24T15:30:51Z</time></trkpt><trkpt lat="49.139560985296995" lon="2.54569395453947"><ele>64.0</ele><time>2026-04-24T15:30:53Z</time></trkpt><trkpt lat="49.139480003104296" lon="2.5457348366046966"><ele>65.0</ele><time>2026-04-24T15:30:56Z</time></trkpt><trkpt lat="49.13940789017033" lon="2.5457615283047668"><ele>65.0</ele><time>2026-04-24T15:30:58Z</time></trkpt><trkpt lat="49.13932418799363" lon="2.5457712377886366"><ele>65.0</ele><time>2026-04-24T15:31:01Z</time></trkpt><trkpt lat="49.13924188766918" lon="2.545803251339932"><ele>65.0</ele><time>2026-04-24T15:31:04Z</time></trkpt><trkpt lat="49.139180785474515" lon="2.545830771083974"><ele>65.0</ele><time>2026-04-24T15:31:06Z</time></trkpt><trkpt lat="49.13911430174479" lon="2.54585536862117"><ele>65.0</ele><time>2026-04-24T15:31:08Z</time></trkpt><trkpt lat="49.139023599643146" lon="2.5458903494889196"><ele>65.0</ele><time>2026-04-24T15:31:11Z</time></trkpt><trkpt lat="49.1389307715302" lon="2.5459151983093387"><ele>65.57142857142858</ele><time>2026-04-24T15:31:14Z</time></trkpt><trkpt lat="49.138868596460775" lon="2.5459419562119376"><ele>66.14285714285714</ele><time>2026-04-24T15:31:16Z</time></trkpt><trkpt lat="49.13880444772428" lon="2.545955298615748"><ele>66.71428571428572</ele><time>2026-04-24T15:31:18Z</time></trkpt><trkpt lat="49.13873336559304" lon="2.5459585071686157"><ele>67.28571428571429</ele><time>2026-04-24T15:31:20Z</time></trkpt><trkpt lat="49.13865861591469" lon="2.545948339383766"><ele>67.85714285714286</ele><time>2026-04-24T15:31:21.999Z</time></trkpt><trkpt lat="49.138567693157555" lon="2.5459223326035296"><ele>68.42857142857143</ele><time>2026-04-24T15:31:24.999Z</time></trkpt><trkpt lat="49.13853155809249" lon="2.5458342142608354"><ele>69.0</ele><time>2026-04-24T15:31:26.999Z</time></trkpt><trkpt lat="49.13848771580284" lon="2.5457142200405007"><ele>69.0</ele><time>2026-04-24T15:31:29.999Z</time></trkpt><trkpt lat="49.13843620891395" lon="2.545635887932202"><ele>69.0</ele><time>2026-04-24T15:31:31.999Z</time></trkpt><trkpt lat="49.13838946353885" lon="2.5455526652507676"><ele>69.0</ele><time>2026-04-24T15:31:33.999Z</time></trkpt><trkpt lat="49.13832632773972" lon="2.5454771179937885"><ele>69.0</ele><time>2026-04-24T15:31:35.999Z</time></trkpt><trkpt lat="49.138270886862806" lon="2.545391615941793"><ele>69.0</ele><time>2026-04-24T15:31:37.999Z</time></trkpt><trkpt lat="49.138214780046965" lon="2.545319107066117"><ele>69.0</ele><time>2026-04-24T15:31:39.999Z</time></trkpt><trkpt lat="49.13816614476884" lon="2.5452506764558147"><ele>69.0</ele><time>2026-04-24T15:31:41.999Z</time></trkpt><trkpt lat="49.13809406207984" lon="2.5451576378295595"><ele>69.66666666666667</ele><time>2026-04-24T15:31:43.999Z</time></trkpt><trkpt lat="49.138032152578695" lon="2.54508687858254"><ele>70.33333333333333</ele><time>2026-04-24T15:31:45.999Z</time></trkpt><trkpt lat="49.13798915519299" lon="2.5449933245454184"><ele>71.0</ele><time>2026-04-24T15:31:47.999Z</time></trkpt><trkpt lat="49.13792899665635" lon="2.544916561144492"><ele>71.66666666666666</ele><time>2026-04-24T15:31:49.999Z</time></trkpt><trkpt lat="49.13787455415664" lon="2.5448391290072383"><ele>72.33333333333333</ele><time>2026-04-24T15:31:51.999Z</time></trkpt><trkpt lat="49.13781337588026" lon="2.544761649869309"><ele>73.0</ele><time>2026-04-24T15:31:53.999Z</time></trkpt><trkpt lat="49.13777320708734" lon="2.5446799690282926"><ele>73.0</ele><time>2026-04-24T15:31:55.999Z</time></trkpt><trkpt lat="49.137719320822406" lon="2.54460646540322"><ele>73.0</ele><time>2026-04-24T15:31:57.998Z</time></trkpt><trkpt lat="49.13766806015684" lon="2.544515026345566"><ele>73.0</ele><time>2026-04-24T15:32:00.998Z</time></trkpt><trkpt lat="49.13761404062808" lon="2.544448248583078"><ele>73.0</ele><time>2026-04-24T15:32:02.998Z</time></trkpt><trkpt lat="49.13756575479059" lon="2.5443757347836393"><ele>73.0</ele><time>2026-04-24T15:32:04.998Z</time></trkpt><trkpt lat="49.13751900398877" lon="2.5443093056062995"><ele>73.0</ele><time>2026-04-24T15:32:06.998Z</time></trkpt><trkpt lat="49.13746545174134" lon="2.544239637976881"><ele>73.0</ele><time>2026-04-24T15:32:08.998Z</time></trkpt><trkpt lat="49.13741085658768" lon="2.544161914854426"><ele>73.0</ele><time>2026-04-24T15:32:10.998Z</time></trkpt><trkpt lat="49.13732988698634" lon="2.544067467514425"><ele>73.0</ele><time>2026-04-24T15:32:13.998Z</time></trkpt><trkpt lat="49.13727264116206" lon="2.5440059598852542"><ele>73.0</ele><time>2026-04-24T15:32:15.998Z</time></trkpt><trkpt lat="49.13720948493612" lon="2.5439669520574357"><ele>73.0</ele><time>2026-04-24T15:32:17.998Z</time></trkpt><trkpt lat="49.137160759887074" lon="2.54387141130861"><ele>73.0</ele><time>2026-04-24T15:32:20.998Z</time></trkpt><trkpt lat="49.13709771491281" lon="2.5438197942977787"><ele>73.0</ele><time>2026-04-24T15:32:22.998Z</time></trkpt><trkpt lat="49.13703011834094" lon="2.54376794943262"><ele>73.5</ele><time>2026-04-24T15:32:24.998Z</time></trkpt><trkpt lat="49.13695583271476" lon="2.5436746713366927"><ele>74.0</ele><time>2026-04-24T15:32:27.998Z</time></trkpt><trkpt lat="49.136878630940814" lon="2.543610333080877"><ele>74.5</ele><time>2026-04-24T15:32:30.997Z</time></trkpt><trkpt lat="49.13681937226755" lon="2.543554985992543"><ele>75.0</ele><time>2026-04-24T15:32:32.997Z</time></trkpt><trkpt lat="49.13674153986126" lon="2.543473671104846"><ele>75.5</ele><time>2026-04-24T15:32:35.997Z</time></trkpt><trkpt lat="49.136679296490264" lon="2.54341577106623"><ele>76.0</ele><time>2026-04-24T15:32:37.997Z</time></trkpt><trkpt lat="49.13661897766489" lon="2.543362996574751"><ele>76.0</ele><time>2026-04-24T15:32:39.997Z</time></trkpt><trkpt lat="49.136559769076314" lon="2.543315047778148"><ele>76.0</ele><time>2026-04-24T15:32:41.997Z</time></trkpt><trkpt lat="49.13648882489191" lon="2.54323971693861"><ele>76.0</ele><time>2026-04-24T15:32:44.997Z</time></trkpt><trkpt lat="49.136420213540525" lon="2.543173415567248"><ele>76.0</ele><time>2026-04-24T15:32:46.997Z</time></trkpt><trkpt lat="49.136367565446406" lon="2.5431063219832795"><ele>76.0</ele><time>2026-04-24T15:32:48.997Z</time></trkpt><trkpt lat="49.13629543315586" lon="2.54303863663454"><ele>76.0</ele><time>2026-04-24T15:32:51Z</time></trkpt><trkpt lat="49.13623339846987" lon="2.542978993325711"><ele>75.57142857142857</ele><time>2026-04-24T15:32:53Z</time></trkpt><trkpt lat="49.1361508966706" lon="2.542909581204121"><ele>75.14285714285715</ele><time>2026-04-24T15:32:56Z</time></trkpt><trkpt lat="49.136099155572644" lon="2.5428456516718776"><ele>74.71428571428572</ele><time>2026-04-24T15:32:58Z</time></trkpt><trkpt lat="49.136044219941816" lon="2.5427846463282897"><ele>74.28571428571428</ele><time>2026-04-24T15:33:00Z</time></trkpt><trkpt lat="49.135995026933756" lon="2.5427125981857435"><ele>73.85714285714286</ele><time>2026-04-24T15:33:02Z</time></trkpt><trkpt lat="49.13594810750221" lon="2.542645789710458"><ele>73.42857142857143</ele><time>2026-04-24T15:33:04Z</time></trkpt><trkpt lat="49.135885361148034" lon="2.542564715958872"><ele>73.0</ele><time>2026-04-24T15:33:06Z</time></trkpt><trkpt lat="49.135835167643826" lon="2.542492626023583"><ele>72.5</ele><time>2026-04-24T15:33:08Z</time></trkpt><trkpt lat="49.13577556104718" lon="2.5424036674401824"><ele>72.0</ele><time>2026-04-24T15:33:10Z</time></trkpt><trkpt lat="49.13572408123034" lon="2.542317188972382"><ele>71.5</ele><time>2026-04-24T15:33:12Z</time></trkpt><trkpt lat="49.13567780638142" lon="2.542236118480291"><ele>71.0</ele><time>2026-04-24T15:33:14Z</time></trkpt><trkpt lat="49.135639721552494" lon="2.5421420142042925"><ele>70.5</ele><time>2026-04-24T15:33:16Z</time></trkpt><trkpt lat="49.13559401239215" lon="2.542055037898127"><ele>70.0</ele><time>2026-04-24T15:33:18Z</time></trkpt><trkpt lat="49.13553578757419" lon="2.5419803748034004"><ele>68.5</ele><time>2026-04-24T15:33:20Z</time></trkpt><trkpt lat="49.13547536810831" lon="2.5418830505543024"><ele>67.0</ele><time>2026-04-24T15:33:23Z</time></trkpt><trkpt lat="49.1354320895657" lon="2.5417921036729525"><ele>65.5</ele><time>2026-04-24T15:33:25Z</time></trkpt><trkpt lat="49.13540102817991" lon="2.5417047434924367"><ele>64.0</ele><time>2026-04-24T15:33:27Z</time></trkpt><trkpt lat="49.13534574225745" lon="2.5416249626847818"><ele>62.49999999999999</ele><time>2026-04-24T15:33:29Z</time></trkpt><trkpt lat="49.1352949663205" lon="2.5415383098454427"><ele>61.0</ele><time>2026-04-24T15:33:30.999Z</time></trkpt><trkpt lat="49.13523834094335" lon="2.5414435247277325"><ele>60.99999999999999</ele><time>2026-04-24T15:33:32.999Z</time></trkpt><trkpt lat="49.13518940564495" lon="2.5413618237424966"><ele>61.0</ele><time>2026-04-24T15:33:34.999Z</time></trkpt><trkpt lat="49.13513875329964" lon="2.541281664872559"><ele>60.99999999999999</ele><time>2026-04-24T15:33:36.999Z</time></trkpt><trkpt lat="49.1350887066019" lon="2.541213080812933"><ele>60.99999999999999</ele><time>2026-04-24T15:33:38.999Z</time></trkpt><trkpt lat="49.13503862247481" lon="2.5411431733166316"><ele>61.0</ele><time>2026-04-24T15:33:40.999Z</time></trkpt><trkpt lat="49.13499569457093" lon="2.541052863751044"><ele>60.99999999999999</ele><time>2026-04-24T15:33:42.999Z</time></trkpt><trkpt lat="49.13494012382028" lon="2.5409687727712895"><ele>60.99999999999999</ele><time>2026-04-24T15:33:44.999Z</time></trkpt><trkpt lat="49.1348951494849" lon="2.5408978530902027"><ele>61.199999999999996</ele><time>2026-04-24T15:33:46.999Z</time></trkpt><trkpt lat="49.1348360623378" lon="2.540795347122325"><ele>61.39999999999999</ele><time>2026-04-24T15:33:48.999Z</time></trkpt><trkpt lat="49.13476337317272" lon="2.540698385106723"><ele>61.6</ele><time>2026-04-24T15:33:51.999Z</time></trkpt><trkpt lat="49.13470105804432" lon="2.540604059849638"><ele>61.8</ele><time>2026-04-24T15:33:54.999Z</time></trkpt><trkpt lat="49.1346510647159" lon="2.540511806989602"><ele>62.0</ele><time>2026-04-24T15:33:56.999Z</time></trkpt><trkpt lat="49.13458770519388" lon="2.5403931952177765"><ele>62.333333333333336</ele><time>2026-04-24T15:33:59.999Z</time></trkpt><trkpt lat="49.13453291621926" lon="2.5402875646391614"><ele>62.66666666666667</ele><time>2026-04-24T15:34:02.999Z</time></trkpt><trkpt lat="49.13448285738362" lon="2.5402093448697216"><ele>63.0</ele><time>2026-04-24T15:34:04.998Z</time></trkpt><trkpt lat="49.13443308254877" lon="2.540126898657337"><ele>63.33333333333333</ele><time>2026-04-24T15:34:06.998Z</time></trkpt><trkpt lat="49.13437903343885" lon="2.540047015085643"><ele>63.666666666666664</ele><time>2026-04-24T15:34:08.998Z</time></trkpt><trkpt lat="49.13432266346226" lon="2.539960831685514"><ele>64.0</ele><time>2026-04-24T15:34:10.998Z</time></trkpt><trkpt lat="49.13427748689767" lon="2.539877276979584"><ele>63.99999999999999</ele><time>2026-04-24T15:34:12.998Z</time></trkpt><trkpt lat="49.13423174236703" lon="2.5397945030053806"><ele>64.0</ele><time>2026-04-24T15:34:14.998Z</time></trkpt><trkpt lat="49.13418586584109" lon="2.539708301577621"><ele>64.0</ele><time>2026-04-24T15:34:16.998Z</time></trkpt><trkpt lat="49.13412672605487" lon="2.539598501237343"><ele>64.0</ele><time>2026-04-24T15:34:19.998Z</time></trkpt><trkpt lat="49.13409354872675" lon="2.5395068315179135"><ele>63.99999999999999</ele><time>2026-04-24T15:34:21.998Z</time></trkpt><trkpt lat="49.13403866097653" lon="2.5394027576024425"><ele>64.0</ele><time>2026-04-24T15:34:24.998Z</time></trkpt><trkpt lat="49.13398792837126" lon="2.5393354989223935"><ele>63.71428571428571</ele><time>2026-04-24T15:34:26.998Z</time></trkpt><trkpt lat="49.13393905013385" lon="2.539244746598939"><ele>63.42857142857142</ele><time>2026-04-24T15:34:28.998Z</time></trkpt><trkpt lat="49.13389496200001" lon="2.539163475326235"><ele>63.14285714285714</ele><time>2026-04-24T15:34:30.998Z</time></trkpt><trkpt lat="49.133842956150346" lon="2.539087382217685"><ele>62.85714285714286</ele><time>2026-04-24T15:34:32.998Z</time></trkpt><trkpt lat="49.13379649202101" lon="2.5389978848166077"><ele>62.57142857142858</ele><time>2026-04-24T15:34:34.998Z</time></trkpt><trkpt lat="49.13375033841876" lon="2.538927748769566"><ele>62.28571428571429</ele><time>2026-04-24T15:34:36.998Z</time></trkpt><trkpt lat="49.13370669643435" lon="2.5388440508588768"><ele>62.0</ele><time>2026-04-24T15:34:38.997Z</time></trkpt><trkpt lat="49.13365128556002" lon="2.5387563876407344"><ele>62.16666666666667</ele><time>2026-04-24T15:34:40.997Z</time></trkpt><trkpt lat="49.13360030853987" lon="2.5386660255793436"><ele>62.333333333333336</ele><time>2026-04-24T15:34:42.997Z</time></trkpt><trkpt lat="49.13354606074267" lon="2.538568131351085"><ele>62.5</ele><time>2026-04-24T15:34:44.997Z</time></trkpt><trkpt lat="49.1335061908674" lon="2.5384772766672588"><ele>62.66666666666667</ele><time>2026-04-24T15:34:46.997Z</time></trkpt><trkpt lat="49.133453034768955" lon="2.538387498589109"><ele>62.833333333333336</ele><time>2026-04-24T15:34:48.997Z</time></trkpt><trkpt lat="49.13340482671536" lon="2.538296053907165"><ele>63.0</ele><time>2026-04-24T15:34:50.997Z</time></trkpt><trkpt lat="49.133365702189785" lon="2.5382006125912278"><ele>63.0</ele><time>2026-04-24T15:34:52.997Z</time></trkpt><trkpt lat="49.13332580111675" lon="2.5381180581217673"><ele>63.0</ele><time>2026-04-24T15:34:54.997Z</time></trkpt><trkpt lat="49.13327318748087" lon="2.538025212519955"><ele>63.0</ele><time>2026-04-24T15:34:57Z</time></trkpt><trkpt lat="49.13321411856433" lon="2.5379315650041416"><ele>63.0</ele><time>2026-04-24T15:34:59Z</time></trkpt><trkpt lat="49.13316280807403" lon="2.5378376633754205"><ele>63.0</ele><time>2026-04-24T15:35:01Z</time></trkpt><trkpt lat="49.13311181314769" lon="2.537748550040735"><ele>63.0</ele><time>2026-04-24T15:35:03Z</time></trkpt><trkpt lat="49.13305669000942" lon="2.537673697221771"><ele>63.166666666666664</ele><time>2026-04-24T15:35:05Z</time></trkpt><trkpt lat="49.13300685275725" lon="2.5375963073955092"><ele>63.33333333333333</ele><time>2026-04-24T15:35:07Z</time></trkpt><trkpt lat="49.132957237722415" lon="2.5375017605937673"><ele>63.5</ele><time>2026-04-24T15:35:09Z</time></trkpt><trkpt lat="49.13290058416308" lon="2.537433512525693"><ele>63.666666666666664</ele><time>2026-04-24T15:35:11Z</time></trkpt><trkpt lat="49.13281101532736" lon="2.5374299551818824"><ele>63.83333333333333</ele><time>2026-04-24T15:35:13Z</time></trkpt><trkpt lat="49.13273160879237" lon="2.537427269680483"><ele>64.0</ele><time>2026-04-24T15:35:15Z</time></trkpt><trkpt lat="49.132662393216705" lon="2.537412461853882"><ele>63.99999999999999</ele><time>2026-04-24T15:35:17Z</time></trkpt><trkpt lat="49.1325817461557" lon="2.537408356036771"><ele>64.0</ele><time>2026-04-24T15:35:19Z</time></trkpt><trkpt lat="49.13250213704953" lon="2.537398943438631"><ele>64.0</ele><time>2026-04-24T15:35:21Z</time></trkpt><trkpt lat="49.13241819283644" lon="2.537391282063569"><ele>64.0</ele><time>2026-04-24T15:35:23Z</time></trkpt><trkpt lat="49.132334077003385" lon="2.537382334552312"><ele>63.99999999999999</ele><time>2026-04-24T15:35:25Z</time></trkpt><trkpt lat="49.132254598353654" lon="2.537371709612193"><ele>64.0</ele><time>2026-04-24T15:35:27Z</time></trkpt><trkpt lat="49.13216949428582" lon="2.5373615794715882"><ele>64.16666666666666</ele><time>2026-04-24T15:35:29Z</time></trkpt><trkpt lat="49.13208889014562" lon="2.5373444417503355"><ele>64.33333333333333</ele><time>2026-04-24T15:35:31Z</time></trkpt><trkpt lat="49.13199790960955" lon="2.537344057062078"><ele>64.5</ele><time>2026-04-24T15:35:33Z</time></trkpt><trkpt lat="49.13192002278837" lon="2.5373211825350914"><ele>64.66666666666667</ele><time>2026-04-24T15:35:35Z</time></trkpt><trkpt lat="49.13183658535138" lon="2.5373061507057173"><ele>64.83333333333334</ele><time>2026-04-24T15:35:36.999Z</time></trkpt><trkpt lat="49.131748164753446" lon="2.537313625776722"><ele>65.0</ele><time>2026-04-24T15:35:38.999Z</time></trkpt><trkpt lat="49.13166835375028" lon="2.5372909489684896"><ele>65.0</ele><time>2026-04-24T15:35:40.999Z</time></trkpt><trkpt lat="49.131578811944614" lon="2.537278061232196"><ele>65.0</ele><time>2026-04-24T15:35:42.999Z</time></trkpt><trkpt lat="49.13148979201611" lon="2.5372628027552344"><ele>65.0</ele><time>2026-04-24T15:35:44.999Z</time></trkpt><trkpt lat="49.13141032961833" lon="2.537252149117706"><ele>65.0</ele><time>2026-04-24T15:35:46.999Z</time></trkpt><trkpt lat="49.13133143562234" lon="2.537260166852982"><ele>65.0</ele><time>2026-04-24T15:35:48.999Z</time></trkpt><trkpt lat="49.131252053779285" lon="2.537247910322359"><ele>65.0</ele><time>2026-04-24T15:35:50.999Z</time></trkpt><trkpt lat="49.13117014732137" lon="2.53724041340934"><ele>65.2</ele><time>2026-04-24T15:35:52.999Z</time></trkpt><trkpt lat="49.131071710283436" lon="2.5372436288527553"><ele>65.4</ele><time>2026-04-24T15:35:54.999Z</time></trkpt><trkpt lat="49.13098005681308" lon="2.5372332407207647"><ele>65.6</ele><time>2026-04-24T15:35:56.999Z</time></trkpt><trkpt lat="49.13088877282942" lon="2.537214708832978"><ele>65.8</ele><time>2026-04-24T15:35:58.999Z</time></trkpt><trkpt lat="49.13080145013932" lon="2.5371994412966608"><ele>66.0</ele><time>2026-04-24T15:36:00.999Z</time></trkpt><trkpt lat="49.130719642318745" lon="2.5371838156564754"><ele>66.0</ele><time>2026-04-24T15:36:02.999Z</time></trkpt><trkpt lat="49.13062442693169" lon="2.537158576873944"><ele>66.0</ele><time>2026-04-24T15:36:04.999Z</time></trkpt><trkpt lat="49.13053172374302" lon="2.5371419627722864"><ele>66.0</ele><time>2026-04-24T15:36:06.999Z</time></trkpt><trkpt lat="49.130449071083724" lon="2.537133102107668"><ele>66.0</ele><time>2026-04-24T15:36:08.998Z</time></trkpt><trkpt lat="49.130361387955546" lon="2.537123696257704"><ele>66.0</ele><time>2026-04-24T15:36:10.998Z</time></trkpt><trkpt lat="49.130263675193156" lon="2.5371191150438324"><ele>66.0</ele><time>2026-04-24T15:36:12.998Z</time></trkpt><trkpt lat="49.13016576756373" lon="2.5371002033539165"><ele>66.0</ele><time>2026-04-24T15:36:14.998Z</time></trkpt><trkpt lat="49.130074967417556" lon="2.53708931045201"><ele>66.0</ele><time>2026-04-24T15:36:16.998Z</time></trkpt><trkpt lat="49.12999008519114" lon="2.5370689556738073"><ele>66.0</ele><time>2026-04-24T15:36:18.998Z</time></trkpt><trkpt lat="49.12991714184428" lon="2.5370911373374416"><ele>66.0</ele><time>2026-04-24T15:36:20.998Z</time></trkpt><trkpt lat="49.12984139225986" lon="2.537066803281966"><ele>66.0</ele><time>2026-04-24T15:36:23.998Z</time></trkpt><trkpt lat="49.12976573216973" lon="2.537050419198773"><ele>65.8</ele><time>2026-04-24T15:36:25.998Z</time></trkpt><trkpt lat="49.12968834729502" lon="2.5370118078715818"><ele>65.6</ele><time>2026-04-24T15:36:27.998Z</time></trkpt><trkpt lat="49.129650244246434" lon="2.5368573691589"><ele>65.4</ele><time>2026-04-24T15:36:29.998Z</time></trkpt><trkpt lat="49.12967635107045" lon="2.536696387146673"><ele>65.2</ele><time>2026-04-24T15:36:31.998Z</time></trkpt><trkpt lat="49.1296756351764" lon="2.536530600271763"><ele>65.0</ele><time>2026-04-24T15:36:33.998Z</time></trkpt><trkpt lat="49.12968322827702" lon="2.536356135074485"><ele>65.2</ele><time>2026-04-24T15:36:35.998Z</time></trkpt><trkpt lat="49.12968941372001" lon="2.536187381835209"><ele>65.4</ele><time>2026-04-24T15:36:37.998Z</time></trkpt><trkpt lat="49.129691672728725" lon="2.5360905124599684"><ele>65.6</ele><time>2026-04-24T15:36:38.998Z</time></trkpt><trkpt lat="49.12969844658078" lon="2.5359172233290526"><ele>65.8</ele><time>2026-04-24T15:36:40.998Z</time></trkpt><trkpt lat="49.129700036707895" lon="2.5357411015597613"><ele>66.0</ele><time>2026-04-24T15:36:42.997Z</time></trkpt><trkpt lat="49.12970426782285" lon="2.535565226724786"><ele>66.0</ele><time>2026-04-24T15:36:44.997Z</time></trkpt><trkpt lat="49.12971143804359" lon="2.535387808717965"><ele>66.0</ele><time>2026-04-24T15:36:46.997Z</time></trkpt><trkpt lat="49.12971928390192" lon="2.5352147459895336"><ele>66.0</ele><time>2026-04-24T15:36:48.997Z</time></trkpt><trkpt lat="49.12972376275269" lon="2.535039981271494"><ele>66.0</ele><time>2026-04-24T15:36:50.997Z</time></trkpt><trkpt lat="49.12972819945011" lon="2.534867351363106"><ele>66.0</ele><time>2026-04-24T15:36:52.997Z</time></trkpt><trkpt lat="49.12973161671141" lon="2.5347022980533462"><ele>66.0</ele><time>2026-04-24T15:36:54.997Z</time></trkpt><trkpt lat="49.129736618826215" lon="2.534529723232289"><ele>66.0</ele><time>2026-04-24T15:36:56.997Z</time></trkpt><trkpt lat="49.1297449253459" lon="2.5343577983336205"><ele>66.0</ele><time>2026-04-24T15:36:58.997Z</time></trkpt><trkpt lat="49.12974806787129" lon="2.5341885672445232"><ele>66.0</ele><time>2026-04-24T15:37:00.997Z</time></trkpt><trkpt lat="49.12974856489717" lon="2.534038131814416"><ele>66.2</ele><time>2026-04-24T15:37:03Z</time></trkpt><trkpt lat="49.1297684090903" lon="2.533902818090737"><ele>66.39999999999999</ele><time>2026-04-24T15:37:05Z</time></trkpt><trkpt lat="49.12984964897829" lon="2.5338562900377335"><ele>66.6</ele><time>2026-04-24T15:37:07Z</time></trkpt><trkpt lat="49.129950211199" lon="2.5338832796784665"><ele>66.8</ele><time>2026-04-24T15:37:09Z</time></trkpt><trkpt lat="49.1300525139882" lon="2.5338774174717935"><ele>67.0</ele><time>2026-04-24T15:37:11Z</time></trkpt><trkpt lat="49.13015533849586" lon="2.5338841574638473"><ele>67.2</ele><time>2026-04-24T15:37:13Z</time></trkpt><trkpt lat="49.13024833218696" lon="2.5338984533912856"><ele>67.4</ele><time>2026-04-24T15:37:15Z</time></trkpt><trkpt lat="49.13027420778862" lon="2.533736591448522"><ele>67.6</ele><time>2026-04-24T15:37:17Z</time></trkpt><trkpt lat="49.1301972923967" lon="2.5336099213518275"><ele>67.8</ele><time>2026-04-24T15:37:19Z</time></trkpt><trkpt lat="49.13018474284418" lon="2.533453706619231"><ele>68.0</ele><time>2026-04-24T15:37:21Z</time></trkpt><trkpt lat="49.130181899342155" lon="2.533296513513653"><ele>68.2</ele><time>2026-04-24T15:37:23Z</time></trkpt><trkpt lat="49.13015678526617" lon="2.5331505844587707"><ele>68.4</ele><time>2026-04-24T15:37:25Z</time></trkpt><trkpt lat="49.130127006925576" lon="2.533012218344935"><ele>68.60000000000001</ele><time>2026-04-24T15:37:27Z</time></trkpt><trkpt lat="49.130102938365845" lon="2.5328777935901137"><ele>68.8</ele><time>2026-04-24T15:37:29Z</time></trkpt><trkpt lat="49.13007540996784" lon="2.532745640179163"><ele>69.0</ele><time>2026-04-24T15:37:31Z</time></trkpt><trkpt lat="49.1300681816467" lon="2.532613449803599"><ele>69.4</ele><time>2026-04-24T15:37:33Z</time></trkpt><trkpt lat="49.13006570730651" lon="2.532459828587409"><ele>69.80000000000001</ele><time>2026-04-24T15:37:35Z</time></trkpt><trkpt lat="49.13006152713823" lon="2.5323023293973153"><ele>70.19999999999999</ele><time>2026-04-24T15:37:37Z</time></trkpt><trkpt lat="49.13005580142834" lon="2.5321441524857935"><ele>70.6</ele><time>2026-04-24T15:37:39Z</time></trkpt><trkpt lat="49.130050830713955" lon="2.5319812550029357"><ele>71.0</ele><time>2026-04-24T15:37:40.999Z</time></trkpt><trkpt lat="49.13004563293444" lon="2.531813979099316"><ele>71.0</ele><time>2026-04-24T15:37:42.999Z</time></trkpt><trkpt lat="49.130040446385955" lon="2.5316474181581423"><ele>71.0</ele><time>2026-04-24T15:37:44.999Z</time></trkpt><trkpt lat="49.130034766670725" lon="2.531485240877201"><ele>71.0</ele><time>2026-04-24T15:37:46.999Z</time></trkpt><trkpt lat="49.13003016441602" lon="2.5313366345094543"><ele>71.0</ele><time>2026-04-24T15:37:48.999Z</time></trkpt><trkpt lat="49.130025836554374" lon="2.531156859581822"><ele>71.0</ele><time>2026-04-24T15:37:50.999Z</time></trkpt><trkpt lat="49.1300056043465" lon="2.530986808691207"><ele>70.75</ele><time>2026-04-24T15:37:52.999Z</time></trkpt><trkpt lat="49.12999974482453" lon="2.530809602823052"><ele>70.5</ele><time>2026-04-24T15:37:54.999Z</time></trkpt><trkpt lat="49.130001072284045" lon="2.5306328063790886"><ele>70.25</ele><time>2026-04-24T15:37:56.999Z</time></trkpt><trkpt lat="49.130006239098506" lon="2.53044714568471"><ele>70.0</ele><time>2026-04-24T15:37:58.999Z</time></trkpt><trkpt lat="49.130000654059415" lon="2.530264912167289"><ele>69.75</ele><time>2026-04-24T15:38:00.999Z</time></trkpt><trkpt lat="49.12999615970665" lon="2.530073482045813"><ele>69.5</ele><time>2026-04-24T15:38:02.999Z</time></trkpt><trkpt lat="49.129991989830664" lon="2.529887394023614"><ele>69.25</ele><time>2026-04-24T15:38:04.999Z</time></trkpt><trkpt lat="49.1299856739847" lon="2.5296997710926394"><ele>69.0</ele><time>2026-04-24T15:38:06.999Z</time></trkpt><trkpt lat="49.129980584466736" lon="2.529516711665198"><ele>68.8</ele><time>2026-04-24T15:38:08.999Z</time></trkpt><trkpt lat="49.12997575200198" lon="2.5293495774382357"><ele>68.60000000000001</ele><time>2026-04-24T15:38:10.999Z</time></trkpt><trkpt lat="49.12997077503693" lon="2.5291774455225773"><ele>68.4</ele><time>2026-04-24T15:38:12.998Z</time></trkpt><trkpt lat="49.12996531314449" lon="2.5290167623800675"><ele>68.2</ele><time>2026-04-24T15:38:14.998Z</time></trkpt><trkpt lat="49.129959227653515" lon="2.5288570982986514"><ele>68.0</ele><time>2026-04-24T15:38:16.998Z</time></trkpt><trkpt lat="49.12994418464721" lon="2.528694064912019"><ele>67.8</ele><time>2026-04-24T15:38:18.998Z</time></trkpt><trkpt lat="49.12996374220273" lon="2.528536219301024"><ele>67.6</ele><time>2026-04-24T15:38:20.998Z</time></trkpt><trkpt lat="49.129962818719946" lon="2.528375261421604"><ele>67.4</ele><time>2026-04-24T15:38:22.998Z</time></trkpt><trkpt lat="49.12997630271829" lon="2.5282176062634782"><ele>67.2</ele><time>2026-04-24T15:38:24.998Z</time></trkpt><trkpt lat="49.12998381347557" lon="2.528057316242113"><ele>67.0</ele><time>2026-04-24T15:38:26.998Z</time></trkpt><trkpt lat="49.129995254758896" lon="2.527900795707522"><ele>67.2</ele><time>2026-04-24T15:38:28.998Z</time></trkpt><trkpt lat="49.12999730306506" lon="2.527740873586014"><ele>67.4</ele><time>2026-04-24T15:38:30.998Z</time></trkpt><trkpt lat="49.1300084189917" lon="2.527580248033101"><ele>67.6</ele><time>2026-04-24T15:38:32.998Z</time></trkpt><trkpt lat="49.13003173583085" lon="2.5274198822980734"><ele>67.8</ele><time>2026-04-24T15:38:34.998Z</time></trkpt><trkpt lat="49.13001959615012" lon="2.527261157167493"><ele>68.0</ele><time>2026-04-24T15:38:36.998Z</time></trkpt><trkpt lat="49.13003760905352" lon="2.5271094549918893"><ele>68.16666666666667</ele><time>2026-04-24T15:38:38.998Z</time></trkpt><trkpt lat="49.13003533312531" lon="2.5269583264824216"><ele>68.33333333333334</ele><time>2026-04-24T15:38:40.998Z</time></trkpt><trkpt lat="49.12997309754841" lon="2.526838190250629"><ele>68.5</ele><time>2026-04-24T15:38:42.998Z</time></trkpt><trkpt lat="49.12990546083067" lon="2.5268247696550543"><ele>68.66666666666667</ele><time>2026-04-24T15:38:43.998Z</time></trkpt><trkpt lat="49.129826412113715" lon="2.5268536520659493"><ele>68.83333333333333</ele><time>2026-04-24T15:38:44.998Z</time></trkpt><trkpt lat="49.129730015394124" lon="2.526890720252837"><ele>69.0</ele><time>2026-04-24T15:38:45.997Z</time></trkpt><trkpt lat="49.12989088486657" lon="2.526682284097155"><ele>69.0</ele><time>2026-04-24T15:38:46.997Z</time></trkpt><trkpt lat="49.1299653172562" lon="2.526581755398378"><ele>69.0</ele><time>2026-04-24T15:38:48.997Z</time></trkpt><trkpt lat="49.13001216372365" lon="2.526464077222242"><ele>69.0</ele><time>2026-04-24T15:38:50.997Z</time></trkpt><trkpt lat="49.130048214108875" lon="2.5263369078448727"><ele>69.0</ele><time>2026-04-24T15:38:52.997Z</time></trkpt><trkpt lat="49.13008734563651" lon="2.5262179442727413"><ele>69.0</ele><time>2026-04-24T15:38:54.997Z</time></trkpt><trkpt lat="49.13012562786909" lon="2.5260927658676215"><ele>69.0</ele><time>2026-04-24T15:38:56.997Z</time></trkpt><trkpt lat="49.13015982557501" lon="2.5259789273360482"><ele>69.0</ele><time>2026-04-24T15:38:58.997Z</time></trkpt><trkpt lat="49.13020643438389" lon="2.5258667687519343"><ele>69.0</ele><time>2026-04-24T15:39:00.997Z</time></trkpt><trkpt lat="49.130253286656604" lon="2.5257446131912835"><ele>69.0</ele><time>2026-04-24T15:39:02.997Z</time></trkpt><trkpt lat="49.13028949139135" lon="2.525626195991378"><ele>69.0</ele><time>2026-04-24T15:39:04.997Z</time></trkpt><trkpt lat="49.130329959364445" lon="2.5255185194983776"><ele>69.0</ele><time>2026-04-24T15:39:06.997Z</time></trkpt><trkpt lat="49.13037285228997" lon="2.5254027737879126"><ele>68.66666666666667</ele><time>2026-04-24T15:39:09Z</time></trkpt><trkpt lat="49.130411551822476" lon="2.525287733739218"><ele>68.33333333333333</ele><time>2026-04-24T15:39:11Z</time></trkpt><trkpt lat="49.130447809245325" lon="2.525172881311888"><ele>68.0</ele><time>2026-04-24T15:39:13Z</time></trkpt><trkpt lat="49.130484757401106" lon="2.525054601941117"><ele>67.66666666666666</ele><time>2026-04-24T15:39:15Z</time></trkpt><trkpt lat="49.130522132784286" lon="2.5249430269258695"><ele>67.33333333333333</ele><time>2026-04-24T15:39:17Z</time></trkpt><trkpt lat="49.13056342732634" lon="2.524864494764855"><ele>67.0</ele><time>2026-04-24T15:39:19Z</time></trkpt><trkpt lat="49.13058487721361" lon="2.5247539844277567"><ele>67.0</ele><time>2026-04-24T15:39:21Z</time></trkpt><trkpt lat="49.13072250638422" lon="2.52465841878359"><ele>67.0</ele><time>2026-04-24T15:39:24Z</time></trkpt><trkpt lat="49.130763799520714" lon="2.524538394378299"><ele>67.0</ele><time>2026-04-24T15:39:26Z</time></trkpt><trkpt lat="49.13080497769871" lon="2.5244219939059387"><ele>67.0</ele><time>2026-04-24T15:39:28Z</time></trkpt><trkpt lat="49.13084857506562" lon="2.52429949042024"><ele>67.0</ele><time>2026-04-24T15:39:30Z</time></trkpt><trkpt lat="49.13089184512896" lon="2.524174699090248"><ele>67.16666666666666</ele><time>2026-04-24T15:39:32Z</time></trkpt><trkpt lat="49.13093262747336" lon="2.5240553924787346"><ele>67.33333333333333</ele><time>2026-04-24T15:39:34Z</time></trkpt><trkpt lat="49.1309710633571" lon="2.523942950359613"><ele>67.5</ele><time>2026-04-24T15:39:36Z</time></trkpt><trkpt lat="49.13101010291853" lon="2.5238287422057635"><ele>67.66666666666667</ele><time>2026-04-24T15:39:38Z</time></trkpt><trkpt lat="49.131050622853316" lon="2.523711646047241"><ele>67.83333333333334</ele><time>2026-04-24T15:39:40Z</time></trkpt><trkpt lat="49.13109505620628" lon="2.5235845222021203"><ele>68.0</ele><time>2026-04-24T15:39:42Z</time></trkpt><trkpt lat="49.1311398942819" lon="2.5234581195139336"><ele>68.0</ele><time>2026-04-24T15:39:44Z</time></trkpt><trkpt lat="49.13118730880965" lon="2.52332445363949"><ele>68.0</ele><time>2026-04-24T15:39:46Z</time></trkpt><trkpt lat="49.13123290318784" lon="2.5231951725225703"><ele>68.0</ele><time>2026-04-24T15:39:47.999Z</time></trkpt><trkpt lat="49.13127593587739" lon="2.5230712969691336"><ele>68.0</ele><time>2026-04-24T15:39:49.999Z</time></trkpt><trkpt lat="49.1313193895163" lon="2.5229462096328623"><ele>68.0</ele><time>2026-04-24T15:39:51.999Z</time></trkpt><trkpt lat="49.13136389332904" lon="2.522818099247223"><ele>67.6</ele><time>2026-04-24T15:39:53.999Z</time></trkpt><trkpt lat="49.13140678842388" lon="2.5226946198152427"><ele>67.19999999999999</ele><time>2026-04-24T15:39:55.999Z</time></trkpt><trkpt lat="49.13144492494985" lon="2.522565950530992"><ele>66.8</ele><time>2026-04-24T15:39:57.999Z</time></trkpt><trkpt lat="49.13145903787048" lon="2.5224558189825337"><ele>66.39999999999999</ele><time>2026-04-24T15:40:00.999Z</time></trkpt><trkpt lat="49.131333888829516" lon="2.522299444150006"><ele>66.0</ele><time>2026-04-24T15:40:01.999Z</time></trkpt><trkpt lat="49.131260937257636" lon="2.5222085882993017"><ele>66.0</ele><time>2026-04-24T15:40:04.999Z</time></trkpt><trkpt lat="49.13118490322373" lon="2.522158419151355"><ele>66.0</ele><time>2026-04-24T15:40:06.999Z</time></trkpt><trkpt lat="49.131111457818484" lon="2.5220821690608"><ele>66.0</ele><time>2026-04-24T15:40:08.999Z</time></trkpt><trkpt lat="49.13103577830216" lon="2.522021275927099"><ele>66.0</ele><time>2026-04-24T15:40:10.999Z</time></trkpt><trkpt lat="49.130959433955184" lon="2.5219598228560223"><ele>66.0</ele><time>2026-04-24T15:40:12.999Z</time></trkpt><trkpt lat="49.1308787136728" lon="2.521912589688546"><ele>66.0</ele><time>2026-04-24T15:40:14.999Z</time></trkpt><trkpt lat="49.1308061231706" lon="2.521854476585041"><ele>66.0</ele><time>2026-04-24T15:40:16.999Z</time></trkpt><trkpt lat="49.130731511111286" lon="2.521776939264172"><ele>66.0</ele><time>2026-04-24T15:40:18.998Z</time></trkpt><trkpt lat="49.13065530178115" lon="2.52171148047288"><ele>66.0</ele><time>2026-04-24T15:40:20.998Z</time></trkpt><trkpt lat="49.130578465696125" lon="2.521642869324145"><ele>66.0</ele><time>2026-04-24T15:40:22.998Z</time></trkpt><trkpt lat="49.1305002657" lon="2.52157884528871"><ele>66.0</ele><time>2026-04-24T15:40:24.998Z</time></trkpt><trkpt lat="49.13042160327292" lon="2.521516411395967"><ele>66.0</ele><time>2026-04-24T15:40:26.998Z</time></trkpt><trkpt lat="49.13034157974453" lon="2.5214536441426705"><ele>66.16666666666667</ele><time>2026-04-24T15:40:28.998Z</time></trkpt><trkpt lat="49.130256112599795" lon="2.5214130422657286"><ele>66.33333333333333</ele><time>2026-04-24T15:40:30.998Z</time></trkpt><trkpt lat="49.13018409348237" lon="2.5213397970778284"><ele>66.5</ele><time>2026-04-24T15:40:32.998Z</time></trkpt><trkpt lat="49.13010467738912" lon="2.521281773426375"><ele>66.66666666666666</ele><time>2026-04-24T15:40:34.998Z</time></trkpt><trkpt lat="49.13002763248802" lon="2.52123569737247"><ele>66.83333333333333</ele><time>2026-04-24T15:40:36.998Z</time></trkpt><trkpt lat="49.12994521992046" lon="2.5211952612997317"><ele>67.0</ele><time>2026-04-24T15:40:38.998Z</time></trkpt><trkpt lat="49.12986813881141" lon="2.521150155576344"><ele>67.5</ele><time>2026-04-24T15:40:40.998Z</time></trkpt><trkpt lat="49.12979141828546" lon="2.5210960253689505"><ele>68.0</ele><time>2026-04-24T15:40:42.998Z</time></trkpt><trkpt lat="49.129711759414086" lon="2.521067364227564"><ele>68.5</ele><time>2026-04-24T15:40:44.998Z</time></trkpt><trkpt lat="49.12963811099836" lon="2.521014977405184"><ele>69.0</ele><time>2026-04-24T15:40:46.998Z</time></trkpt><trkpt lat="49.12956769235188" lon="2.5209597692884183"><ele>69.5</ele><time>2026-04-24T15:40:48.998Z</time></trkpt><trkpt lat="49.12949700438808" lon="2.5209005161454057"><ele>70.0</ele><time>2026-04-24T15:40:50.998Z</time></trkpt><trkpt lat="49.12942757607351" lon="2.520836519688209"><ele>70.0</ele><time>2026-04-24T15:40:52.997Z</time></trkpt><trkpt lat="49.12936217306734" lon="2.520768311165331"><ele>70.0</ele><time>2026-04-24T15:40:54.997Z</time></trkpt><trkpt lat="49.12930048914052" lon="2.52069972001473"><ele>70.0</ele><time>2026-04-24T15:40:56.997Z</time></trkpt><trkpt lat="49.12923342122225" lon="2.520619206845959"><ele>70.0</ele><time>2026-04-24T15:40:58.997Z</time></trkpt><trkpt lat="49.12917205416481" lon="2.5205423570359797"><ele>70.0</ele><time>2026-04-24T15:41:00.997Z</time></trkpt><trkpt lat="49.12911397749333" lon="2.5204634062472886"><ele>70.0</ele><time>2026-04-24T15:41:02.997Z</time></trkpt><trkpt lat="49.129055843425284" lon="2.5203782167365696"><ele>70.5</ele><time>2026-04-24T15:41:04.997Z</time></trkpt><trkpt lat="49.12900105492368" lon="2.520291534194733"><ele>71.0</ele><time>2026-04-24T15:41:06.997Z</time></trkpt><trkpt lat="49.12895615667503" lon="2.520194117642984"><ele>71.5</ele><time>2026-04-24T15:41:08.997Z</time></trkpt><trkpt lat="49.128898613207305" lon="2.520110844867664"><ele>72.0</ele><time>2026-04-24T15:41:10.997Z</time></trkpt><trkpt lat="49.128846009247916" lon="2.5200236199133035"><ele>72.5</ele><time>2026-04-24T15:41:13Z</time></trkpt><trkpt lat="49.12878920772159" lon="2.519935634087224"><ele>73.0</ele><time>2026-04-24T15:41:15Z</time></trkpt><trkpt lat="49.12873627194981" lon="2.5198486640239386"><ele>73.0</ele><time>2026-04-24T15:41:17Z</time></trkpt><trkpt lat="49.1286812059218" lon="2.5197680975980177"><ele>73.0</ele><time>2026-04-24T15:41:19Z</time></trkpt><trkpt lat="49.1286227896009" lon="2.519691280693207"><ele>73.0</ele><time>2026-04-24T15:41:21Z</time></trkpt><trkpt lat="49.1285693032817" lon="2.519605636578753"><ele>73.0</ele><time>2026-04-24T15:41:23Z</time></trkpt><trkpt lat="49.12851768293291" lon="2.5195148547409913"><ele>73.0</ele><time>2026-04-24T15:41:25Z</time></trkpt><trkpt lat="49.12846453214144" lon="2.5194358089137223"><ele>73.0</ele><time>2026-04-24T15:41:27Z</time></trkpt><trkpt lat="49.128415669521594" lon="2.519356611687569"><ele>73.14285714285714</ele><time>2026-04-24T15:41:29Z</time></trkpt><trkpt lat="49.12836423329576" lon="2.519283222048355"><ele>73.28571428571429</ele><time>2026-04-24T15:41:31Z</time></trkpt><trkpt lat="49.128311436278075" lon="2.5192021918617233"><ele>73.42857142857143</ele><time>2026-04-24T15:41:33Z</time></trkpt><trkpt lat="49.12824709779071" lon="2.519138394786338"><ele>73.57142857142857</ele><time>2026-04-24T15:41:35Z</time></trkpt><trkpt lat="49.128191309400655" lon="2.519056537340708"><ele>73.71428571428571</ele><time>2026-04-24T15:41:37Z</time></trkpt><trkpt lat="49.12815504695869" lon="2.5189524679729494"><ele>73.85714285714286</ele><time>2026-04-24T15:41:39Z</time></trkpt><trkpt lat="49.12810651817218" lon="2.51886980078835"><ele>74.0</ele><time>2026-04-24T15:41:41Z</time></trkpt><trkpt lat="49.128058506803306" lon="2.5187984122645855"><ele>73.8</ele><time>2026-04-24T15:41:43Z</time></trkpt><trkpt lat="49.12801893668147" lon="2.518719379442319"><ele>73.60000000000001</ele><time>2026-04-24T15:41:45Z</time></trkpt><trkpt lat="49.12811141481767" lon="2.5185114285714887"><ele>73.4</ele><time>2026-04-24T15:41:48.999Z</time></trkpt><trkpt lat="49.12815606462119" lon="2.51840380546041"><ele>73.2</ele><time>2026-04-24T15:41:50.999Z</time></trkpt><trkpt lat="49.12819474514794" lon="2.5182946184784742"><ele>73.0</ele><time>2026-04-24T15:41:52.999Z</time></trkpt><trkpt lat="49.12823022688864" lon="2.51819109102803"><ele>73.0</ele><time>2026-04-24T15:41:54.999Z</time></trkpt><trkpt lat="49.128269566939025" lon="2.5181071936914194"><ele>73.0</ele><time>2026-04-24T15:41:56.999Z</time></trkpt><trkpt lat="49.12830645014633" lon="2.5179997602117132"><ele>73.0</ele><time>2026-04-24T15:41:58.999Z</time></trkpt><trkpt lat="49.1283453601236" lon="2.5178991020767416"><ele>73.0</ele><time>2026-04-24T15:42:00.999Z</time></trkpt><trkpt lat="49.12838251616476" lon="2.517794086225448"><ele>73.0</ele><time>2026-04-24T15:42:02.999Z</time></trkpt><trkpt lat="49.128424520964714" lon="2.5176947710682076"><ele>73.0</ele><time>2026-04-24T15:42:04.999Z</time></trkpt><trkpt lat="49.12845560460533" lon="2.517600843160294"><ele>73.0</ele><time>2026-04-24T15:42:06.999Z</time></trkpt><trkpt lat="49.1284954842196" lon="2.5175232002620094"><ele>73.33333333333333</ele><time>2026-04-24T15:42:08.999Z</time></trkpt><trkpt lat="49.12854904365856" lon="2.5174075110424012"><ele>73.66666666666666</ele><time>2026-04-24T15:42:11.999Z</time></trkpt><trkpt lat="49.12862768864957" lon="2.5174764822948323"><ele>74.0</ele><time>2026-04-24T15:42:13.999Z</time></trkpt><trkpt lat="49.12870819948397" lon="2.5175218605598024"><ele>74.33333333333333</ele><time>2026-04-24T15:42:15.999Z</time></trkpt><trkpt lat="49.12878898653465" lon="2.5175491206324287"><ele>74.66666666666667</ele><time>2026-04-24T15:42:17.999Z</time></trkpt><trkpt lat="49.128869396305014" lon="2.517570039532929"><ele>75.0</ele><time>2026-04-24T15:42:19.998Z</time></trkpt><trkpt lat="49.12895141969875" lon="2.517584303961018"><ele>75.0</ele><time>2026-04-24T15:42:21.998Z</time></trkpt><trkpt lat="49.12903243317218" lon="2.5176066806963946"><ele>75.0</ele><time>2026-04-24T15:42:23.998Z</time></trkpt><trkpt lat="49.12910670461378" lon="2.5176371011319234"><ele>75.0</ele><time>2026-04-24T15:42:25.998Z</time></trkpt><trkpt lat="49.12917612483682" lon="2.517673337215988"><ele>75.0</ele><time>2026-04-24T15:42:27.998Z</time></trkpt><trkpt lat="49.129252774323795" lon="2.5176629302541573"><ele>75.0</ele><time>2026-04-24T15:42:29.998Z</time></trkpt><trkpt lat="49.12928067584398" lon="2.517558917325608"><ele>75.0</ele><time>2026-04-24T15:42:31.998Z</time></trkpt><trkpt lat="49.129295989173464" lon="2.5174543738271993"><ele>75.0</ele><time>2026-04-24T15:42:33.998Z</time></trkpt><trkpt lat="49.12930334473995" lon="2.5173464577685"><ele>75.0</ele><time>2026-04-24T15:42:35.998Z</time></trkpt><trkpt lat="49.12922343270085" lon="2.517206512577591"><ele>75.0</ele><time>2026-04-24T15:42:36.998Z</time></trkpt><trkpt lat="49.12926128331412" lon="2.517106844213768"><ele>75.0</ele><time>2026-04-24T15:42:38.998Z</time></trkpt><trkpt lat="49.1293001860325" lon="2.5170044026948615"><ele>75.0</ele><time>2026-04-24T15:42:40.998Z</time></trkpt><trkpt lat="49.12933797330979" lon="2.516904898397544"><ele>75.0</ele><time>2026-04-24T15:42:42.998Z</time></trkpt><trkpt lat="49.12937450455194" lon="2.5168087016106595"><ele>75.33333333333333</ele><time>2026-04-24T15:42:44.998Z</time></trkpt><trkpt lat="49.12941550651119" lon="2.5167283846728252"><ele>75.66666666666667</ele><time>2026-04-24T15:42:46.998Z</time></trkpt><trkpt lat="49.1294479593292" lon="2.516615275403214"><ele>76.0</ele><time>2026-04-24T15:42:49.998Z</time></trkpt><trkpt lat="49.129529480291055" lon="2.516715320112628"><ele>76.33333333333334</ele><time>2026-04-24T15:42:50.997Z</time></trkpt><trkpt lat="49.1296063471458" lon="2.5167525532031734"><ele>76.66666666666667</ele><time>2026-04-24T15:42:52.997Z</time></trkpt><trkpt lat="49.12968315112764" lon="2.516791754269829"><ele>77.0</ele><time>2026-04-24T15:42:54.997Z</time></trkpt><trkpt lat="49.12975818070073" lon="2.5168302901171398"><ele>77.0</ele><time>2026-04-24T15:42:56.997Z</time></trkpt><trkpt lat="49.12983516001886" lon="2.516868776708506"><ele>77.0</ele><time>2026-04-24T15:42:58.997Z</time></trkpt><trkpt lat="49.12990584495831" lon="2.516897886222061"><ele>77.0</ele><time>2026-04-24T15:43:00.997Z</time></trkpt><trkpt lat="49.13001397194737" lon="2.5170156286067664"><ele>77.0</ele><time>2026-04-24T15:43:03.997Z</time></trkpt><trkpt lat="49.130115196701844" lon="2.516624723053879"><ele>77.0</ele><time>2026-04-24T15:43:04.997Z</time></trkpt><trkpt lat="49.130085181677686" lon="2.516500157087075"><ele>77.0</ele><time>2026-04-24T15:43:07.997Z</time></trkpt><trkpt lat="49.1300549529003" lon="2.516395960054"><ele>77.0</ele><time>2026-04-24T15:43:10.997Z</time></trkpt><trkpt lat="49.13002331162716" lon="2.5162911701867547"><ele>77.0</ele><time>2026-04-24T15:43:13.997Z</time></trkpt><trkpt lat="49.13003317600511" lon="2.5161929712062956"><ele>77.0</ele><time>2026-04-24T15:43:15.997Z</time></trkpt><trkpt lat="49.13005449743743" lon="2.5160914556187466"><ele>77.0</ele><time>2026-04-24T15:43:18Z</time></trkpt><trkpt lat="49.130098213053294" lon="2.5160097641263968"><ele>77.0</ele><time>2026-04-24T15:43:20Z</time></trkpt><trkpt lat="49.130162919991704" lon="2.515908438549848"><ele>77.5</ele><time>2026-04-24T15:43:23Z</time></trkpt><trkpt lat="49.13018633421887" lon="2.5157792298785413"><ele>78.0</ele><time>2026-04-24T15:43:26Z</time></trkpt><trkpt lat="49.1302086913489" lon="2.5156384925242117"><ele>78.5</ele><time>2026-04-24T15:43:29Z</time></trkpt><trkpt lat="49.130222162854935" lon="2.515509411790126"><ele>79.0</ele><time>2026-04-24T15:43:32Z</time></trkpt><trkpt lat="49.13025246362789" lon="2.5154244918221464"><ele>79.5</ele><time>2026-04-24T15:43:34Z</time></trkpt><trkpt lat="49.13025677727155" lon="2.515290670717109"><ele>80.0</ele><time>2026-04-24T15:43:37Z</time></trkpt><trkpt lat="49.13029818653964" lon="2.515167223132715"><ele>80.16666666666667</ele><time>2026-04-24T15:43:40Z</time></trkpt><trkpt lat="49.130316416254196" lon="2.515027284366727"><ele>80.33333333333334</ele><time>2026-04-24T15:43:43Z</time></trkpt><trkpt lat="49.13033263164176" lon="2.514895980516852"><ele>80.5</ele><time>2026-04-24T15:43:46Z</time></trkpt><trkpt lat="49.13035037069708" lon="2.5147897197351563"><ele>80.66666666666667</ele><time>2026-04-24T15:43:49Z</time></trkpt><trkpt lat="49.13038566083347" lon="2.514704608274035"><ele>80.83333333333333</ele><time>2026-04-24T15:43:51Z</time></trkpt><trkpt lat="49.130462214555706" lon="2.5146540935146278"><ele>81.0</ele><time>2026-04-24T15:43:53.999Z</time></trkpt><trkpt lat="49.13052577448671" lon="2.5146200952791267"><ele>81.0</ele><time>2026-04-24T15:43:55.999Z</time></trkpt><trkpt lat="49.13058564628322" lon="2.514583083052502"><ele>81.0</ele><time>2026-04-24T15:43:57.999Z</time></trkpt><trkpt lat="49.13066856874559" lon="2.5145537073948363"><ele>81.0</ele><time>2026-04-24T15:44:00.999Z</time></trkpt><trkpt lat="49.130737720937425" lon="2.5145260706294943"><ele>81.0</ele><time>2026-04-24T15:44:03.999Z</time></trkpt><trkpt lat="49.13079226231974" lon="2.51445300425769"><ele>81.0</ele><time>2026-04-24T15:44:06.999Z</time></trkpt><trkpt lat="49.13082586446716" lon="2.5143572751704575"><ele>81.0</ele><time>2026-04-24T15:44:12.999Z</time></trkpt><trkpt lat="49.13100684195016" lon="2.514448196860354"><ele>80.8</ele><time>2026-04-24T15:44:14.999Z</time></trkpt><trkpt lat="49.13104883341717" lon="2.51436669895023"><ele>80.6</ele><time>2026-04-24T15:44:16.999Z</time></trkpt><trkpt lat="49.131098526771915" lon="2.514277559708288"><ele>80.4</ele><time>2026-04-24T15:44:18.999Z</time></trkpt><trkpt lat="49.131073534555604" lon="2.5141068320293427"><ele>80.2</ele><time>2026-04-24T15:44:19.999Z</time></trkpt><trkpt lat="49.131104361585" lon="2.513992483973963"><ele>80.0</ele><time>2026-04-24T15:44:22.999Z</time></trkpt><trkpt lat="49.130880259737886" lon="2.513616996217544"><ele>80.33333333333334</ele><time>2026-04-24T15:44:37.998Z</time></trkpt><trkpt lat="49.13080046041061" lon="2.513607463151521"><ele>80.66666666666667</ele><time>2026-04-24T15:44:39.998Z</time></trkpt><trkpt lat="49.130728645045416" lon="2.513588672426178"><ele>81.0</ele><time>2026-04-24T15:44:41.998Z</time></trkpt><trkpt lat="49.130648533992314" lon="2.5135627635794386"><ele>81.33333333333333</ele><time>2026-04-24T15:44:43.998Z</time></trkpt><trkpt lat="49.13060450276062" lon="2.5134023190453636"><ele>81.66666666666666</ele><time>2026-04-24T15:44:46.998Z</time></trkpt><trkpt lat="49.13059711676578" lon="2.5132837214120283"><ele>82.0</ele><time>2026-04-24T15:44:48.998Z</time></trkpt><trkpt lat="49.13057640307591" lon="2.513166681577643"><ele>82.42857142857142</ele><time>2026-04-24T15:44:50.998Z</time></trkpt><trkpt lat="49.130566097695485" lon="2.51305844331309"><ele>82.85714285714286</ele><time>2026-04-24T15:44:52.998Z</time></trkpt><trkpt lat="49.13055533877333" lon="2.512941825079581"><ele>83.28571428571428</ele><time>2026-04-24T15:44:54.998Z</time></trkpt><trkpt lat="49.13054822493891" lon="2.5128335004675115"><ele>83.71428571428571</ele><time>2026-04-24T15:44:56.998Z</time></trkpt><trkpt lat="49.13055158752998" lon="2.5127182309866996"><ele>84.14285714285714</ele><time>2026-04-24T15:44:58.997Z</time></trkpt><trkpt lat="49.130559339436125" lon="2.5126056456759036"><ele>84.57142857142857</ele><time>2026-04-24T15:45:00.997Z</time></trkpt><trkpt lat="49.130568627831146" lon="2.512484289547829"><ele>85.0</ele><time>2026-04-24T15:45:02.997Z</time></trkpt><trkpt lat="49.130572566812894" lon="2.51236801615489"><ele>85.33333333333333</ele><time>2026-04-24T15:45:04.997Z</time></trkpt><trkpt lat="49.130579013688255" lon="2.5122505808308397"><ele>85.66666666666666</ele><time>2026-04-24T15:45:06.997Z</time></trkpt><trkpt lat="49.1305819070699" lon="2.512131442782138"><ele>86.0</ele><time>2026-04-24T15:45:08.997Z</time></trkpt><trkpt lat="49.13059129689395" lon="2.512009803647259"><ele>86.33333333333333</ele><time>2026-04-24T15:45:10.997Z</time></trkpt><trkpt lat="49.13060138221528" lon="2.511887383544443"><ele>86.66666666666667</ele><time>2026-04-24T15:45:12.997Z</time></trkpt><trkpt lat="49.1306104590938" lon="2.5117631207747992"><ele>87.0</ele><time>2026-04-24T15:45:14.997Z</time></trkpt><trkpt lat="49.13061435253354" lon="2.5116355626606546"><ele>87.16666666666667</ele><time>2026-04-24T15:45:16.997Z</time></trkpt><trkpt lat="49.13062570717639" lon="2.511513761105454"><ele>87.33333333333333</ele><time>2026-04-24T15:45:18.997Z</time></trkpt><trkpt lat="49.130632767479845" lon="2.5113794947558925"><ele>87.5</ele><time>2026-04-24T15:45:20.997Z</time></trkpt><trkpt lat="49.130638363054246" lon="2.51125321429559"><ele>87.66666666666666</ele><time>2026-04-24T15:45:22.997Z</time></trkpt><trkpt lat="49.130641300475084" lon="2.511130910302577"><ele>87.83333333333333</ele><time>2026-04-24T15:45:25Z</time></trkpt><trkpt lat="49.130644111903955" lon="2.511009689269875"><ele>88.0</ele><time>2026-04-24T15:45:27Z</time></trkpt><trkpt lat="49.13066365652558" lon="2.5108965243293397"><ele>88.0</ele><time>2026-04-24T15:45:29Z</time></trkpt><trkpt lat="49.130664181595606" lon="2.510776099039611"><ele>88.0</ele><time>2026-04-24T15:45:31Z</time></trkpt><trkpt lat="49.13068666960737" lon="2.510660960297507"><ele>88.0</ele><time>2026-04-24T15:45:33Z</time></trkpt><trkpt lat="49.13067694987145" lon="2.5105514062397933"><ele>88.0</ele><time>2026-04-24T15:45:35Z</time></trkpt><trkpt lat="49.13068340939044" lon="2.510437505975001"><ele>88.0</ele><time>2026-04-24T15:45:37Z</time></trkpt><trkpt lat="49.13070091322456" lon="2.51032980506023"><ele>88.0</ele><time>2026-04-24T15:45:39Z</time></trkpt><trkpt lat="49.13072399092244" lon="2.5102198198370003"><ele>87.66666666666666</ele><time>2026-04-24T15:45:41Z</time></trkpt><trkpt lat="49.13073045234139" lon="2.5100979496869322"><ele>87.33333333333333</ele><time>2026-04-24T15:45:43Z</time></trkpt><trkpt lat="49.13073911522583" lon="2.5099713732346682"><ele>87.0</ele><time>2026-04-24T15:45:45Z</time></trkpt><trkpt lat="49.13074379322782" lon="2.5098458638206154"><ele>86.66666666666667</ele><time>2026-04-24T15:45:47Z</time></trkpt><trkpt lat="49.130749304833955" lon="2.5097222391800456"><ele>86.33333333333334</ele><time>2026-04-24T15:45:49Z</time></trkpt><trkpt lat="49.130752500597644" lon="2.509600129383616"><ele>86.0</ele><time>2026-04-24T15:45:51Z</time></trkpt><trkpt lat="49.130759778439035" lon="2.5094792574352427"><ele>86.0</ele><time>2026-04-24T15:45:53Z</time></trkpt><trkpt lat="49.130773409655404" lon="2.5093584806134612"><ele>86.0</ele><time>2026-04-24T15:45:55Z</time></trkpt><trkpt lat="49.13078085069232" lon="2.509233313808499"><ele>86.0</ele><time>2026-04-24T15:45:56.999Z</time></trkpt><trkpt lat="49.13078684681711" lon="2.50911109726979"><ele>86.0</ele><time>2026-04-24T15:45:58.999Z</time></trkpt><trkpt lat="49.130794779322926" lon="2.5089886350775608"><ele>86.0</ele><time>2026-04-24T15:46:00.999Z</time></trkpt><trkpt lat="49.13080285692133" lon="2.508861279776875"><ele>86.0</ele><time>2026-04-24T15:46:02.999Z</time></trkpt><trkpt lat="49.13081026266682" lon="2.508738974435863"><ele>86.0</ele><time>2026-04-24T15:46:04.999Z</time></trkpt><trkpt lat="49.13081813718333" lon="2.5085987263161207"><ele>86.0</ele><time>2026-04-24T15:46:06.999Z</time></trkpt><trkpt lat="49.13083355664963" lon="2.5084557928793707"><ele>86.0</ele><time>2026-04-24T15:46:08.999Z</time></trkpt><trkpt lat="49.13082888205631" lon="2.508312120324255"><ele>86.0</ele><time>2026-04-24T15:46:10.999Z</time></trkpt><trkpt lat="49.13083829393101" lon="2.508166163303806"><ele>86.0</ele><time>2026-04-24T15:46:12.999Z</time></trkpt><trkpt lat="49.13085247516959" lon="2.5080434267704463"><ele>86.0</ele><time>2026-04-24T15:46:14.999Z</time></trkpt><trkpt lat="49.13099480911444" lon="2.5081132225589258"><ele>86.0</ele><time>2026-04-24T15:46:17.999Z</time></trkpt><trkpt lat="49.131069195995146" lon="2.5081996890426193"><ele>86.0</ele><time>2026-04-24T15:46:19.999Z</time></trkpt><trkpt lat="49.1311481299082" lon="2.5082797791578852"><ele>86.0</ele><time>2026-04-24T15:46:21.999Z</time></trkpt><trkpt lat="49.13123005056474" lon="2.508357989089755"><ele>86.0</ele><time>2026-04-24T15:46:23.999Z</time></trkpt><trkpt lat="49.131308321762425" lon="2.508436894278531"><ele>86.0</ele><time>2026-04-24T15:46:25.999Z</time></trkpt><trkpt lat="49.13139282989626" lon="2.508509703138112"><ele>86.0</ele><time>2026-04-24T15:46:27.998Z</time></trkpt><trkpt lat="49.131462565873925" lon="2.5085890270472566"><ele>86.0</ele><time>2026-04-24T15:46:29.998Z</time></trkpt><trkpt lat="49.131542692002085" lon="2.5086649327337147"><ele>86.0</ele><time>2026-04-24T15:46:31.998Z</time></trkpt><trkpt lat="49.13161507595637" lon="2.50872659385177"><ele>86.0</ele><time>2026-04-24T15:46:33.998Z</time></trkpt><trkpt lat="49.131697722373765" lon="2.508816083218772"><ele>85.66666666666667</ele><time>2026-04-24T15:46:35.998Z</time></trkpt><trkpt lat="49.131780275111794" lon="2.5088755131145173"><ele>85.33333333333334</ele><time>2026-04-24T15:46:37.998Z</time></trkpt><trkpt lat="49.13187795354243" lon="2.508936073995384"><ele>85.0</ele><time>2026-04-24T15:46:39.998Z</time></trkpt><trkpt lat="49.131953176682714" lon="2.508958648550222"><ele>84.66666666666667</ele><time>2026-04-24T15:46:41.998Z</time></trkpt><trkpt lat="49.13202368734318" lon="2.5089847358480744"><ele>84.33333333333333</ele><time>2026-04-24T15:46:43.998Z</time></trkpt><trkpt lat="49.13208730661465" lon="2.509016228051593"><ele>84.0</ele><time>2026-04-24T15:46:45.998Z</time></trkpt><trkpt lat="49.13215239551406" lon="2.509046502241843"><ele>84.0</ele><time>2026-04-24T15:46:47.998Z</time></trkpt><trkpt lat="49.13222243001976" lon="2.5088812710570987"><ele>84.0</ele><time>2026-04-24T15:46:49.998Z</time></trkpt><trkpt lat="49.13226570020618" lon="2.508764870190127"><ele>84.0</ele><time>2026-04-24T15:46:52.998Z</time></trkpt><trkpt lat="49.13231667041607" lon="2.5086850288252815"><ele>84.0</ele><time>2026-04-24T15:46:56.998Z</time></trkpt><trkpt lat="49.13270471590977" lon="2.5086698116316866"><ele>83.66666666666667</ele><time>2026-04-24T15:47:24.997Z</time></trkpt><trkpt lat="49.13278090797352" lon="2.508750054896726"><ele>83.33333333333333</ele><time>2026-04-24T15:47:27.997Z</time></trkpt><trkpt lat="49.132846928877335" lon="2.5087813016504352"><ele>83.0</ele><time>2026-04-24T15:47:30Z</time></trkpt><trkpt lat="49.13290850044136" lon="2.508843260574833"><ele>82.66666666666666</ele><time>2026-04-24T15:47:32Z</time></trkpt><trkpt lat="49.13298119803022" lon="2.508904389078381"><ele>82.33333333333333</ele><time>2026-04-24T15:47:34Z</time></trkpt><trkpt lat="49.13305103804348" lon="2.508978742928528"><ele>82.0</ele><time>2026-04-24T15:47:36Z</time></trkpt><trkpt lat="49.13312276420861" lon="2.5090623962644902"><ele>82.0</ele><time>2026-04-24T15:47:38Z</time></trkpt><trkpt lat="49.13320004854562" lon="2.509133118265777"><ele>82.0</ele><time>2026-04-24T15:47:40Z</time></trkpt><trkpt lat="49.13328910472109" lon="2.509154606885747"><ele>82.0</ele><time>2026-04-24T15:47:42Z</time></trkpt><trkpt lat="49.133346034308396" lon="2.5090053581290124"><ele>82.0</ele><time>2026-04-24T15:47:44Z</time></trkpt><trkpt lat="49.13339060356395" lon="2.508880954843699"><ele>82.0</ele><time>2026-04-24T15:47:46Z</time></trkpt><trkpt lat="49.1334339663649" lon="2.508756591804173"><ele>81.33333333333333</ele><time>2026-04-24T15:47:48Z</time></trkpt><trkpt lat="49.133491798876065" lon="2.5086367650509676"><ele>80.66666666666666</ele><time>2026-04-24T15:47:50Z</time></trkpt><trkpt lat="49.1335463183637" lon="2.5085055371492917"><ele>80.0</ele><time>2026-04-24T15:47:52Z</time></trkpt><trkpt lat="49.13358775806389" lon="2.5083839622934216"><ele>79.33333333333333</ele><time>2026-04-24T15:47:54Z</time></trkpt><trkpt lat="49.13362977356982" lon="2.508284976689003"><ele>78.66666666666667</ele><time>2026-04-24T15:47:56Z</time></trkpt><trkpt lat="49.133663269929045" lon="2.5082006309698675"><ele>78.0</ele><time>2026-04-24T15:47:58Z</time></trkpt><trkpt lat="49.13371180009229" lon="2.508084452979602"><ele>78.0</ele><time>2026-04-24T15:48:01Z</time></trkpt><trkpt lat="49.13366611538014" lon="2.5079877192347193"><ele>78.0</ele><time>2026-04-24T15:54:37.999Z</time></trkpt><trkpt lat="49.13361004674372" lon="2.507933176695336"><ele>78.0</ele><time>2026-04-24T15:57:20.998Z</time></trkpt><trkpt lat="49.13353282804183" lon="2.5079806509413056"><ele>78.0</ele><time>2026-04-24T16:05:27.998Z</time></trkpt><trkpt lat="49.13362260860703" lon="2.5079330342134387"><ele>78.0</ele><time>2026-04-24T16:05:32.998Z</time></trkpt><trkpt lat="49.13369490823663" lon="2.507903685757684"><ele>78.0</ele><time>2026-04-24T16:05:59.997Z</time></trkpt><trkpt lat="49.1336313742629" lon="2.507911115138558"><ele>78.0</ele><time>2026-04-24T16:06:08.997Z</time></trkpt><trkpt lat="49.13355830289264" lon="2.5079351148324913"><ele>78.0</ele><time>2026-04-24T16:06:20.996Z</time></trkpt><trkpt lat="49.133622235473055" lon="2.5079225612493494"><ele>78.0</ele><time>2026-04-24T16:06:33Z</time></trkpt><trkpt lat="49.133554825850304" lon="2.507934937929651"><ele>78.0</ele><time>2026-04-24T16:06:50.999Z</time></trkpt><trkpt lat="49.13361899160827" lon="2.5079512065569323"><ele>78.0</ele><time>2026-04-24T17:11:51.999Z</time></trkpt><trkpt lat="49.133553308388734" lon="2.5079280158747435"><ele>78.0</ele><time>2026-04-24T17:11:58.999Z</time></trkpt><trkpt lat="49.13361764953491" lon="2.5079093637507945"><ele>78.0</ele><time>2026-04-24T17:12:26.998Z</time></trkpt><trkpt lat="49.13355856600188" lon="2.5079596040712"><ele>78.0</ele><time>2026-04-24T17:18:26.999Z</time></trkpt></trkseg></trk></gpx>